<?xml version="1.0" encoding="UTF-8" standalone="no" ?>
<gpx xmlns="http://www.topografix.com/GPX/1/1" xmlns:xsi="http://www.w3.org/2001/XMLSchema-instance" xsi:schemaLocation="http://www.topografix.com/GPX/1/1 http://www.topografix.com/GPX/1/1/gpx.xsd" version="1.1" creator="VisuGPX - https://www.visugpx.com">
  <metadata>
    <name>Sortie du 06 Septembre 2015</name>
    <desc><![CDATA[Sortie du 06 Septembre 2015]]></desc>
  </metadata>
  <trk>
    <name><![CDATA[Sortie du 06 Septembre 2015_1]]></name>
    <trkseg>
      <trkpt lat="49.15828" lon="1.78478">
        <ele>96</ele>
        <time>2015-09-06T06:23:16.000Z</time>
      </trkpt>
      <trkpt lat="49.15828" lon="1.78478">
        <ele>96</ele>
        <time>2015-09-06T06:23:21.000Z</time>
      </trkpt>
      <trkpt lat="49.15828" lon="1.78478">
        <ele>96</ele>
        <time>2015-09-06T06:23:33.000Z</time>
      </trkpt>
      <trkpt lat="49.15814" lon="1.7847">
        <ele>118</ele>
        <time>2015-09-06T06:24:33.000Z</time>
      </trkpt>
      <trkpt lat="49.15806" lon="1.78462">
        <ele>118</ele>
        <time>2015-09-06T06:24:35.000Z</time>
      </trkpt>
      <trkpt lat="49.15802" lon="1.78454">
        <ele>118</ele>
        <time>2015-09-06T06:24:37.000Z</time>
      </trkpt>
      <trkpt lat="49.15799" lon="1.78446">
        <ele>117</ele>
        <time>2015-09-06T06:24:39.000Z</time>
      </trkpt>
      <trkpt lat="49.15797" lon="1.78437">
        <ele>117</ele>
        <time>2015-09-06T06:24:41.000Z</time>
      </trkpt>
      <trkpt lat="49.15795" lon="1.78419">
        <ele>117</ele>
        <time>2015-09-06T06:24:43.000Z</time>
      </trkpt>
      <trkpt lat="49.15793" lon="1.7841">
        <ele>117</ele>
        <time>2015-09-06T06:24:45.000Z</time>
      </trkpt>
      <trkpt lat="49.15791" lon="1.784">
        <ele>117</ele>
        <time>2015-09-06T06:24:47.000Z</time>
      </trkpt>
      <trkpt lat="49.15789" lon="1.7839">
        <ele>117</ele>
        <time>2015-09-06T06:24:49.000Z</time>
      </trkpt>
      <trkpt lat="49.15788" lon="1.7838">
        <ele>117</ele>
        <time>2015-09-06T06:24:51.000Z</time>
      </trkpt>
      <trkpt lat="49.15786" lon="1.7837">
        <ele>117</ele>
        <time>2015-09-06T06:24:53.000Z</time>
      </trkpt>
      <trkpt lat="49.15786" lon="1.78357">
        <ele>118</ele>
        <time>2015-09-06T06:24:56.000Z</time>
      </trkpt>
      <trkpt lat="49.15791" lon="1.78346">
        <ele>117</ele>
        <time>2015-09-06T06:24:58.000Z</time>
      </trkpt>
      <trkpt lat="49.15798" lon="1.78338">
        <ele>117</ele>
        <time>2015-09-06T06:25:00.000Z</time>
      </trkpt>
      <trkpt lat="49.15805" lon="1.78336">
        <ele>118</ele>
        <time>2015-09-06T06:25:02.000Z</time>
      </trkpt>
      <trkpt lat="49.15812" lon="1.78335">
        <ele>119</ele>
        <time>2015-09-06T06:25:04.000Z</time>
      </trkpt>
      <trkpt lat="49.15819" lon="1.78333">
        <ele>120</ele>
        <time>2015-09-06T06:25:06.000Z</time>
      </trkpt>
      <trkpt lat="49.15826" lon="1.78332">
        <ele>120</ele>
        <time>2015-09-06T06:25:08.000Z</time>
      </trkpt>
      <trkpt lat="49.15833" lon="1.78331">
        <ele>121</ele>
        <time>2015-09-06T06:25:10.000Z</time>
      </trkpt>
      <trkpt lat="49.15839" lon="1.78333">
        <ele>122</ele>
        <time>2015-09-06T06:25:12.000Z</time>
      </trkpt>
      <trkpt lat="49.15846" lon="1.78335">
        <ele>122</ele>
        <time>2015-09-06T06:25:14.000Z</time>
      </trkpt>
      <trkpt lat="49.15854" lon="1.78333">
        <ele>122</ele>
        <time>2015-09-06T06:25:16.000Z</time>
      </trkpt>
      <trkpt lat="49.1586" lon="1.78328">
        <ele>123</ele>
        <time>2015-09-06T06:25:18.000Z</time>
      </trkpt>
      <trkpt lat="49.15864" lon="1.7832">
        <ele>124</ele>
        <time>2015-09-06T06:25:20.000Z</time>
      </trkpt>
      <trkpt lat="49.15865" lon="1.7831">
        <ele>125</ele>
        <time>2015-09-06T06:25:22.000Z</time>
      </trkpt>
      <trkpt lat="49.15864" lon="1.783">
        <ele>126</ele>
        <time>2015-09-06T06:25:24.000Z</time>
      </trkpt>
      <trkpt lat="49.1586" lon="1.78292">
        <ele>126</ele>
        <time>2015-09-06T06:25:26.000Z</time>
      </trkpt>
      <trkpt lat="49.15854" lon="1.78286">
        <ele>125</ele>
        <time>2015-09-06T06:25:28.000Z</time>
      </trkpt>
      <trkpt lat="49.15848" lon="1.7828">
        <ele>125</ele>
        <time>2015-09-06T06:25:30.000Z</time>
      </trkpt>
      <trkpt lat="49.15841" lon="1.78274">
        <ele>125</ele>
        <time>2015-09-06T06:25:32.000Z</time>
      </trkpt>
      <trkpt lat="49.15835" lon="1.78267">
        <ele>125</ele>
        <time>2015-09-06T06:25:34.000Z</time>
      </trkpt>
      <trkpt lat="49.15831" lon="1.78259">
        <ele>125</ele>
        <time>2015-09-06T06:25:36.000Z</time>
      </trkpt>
      <trkpt lat="49.15826" lon="1.78249">
        <ele>125</ele>
        <time>2015-09-06T06:25:38.000Z</time>
      </trkpt>
      <trkpt lat="49.15824" lon="1.78238">
        <ele>126</ele>
        <time>2015-09-06T06:25:40.000Z</time>
      </trkpt>
      <trkpt lat="49.15822" lon="1.78226">
        <ele>126</ele>
        <time>2015-09-06T06:25:42.000Z</time>
      </trkpt>
      <trkpt lat="49.1582" lon="1.78214">
        <ele>126</ele>
        <time>2015-09-06T06:25:44.000Z</time>
      </trkpt>
      <trkpt lat="49.15818" lon="1.78202">
        <ele>126</ele>
        <time>2015-09-06T06:25:46.000Z</time>
      </trkpt>
      <trkpt lat="49.15817" lon="1.7819">
        <ele>126</ele>
        <time>2015-09-06T06:25:48.000Z</time>
      </trkpt>
      <trkpt lat="49.15816" lon="1.78178">
        <ele>126</ele>
        <time>2015-09-06T06:25:50.000Z</time>
      </trkpt>
      <trkpt lat="49.15814" lon="1.78165">
        <ele>126</ele>
        <time>2015-09-06T06:25:52.000Z</time>
      </trkpt>
      <trkpt lat="49.15813" lon="1.78153">
        <ele>126</ele>
        <time>2015-09-06T06:25:54.000Z</time>
      </trkpt>
      <trkpt lat="49.15811" lon="1.78141">
        <ele>126</ele>
        <time>2015-09-06T06:25:56.000Z</time>
      </trkpt>
      <trkpt lat="49.1581" lon="1.78129">
        <ele>126</ele>
        <time>2015-09-06T06:25:58.000Z</time>
      </trkpt>
      <trkpt lat="49.15809" lon="1.78116">
        <ele>126</ele>
        <time>2015-09-06T06:26:00.000Z</time>
      </trkpt>
      <trkpt lat="49.15808" lon="1.78103">
        <ele>126</ele>
        <time>2015-09-06T06:26:02.000Z</time>
      </trkpt>
      <trkpt lat="49.15806" lon="1.7809">
        <ele>126</ele>
        <time>2015-09-06T06:26:04.000Z</time>
      </trkpt>
      <trkpt lat="49.15805" lon="1.78077">
        <ele>125</ele>
        <time>2015-09-06T06:26:06.000Z</time>
      </trkpt>
      <trkpt lat="49.15803" lon="1.78064">
        <ele>125</ele>
        <time>2015-09-06T06:26:08.000Z</time>
      </trkpt>
      <trkpt lat="49.15802" lon="1.78052">
        <ele>125</ele>
        <time>2015-09-06T06:26:10.000Z</time>
      </trkpt>
      <trkpt lat="49.158" lon="1.78039">
        <ele>126</ele>
        <time>2015-09-06T06:26:12.000Z</time>
      </trkpt>
      <trkpt lat="49.15799" lon="1.78026">
        <ele>126</ele>
        <time>2015-09-06T06:26:14.000Z</time>
      </trkpt>
      <trkpt lat="49.15798" lon="1.78013">
        <ele>126</ele>
        <time>2015-09-06T06:26:16.000Z</time>
      </trkpt>
      <trkpt lat="49.15796" lon="1.78">
        <ele>126</ele>
        <time>2015-09-06T06:26:18.000Z</time>
      </trkpt>
      <trkpt lat="49.15795" lon="1.77987">
        <ele>126</ele>
        <time>2015-09-06T06:26:20.000Z</time>
      </trkpt>
      <trkpt lat="49.15794" lon="1.77974">
        <ele>126</ele>
        <time>2015-09-06T06:26:22.000Z</time>
      </trkpt>
      <trkpt lat="49.15792" lon="1.77961">
        <ele>126</ele>
        <time>2015-09-06T06:26:24.000Z</time>
      </trkpt>
      <trkpt lat="49.15791" lon="1.77948">
        <ele>126</ele>
        <time>2015-09-06T06:26:26.000Z</time>
      </trkpt>
      <trkpt lat="49.15789" lon="1.77935">
        <ele>127</ele>
        <time>2015-09-06T06:26:28.000Z</time>
      </trkpt>
      <trkpt lat="49.15788" lon="1.77922">
        <ele>127</ele>
        <time>2015-09-06T06:26:30.000Z</time>
      </trkpt>
      <trkpt lat="49.15786" lon="1.77909">
        <ele>127</ele>
        <time>2015-09-06T06:26:32.000Z</time>
      </trkpt>
      <trkpt lat="49.15783" lon="1.77896">
        <ele>127</ele>
        <time>2015-09-06T06:26:34.000Z</time>
      </trkpt>
      <trkpt lat="49.15781" lon="1.77884">
        <ele>127</ele>
        <time>2015-09-06T06:26:36.000Z</time>
      </trkpt>
      <trkpt lat="49.15778" lon="1.77871">
        <ele>128</ele>
        <time>2015-09-06T06:26:38.000Z</time>
      </trkpt>
      <trkpt lat="49.15775" lon="1.77859">
        <ele>128</ele>
        <time>2015-09-06T06:26:40.000Z</time>
      </trkpt>
      <trkpt lat="49.15771" lon="1.77846">
        <ele>128</ele>
        <time>2015-09-06T06:26:42.000Z</time>
      </trkpt>
      <trkpt lat="49.15767" lon="1.77834">
        <ele>128</ele>
        <time>2015-09-06T06:26:44.000Z</time>
      </trkpt>
      <trkpt lat="49.15762" lon="1.77823">
        <ele>128</ele>
        <time>2015-09-06T06:26:46.000Z</time>
      </trkpt>
      <trkpt lat="49.15757" lon="1.77811">
        <ele>128</ele>
        <time>2015-09-06T06:26:48.000Z</time>
      </trkpt>
      <trkpt lat="49.15752" lon="1.778">
        <ele>128</ele>
        <time>2015-09-06T06:26:50.000Z</time>
      </trkpt>
      <trkpt lat="49.15746" lon="1.77789">
        <ele>128</ele>
        <time>2015-09-06T06:26:52.000Z</time>
      </trkpt>
      <trkpt lat="49.15739" lon="1.77779">
        <ele>128</ele>
        <time>2015-09-06T06:26:54.000Z</time>
      </trkpt>
      <trkpt lat="49.15733" lon="1.7777">
        <ele>128</ele>
        <time>2015-09-06T06:26:56.000Z</time>
      </trkpt>
      <trkpt lat="49.15726" lon="1.7776">
        <ele>128</ele>
        <time>2015-09-06T06:26:58.000Z</time>
      </trkpt>
      <trkpt lat="49.1572" lon="1.7775">
        <ele>129</ele>
        <time>2015-09-06T06:27:00.000Z</time>
      </trkpt>
      <trkpt lat="49.15714" lon="1.7774">
        <ele>129</ele>
        <time>2015-09-06T06:27:02.000Z</time>
      </trkpt>
      <trkpt lat="49.15709" lon="1.77729">
        <ele>129</ele>
        <time>2015-09-06T06:27:04.000Z</time>
      </trkpt>
      <trkpt lat="49.15704" lon="1.77717">
        <ele>129</ele>
        <time>2015-09-06T06:27:06.000Z</time>
      </trkpt>
      <trkpt lat="49.15701" lon="1.77704">
        <ele>129</ele>
        <time>2015-09-06T06:27:08.000Z</time>
      </trkpt>
      <trkpt lat="49.15699" lon="1.77691">
        <ele>129</ele>
        <time>2015-09-06T06:27:10.000Z</time>
      </trkpt>
      <trkpt lat="49.15698" lon="1.77678">
        <ele>129</ele>
        <time>2015-09-06T06:27:12.000Z</time>
      </trkpt>
      <trkpt lat="49.15698" lon="1.77664">
        <ele>129</ele>
        <time>2015-09-06T06:27:14.000Z</time>
      </trkpt>
      <trkpt lat="49.157" lon="1.77651">
        <ele>130</ele>
        <time>2015-09-06T06:27:16.000Z</time>
      </trkpt>
      <trkpt lat="49.15703" lon="1.77638">
        <ele>130</ele>
        <time>2015-09-06T06:27:18.000Z</time>
      </trkpt>
      <trkpt lat="49.15707" lon="1.77626">
        <ele>131</ele>
        <time>2015-09-06T06:27:20.000Z</time>
      </trkpt>
      <trkpt lat="49.15711" lon="1.77613">
        <ele>131</ele>
        <time>2015-09-06T06:27:22.000Z</time>
      </trkpt>
      <trkpt lat="49.15715" lon="1.77601">
        <ele>131</ele>
        <time>2015-09-06T06:27:24.000Z</time>
      </trkpt>
      <trkpt lat="49.15719" lon="1.77588">
        <ele>131</ele>
        <time>2015-09-06T06:27:26.000Z</time>
      </trkpt>
      <trkpt lat="49.15723" lon="1.77575">
        <ele>131</ele>
        <time>2015-09-06T06:27:28.000Z</time>
      </trkpt>
      <trkpt lat="49.15727" lon="1.77562">
        <ele>132</ele>
        <time>2015-09-06T06:27:30.000Z</time>
      </trkpt>
      <trkpt lat="49.15731" lon="1.77548">
        <ele>132</ele>
        <time>2015-09-06T06:27:32.000Z</time>
      </trkpt>
      <trkpt lat="49.15734" lon="1.77534">
        <ele>132</ele>
        <time>2015-09-06T06:27:34.000Z</time>
      </trkpt>
      <trkpt lat="49.15737" lon="1.77519">
        <ele>132</ele>
        <time>2015-09-06T06:27:36.000Z</time>
      </trkpt>
      <trkpt lat="49.1574" lon="1.77505">
        <ele>132</ele>
        <time>2015-09-06T06:27:38.000Z</time>
      </trkpt>
      <trkpt lat="49.15742" lon="1.77491">
        <ele>132</ele>
        <time>2015-09-06T06:27:40.000Z</time>
      </trkpt>
      <trkpt lat="49.15745" lon="1.77477">
        <ele>132</ele>
        <time>2015-09-06T06:27:42.000Z</time>
      </trkpt>
      <trkpt lat="49.15747" lon="1.77463">
        <ele>132</ele>
        <time>2015-09-06T06:27:44.000Z</time>
      </trkpt>
      <trkpt lat="49.1575" lon="1.77448">
        <ele>132</ele>
        <time>2015-09-06T06:27:45.000Z</time>
      </trkpt>
      <trkpt lat="49.15753" lon="1.77434">
        <ele>132</ele>
        <time>2015-09-06T06:27:48.000Z</time>
      </trkpt>
      <trkpt lat="49.15756" lon="1.7742">
        <ele>132</ele>
        <time>2015-09-06T06:27:50.000Z</time>
      </trkpt>
      <trkpt lat="49.1576" lon="1.77407">
        <ele>132</ele>
        <time>2015-09-06T06:27:52.000Z</time>
      </trkpt>
      <trkpt lat="49.15763" lon="1.77394">
        <ele>132</ele>
        <time>2015-09-06T06:27:54.000Z</time>
      </trkpt>
      <trkpt lat="49.15767" lon="1.7738">
        <ele>132</ele>
        <time>2015-09-06T06:27:56.000Z</time>
      </trkpt>
      <trkpt lat="49.15771" lon="1.77367">
        <ele>132</ele>
        <time>2015-09-06T06:27:58.000Z</time>
      </trkpt>
      <trkpt lat="49.15775" lon="1.77354">
        <ele>132</ele>
        <time>2015-09-06T06:28:00.000Z</time>
      </trkpt>
      <trkpt lat="49.15778" lon="1.77341">
        <ele>132</ele>
        <time>2015-09-06T06:28:02.000Z</time>
      </trkpt>
      <trkpt lat="49.15782" lon="1.77328">
        <ele>133</ele>
        <time>2015-09-06T06:28:04.000Z</time>
      </trkpt>
      <trkpt lat="49.15786" lon="1.77315">
        <ele>133</ele>
        <time>2015-09-06T06:28:06.000Z</time>
      </trkpt>
      <trkpt lat="49.15788" lon="1.77302">
        <ele>133</ele>
        <time>2015-09-06T06:28:08.000Z</time>
      </trkpt>
      <trkpt lat="49.15791" lon="1.77288">
        <ele>133</ele>
        <time>2015-09-06T06:28:10.000Z</time>
      </trkpt>
      <trkpt lat="49.15793" lon="1.77275">
        <ele>133</ele>
        <time>2015-09-06T06:28:12.000Z</time>
      </trkpt>
      <trkpt lat="49.15796" lon="1.77261">
        <ele>133</ele>
        <time>2015-09-06T06:28:14.000Z</time>
      </trkpt>
      <trkpt lat="49.15796" lon="1.77249">
        <ele>134</ele>
        <time>2015-09-06T06:28:16.000Z</time>
      </trkpt>
      <trkpt lat="49.15798" lon="1.77236">
        <ele>134</ele>
        <time>2015-09-06T06:28:18.000Z</time>
      </trkpt>
      <trkpt lat="49.15798" lon="1.77223">
        <ele>135</ele>
        <time>2015-09-06T06:28:20.000Z</time>
      </trkpt>
      <trkpt lat="49.15799" lon="1.7721">
        <ele>135</ele>
        <time>2015-09-06T06:28:22.000Z</time>
      </trkpt>
      <trkpt lat="49.15799" lon="1.77199">
        <ele>136</ele>
        <time>2015-09-06T06:28:24.000Z</time>
      </trkpt>
      <trkpt lat="49.15798" lon="1.77187">
        <ele>136</ele>
        <time>2015-09-06T06:28:26.000Z</time>
      </trkpt>
      <trkpt lat="49.15797" lon="1.77175">
        <ele>136</ele>
        <time>2015-09-06T06:28:28.000Z</time>
      </trkpt>
      <trkpt lat="49.15796" lon="1.77163">
        <ele>137</ele>
        <time>2015-09-06T06:28:30.000Z</time>
      </trkpt>
      <trkpt lat="49.15795" lon="1.7715">
        <ele>137</ele>
        <time>2015-09-06T06:28:32.000Z</time>
      </trkpt>
      <trkpt lat="49.15793" lon="1.77138">
        <ele>137</ele>
        <time>2015-09-06T06:28:34.000Z</time>
      </trkpt>
      <trkpt lat="49.15791" lon="1.77126">
        <ele>137</ele>
        <time>2015-09-06T06:28:36.000Z</time>
      </trkpt>
      <trkpt lat="49.15789" lon="1.77114">
        <ele>137</ele>
        <time>2015-09-06T06:28:38.000Z</time>
      </trkpt>
      <trkpt lat="49.15787" lon="1.77102">
        <ele>137</ele>
        <time>2015-09-06T06:28:40.000Z</time>
      </trkpt>
      <trkpt lat="49.15786" lon="1.7709">
        <ele>137</ele>
        <time>2015-09-06T06:28:42.000Z</time>
      </trkpt>
      <trkpt lat="49.15783" lon="1.77077">
        <ele>137</ele>
        <time>2015-09-06T06:28:44.000Z</time>
      </trkpt>
      <trkpt lat="49.15781" lon="1.77064">
        <ele>137</ele>
        <time>2015-09-06T06:28:46.000Z</time>
      </trkpt>
      <trkpt lat="49.15779" lon="1.7705">
        <ele>137</ele>
        <time>2015-09-06T06:28:48.000Z</time>
      </trkpt>
      <trkpt lat="49.15776" lon="1.77036">
        <ele>137</ele>
        <time>2015-09-06T06:28:50.000Z</time>
      </trkpt>
      <trkpt lat="49.15773" lon="1.77021">
        <ele>137</ele>
        <time>2015-09-06T06:28:52.000Z</time>
      </trkpt>
      <trkpt lat="49.15769" lon="1.77005">
        <ele>137</ele>
        <time>2015-09-06T06:28:54.000Z</time>
      </trkpt>
      <trkpt lat="49.15765" lon="1.76989">
        <ele>136</ele>
        <time>2015-09-06T06:28:56.000Z</time>
      </trkpt>
      <trkpt lat="49.1576" lon="1.76972">
        <ele>135</ele>
        <time>2015-09-06T06:28:58.000Z</time>
      </trkpt>
      <trkpt lat="49.15754" lon="1.76954">
        <ele>135</ele>
        <time>2015-09-06T06:29:00.000Z</time>
      </trkpt>
      <trkpt lat="49.15747" lon="1.76937">
        <ele>135</ele>
        <time>2015-09-06T06:29:02.000Z</time>
      </trkpt>
      <trkpt lat="49.15741" lon="1.76921">
        <ele>135</ele>
        <time>2015-09-06T06:29:04.000Z</time>
      </trkpt>
      <trkpt lat="49.15736" lon="1.76906">
        <ele>135</ele>
        <time>2015-09-06T06:29:06.000Z</time>
      </trkpt>
      <trkpt lat="49.15732" lon="1.76891">
        <ele>135</ele>
        <time>2015-09-06T06:29:08.000Z</time>
      </trkpt>
      <trkpt lat="49.15728" lon="1.76877">
        <ele>135</ele>
        <time>2015-09-06T06:29:10.000Z</time>
      </trkpt>
      <trkpt lat="49.15725" lon="1.76863">
        <ele>136</ele>
        <time>2015-09-06T06:29:12.000Z</time>
      </trkpt>
      <trkpt lat="49.15722" lon="1.76849">
        <ele>136</ele>
        <time>2015-09-06T06:29:14.000Z</time>
      </trkpt>
      <trkpt lat="49.15719" lon="1.76835">
        <ele>136</ele>
        <time>2015-09-06T06:29:16.000Z</time>
      </trkpt>
      <trkpt lat="49.15716" lon="1.76821">
        <ele>136</ele>
        <time>2015-09-06T06:29:18.000Z</time>
      </trkpt>
      <trkpt lat="49.15714" lon="1.76808">
        <ele>136</ele>
        <time>2015-09-06T06:29:20.000Z</time>
      </trkpt>
      <trkpt lat="49.15711" lon="1.76795">
        <ele>137</ele>
        <time>2015-09-06T06:29:22.000Z</time>
      </trkpt>
      <trkpt lat="49.15709" lon="1.76782">
        <ele>137</ele>
        <time>2015-09-06T06:29:24.000Z</time>
      </trkpt>
      <trkpt lat="49.15706" lon="1.76769">
        <ele>137</ele>
        <time>2015-09-06T06:29:26.000Z</time>
      </trkpt>
      <trkpt lat="49.15704" lon="1.76756">
        <ele>137</ele>
        <time>2015-09-06T06:29:28.000Z</time>
      </trkpt>
      <trkpt lat="49.15701" lon="1.76743">
        <ele>138</ele>
        <time>2015-09-06T06:29:30.000Z</time>
      </trkpt>
      <trkpt lat="49.15698" lon="1.7673">
        <ele>138</ele>
        <time>2015-09-06T06:29:32.000Z</time>
      </trkpt>
      <trkpt lat="49.15695" lon="1.76717">
        <ele>138</ele>
        <time>2015-09-06T06:29:34.000Z</time>
      </trkpt>
      <trkpt lat="49.15692" lon="1.76704">
        <ele>138</ele>
        <time>2015-09-06T06:29:36.000Z</time>
      </trkpt>
      <trkpt lat="49.15689" lon="1.76691">
        <ele>138</ele>
        <time>2015-09-06T06:29:38.000Z</time>
      </trkpt>
      <trkpt lat="49.15686" lon="1.76679">
        <ele>139</ele>
        <time>2015-09-06T06:29:40.000Z</time>
      </trkpt>
      <trkpt lat="49.15683" lon="1.76667">
        <ele>139</ele>
        <time>2015-09-06T06:29:42.000Z</time>
      </trkpt>
      <trkpt lat="49.1568" lon="1.76654">
        <ele>139</ele>
        <time>2015-09-06T06:29:44.000Z</time>
      </trkpt>
      <trkpt lat="49.15676" lon="1.76641">
        <ele>139</ele>
        <time>2015-09-06T06:29:46.000Z</time>
      </trkpt>
      <trkpt lat="49.15673" lon="1.76629">
        <ele>139</ele>
        <time>2015-09-06T06:29:48.000Z</time>
      </trkpt>
      <trkpt lat="49.1567" lon="1.76616">
        <ele>140</ele>
        <time>2015-09-06T06:29:50.000Z</time>
      </trkpt>
      <trkpt lat="49.15667" lon="1.76604">
        <ele>140</ele>
        <time>2015-09-06T06:29:52.000Z</time>
      </trkpt>
      <trkpt lat="49.15664" lon="1.76592">
        <ele>140</ele>
        <time>2015-09-06T06:29:54.000Z</time>
      </trkpt>
      <trkpt lat="49.1566" lon="1.7658">
        <ele>141</ele>
        <time>2015-09-06T06:29:56.000Z</time>
      </trkpt>
      <trkpt lat="49.15657" lon="1.76568">
        <ele>141</ele>
        <time>2015-09-06T06:29:58.000Z</time>
      </trkpt>
      <trkpt lat="49.15655" lon="1.76556">
        <ele>141</ele>
        <time>2015-09-06T06:30:00.000Z</time>
      </trkpt>
      <trkpt lat="49.15651" lon="1.76543">
        <ele>142</ele>
        <time>2015-09-06T06:30:02.000Z</time>
      </trkpt>
      <trkpt lat="49.15648" lon="1.76531">
        <ele>142</ele>
        <time>2015-09-06T06:30:04.000Z</time>
      </trkpt>
      <trkpt lat="49.15645" lon="1.76518">
        <ele>142</ele>
        <time>2015-09-06T06:30:06.000Z</time>
      </trkpt>
      <trkpt lat="49.15643" lon="1.76506">
        <ele>142</ele>
        <time>2015-09-06T06:30:08.000Z</time>
      </trkpt>
      <trkpt lat="49.1564" lon="1.76493">
        <ele>143</ele>
        <time>2015-09-06T06:30:10.000Z</time>
      </trkpt>
      <trkpt lat="49.15638" lon="1.76481">
        <ele>143</ele>
        <time>2015-09-06T06:30:12.000Z</time>
      </trkpt>
      <trkpt lat="49.15635" lon="1.76468">
        <ele>143</ele>
        <time>2015-09-06T06:30:14.000Z</time>
      </trkpt>
      <trkpt lat="49.15633" lon="1.76456">
        <ele>143</ele>
        <time>2015-09-06T06:30:16.000Z</time>
      </trkpt>
      <trkpt lat="49.15631" lon="1.76444">
        <ele>144</ele>
        <time>2015-09-06T06:30:18.000Z</time>
      </trkpt>
      <trkpt lat="49.1563" lon="1.76431">
        <ele>144</ele>
        <time>2015-09-06T06:30:20.000Z</time>
      </trkpt>
      <trkpt lat="49.15628" lon="1.76419">
        <ele>144</ele>
        <time>2015-09-06T06:30:22.000Z</time>
      </trkpt>
      <trkpt lat="49.15628" lon="1.76406">
        <ele>144</ele>
        <time>2015-09-06T06:30:24.000Z</time>
      </trkpt>
      <trkpt lat="49.15629" lon="1.76395">
        <ele>145</ele>
        <time>2015-09-06T06:30:26.000Z</time>
      </trkpt>
      <trkpt lat="49.15629" lon="1.76384">
        <ele>145</ele>
        <time>2015-09-06T06:30:28.000Z</time>
      </trkpt>
      <trkpt lat="49.15628" lon="1.76375">
        <ele>145</ele>
        <time>2015-09-06T06:30:30.000Z</time>
      </trkpt>
      <trkpt lat="49.15628" lon="1.76375">
        <ele>145</ele>
        <time>2015-09-06T06:30:32.000Z</time>
      </trkpt>
      <trkpt lat="49.15622" lon="1.76372">
        <ele>146</ele>
        <time>2015-09-06T06:30:34.000Z</time>
      </trkpt>
      <trkpt lat="49.15622" lon="1.76372">
        <ele>146</ele>
        <time>2015-09-06T06:30:36.000Z</time>
      </trkpt>
      <trkpt lat="49.15614" lon="1.7638">
        <ele>146</ele>
        <time>2015-09-06T06:30:38.000Z</time>
      </trkpt>
      <trkpt lat="49.15606" lon="1.76388">
        <ele>146</ele>
        <time>2015-09-06T06:30:42.000Z</time>
      </trkpt>
      <trkpt lat="49.15597" lon="1.76398">
        <ele>146</ele>
        <time>2015-09-06T06:30:46.000Z</time>
      </trkpt>
      <trkpt lat="49.15593" lon="1.76404">
        <ele>146</ele>
        <time>2015-09-06T06:30:48.000Z</time>
      </trkpt>
      <trkpt lat="49.15588" lon="1.7641">
        <ele>146</ele>
        <time>2015-09-06T06:30:50.000Z</time>
      </trkpt>
      <trkpt lat="49.15583" lon="1.76416">
        <ele>146</ele>
        <time>2015-09-06T06:30:52.000Z</time>
      </trkpt>
      <trkpt lat="49.15578" lon="1.76422">
        <ele>146</ele>
        <time>2015-09-06T06:30:54.000Z</time>
      </trkpt>
      <trkpt lat="49.15573" lon="1.76429">
        <ele>146</ele>
        <time>2015-09-06T06:30:56.000Z</time>
      </trkpt>
      <trkpt lat="49.15569" lon="1.76436">
        <ele>146</ele>
        <time>2015-09-06T06:30:58.000Z</time>
      </trkpt>
      <trkpt lat="49.15564" lon="1.76444">
        <ele>146</ele>
        <time>2015-09-06T06:31:00.000Z</time>
      </trkpt>
      <trkpt lat="49.1556" lon="1.76451">
        <ele>147</ele>
        <time>2015-09-06T06:31:02.000Z</time>
      </trkpt>
      <trkpt lat="49.15556" lon="1.76458">
        <ele>146</ele>
        <time>2015-09-06T06:31:04.000Z</time>
      </trkpt>
      <trkpt lat="49.15551" lon="1.76466">
        <ele>147</ele>
        <time>2015-09-06T06:31:06.000Z</time>
      </trkpt>
      <trkpt lat="49.15545" lon="1.76472">
        <ele>147</ele>
        <time>2015-09-06T06:31:08.000Z</time>
      </trkpt>
      <trkpt lat="49.15539" lon="1.76478">
        <ele>147</ele>
        <time>2015-09-06T06:31:10.000Z</time>
      </trkpt>
      <trkpt lat="49.15532" lon="1.76484">
        <ele>147</ele>
        <time>2015-09-06T06:31:12.000Z</time>
      </trkpt>
      <trkpt lat="49.15526" lon="1.76489">
        <ele>147</ele>
        <time>2015-09-06T06:31:14.000Z</time>
      </trkpt>
      <trkpt lat="49.1552" lon="1.76494">
        <ele>147</ele>
        <time>2015-09-06T06:31:16.000Z</time>
      </trkpt>
      <trkpt lat="49.15514" lon="1.76498">
        <ele>147</ele>
        <time>2015-09-06T06:31:18.000Z</time>
      </trkpt>
      <trkpt lat="49.15507" lon="1.76503">
        <ele>147</ele>
        <time>2015-09-06T06:31:20.000Z</time>
      </trkpt>
      <trkpt lat="49.15501" lon="1.76506">
        <ele>147</ele>
        <time>2015-09-06T06:31:22.000Z</time>
      </trkpt>
      <trkpt lat="49.15494" lon="1.7651">
        <ele>147</ele>
        <time>2015-09-06T06:31:24.000Z</time>
      </trkpt>
      <trkpt lat="49.15487" lon="1.76513">
        <ele>147</ele>
        <time>2015-09-06T06:31:26.000Z</time>
      </trkpt>
      <trkpt lat="49.1548" lon="1.76517">
        <ele>147</ele>
        <time>2015-09-06T06:31:28.000Z</time>
      </trkpt>
      <trkpt lat="49.15473" lon="1.76521">
        <ele>147</ele>
        <time>2015-09-06T06:31:30.000Z</time>
      </trkpt>
      <trkpt lat="49.15466" lon="1.76524">
        <ele>148</ele>
        <time>2015-09-06T06:31:32.000Z</time>
      </trkpt>
      <trkpt lat="49.15458" lon="1.76528">
        <ele>148</ele>
        <time>2015-09-06T06:31:34.000Z</time>
      </trkpt>
      <trkpt lat="49.15451" lon="1.76532">
        <ele>148</ele>
        <time>2015-09-06T06:31:36.000Z</time>
      </trkpt>
      <trkpt lat="49.15444" lon="1.76536">
        <ele>148</ele>
        <time>2015-09-06T06:31:38.000Z</time>
      </trkpt>
      <trkpt lat="49.15437" lon="1.76539">
        <ele>148</ele>
        <time>2015-09-06T06:31:40.000Z</time>
      </trkpt>
      <trkpt lat="49.1543" lon="1.76543">
        <ele>148</ele>
        <time>2015-09-06T06:31:42.000Z</time>
      </trkpt>
      <trkpt lat="49.15422" lon="1.76547">
        <ele>148</ele>
        <time>2015-09-06T06:31:44.000Z</time>
      </trkpt>
      <trkpt lat="49.15415" lon="1.76552">
        <ele>148</ele>
        <time>2015-09-06T06:31:46.000Z</time>
      </trkpt>
      <trkpt lat="49.15408" lon="1.76556">
        <ele>148</ele>
        <time>2015-09-06T06:31:48.000Z</time>
      </trkpt>
      <trkpt lat="49.15401" lon="1.76561">
        <ele>148</ele>
        <time>2015-09-06T06:31:50.000Z</time>
      </trkpt>
      <trkpt lat="49.15394" lon="1.76567">
        <ele>149</ele>
        <time>2015-09-06T06:31:52.000Z</time>
      </trkpt>
      <trkpt lat="49.15387" lon="1.76573">
        <ele>149</ele>
        <time>2015-09-06T06:31:54.000Z</time>
      </trkpt>
      <trkpt lat="49.1538" lon="1.76579">
        <ele>149</ele>
        <time>2015-09-06T06:31:56.000Z</time>
      </trkpt>
      <trkpt lat="49.15373" lon="1.76585">
        <ele>149</ele>
        <time>2015-09-06T06:31:58.000Z</time>
      </trkpt>
      <trkpt lat="49.15366" lon="1.76591">
        <ele>149</ele>
        <time>2015-09-06T06:32:00.000Z</time>
      </trkpt>
      <trkpt lat="49.15359" lon="1.76598">
        <ele>149</ele>
        <time>2015-09-06T06:32:02.000Z</time>
      </trkpt>
      <trkpt lat="49.15352" lon="1.76604">
        <ele>149</ele>
        <time>2015-09-06T06:32:04.000Z</time>
      </trkpt>
      <trkpt lat="49.15345" lon="1.76611">
        <ele>149</ele>
        <time>2015-09-06T06:32:06.000Z</time>
      </trkpt>
      <trkpt lat="49.15339" lon="1.76617">
        <ele>149</ele>
        <time>2015-09-06T06:32:08.000Z</time>
      </trkpt>
      <trkpt lat="49.15332" lon="1.76623">
        <ele>148</ele>
        <time>2015-09-06T06:32:10.000Z</time>
      </trkpt>
      <trkpt lat="49.15325" lon="1.76629">
        <ele>148</ele>
        <time>2015-09-06T06:32:12.000Z</time>
      </trkpt>
      <trkpt lat="49.15319" lon="1.76635">
        <ele>148</ele>
        <time>2015-09-06T06:32:14.000Z</time>
      </trkpt>
      <trkpt lat="49.15313" lon="1.76641">
        <ele>148</ele>
        <time>2015-09-06T06:32:16.000Z</time>
      </trkpt>
      <trkpt lat="49.15307" lon="1.76648">
        <ele>148</ele>
        <time>2015-09-06T06:32:18.000Z</time>
      </trkpt>
      <trkpt lat="49.153" lon="1.76654">
        <ele>148</ele>
        <time>2015-09-06T06:32:20.000Z</time>
      </trkpt>
      <trkpt lat="49.15294" lon="1.7666">
        <ele>147</ele>
        <time>2015-09-06T06:32:22.000Z</time>
      </trkpt>
      <trkpt lat="49.15288" lon="1.76667">
        <ele>147</ele>
        <time>2015-09-06T06:32:24.000Z</time>
      </trkpt>
      <trkpt lat="49.15281" lon="1.76673">
        <ele>147</ele>
        <time>2015-09-06T06:32:26.000Z</time>
      </trkpt>
      <trkpt lat="49.15275" lon="1.7668">
        <ele>147</ele>
        <time>2015-09-06T06:32:28.000Z</time>
      </trkpt>
      <trkpt lat="49.15269" lon="1.76686">
        <ele>147</ele>
        <time>2015-09-06T06:32:30.000Z</time>
      </trkpt>
      <trkpt lat="49.15263" lon="1.76692">
        <ele>147</ele>
        <time>2015-09-06T06:32:32.000Z</time>
      </trkpt>
      <trkpt lat="49.15257" lon="1.76698">
        <ele>147</ele>
        <time>2015-09-06T06:32:34.000Z</time>
      </trkpt>
      <trkpt lat="49.1525" lon="1.76705">
        <ele>146</ele>
        <time>2015-09-06T06:32:36.000Z</time>
      </trkpt>
      <trkpt lat="49.15244" lon="1.76712">
        <ele>146</ele>
        <time>2015-09-06T06:32:38.000Z</time>
      </trkpt>
      <trkpt lat="49.15238" lon="1.76718">
        <ele>146</ele>
        <time>2015-09-06T06:32:40.000Z</time>
      </trkpt>
      <trkpt lat="49.15232" lon="1.76724">
        <ele>146</ele>
        <time>2015-09-06T06:32:42.000Z</time>
      </trkpt>
      <trkpt lat="49.15226" lon="1.76731">
        <ele>145</ele>
        <time>2015-09-06T06:32:44.000Z</time>
      </trkpt>
      <trkpt lat="49.15221" lon="1.76737">
        <ele>145</ele>
        <time>2015-09-06T06:32:46.000Z</time>
      </trkpt>
      <trkpt lat="49.15215" lon="1.76742">
        <ele>145</ele>
        <time>2015-09-06T06:32:48.000Z</time>
      </trkpt>
      <trkpt lat="49.1521" lon="1.76748">
        <ele>144</ele>
        <time>2015-09-06T06:32:50.000Z</time>
      </trkpt>
      <trkpt lat="49.15205" lon="1.76753">
        <ele>144</ele>
        <time>2015-09-06T06:32:52.000Z</time>
      </trkpt>
      <trkpt lat="49.152" lon="1.76758">
        <ele>143</ele>
        <time>2015-09-06T06:32:54.000Z</time>
      </trkpt>
      <trkpt lat="49.15194" lon="1.76763">
        <ele>142</ele>
        <time>2015-09-06T06:32:56.000Z</time>
      </trkpt>
      <trkpt lat="49.15189" lon="1.76767">
        <ele>141</ele>
        <time>2015-09-06T06:32:58.000Z</time>
      </trkpt>
      <trkpt lat="49.15183" lon="1.76771">
        <ele>140</ele>
        <time>2015-09-06T06:33:00.000Z</time>
      </trkpt>
      <trkpt lat="49.15183" lon="1.76771">
        <ele>140</ele>
        <time>2015-09-06T06:33:02.000Z</time>
      </trkpt>
      <trkpt lat="49.15176" lon="1.76777">
        <ele>139</ele>
        <time>2015-09-06T06:33:04.000Z</time>
      </trkpt>
      <trkpt lat="49.15176" lon="1.76777">
        <ele>139</ele>
        <time>2015-09-06T06:33:06.000Z</time>
      </trkpt>
      <trkpt lat="49.15167" lon="1.76783">
        <ele>138</ele>
        <time>2015-09-06T06:33:08.000Z</time>
      </trkpt>
      <trkpt lat="49.15167" lon="1.76783">
        <ele>138</ele>
        <time>2015-09-06T06:33:10.000Z</time>
      </trkpt>
      <trkpt lat="49.1516" lon="1.7679">
        <ele>137</ele>
        <time>2015-09-06T06:33:12.000Z</time>
      </trkpt>
      <trkpt lat="49.15151" lon="1.76795">
        <ele>136</ele>
        <time>2015-09-06T06:33:16.000Z</time>
      </trkpt>
      <trkpt lat="49.1514" lon="1.76798">
        <ele>136</ele>
        <time>2015-09-06T06:33:20.000Z</time>
      </trkpt>
      <trkpt lat="49.15133" lon="1.76798">
        <ele>135</ele>
        <time>2015-09-06T06:33:22.000Z</time>
      </trkpt>
      <trkpt lat="49.15127" lon="1.76801">
        <ele>135</ele>
        <time>2015-09-06T06:33:24.000Z</time>
      </trkpt>
      <trkpt lat="49.1512" lon="1.76804">
        <ele>135</ele>
        <time>2015-09-06T06:33:26.000Z</time>
      </trkpt>
      <trkpt lat="49.15113" lon="1.76808">
        <ele>135</ele>
        <time>2015-09-06T06:33:28.000Z</time>
      </trkpt>
      <trkpt lat="49.15107" lon="1.76815">
        <ele>135</ele>
        <time>2015-09-06T06:33:32.000Z</time>
      </trkpt>
      <trkpt lat="49.151" lon="1.76821">
        <ele>135</ele>
        <time>2015-09-06T06:33:34.000Z</time>
      </trkpt>
      <trkpt lat="49.15094" lon="1.76827">
        <ele>134</ele>
        <time>2015-09-06T06:33:36.000Z</time>
      </trkpt>
      <trkpt lat="49.15089" lon="1.76833">
        <ele>133</ele>
        <time>2015-09-06T06:33:38.000Z</time>
      </trkpt>
      <trkpt lat="49.15089" lon="1.76833">
        <ele>133</ele>
        <time>2015-09-06T06:33:40.000Z</time>
      </trkpt>
      <trkpt lat="49.15081" lon="1.76843">
        <ele>129</ele>
        <time>2015-09-06T06:33:42.000Z</time>
      </trkpt>
      <trkpt lat="49.15076" lon="1.76848">
        <ele>128</ele>
        <time>2015-09-06T06:33:44.000Z</time>
      </trkpt>
      <trkpt lat="49.15076" lon="1.76848">
        <ele>128</ele>
        <time>2015-09-06T06:33:46.000Z</time>
      </trkpt>
      <trkpt lat="49.15067" lon="1.76856">
        <ele>123</ele>
        <time>2015-09-06T06:33:48.000Z</time>
      </trkpt>
      <trkpt lat="49.15062" lon="1.76861">
        <ele>122</ele>
        <time>2015-09-06T06:33:50.000Z</time>
      </trkpt>
      <trkpt lat="49.15057" lon="1.76866">
        <ele>120</ele>
        <time>2015-09-06T06:33:52.000Z</time>
      </trkpt>
      <trkpt lat="49.15052" lon="1.76871">
        <ele>119</ele>
        <time>2015-09-06T06:33:54.000Z</time>
      </trkpt>
      <trkpt lat="49.15052" lon="1.76871">
        <ele>119</ele>
        <time>2015-09-06T06:33:56.000Z</time>
      </trkpt>
      <trkpt lat="49.15046" lon="1.76879">
        <ele>117</ele>
        <time>2015-09-06T06:33:58.000Z</time>
      </trkpt>
      <trkpt lat="49.15046" lon="1.76879">
        <ele>117</ele>
        <time>2015-09-06T06:34:00.000Z</time>
      </trkpt>
      <trkpt lat="49.15046" lon="1.76879">
        <ele>117</ele>
        <time>2015-09-06T06:34:02.000Z</time>
      </trkpt>
      <trkpt lat="49.15046" lon="1.76879">
        <ele>117</ele>
        <time>2015-09-06T06:34:04.000Z</time>
      </trkpt>
      <trkpt lat="49.15037" lon="1.76875">
        <ele>112</ele>
        <time>2015-09-06T06:34:20.000Z</time>
      </trkpt>
      <trkpt lat="49.15034" lon="1.76863">
        <ele>111</ele>
        <time>2015-09-06T06:34:24.000Z</time>
      </trkpt>
      <trkpt lat="49.1503" lon="1.76851">
        <ele>111</ele>
        <time>2015-09-06T06:34:28.000Z</time>
      </trkpt>
      <trkpt lat="49.15025" lon="1.76839">
        <ele>111</ele>
        <time>2015-09-06T06:34:32.000Z</time>
      </trkpt>
      <trkpt lat="49.15025" lon="1.76839">
        <ele>111</ele>
        <time>2015-09-06T06:34:34.000Z</time>
      </trkpt>
      <trkpt lat="49.1502" lon="1.76827">
        <ele>110</ele>
        <time>2015-09-06T06:34:36.000Z</time>
      </trkpt>
      <trkpt lat="49.15014" lon="1.76815">
        <ele>110</ele>
        <time>2015-09-06T06:34:40.000Z</time>
      </trkpt>
      <trkpt lat="49.15008" lon="1.76803">
        <ele>110</ele>
        <time>2015-09-06T06:34:44.000Z</time>
      </trkpt>
      <trkpt lat="49.15" lon="1.76791">
        <ele>110</ele>
        <time>2015-09-06T06:34:48.000Z</time>
      </trkpt>
      <trkpt lat="49.14996" lon="1.76785">
        <ele>109</ele>
        <time>2015-09-06T06:34:50.000Z</time>
      </trkpt>
      <trkpt lat="49.14991" lon="1.76779">
        <ele>109</ele>
        <time>2015-09-06T06:34:52.000Z</time>
      </trkpt>
      <trkpt lat="49.14986" lon="1.76772">
        <ele>109</ele>
        <time>2015-09-06T06:34:54.000Z</time>
      </trkpt>
      <trkpt lat="49.14981" lon="1.76765">
        <ele>109</ele>
        <time>2015-09-06T06:34:56.000Z</time>
      </trkpt>
      <trkpt lat="49.14977" lon="1.76759">
        <ele>109</ele>
        <time>2015-09-06T06:34:58.000Z</time>
      </trkpt>
      <trkpt lat="49.14977" lon="1.76759">
        <ele>109</ele>
        <time>2015-09-06T06:34:59.000Z</time>
      </trkpt>
      <trkpt lat="49.1497" lon="1.76749">
        <ele>108</ele>
        <time>2015-09-06T06:35:01.000Z</time>
      </trkpt>
      <trkpt lat="49.1497" lon="1.76749">
        <ele>108</ele>
        <time>2015-09-06T06:35:04.000Z</time>
      </trkpt>
      <trkpt lat="49.14962" lon="1.76738">
        <ele>108</ele>
        <time>2015-09-06T06:35:05.000Z</time>
      </trkpt>
      <trkpt lat="49.14958" lon="1.76732">
        <ele>108</ele>
        <time>2015-09-06T06:35:09.000Z</time>
      </trkpt>
      <trkpt lat="49.14955" lon="1.76727">
        <ele>108</ele>
        <time>2015-09-06T06:35:11.000Z</time>
      </trkpt>
      <trkpt lat="49.14951" lon="1.76722">
        <ele>108</ele>
        <time>2015-09-06T06:35:14.000Z</time>
      </trkpt>
      <trkpt lat="49.14948" lon="1.76716">
        <ele>107</ele>
        <time>2015-09-06T06:35:15.000Z</time>
      </trkpt>
      <trkpt lat="49.14944" lon="1.76711">
        <ele>107</ele>
        <time>2015-09-06T06:35:17.000Z</time>
      </trkpt>
      <trkpt lat="49.14937" lon="1.76701">
        <ele>107</ele>
        <time>2015-09-06T06:35:20.000Z</time>
      </trkpt>
      <trkpt lat="49.1493" lon="1.76691">
        <ele>107</ele>
        <time>2015-09-06T06:35:24.000Z</time>
      </trkpt>
      <trkpt lat="49.1493" lon="1.76691">
        <ele>107</ele>
        <time>2015-09-06T06:35:25.000Z</time>
      </trkpt>
      <trkpt lat="49.14923" lon="1.76681">
        <ele>106</ele>
        <time>2015-09-06T06:35:27.000Z</time>
      </trkpt>
      <trkpt lat="49.14923" lon="1.76681">
        <ele>106</ele>
        <time>2015-09-06T06:35:29.000Z</time>
      </trkpt>
      <trkpt lat="49.14917" lon="1.7667">
        <ele>106</ele>
        <time>2015-09-06T06:35:31.000Z</time>
      </trkpt>
      <trkpt lat="49.14912" lon="1.7666">
        <ele>107</ele>
        <time>2015-09-06T06:35:35.000Z</time>
      </trkpt>
      <trkpt lat="49.14905" lon="1.76649">
        <ele>106</ele>
        <time>2015-09-06T06:35:39.000Z</time>
      </trkpt>
      <trkpt lat="49.14898" lon="1.76636">
        <ele>106</ele>
        <time>2015-09-06T06:35:44.000Z</time>
      </trkpt>
      <trkpt lat="49.14894" lon="1.7663">
        <ele>106</ele>
        <time>2015-09-06T06:35:45.000Z</time>
      </trkpt>
      <trkpt lat="49.1489" lon="1.76623">
        <ele>106</ele>
        <time>2015-09-06T06:35:48.000Z</time>
      </trkpt>
      <trkpt lat="49.14886" lon="1.76615">
        <ele>106</ele>
        <time>2015-09-06T06:35:50.000Z</time>
      </trkpt>
      <trkpt lat="49.14882" lon="1.76607">
        <ele>106</ele>
        <time>2015-09-06T06:35:51.000Z</time>
      </trkpt>
      <trkpt lat="49.14878" lon="1.766">
        <ele>107</ele>
        <time>2015-09-06T06:35:53.000Z</time>
      </trkpt>
      <trkpt lat="49.14874" lon="1.76591">
        <ele>107</ele>
        <time>2015-09-06T06:35:56.000Z</time>
      </trkpt>
      <trkpt lat="49.14871" lon="1.76584">
        <ele>107</ele>
        <time>2015-09-06T06:35:57.000Z</time>
      </trkpt>
      <trkpt lat="49.14868" lon="1.76576">
        <ele>107</ele>
        <time>2015-09-06T06:35:59.000Z</time>
      </trkpt>
      <trkpt lat="49.14868" lon="1.76576">
        <ele>107</ele>
        <time>2015-09-06T06:36:01.000Z</time>
      </trkpt>
      <trkpt lat="49.14862" lon="1.76562">
        <ele>107</ele>
        <time>2015-09-06T06:36:03.000Z</time>
      </trkpt>
      <trkpt lat="49.14862" lon="1.76562">
        <ele>107</ele>
        <time>2015-09-06T06:36:05.000Z</time>
      </trkpt>
      <trkpt lat="49.14853" lon="1.76538">
        <ele>108</ele>
        <time>2015-09-06T06:36:10.000Z</time>
      </trkpt>
      <trkpt lat="49.14847" lon="1.76523">
        <ele>109</ele>
        <time>2015-09-06T06:36:15.000Z</time>
      </trkpt>
      <trkpt lat="49.14844" lon="1.76515">
        <ele>109</ele>
        <time>2015-09-06T06:36:16.000Z</time>
      </trkpt>
      <trkpt lat="49.14841" lon="1.76506">
        <ele>109</ele>
        <time>2015-09-06T06:36:18.000Z</time>
      </trkpt>
      <trkpt lat="49.14838" lon="1.76497">
        <ele>109</ele>
        <time>2015-09-06T06:36:20.000Z</time>
      </trkpt>
      <trkpt lat="49.14834" lon="1.76488">
        <ele>109</ele>
        <time>2015-09-06T06:36:22.000Z</time>
      </trkpt>
      <trkpt lat="49.14831" lon="1.76479">
        <ele>109</ele>
        <time>2015-09-06T06:36:24.000Z</time>
      </trkpt>
      <trkpt lat="49.14827" lon="1.7647">
        <ele>109</ele>
        <time>2015-09-06T06:36:26.000Z</time>
      </trkpt>
      <trkpt lat="49.14824" lon="1.76461">
        <ele>109</ele>
        <time>2015-09-06T06:36:28.000Z</time>
      </trkpt>
      <trkpt lat="49.14822" lon="1.76451">
        <ele>109</ele>
        <time>2015-09-06T06:36:30.000Z</time>
      </trkpt>
      <trkpt lat="49.14819" lon="1.76442">
        <ele>109</ele>
        <time>2015-09-06T06:36:32.000Z</time>
      </trkpt>
      <trkpt lat="49.14817" lon="1.76432">
        <ele>109</ele>
        <time>2015-09-06T06:36:34.000Z</time>
      </trkpt>
      <trkpt lat="49.14815" lon="1.76422">
        <ele>109</ele>
        <time>2015-09-06T06:36:36.000Z</time>
      </trkpt>
      <trkpt lat="49.14813" lon="1.76412">
        <ele>109</ele>
        <time>2015-09-06T06:36:38.000Z</time>
      </trkpt>
      <trkpt lat="49.14811" lon="1.76401">
        <ele>109</ele>
        <time>2015-09-06T06:36:40.000Z</time>
      </trkpt>
      <trkpt lat="49.14809" lon="1.76391">
        <ele>110</ele>
        <time>2015-09-06T06:36:42.000Z</time>
      </trkpt>
      <trkpt lat="49.14808" lon="1.76382">
        <ele>110</ele>
        <time>2015-09-06T06:36:44.000Z</time>
      </trkpt>
      <trkpt lat="49.14806" lon="1.76373">
        <ele>110</ele>
        <time>2015-09-06T06:36:46.000Z</time>
      </trkpt>
      <trkpt lat="49.14805" lon="1.76364">
        <ele>110</ele>
        <time>2015-09-06T06:36:48.000Z</time>
      </trkpt>
      <trkpt lat="49.14803" lon="1.76355">
        <ele>110</ele>
        <time>2015-09-06T06:36:50.000Z</time>
      </trkpt>
      <trkpt lat="49.14803" lon="1.76355">
        <ele>110</ele>
        <time>2015-09-06T06:36:52.000Z</time>
      </trkpt>
      <trkpt lat="49.14801" lon="1.7634">
        <ele>111</ele>
        <time>2015-09-06T06:36:54.000Z</time>
      </trkpt>
      <trkpt lat="49.14801" lon="1.7634">
        <ele>111</ele>
        <time>2015-09-06T06:36:56.000Z</time>
      </trkpt>
      <trkpt lat="49.14798" lon="1.76324">
        <ele>111</ele>
        <time>2015-09-06T06:36:58.000Z</time>
      </trkpt>
      <trkpt lat="49.14796" lon="1.76315">
        <ele>111</ele>
        <time>2015-09-06T06:37:00.000Z</time>
      </trkpt>
      <trkpt lat="49.14794" lon="1.76306">
        <ele>111</ele>
        <time>2015-09-06T06:37:02.000Z</time>
      </trkpt>
      <trkpt lat="49.14792" lon="1.76297">
        <ele>111</ele>
        <time>2015-09-06T06:37:04.000Z</time>
      </trkpt>
      <trkpt lat="49.1479" lon="1.76289">
        <ele>111</ele>
        <time>2015-09-06T06:37:06.000Z</time>
      </trkpt>
      <trkpt lat="49.1479" lon="1.76289">
        <ele>111</ele>
        <time>2015-09-06T06:37:08.000Z</time>
      </trkpt>
      <trkpt lat="49.14787" lon="1.76274">
        <ele>111</ele>
        <time>2015-09-06T06:37:10.000Z</time>
      </trkpt>
      <trkpt lat="49.14784" lon="1.76265">
        <ele>111</ele>
        <time>2015-09-06T06:37:12.000Z</time>
      </trkpt>
      <trkpt lat="49.14782" lon="1.76256">
        <ele>111</ele>
        <time>2015-09-06T06:37:14.000Z</time>
      </trkpt>
      <trkpt lat="49.1478" lon="1.76248">
        <ele>111</ele>
        <time>2015-09-06T06:37:16.000Z</time>
      </trkpt>
      <trkpt lat="49.14778" lon="1.76239">
        <ele>111</ele>
        <time>2015-09-06T06:37:18.000Z</time>
      </trkpt>
      <trkpt lat="49.14775" lon="1.76231">
        <ele>111</ele>
        <time>2015-09-06T06:37:20.000Z</time>
      </trkpt>
      <trkpt lat="49.14775" lon="1.76231">
        <ele>111</ele>
        <time>2015-09-06T06:37:22.000Z</time>
      </trkpt>
      <trkpt lat="49.14772" lon="1.76214">
        <ele>111</ele>
        <time>2015-09-06T06:37:24.000Z</time>
      </trkpt>
      <trkpt lat="49.14772" lon="1.76214">
        <ele>111</ele>
        <time>2015-09-06T06:37:26.000Z</time>
      </trkpt>
      <trkpt lat="49.14767" lon="1.76199">
        <ele>111</ele>
        <time>2015-09-06T06:37:28.000Z</time>
      </trkpt>
      <trkpt lat="49.14767" lon="1.76199">
        <ele>111</ele>
        <time>2015-09-06T06:37:30.000Z</time>
      </trkpt>
      <trkpt lat="49.14764" lon="1.76184">
        <ele>111</ele>
        <time>2015-09-06T06:37:32.000Z</time>
      </trkpt>
      <trkpt lat="49.14761" lon="1.76175">
        <ele>111</ele>
        <time>2015-09-06T06:37:34.000Z</time>
      </trkpt>
      <trkpt lat="49.14759" lon="1.76167">
        <ele>111</ele>
        <time>2015-09-06T06:37:36.000Z</time>
      </trkpt>
      <trkpt lat="49.14757" lon="1.76158">
        <ele>111</ele>
        <time>2015-09-06T06:37:38.000Z</time>
      </trkpt>
      <trkpt lat="49.14757" lon="1.76158">
        <ele>111</ele>
        <time>2015-09-06T06:37:40.000Z</time>
      </trkpt>
      <trkpt lat="49.14752" lon="1.76143">
        <ele>112</ele>
        <time>2015-09-06T06:37:42.000Z</time>
      </trkpt>
      <trkpt lat="49.14752" lon="1.76143">
        <ele>112</ele>
        <time>2015-09-06T06:37:44.000Z</time>
      </trkpt>
      <trkpt lat="49.14748" lon="1.76128">
        <ele>112</ele>
        <time>2015-09-06T06:37:46.000Z</time>
      </trkpt>
      <trkpt lat="49.14748" lon="1.76128">
        <ele>112</ele>
        <time>2015-09-06T06:37:48.000Z</time>
      </trkpt>
      <trkpt lat="49.14744" lon="1.76114">
        <ele>112</ele>
        <time>2015-09-06T06:37:50.000Z</time>
      </trkpt>
      <trkpt lat="49.14744" lon="1.76114">
        <ele>112</ele>
        <time>2015-09-06T06:37:52.000Z</time>
      </trkpt>
      <trkpt lat="49.14739" lon="1.76099">
        <ele>112</ele>
        <time>2015-09-06T06:37:54.000Z</time>
      </trkpt>
      <trkpt lat="49.14737" lon="1.76091">
        <ele>112</ele>
        <time>2015-09-06T06:37:56.000Z</time>
      </trkpt>
      <trkpt lat="49.14734" lon="1.76081">
        <ele>112</ele>
        <time>2015-09-06T06:37:58.000Z</time>
      </trkpt>
      <trkpt lat="49.1473" lon="1.76073">
        <ele>112</ele>
        <time>2015-09-06T06:38:00.000Z</time>
      </trkpt>
      <trkpt lat="49.14728" lon="1.76064">
        <ele>112</ele>
        <time>2015-09-06T06:38:02.000Z</time>
      </trkpt>
      <trkpt lat="49.14728" lon="1.76064">
        <ele>112</ele>
        <time>2015-09-06T06:38:04.000Z</time>
      </trkpt>
      <trkpt lat="49.14722" lon="1.76049">
        <ele>112</ele>
        <time>2015-09-06T06:38:06.000Z</time>
      </trkpt>
      <trkpt lat="49.14719" lon="1.7604">
        <ele>112</ele>
        <time>2015-09-06T06:38:08.000Z</time>
      </trkpt>
      <trkpt lat="49.14719" lon="1.7604">
        <ele>112</ele>
        <time>2015-09-06T06:38:10.000Z</time>
      </trkpt>
      <trkpt lat="49.14714" lon="1.76026">
        <ele>111</ele>
        <time>2015-09-06T06:38:12.000Z</time>
      </trkpt>
      <trkpt lat="49.14714" lon="1.76026">
        <ele>111</ele>
        <time>2015-09-06T06:38:14.000Z</time>
      </trkpt>
      <trkpt lat="49.14709" lon="1.76011">
        <ele>110</ele>
        <time>2015-09-06T06:38:16.000Z</time>
      </trkpt>
      <trkpt lat="49.14703" lon="1.75996">
        <ele>110</ele>
        <time>2015-09-06T06:38:20.000Z</time>
      </trkpt>
      <trkpt lat="49.147" lon="1.75988">
        <ele>110</ele>
        <time>2015-09-06T06:38:22.000Z</time>
      </trkpt>
      <trkpt lat="49.14697" lon="1.7598">
        <ele>110</ele>
        <time>2015-09-06T06:38:24.000Z</time>
      </trkpt>
      <trkpt lat="49.14697" lon="1.7598">
        <ele>110</ele>
        <time>2015-09-06T06:38:26.000Z</time>
      </trkpt>
      <trkpt lat="49.14693" lon="1.75964">
        <ele>110</ele>
        <time>2015-09-06T06:38:28.000Z</time>
      </trkpt>
      <trkpt lat="49.14691" lon="1.75955">
        <ele>110</ele>
        <time>2015-09-06T06:38:30.000Z</time>
      </trkpt>
      <trkpt lat="49.14688" lon="1.75946">
        <ele>110</ele>
        <time>2015-09-06T06:38:32.000Z</time>
      </trkpt>
      <trkpt lat="49.14686" lon="1.75937">
        <ele>110</ele>
        <time>2015-09-06T06:38:34.000Z</time>
      </trkpt>
      <trkpt lat="49.14684" lon="1.75927">
        <ele>110</ele>
        <time>2015-09-06T06:38:36.000Z</time>
      </trkpt>
      <trkpt lat="49.14681" lon="1.75918">
        <ele>110</ele>
        <time>2015-09-06T06:38:38.000Z</time>
      </trkpt>
      <trkpt lat="49.14679" lon="1.75909">
        <ele>110</ele>
        <time>2015-09-06T06:38:40.000Z</time>
      </trkpt>
      <trkpt lat="49.14679" lon="1.75909">
        <ele>110</ele>
        <time>2015-09-06T06:38:42.000Z</time>
      </trkpt>
      <trkpt lat="49.14676" lon="1.75895">
        <ele>109</ele>
        <time>2015-09-06T06:38:44.000Z</time>
      </trkpt>
      <trkpt lat="49.14676" lon="1.75895">
        <ele>109</ele>
        <time>2015-09-06T06:38:46.000Z</time>
      </trkpt>
      <trkpt lat="49.14675" lon="1.75883">
        <ele>109</ele>
        <time>2015-09-06T06:38:48.000Z</time>
      </trkpt>
      <trkpt lat="49.14675" lon="1.75883">
        <ele>109</ele>
        <time>2015-09-06T06:38:50.000Z</time>
      </trkpt>
      <trkpt lat="49.14671" lon="1.75869">
        <ele>109</ele>
        <time>2015-09-06T06:38:52.000Z</time>
      </trkpt>
      <trkpt lat="49.1467" lon="1.75861">
        <ele>110</ele>
        <time>2015-09-06T06:38:54.000Z</time>
      </trkpt>
      <trkpt lat="49.14668" lon="1.75852">
        <ele>110</ele>
        <time>2015-09-06T06:38:56.000Z</time>
      </trkpt>
      <trkpt lat="49.14665" lon="1.75836">
        <ele>110</ele>
        <time>2015-09-06T06:39:00.000Z</time>
      </trkpt>
      <trkpt lat="49.14663" lon="1.75827">
        <ele>110</ele>
        <time>2015-09-06T06:39:02.000Z</time>
      </trkpt>
      <trkpt lat="49.14661" lon="1.75818">
        <ele>110</ele>
        <time>2015-09-06T06:39:04.000Z</time>
      </trkpt>
      <trkpt lat="49.1466" lon="1.75808">
        <ele>110</ele>
        <time>2015-09-06T06:39:06.000Z</time>
      </trkpt>
      <trkpt lat="49.14658" lon="1.75799">
        <ele>110</ele>
        <time>2015-09-06T06:39:08.000Z</time>
      </trkpt>
      <trkpt lat="49.14656" lon="1.75789">
        <ele>110</ele>
        <time>2015-09-06T06:39:10.000Z</time>
      </trkpt>
      <trkpt lat="49.14654" lon="1.7578">
        <ele>110</ele>
        <time>2015-09-06T06:39:12.000Z</time>
      </trkpt>
      <trkpt lat="49.14652" lon="1.7577">
        <ele>111</ele>
        <time>2015-09-06T06:39:14.000Z</time>
      </trkpt>
      <trkpt lat="49.1465" lon="1.7576">
        <ele>111</ele>
        <time>2015-09-06T06:39:16.000Z</time>
      </trkpt>
      <trkpt lat="49.14648" lon="1.7575">
        <ele>111</ele>
        <time>2015-09-06T06:39:18.000Z</time>
      </trkpt>
      <trkpt lat="49.14646" lon="1.7574">
        <ele>111</ele>
        <time>2015-09-06T06:39:20.000Z</time>
      </trkpt>
      <trkpt lat="49.14644" lon="1.7573">
        <ele>111</ele>
        <time>2015-09-06T06:39:22.000Z</time>
      </trkpt>
      <trkpt lat="49.14643" lon="1.75721">
        <ele>111</ele>
        <time>2015-09-06T06:39:24.000Z</time>
      </trkpt>
      <trkpt lat="49.14643" lon="1.75721">
        <ele>111</ele>
        <time>2015-09-06T06:39:26.000Z</time>
      </trkpt>
      <trkpt lat="49.1464" lon="1.75707">
        <ele>111</ele>
        <time>2015-09-06T06:39:28.000Z</time>
      </trkpt>
      <trkpt lat="49.1464" lon="1.75707">
        <ele>111</ele>
        <time>2015-09-06T06:39:30.000Z</time>
      </trkpt>
      <trkpt lat="49.1464" lon="1.75702">
        <ele>111</ele>
        <time>2015-09-06T06:39:32.000Z</time>
      </trkpt>
      <trkpt lat="49.1464" lon="1.75702">
        <ele>111</ele>
        <time>2015-09-06T06:39:34.000Z</time>
      </trkpt>
      <trkpt lat="49.1464" lon="1.75702">
        <ele>111</ele>
        <time>2015-09-06T06:39:36.000Z</time>
      </trkpt>
      <trkpt lat="49.1464" lon="1.75702">
        <ele>111</ele>
        <time>2015-09-06T06:39:38.000Z</time>
      </trkpt>
      <trkpt lat="49.14639" lon="1.75697">
        <ele>112</ele>
        <time>2015-09-06T06:41:31.000Z</time>
      </trkpt>
      <trkpt lat="49.14637" lon="1.75692">
        <ele>112</ele>
        <time>2015-09-06T06:41:33.000Z</time>
      </trkpt>
      <trkpt lat="49.14634" lon="1.75684">
        <ele>112</ele>
        <time>2015-09-06T06:41:35.000Z</time>
      </trkpt>
      <trkpt lat="49.14631" lon="1.75675">
        <ele>111</ele>
        <time>2015-09-06T06:41:37.000Z</time>
      </trkpt>
      <trkpt lat="49.14628" lon="1.75665">
        <ele>111</ele>
        <time>2015-09-06T06:41:39.000Z</time>
      </trkpt>
      <trkpt lat="49.14621" lon="1.75642">
        <ele>111</ele>
        <time>2015-09-06T06:41:41.000Z</time>
      </trkpt>
      <trkpt lat="49.14616" lon="1.75629">
        <ele>110</ele>
        <time>2015-09-06T06:41:43.000Z</time>
      </trkpt>
      <trkpt lat="49.14612" lon="1.75617">
        <ele>110</ele>
        <time>2015-09-06T06:41:45.000Z</time>
      </trkpt>
      <trkpt lat="49.14608" lon="1.75605">
        <ele>110</ele>
        <time>2015-09-06T06:41:47.000Z</time>
      </trkpt>
      <trkpt lat="49.14604" lon="1.75597">
        <ele>110</ele>
        <time>2015-09-06T06:41:49.000Z</time>
      </trkpt>
      <trkpt lat="49.146" lon="1.75588">
        <ele>110</ele>
        <time>2015-09-06T06:41:51.000Z</time>
      </trkpt>
      <trkpt lat="49.146" lon="1.75578">
        <ele>110</ele>
        <time>2015-09-06T06:41:53.000Z</time>
      </trkpt>
      <trkpt lat="49.14601" lon="1.75568">
        <ele>110</ele>
        <time>2015-09-06T06:41:55.000Z</time>
      </trkpt>
      <trkpt lat="49.14601" lon="1.75568">
        <ele>110</ele>
        <time>2015-09-06T06:41:57.000Z</time>
      </trkpt>
      <trkpt lat="49.14598" lon="1.7555">
        <ele>109</ele>
        <time>2015-09-06T06:41:59.000Z</time>
      </trkpt>
      <trkpt lat="49.14596" lon="1.7554">
        <ele>109</ele>
        <time>2015-09-06T06:42:01.000Z</time>
      </trkpt>
      <trkpt lat="49.14593" lon="1.75528">
        <ele>109</ele>
        <time>2015-09-06T06:42:03.000Z</time>
      </trkpt>
      <trkpt lat="49.1459" lon="1.75516">
        <ele>109</ele>
        <time>2015-09-06T06:42:05.000Z</time>
      </trkpt>
      <trkpt lat="49.14587" lon="1.75504">
        <ele>108</ele>
        <time>2015-09-06T06:42:07.000Z</time>
      </trkpt>
      <trkpt lat="49.14584" lon="1.75492">
        <ele>108</ele>
        <time>2015-09-06T06:42:09.000Z</time>
      </trkpt>
      <trkpt lat="49.14581" lon="1.7548">
        <ele>108</ele>
        <time>2015-09-06T06:42:11.000Z</time>
      </trkpt>
      <trkpt lat="49.14577" lon="1.75467">
        <ele>108</ele>
        <time>2015-09-06T06:42:13.000Z</time>
      </trkpt>
      <trkpt lat="49.14573" lon="1.75454">
        <ele>108</ele>
        <time>2015-09-06T06:42:15.000Z</time>
      </trkpt>
      <trkpt lat="49.1457" lon="1.75442">
        <ele>108</ele>
        <time>2015-09-06T06:42:17.000Z</time>
      </trkpt>
      <trkpt lat="49.14566" lon="1.75429">
        <ele>108</ele>
        <time>2015-09-06T06:42:19.000Z</time>
      </trkpt>
      <trkpt lat="49.14561" lon="1.75416">
        <ele>107</ele>
        <time>2015-09-06T06:42:21.000Z</time>
      </trkpt>
      <trkpt lat="49.14557" lon="1.75403">
        <ele>107</ele>
        <time>2015-09-06T06:42:23.000Z</time>
      </trkpt>
      <trkpt lat="49.14553" lon="1.75391">
        <ele>107</ele>
        <time>2015-09-06T06:42:25.000Z</time>
      </trkpt>
      <trkpt lat="49.1455" lon="1.7538">
        <ele>107</ele>
        <time>2015-09-06T06:42:27.000Z</time>
      </trkpt>
      <trkpt lat="49.14547" lon="1.75367">
        <ele>107</ele>
        <time>2015-09-06T06:42:29.000Z</time>
      </trkpt>
      <trkpt lat="49.14544" lon="1.75353">
        <ele>107</ele>
        <time>2015-09-06T06:42:31.000Z</time>
      </trkpt>
      <trkpt lat="49.1454" lon="1.75338">
        <ele>107</ele>
        <time>2015-09-06T06:42:33.000Z</time>
      </trkpt>
      <trkpt lat="49.14537" lon="1.75323">
        <ele>107</ele>
        <time>2015-09-06T06:42:35.000Z</time>
      </trkpt>
      <trkpt lat="49.14535" lon="1.75309">
        <ele>106</ele>
        <time>2015-09-06T06:42:37.000Z</time>
      </trkpt>
      <trkpt lat="49.14534" lon="1.75295">
        <ele>106</ele>
        <time>2015-09-06T06:42:39.000Z</time>
      </trkpt>
      <trkpt lat="49.14534" lon="1.75281">
        <ele>107</ele>
        <time>2015-09-06T06:42:41.000Z</time>
      </trkpt>
      <trkpt lat="49.14535" lon="1.75267">
        <ele>107</ele>
        <time>2015-09-06T06:42:43.000Z</time>
      </trkpt>
      <trkpt lat="49.14537" lon="1.75252">
        <ele>106</ele>
        <time>2015-09-06T06:42:45.000Z</time>
      </trkpt>
      <trkpt lat="49.14537" lon="1.75235">
        <ele>106</ele>
        <time>2015-09-06T06:42:47.000Z</time>
      </trkpt>
      <trkpt lat="49.14538" lon="1.75219">
        <ele>106</ele>
        <time>2015-09-06T06:42:49.000Z</time>
      </trkpt>
      <trkpt lat="49.1454" lon="1.75203">
        <ele>106</ele>
        <time>2015-09-06T06:42:51.000Z</time>
      </trkpt>
      <trkpt lat="49.14543" lon="1.75187">
        <ele>106</ele>
        <time>2015-09-06T06:42:53.000Z</time>
      </trkpt>
      <trkpt lat="49.14545" lon="1.75174">
        <ele>106</ele>
        <time>2015-09-06T06:42:55.000Z</time>
      </trkpt>
      <trkpt lat="49.14548" lon="1.75158">
        <ele>107</ele>
        <time>2015-09-06T06:42:57.000Z</time>
      </trkpt>
      <trkpt lat="49.14551" lon="1.75143">
        <ele>107</ele>
        <time>2015-09-06T06:42:59.000Z</time>
      </trkpt>
      <trkpt lat="49.14554" lon="1.75126">
        <ele>106</ele>
        <time>2015-09-06T06:43:01.000Z</time>
      </trkpt>
      <trkpt lat="49.14558" lon="1.7511">
        <ele>106</ele>
        <time>2015-09-06T06:43:03.000Z</time>
      </trkpt>
      <trkpt lat="49.14561" lon="1.75095">
        <ele>105</ele>
        <time>2015-09-06T06:43:05.000Z</time>
      </trkpt>
      <trkpt lat="49.14565" lon="1.75079">
        <ele>106</ele>
        <time>2015-09-06T06:43:07.000Z</time>
      </trkpt>
      <trkpt lat="49.14566" lon="1.75066">
        <ele>105</ele>
        <time>2015-09-06T06:43:09.000Z</time>
      </trkpt>
      <trkpt lat="49.14569" lon="1.75052">
        <ele>105</ele>
        <time>2015-09-06T06:43:11.000Z</time>
      </trkpt>
      <trkpt lat="49.14572" lon="1.75039">
        <ele>105</ele>
        <time>2015-09-06T06:43:13.000Z</time>
      </trkpt>
      <trkpt lat="49.14575" lon="1.75025">
        <ele>105</ele>
        <time>2015-09-06T06:43:15.000Z</time>
      </trkpt>
      <trkpt lat="49.14578" lon="1.75012">
        <ele>104</ele>
        <time>2015-09-06T06:43:17.000Z</time>
      </trkpt>
      <trkpt lat="49.14581" lon="1.75">
        <ele>104</ele>
        <time>2015-09-06T06:43:19.000Z</time>
      </trkpt>
      <trkpt lat="49.14582" lon="1.74986">
        <ele>104</ele>
        <time>2015-09-06T06:43:21.000Z</time>
      </trkpt>
      <trkpt lat="49.14584" lon="1.74973">
        <ele>105</ele>
        <time>2015-09-06T06:43:23.000Z</time>
      </trkpt>
      <trkpt lat="49.14587" lon="1.7496">
        <ele>105</ele>
        <time>2015-09-06T06:43:25.000Z</time>
      </trkpt>
      <trkpt lat="49.14591" lon="1.74946">
        <ele>105</ele>
        <time>2015-09-06T06:43:27.000Z</time>
      </trkpt>
      <trkpt lat="49.14592" lon="1.74935">
        <ele>105</ele>
        <time>2015-09-06T06:43:29.000Z</time>
      </trkpt>
      <trkpt lat="49.14594" lon="1.74923">
        <ele>105</ele>
        <time>2015-09-06T06:43:31.000Z</time>
      </trkpt>
      <trkpt lat="49.14597" lon="1.74911">
        <ele>105</ele>
        <time>2015-09-06T06:43:33.000Z</time>
      </trkpt>
      <trkpt lat="49.146" lon="1.749">
        <ele>105</ele>
        <time>2015-09-06T06:43:35.000Z</time>
      </trkpt>
      <trkpt lat="49.14604" lon="1.74888">
        <ele>106</ele>
        <time>2015-09-06T06:43:37.000Z</time>
      </trkpt>
      <trkpt lat="49.14608" lon="1.74876">
        <ele>106</ele>
        <time>2015-09-06T06:43:39.000Z</time>
      </trkpt>
      <trkpt lat="49.14613" lon="1.74864">
        <ele>106</ele>
        <time>2015-09-06T06:43:41.000Z</time>
      </trkpt>
      <trkpt lat="49.14617" lon="1.74852">
        <ele>106</ele>
        <time>2015-09-06T06:43:43.000Z</time>
      </trkpt>
      <trkpt lat="49.14621" lon="1.7484">
        <ele>106</ele>
        <time>2015-09-06T06:43:45.000Z</time>
      </trkpt>
      <trkpt lat="49.14625" lon="1.7483">
        <ele>107</ele>
        <time>2015-09-06T06:43:47.000Z</time>
      </trkpt>
      <trkpt lat="49.14629" lon="1.74819">
        <ele>107</ele>
        <time>2015-09-06T06:43:49.000Z</time>
      </trkpt>
      <trkpt lat="49.14634" lon="1.7481">
        <ele>107</ele>
        <time>2015-09-06T06:43:51.000Z</time>
      </trkpt>
      <trkpt lat="49.14637" lon="1.74799">
        <ele>108</ele>
        <time>2015-09-06T06:43:53.000Z</time>
      </trkpt>
      <trkpt lat="49.1464" lon="1.74788">
        <ele>108</ele>
        <time>2015-09-06T06:43:55.000Z</time>
      </trkpt>
      <trkpt lat="49.14643" lon="1.74779">
        <ele>108</ele>
        <time>2015-09-06T06:43:57.000Z</time>
      </trkpt>
      <trkpt lat="49.14647" lon="1.74769">
        <ele>108</ele>
        <time>2015-09-06T06:43:59.000Z</time>
      </trkpt>
      <trkpt lat="49.14652" lon="1.74757">
        <ele>108</ele>
        <time>2015-09-06T06:44:01.000Z</time>
      </trkpt>
      <trkpt lat="49.14656" lon="1.74747">
        <ele>108</ele>
        <time>2015-09-06T06:44:03.000Z</time>
      </trkpt>
      <trkpt lat="49.14658" lon="1.74738">
        <ele>108</ele>
        <time>2015-09-06T06:44:05.000Z</time>
      </trkpt>
      <trkpt lat="49.14661" lon="1.74727">
        <ele>108</ele>
        <time>2015-09-06T06:44:07.000Z</time>
      </trkpt>
      <trkpt lat="49.14664" lon="1.74715">
        <ele>108</ele>
        <time>2015-09-06T06:44:09.000Z</time>
      </trkpt>
      <trkpt lat="49.14667" lon="1.74703">
        <ele>109</ele>
        <time>2015-09-06T06:44:11.000Z</time>
      </trkpt>
      <trkpt lat="49.14669" lon="1.74692">
        <ele>109</ele>
        <time>2015-09-06T06:44:13.000Z</time>
      </trkpt>
      <trkpt lat="49.14672" lon="1.74681">
        <ele>109</ele>
        <time>2015-09-06T06:44:15.000Z</time>
      </trkpt>
      <trkpt lat="49.14674" lon="1.7467">
        <ele>109</ele>
        <time>2015-09-06T06:44:17.000Z</time>
      </trkpt>
      <trkpt lat="49.14675" lon="1.74657">
        <ele>109</ele>
        <time>2015-09-06T06:44:19.000Z</time>
      </trkpt>
      <trkpt lat="49.14675" lon="1.74645">
        <ele>109</ele>
        <time>2015-09-06T06:44:21.000Z</time>
      </trkpt>
      <trkpt lat="49.14676" lon="1.74632">
        <ele>109</ele>
        <time>2015-09-06T06:44:23.000Z</time>
      </trkpt>
      <trkpt lat="49.14677" lon="1.74619">
        <ele>109</ele>
        <time>2015-09-06T06:44:25.000Z</time>
      </trkpt>
      <trkpt lat="49.1468" lon="1.74609">
        <ele>109</ele>
        <time>2015-09-06T06:44:27.000Z</time>
      </trkpt>
      <trkpt lat="49.14681" lon="1.74601">
        <ele>109</ele>
        <time>2015-09-06T06:44:29.000Z</time>
      </trkpt>
      <trkpt lat="49.14684" lon="1.7459">
        <ele>109</ele>
        <time>2015-09-06T06:44:31.000Z</time>
      </trkpt>
      <trkpt lat="49.14687" lon="1.74581">
        <ele>109</ele>
        <time>2015-09-06T06:44:33.000Z</time>
      </trkpt>
      <trkpt lat="49.14687" lon="1.74581">
        <ele>109</ele>
        <time>2015-09-06T06:44:35.000Z</time>
      </trkpt>
      <trkpt lat="49.14689" lon="1.74566">
        <ele>108</ele>
        <time>2015-09-06T06:44:37.000Z</time>
      </trkpt>
      <trkpt lat="49.1469" lon="1.74558">
        <ele>109</ele>
        <time>2015-09-06T06:44:39.000Z</time>
      </trkpt>
      <trkpt lat="49.1469" lon="1.74558">
        <ele>109</ele>
        <time>2015-09-06T06:44:41.000Z</time>
      </trkpt>
      <trkpt lat="49.14691" lon="1.74542">
        <ele>109</ele>
        <time>2015-09-06T06:44:43.000Z</time>
      </trkpt>
      <trkpt lat="49.14692" lon="1.74532">
        <ele>110</ele>
        <time>2015-09-06T06:44:45.000Z</time>
      </trkpt>
      <trkpt lat="49.14693" lon="1.7452">
        <ele>110</ele>
        <time>2015-09-06T06:44:47.000Z</time>
      </trkpt>
      <trkpt lat="49.14695" lon="1.74509">
        <ele>110</ele>
        <time>2015-09-06T06:44:49.000Z</time>
      </trkpt>
      <trkpt lat="49.14697" lon="1.745">
        <ele>111</ele>
        <time>2015-09-06T06:44:51.000Z</time>
      </trkpt>
      <trkpt lat="49.14698" lon="1.74491">
        <ele>111</ele>
        <time>2015-09-06T06:44:53.000Z</time>
      </trkpt>
      <trkpt lat="49.147" lon="1.74478">
        <ele>112</ele>
        <time>2015-09-06T06:44:55.000Z</time>
      </trkpt>
      <trkpt lat="49.147" lon="1.74468">
        <ele>112</ele>
        <time>2015-09-06T06:44:57.000Z</time>
      </trkpt>
      <trkpt lat="49.14702" lon="1.74456">
        <ele>112</ele>
        <time>2015-09-06T06:44:59.000Z</time>
      </trkpt>
      <trkpt lat="49.14705" lon="1.74446">
        <ele>113</ele>
        <time>2015-09-06T06:45:01.000Z</time>
      </trkpt>
      <trkpt lat="49.14707" lon="1.74437">
        <ele>113</ele>
        <time>2015-09-06T06:45:03.000Z</time>
      </trkpt>
      <trkpt lat="49.14707" lon="1.74437">
        <ele>113</ele>
        <time>2015-09-06T06:45:05.000Z</time>
      </trkpt>
      <trkpt lat="49.14709" lon="1.74422">
        <ele>114</ele>
        <time>2015-09-06T06:45:07.000Z</time>
      </trkpt>
      <trkpt lat="49.14711" lon="1.74413">
        <ele>114</ele>
        <time>2015-09-06T06:45:09.000Z</time>
      </trkpt>
      <trkpt lat="49.14711" lon="1.74413">
        <ele>114</ele>
        <time>2015-09-06T06:45:11.000Z</time>
      </trkpt>
      <trkpt lat="49.14713" lon="1.74401">
        <ele>115</ele>
        <time>2015-09-06T06:45:13.000Z</time>
      </trkpt>
      <trkpt lat="49.14713" lon="1.74401">
        <ele>115</ele>
        <time>2015-09-06T06:45:15.000Z</time>
      </trkpt>
      <trkpt lat="49.14715" lon="1.74387">
        <ele>115</ele>
        <time>2015-09-06T06:45:17.000Z</time>
      </trkpt>
      <trkpt lat="49.14718" lon="1.74372">
        <ele>116</ele>
        <time>2015-09-06T06:45:21.000Z</time>
      </trkpt>
      <trkpt lat="49.14723" lon="1.74358">
        <ele>116</ele>
        <time>2015-09-06T06:45:25.000Z</time>
      </trkpt>
      <trkpt lat="49.14725" lon="1.74342">
        <ele>115</ele>
        <time>2015-09-06T06:45:29.000Z</time>
      </trkpt>
      <trkpt lat="49.14727" lon="1.74334">
        <ele>116</ele>
        <time>2015-09-06T06:45:31.000Z</time>
      </trkpt>
      <trkpt lat="49.14731" lon="1.74317">
        <ele>116</ele>
        <time>2015-09-06T06:45:35.000Z</time>
      </trkpt>
      <trkpt lat="49.14731" lon="1.74317">
        <ele>116</ele>
        <time>2015-09-06T06:45:37.000Z</time>
      </trkpt>
      <trkpt lat="49.14735" lon="1.74299">
        <ele>117</ele>
        <time>2015-09-06T06:45:39.000Z</time>
      </trkpt>
      <trkpt lat="49.14737" lon="1.74285">
        <ele>117</ele>
        <time>2015-09-06T06:45:41.000Z</time>
      </trkpt>
      <trkpt lat="49.14741" lon="1.74272">
        <ele>117</ele>
        <time>2015-09-06T06:45:43.000Z</time>
      </trkpt>
      <trkpt lat="49.14743" lon="1.74259">
        <ele>117</ele>
        <time>2015-09-06T06:45:45.000Z</time>
      </trkpt>
      <trkpt lat="49.14745" lon="1.74246">
        <ele>117</ele>
        <time>2015-09-06T06:45:47.000Z</time>
      </trkpt>
      <trkpt lat="49.14749" lon="1.7423">
        <ele>115</ele>
        <time>2015-09-06T06:45:49.000Z</time>
      </trkpt>
      <trkpt lat="49.14752" lon="1.74214">
        <ele>116</ele>
        <time>2015-09-06T06:45:51.000Z</time>
      </trkpt>
      <trkpt lat="49.14756" lon="1.74198">
        <ele>116</ele>
        <time>2015-09-06T06:45:53.000Z</time>
      </trkpt>
      <trkpt lat="49.14758" lon="1.74182">
        <ele>116</ele>
        <time>2015-09-06T06:45:55.000Z</time>
      </trkpt>
      <trkpt lat="49.14761" lon="1.74167">
        <ele>116</ele>
        <time>2015-09-06T06:45:57.000Z</time>
      </trkpt>
      <trkpt lat="49.14764" lon="1.74154">
        <ele>116</ele>
        <time>2015-09-06T06:45:59.000Z</time>
      </trkpt>
      <trkpt lat="49.14767" lon="1.7414">
        <ele>116</ele>
        <time>2015-09-06T06:46:01.000Z</time>
      </trkpt>
      <trkpt lat="49.14772" lon="1.74127">
        <ele>116</ele>
        <time>2015-09-06T06:46:03.000Z</time>
      </trkpt>
      <trkpt lat="49.14775" lon="1.74114">
        <ele>116</ele>
        <time>2015-09-06T06:46:05.000Z</time>
      </trkpt>
      <trkpt lat="49.14776" lon="1.74103">
        <ele>116</ele>
        <time>2015-09-06T06:46:07.000Z</time>
      </trkpt>
      <trkpt lat="49.14779" lon="1.74093">
        <ele>117</ele>
        <time>2015-09-06T06:46:09.000Z</time>
      </trkpt>
      <trkpt lat="49.14781" lon="1.74082">
        <ele>117</ele>
        <time>2015-09-06T06:46:11.000Z</time>
      </trkpt>
      <trkpt lat="49.14781" lon="1.74082">
        <ele>117</ele>
        <time>2015-09-06T06:46:14.000Z</time>
      </trkpt>
      <trkpt lat="49.14785" lon="1.74071">
        <ele>117</ele>
        <time>2015-09-06T06:46:15.000Z</time>
      </trkpt>
      <trkpt lat="49.14785" lon="1.74071">
        <ele>117</ele>
        <time>2015-09-06T06:46:17.000Z</time>
      </trkpt>
      <trkpt lat="49.14788" lon="1.7406">
        <ele>116</ele>
        <time>2015-09-06T06:46:19.000Z</time>
      </trkpt>
      <trkpt lat="49.14791" lon="1.74046">
        <ele>116</ele>
        <time>2015-09-06T06:46:23.000Z</time>
      </trkpt>
      <trkpt lat="49.14794" lon="1.74038">
        <ele>116</ele>
        <time>2015-09-06T06:46:25.000Z</time>
      </trkpt>
      <trkpt lat="49.14796" lon="1.74029">
        <ele>116</ele>
        <time>2015-09-06T06:46:27.000Z</time>
      </trkpt>
      <trkpt lat="49.14798" lon="1.74018">
        <ele>117</ele>
        <time>2015-09-06T06:46:29.000Z</time>
      </trkpt>
      <trkpt lat="49.14801" lon="1.74009">
        <ele>117</ele>
        <time>2015-09-06T06:46:31.000Z</time>
      </trkpt>
      <trkpt lat="49.14804" lon="1.74001">
        <ele>117</ele>
        <time>2015-09-06T06:46:33.000Z</time>
      </trkpt>
      <trkpt lat="49.14807" lon="1.73992">
        <ele>117</ele>
        <time>2015-09-06T06:46:35.000Z</time>
      </trkpt>
      <trkpt lat="49.1481" lon="1.73981">
        <ele>118</ele>
        <time>2015-09-06T06:46:37.000Z</time>
      </trkpt>
      <trkpt lat="49.14812" lon="1.73971">
        <ele>118</ele>
        <time>2015-09-06T06:46:39.000Z</time>
      </trkpt>
      <trkpt lat="49.14814" lon="1.73959">
        <ele>118</ele>
        <time>2015-09-06T06:46:41.000Z</time>
      </trkpt>
      <trkpt lat="49.14816" lon="1.73948">
        <ele>118</ele>
        <time>2015-09-06T06:46:43.000Z</time>
      </trkpt>
      <trkpt lat="49.14818" lon="1.73938">
        <ele>118</ele>
        <time>2015-09-06T06:46:45.000Z</time>
      </trkpt>
      <trkpt lat="49.1482" lon="1.73928">
        <ele>118</ele>
        <time>2015-09-06T06:46:47.000Z</time>
      </trkpt>
      <trkpt lat="49.1482" lon="1.73919">
        <ele>118</ele>
        <time>2015-09-06T06:46:49.000Z</time>
      </trkpt>
      <trkpt lat="49.14822" lon="1.73908">
        <ele>118</ele>
        <time>2015-09-06T06:46:51.000Z</time>
      </trkpt>
      <trkpt lat="49.14824" lon="1.73898">
        <ele>118</ele>
        <time>2015-09-06T06:46:53.000Z</time>
      </trkpt>
      <trkpt lat="49.14826" lon="1.73888">
        <ele>118</ele>
        <time>2015-09-06T06:46:55.000Z</time>
      </trkpt>
      <trkpt lat="49.14829" lon="1.7388">
        <ele>118</ele>
        <time>2015-09-06T06:46:57.000Z</time>
      </trkpt>
      <trkpt lat="49.14829" lon="1.7388">
        <ele>118</ele>
        <time>2015-09-06T06:46:59.000Z</time>
      </trkpt>
      <trkpt lat="49.14836" lon="1.73868">
        <ele>118</ele>
        <time>2015-09-06T06:47:02.000Z</time>
      </trkpt>
      <trkpt lat="49.14836" lon="1.73868">
        <ele>118</ele>
        <time>2015-09-06T06:47:03.000Z</time>
      </trkpt>
      <trkpt lat="49.14844" lon="1.73858">
        <ele>118</ele>
        <time>2015-09-06T06:47:05.000Z</time>
      </trkpt>
      <trkpt lat="49.14848" lon="1.7385">
        <ele>118</ele>
        <time>2015-09-06T06:47:07.000Z</time>
      </trkpt>
      <trkpt lat="49.14853" lon="1.73841">
        <ele>117</ele>
        <time>2015-09-06T06:47:09.000Z</time>
      </trkpt>
      <trkpt lat="49.14856" lon="1.73833">
        <ele>117</ele>
        <time>2015-09-06T06:47:11.000Z</time>
      </trkpt>
      <trkpt lat="49.1486" lon="1.73824">
        <ele>117</ele>
        <time>2015-09-06T06:47:13.000Z</time>
      </trkpt>
      <trkpt lat="49.14864" lon="1.73817">
        <ele>117</ele>
        <time>2015-09-06T06:47:15.000Z</time>
      </trkpt>
      <trkpt lat="49.14869" lon="1.7381">
        <ele>117</ele>
        <time>2015-09-06T06:47:17.000Z</time>
      </trkpt>
      <trkpt lat="49.14869" lon="1.7381">
        <ele>117</ele>
        <time>2015-09-06T06:47:19.000Z</time>
      </trkpt>
      <trkpt lat="49.14879" lon="1.73802">
        <ele>117</ele>
        <time>2015-09-06T06:47:21.000Z</time>
      </trkpt>
      <trkpt lat="49.14885" lon="1.738">
        <ele>117</ele>
        <time>2015-09-06T06:47:23.000Z</time>
      </trkpt>
      <trkpt lat="49.14891" lon="1.73799">
        <ele>117</ele>
        <time>2015-09-06T06:47:25.000Z</time>
      </trkpt>
      <trkpt lat="49.149" lon="1.73797">
        <ele>118</ele>
        <time>2015-09-06T06:47:27.000Z</time>
      </trkpt>
      <trkpt lat="49.14909" lon="1.73796">
        <ele>118</ele>
        <time>2015-09-06T06:47:29.000Z</time>
      </trkpt>
      <trkpt lat="49.14917" lon="1.73795">
        <ele>118</ele>
        <time>2015-09-06T06:47:32.000Z</time>
      </trkpt>
      <trkpt lat="49.14926" lon="1.73795">
        <ele>118</ele>
        <time>2015-09-06T06:47:33.000Z</time>
      </trkpt>
      <trkpt lat="49.14933" lon="1.73796">
        <ele>118</ele>
        <time>2015-09-06T06:47:35.000Z</time>
      </trkpt>
      <trkpt lat="49.14943" lon="1.73797">
        <ele>118</ele>
        <time>2015-09-06T06:47:37.000Z</time>
      </trkpt>
      <trkpt lat="49.14951" lon="1.73797">
        <ele>118</ele>
        <time>2015-09-06T06:47:39.000Z</time>
      </trkpt>
      <trkpt lat="49.14959" lon="1.73798">
        <ele>118</ele>
        <time>2015-09-06T06:47:41.000Z</time>
      </trkpt>
      <trkpt lat="49.14966" lon="1.738">
        <ele>118</ele>
        <time>2015-09-06T06:47:43.000Z</time>
      </trkpt>
      <trkpt lat="49.14974" lon="1.73802">
        <ele>118</ele>
        <time>2015-09-06T06:47:45.000Z</time>
      </trkpt>
      <trkpt lat="49.14984" lon="1.73804">
        <ele>119</ele>
        <time>2015-09-06T06:47:47.000Z</time>
      </trkpt>
      <trkpt lat="49.14991" lon="1.73805">
        <ele>118</ele>
        <time>2015-09-06T06:47:49.000Z</time>
      </trkpt>
      <trkpt lat="49.14991" lon="1.73805">
        <ele>118</ele>
        <time>2015-09-06T06:47:51.000Z</time>
      </trkpt>
      <trkpt lat="49.15002" lon="1.73807">
        <ele>119</ele>
        <time>2015-09-06T06:47:53.000Z</time>
      </trkpt>
      <trkpt lat="49.15002" lon="1.73807">
        <ele>119</ele>
        <time>2015-09-06T06:47:55.000Z</time>
      </trkpt>
      <trkpt lat="49.15011" lon="1.73812">
        <ele>119</ele>
        <time>2015-09-06T06:47:57.000Z</time>
      </trkpt>
      <trkpt lat="49.15011" lon="1.73812">
        <ele>119</ele>
        <time>2015-09-06T06:47:59.000Z</time>
      </trkpt>
      <trkpt lat="49.15022" lon="1.73813">
        <ele>120</ele>
        <time>2015-09-06T06:48:01.000Z</time>
      </trkpt>
      <trkpt lat="49.15022" lon="1.73813">
        <ele>120</ele>
        <time>2015-09-06T06:48:03.000Z</time>
      </trkpt>
      <trkpt lat="49.15032" lon="1.73816">
        <ele>120</ele>
        <time>2015-09-06T06:48:05.000Z</time>
      </trkpt>
      <trkpt lat="49.15039" lon="1.73816">
        <ele>121</ele>
        <time>2015-09-06T06:48:07.000Z</time>
      </trkpt>
      <trkpt lat="49.15046" lon="1.73818">
        <ele>121</ele>
        <time>2015-09-06T06:48:09.000Z</time>
      </trkpt>
      <trkpt lat="49.15052" lon="1.73819">
        <ele>121</ele>
        <time>2015-09-06T06:48:11.000Z</time>
      </trkpt>
      <trkpt lat="49.15059" lon="1.73819">
        <ele>121</ele>
        <time>2015-09-06T06:48:13.000Z</time>
      </trkpt>
      <trkpt lat="49.15059" lon="1.73819">
        <ele>121</ele>
        <time>2015-09-06T06:48:15.000Z</time>
      </trkpt>
      <trkpt lat="49.1507" lon="1.73819">
        <ele>122</ele>
        <time>2015-09-06T06:48:17.000Z</time>
      </trkpt>
      <trkpt lat="49.1507" lon="1.73819">
        <ele>122</ele>
        <time>2015-09-06T06:48:19.000Z</time>
      </trkpt>
      <trkpt lat="49.1508" lon="1.7382">
        <ele>122</ele>
        <time>2015-09-06T06:48:21.000Z</time>
      </trkpt>
      <trkpt lat="49.1508" lon="1.7382">
        <ele>122</ele>
        <time>2015-09-06T06:48:23.000Z</time>
      </trkpt>
      <trkpt lat="49.15088" lon="1.73822">
        <ele>122</ele>
        <time>2015-09-06T06:48:25.000Z</time>
      </trkpt>
      <trkpt lat="49.15088" lon="1.73822">
        <ele>122</ele>
        <time>2015-09-06T06:48:27.000Z</time>
      </trkpt>
      <trkpt lat="49.15094" lon="1.73822">
        <ele>122</ele>
        <time>2015-09-06T06:48:29.000Z</time>
      </trkpt>
      <trkpt lat="49.15094" lon="1.73822">
        <ele>122</ele>
        <time>2015-09-06T06:48:31.000Z</time>
      </trkpt>
      <trkpt lat="49.15102" lon="1.73827">
        <ele>123</ele>
        <time>2015-09-06T06:48:33.000Z</time>
      </trkpt>
      <trkpt lat="49.15107" lon="1.73832">
        <ele>124</ele>
        <time>2015-09-06T06:48:37.000Z</time>
      </trkpt>
      <trkpt lat="49.15116" lon="1.73832">
        <ele>124</ele>
        <time>2015-09-06T06:48:41.000Z</time>
      </trkpt>
      <trkpt lat="49.15116" lon="1.73832">
        <ele>124</ele>
        <time>2015-09-06T06:48:43.000Z</time>
      </trkpt>
      <trkpt lat="49.15123" lon="1.73833">
        <ele>125</ele>
        <time>2015-09-06T06:48:45.000Z</time>
      </trkpt>
      <trkpt lat="49.15123" lon="1.73833">
        <ele>125</ele>
        <time>2015-09-06T06:48:47.000Z</time>
      </trkpt>
      <trkpt lat="49.15126" lon="1.73834">
        <ele>125</ele>
        <time>2015-09-06T06:48:49.000Z</time>
      </trkpt>
      <trkpt lat="49.1513" lon="1.73835">
        <ele>125</ele>
        <time>2015-09-06T06:48:51.000Z</time>
      </trkpt>
      <trkpt lat="49.15134" lon="1.73835">
        <ele>126</ele>
        <time>2015-09-06T06:48:53.000Z</time>
      </trkpt>
      <trkpt lat="49.15137" lon="1.73835">
        <ele>126</ele>
        <time>2015-09-06T06:48:55.000Z</time>
      </trkpt>
      <trkpt lat="49.15141" lon="1.73836">
        <ele>127</ele>
        <time>2015-09-06T06:48:57.000Z</time>
      </trkpt>
      <trkpt lat="49.1515" lon="1.73837">
        <ele>127</ele>
        <time>2015-09-06T06:48:59.000Z</time>
      </trkpt>
      <trkpt lat="49.15155" lon="1.73835">
        <ele>127</ele>
        <time>2015-09-06T06:49:01.000Z</time>
      </trkpt>
      <trkpt lat="49.15162" lon="1.73833">
        <ele>127</ele>
        <time>2015-09-06T06:49:03.000Z</time>
      </trkpt>
      <trkpt lat="49.1517" lon="1.73829">
        <ele>127</ele>
        <time>2015-09-06T06:49:05.000Z</time>
      </trkpt>
      <trkpt lat="49.15178" lon="1.73826">
        <ele>127</ele>
        <time>2015-09-06T06:49:07.000Z</time>
      </trkpt>
      <trkpt lat="49.15185" lon="1.73822">
        <ele>127</ele>
        <time>2015-09-06T06:49:09.000Z</time>
      </trkpt>
      <trkpt lat="49.15191" lon="1.73818">
        <ele>127</ele>
        <time>2015-09-06T06:49:11.000Z</time>
      </trkpt>
      <trkpt lat="49.15196" lon="1.73814">
        <ele>127</ele>
        <time>2015-09-06T06:49:13.000Z</time>
      </trkpt>
      <trkpt lat="49.15196" lon="1.73814">
        <ele>127</ele>
        <time>2015-09-06T06:49:15.000Z</time>
      </trkpt>
      <trkpt lat="49.15202" lon="1.73808">
        <ele>126</ele>
        <time>2015-09-06T06:49:17.000Z</time>
      </trkpt>
      <trkpt lat="49.15202" lon="1.73808">
        <ele>126</ele>
        <time>2015-09-06T06:49:19.000Z</time>
      </trkpt>
      <trkpt lat="49.15202" lon="1.73808">
        <ele>126</ele>
        <time>2015-09-06T06:49:21.000Z</time>
      </trkpt>
      <trkpt lat="49.15202" lon="1.73808">
        <ele>126</ele>
        <time>2015-09-06T06:49:23.000Z</time>
      </trkpt>
      <trkpt lat="49.15203" lon="1.73799">
        <ele>124</ele>
        <time>2015-09-06T06:50:01.000Z</time>
      </trkpt>
      <trkpt lat="49.15202" lon="1.73778">
        <ele>122</ele>
        <time>2015-09-06T06:50:05.000Z</time>
      </trkpt>
      <trkpt lat="49.152" lon="1.73765">
        <ele>122</ele>
        <time>2015-09-06T06:50:07.000Z</time>
      </trkpt>
      <trkpt lat="49.15198" lon="1.73754">
        <ele>122</ele>
        <time>2015-09-06T06:50:09.000Z</time>
      </trkpt>
      <trkpt lat="49.15196" lon="1.73745">
        <ele>121</ele>
        <time>2015-09-06T06:50:11.000Z</time>
      </trkpt>
      <trkpt lat="49.15194" lon="1.73737">
        <ele>121</ele>
        <time>2015-09-06T06:50:13.000Z</time>
      </trkpt>
      <trkpt lat="49.15193" lon="1.73728">
        <ele>121</ele>
        <time>2015-09-06T06:50:15.000Z</time>
      </trkpt>
      <trkpt lat="49.15192" lon="1.73719">
        <ele>121</ele>
        <time>2015-09-06T06:50:17.000Z</time>
      </trkpt>
      <trkpt lat="49.15192" lon="1.73719">
        <ele>121</ele>
        <time>2015-09-06T06:50:19.000Z</time>
      </trkpt>
      <trkpt lat="49.15189" lon="1.73705">
        <ele>121</ele>
        <time>2015-09-06T06:50:21.000Z</time>
      </trkpt>
      <trkpt lat="49.15189" lon="1.73705">
        <ele>121</ele>
        <time>2015-09-06T06:50:23.000Z</time>
      </trkpt>
      <trkpt lat="49.15187" lon="1.73692">
        <ele>121</ele>
        <time>2015-09-06T06:50:25.000Z</time>
      </trkpt>
      <trkpt lat="49.15187" lon="1.73692">
        <ele>121</ele>
        <time>2015-09-06T06:50:27.000Z</time>
      </trkpt>
      <trkpt lat="49.15185" lon="1.7368">
        <ele>121</ele>
        <time>2015-09-06T06:50:29.000Z</time>
      </trkpt>
      <trkpt lat="49.15185" lon="1.7368">
        <ele>121</ele>
        <time>2015-09-06T06:50:31.000Z</time>
      </trkpt>
      <trkpt lat="49.15183" lon="1.73667">
        <ele>121</ele>
        <time>2015-09-06T06:50:33.000Z</time>
      </trkpt>
      <trkpt lat="49.15183" lon="1.73667">
        <ele>121</ele>
        <time>2015-09-06T06:50:35.000Z</time>
      </trkpt>
      <trkpt lat="49.1518" lon="1.73655">
        <ele>122</ele>
        <time>2015-09-06T06:50:37.000Z</time>
      </trkpt>
      <trkpt lat="49.1518" lon="1.73655">
        <ele>122</ele>
        <time>2015-09-06T06:50:39.000Z</time>
      </trkpt>
      <trkpt lat="49.15178" lon="1.73643">
        <ele>122</ele>
        <time>2015-09-06T06:50:41.000Z</time>
      </trkpt>
      <trkpt lat="49.15178" lon="1.73643">
        <ele>122</ele>
        <time>2015-09-06T06:50:43.000Z</time>
      </trkpt>
      <trkpt lat="49.15175" lon="1.73631">
        <ele>123</ele>
        <time>2015-09-06T06:50:45.000Z</time>
      </trkpt>
      <trkpt lat="49.15175" lon="1.73631">
        <ele>123</ele>
        <time>2015-09-06T06:50:47.000Z</time>
      </trkpt>
      <trkpt lat="49.15173" lon="1.73619">
        <ele>123</ele>
        <time>2015-09-06T06:50:49.000Z</time>
      </trkpt>
      <trkpt lat="49.1517" lon="1.73607">
        <ele>123</ele>
        <time>2015-09-06T06:50:53.000Z</time>
      </trkpt>
      <trkpt lat="49.1517" lon="1.73607">
        <ele>123</ele>
        <time>2015-09-06T06:50:55.000Z</time>
      </trkpt>
      <trkpt lat="49.15168" lon="1.73594">
        <ele>124</ele>
        <time>2015-09-06T06:50:57.000Z</time>
      </trkpt>
      <trkpt lat="49.15168" lon="1.73594">
        <ele>124</ele>
        <time>2015-09-06T06:50:59.000Z</time>
      </trkpt>
      <trkpt lat="49.15165" lon="1.73582">
        <ele>124</ele>
        <time>2015-09-06T06:51:01.000Z</time>
      </trkpt>
      <trkpt lat="49.15162" lon="1.73569">
        <ele>124</ele>
        <time>2015-09-06T06:51:05.000Z</time>
      </trkpt>
      <trkpt lat="49.1516" lon="1.73557">
        <ele>125</ele>
        <time>2015-09-06T06:51:09.000Z</time>
      </trkpt>
      <trkpt lat="49.1516" lon="1.73557">
        <ele>125</ele>
        <time>2015-09-06T06:51:11.000Z</time>
      </trkpt>
      <trkpt lat="49.15158" lon="1.73544">
        <ele>125</ele>
        <time>2015-09-06T06:51:13.000Z</time>
      </trkpt>
      <trkpt lat="49.15155" lon="1.73532">
        <ele>126</ele>
        <time>2015-09-06T06:51:17.000Z</time>
      </trkpt>
      <trkpt lat="49.15153" lon="1.73519">
        <ele>126</ele>
        <time>2015-09-06T06:51:21.000Z</time>
      </trkpt>
      <trkpt lat="49.15151" lon="1.73506">
        <ele>127</ele>
        <time>2015-09-06T06:51:25.000Z</time>
      </trkpt>
      <trkpt lat="49.15151" lon="1.73506">
        <ele>127</ele>
        <time>2015-09-06T06:51:27.000Z</time>
      </trkpt>
      <trkpt lat="49.15149" lon="1.73493">
        <ele>127</ele>
        <time>2015-09-06T06:51:29.000Z</time>
      </trkpt>
      <trkpt lat="49.15149" lon="1.73493">
        <ele>127</ele>
        <time>2015-09-06T06:51:31.000Z</time>
      </trkpt>
      <trkpt lat="49.15147" lon="1.73481">
        <ele>128</ele>
        <time>2015-09-06T06:51:33.000Z</time>
      </trkpt>
      <trkpt lat="49.15147" lon="1.73481">
        <ele>128</ele>
        <time>2015-09-06T06:51:35.000Z</time>
      </trkpt>
      <trkpt lat="49.15145" lon="1.73468">
        <ele>129</ele>
        <time>2015-09-06T06:51:37.000Z</time>
      </trkpt>
      <trkpt lat="49.15144" lon="1.73455">
        <ele>129</ele>
        <time>2015-09-06T06:51:41.000Z</time>
      </trkpt>
      <trkpt lat="49.15144" lon="1.73455">
        <ele>129</ele>
        <time>2015-09-06T06:51:43.000Z</time>
      </trkpt>
      <trkpt lat="49.15143" lon="1.73443">
        <ele>130</ele>
        <time>2015-09-06T06:51:45.000Z</time>
      </trkpt>
      <trkpt lat="49.15143" lon="1.73443">
        <ele>130</ele>
        <time>2015-09-06T06:51:47.000Z</time>
      </trkpt>
      <trkpt lat="49.15141" lon="1.7343">
        <ele>130</ele>
        <time>2015-09-06T06:51:49.000Z</time>
      </trkpt>
      <trkpt lat="49.1514" lon="1.73424">
        <ele>131</ele>
        <time>2015-09-06T06:51:53.000Z</time>
      </trkpt>
      <trkpt lat="49.15139" lon="1.73417">
        <ele>131</ele>
        <time>2015-09-06T06:51:55.000Z</time>
      </trkpt>
      <trkpt lat="49.15137" lon="1.73409">
        <ele>131</ele>
        <time>2015-09-06T06:51:57.000Z</time>
      </trkpt>
      <trkpt lat="49.15136" lon="1.73402">
        <ele>131</ele>
        <time>2015-09-06T06:51:59.000Z</time>
      </trkpt>
      <trkpt lat="49.15134" lon="1.73394">
        <ele>131</ele>
        <time>2015-09-06T06:52:01.000Z</time>
      </trkpt>
      <trkpt lat="49.15129" lon="1.73378">
        <ele>131</ele>
        <time>2015-09-06T06:52:03.000Z</time>
      </trkpt>
      <trkpt lat="49.15127" lon="1.7337">
        <ele>131</ele>
        <time>2015-09-06T06:52:05.000Z</time>
      </trkpt>
      <trkpt lat="49.15123" lon="1.73354">
        <ele>131</ele>
        <time>2015-09-06T06:52:09.000Z</time>
      </trkpt>
      <trkpt lat="49.15121" lon="1.73346">
        <ele>131</ele>
        <time>2015-09-06T06:52:11.000Z</time>
      </trkpt>
      <trkpt lat="49.1512" lon="1.73337">
        <ele>131</ele>
        <time>2015-09-06T06:52:13.000Z</time>
      </trkpt>
      <trkpt lat="49.15119" lon="1.73327">
        <ele>131</ele>
        <time>2015-09-06T06:52:15.000Z</time>
      </trkpt>
      <trkpt lat="49.15118" lon="1.73318">
        <ele>131</ele>
        <time>2015-09-06T06:52:17.000Z</time>
      </trkpt>
      <trkpt lat="49.15117" lon="1.73308">
        <ele>131</ele>
        <time>2015-09-06T06:52:19.000Z</time>
      </trkpt>
      <trkpt lat="49.15116" lon="1.73298">
        <ele>131</ele>
        <time>2015-09-06T06:52:21.000Z</time>
      </trkpt>
      <trkpt lat="49.15116" lon="1.73287">
        <ele>132</ele>
        <time>2015-09-06T06:52:23.000Z</time>
      </trkpt>
      <trkpt lat="49.15117" lon="1.73277">
        <ele>132</ele>
        <time>2015-09-06T06:52:25.000Z</time>
      </trkpt>
      <trkpt lat="49.15117" lon="1.73267">
        <ele>132</ele>
        <time>2015-09-06T06:52:27.000Z</time>
      </trkpt>
      <trkpt lat="49.15117" lon="1.73257">
        <ele>132</ele>
        <time>2015-09-06T06:52:29.000Z</time>
      </trkpt>
      <trkpt lat="49.15118" lon="1.73247">
        <ele>132</ele>
        <time>2015-09-06T06:52:31.000Z</time>
      </trkpt>
      <trkpt lat="49.15119" lon="1.73237">
        <ele>132</ele>
        <time>2015-09-06T06:52:33.000Z</time>
      </trkpt>
      <trkpt lat="49.1512" lon="1.73227">
        <ele>132</ele>
        <time>2015-09-06T06:52:35.000Z</time>
      </trkpt>
      <trkpt lat="49.1512" lon="1.73218">
        <ele>132</ele>
        <time>2015-09-06T06:52:37.000Z</time>
      </trkpt>
      <trkpt lat="49.15121" lon="1.73208">
        <ele>132</ele>
        <time>2015-09-06T06:52:39.000Z</time>
      </trkpt>
      <trkpt lat="49.15121" lon="1.73199">
        <ele>133</ele>
        <time>2015-09-06T06:52:41.000Z</time>
      </trkpt>
      <trkpt lat="49.15123" lon="1.73189">
        <ele>133</ele>
        <time>2015-09-06T06:52:43.000Z</time>
      </trkpt>
      <trkpt lat="49.15123" lon="1.7318">
        <ele>133</ele>
        <time>2015-09-06T06:52:45.000Z</time>
      </trkpt>
      <trkpt lat="49.15125" lon="1.73171">
        <ele>133</ele>
        <time>2015-09-06T06:52:47.000Z</time>
      </trkpt>
      <trkpt lat="49.15125" lon="1.73162">
        <ele>133</ele>
        <time>2015-09-06T06:52:49.000Z</time>
      </trkpt>
      <trkpt lat="49.15126" lon="1.73152">
        <ele>133</ele>
        <time>2015-09-06T06:52:51.000Z</time>
      </trkpt>
      <trkpt lat="49.15126" lon="1.73142">
        <ele>133</ele>
        <time>2015-09-06T06:52:53.000Z</time>
      </trkpt>
      <trkpt lat="49.15127" lon="1.73133">
        <ele>134</ele>
        <time>2015-09-06T06:52:55.000Z</time>
      </trkpt>
      <trkpt lat="49.15127" lon="1.73133">
        <ele>134</ele>
        <time>2015-09-06T06:52:57.000Z</time>
      </trkpt>
      <trkpt lat="49.15127" lon="1.73116">
        <ele>134</ele>
        <time>2015-09-06T06:52:59.000Z</time>
      </trkpt>
      <trkpt lat="49.15127" lon="1.73116">
        <ele>134</ele>
        <time>2015-09-06T06:53:01.000Z</time>
      </trkpt>
      <trkpt lat="49.15125" lon="1.731">
        <ele>135</ele>
        <time>2015-09-06T06:53:03.000Z</time>
      </trkpt>
      <trkpt lat="49.15123" lon="1.73091">
        <ele>134</ele>
        <time>2015-09-06T06:53:05.000Z</time>
      </trkpt>
      <trkpt lat="49.1512" lon="1.73083">
        <ele>134</ele>
        <time>2015-09-06T06:53:07.000Z</time>
      </trkpt>
      <trkpt lat="49.1512" lon="1.73083">
        <ele>134</ele>
        <time>2015-09-06T06:53:09.000Z</time>
      </trkpt>
      <trkpt lat="49.15118" lon="1.73069">
        <ele>134</ele>
        <time>2015-09-06T06:53:11.000Z</time>
      </trkpt>
      <trkpt lat="49.15118" lon="1.73069">
        <ele>134</ele>
        <time>2015-09-06T06:53:13.000Z</time>
      </trkpt>
      <trkpt lat="49.15115" lon="1.73056">
        <ele>133</ele>
        <time>2015-09-06T06:53:15.000Z</time>
      </trkpt>
      <trkpt lat="49.15112" lon="1.7304">
        <ele>133</ele>
        <time>2015-09-06T06:53:19.000Z</time>
      </trkpt>
      <trkpt lat="49.15112" lon="1.73024">
        <ele>133</ele>
        <time>2015-09-06T06:53:23.000Z</time>
      </trkpt>
      <trkpt lat="49.15112" lon="1.73024">
        <ele>133</ele>
        <time>2015-09-06T06:53:25.000Z</time>
      </trkpt>
      <trkpt lat="49.15116" lon="1.73014">
        <ele>133</ele>
        <time>2015-09-06T06:53:27.000Z</time>
      </trkpt>
      <trkpt lat="49.15116" lon="1.73014">
        <ele>133</ele>
        <time>2015-09-06T06:53:29.000Z</time>
      </trkpt>
      <trkpt lat="49.15124" lon="1.73012">
        <ele>134</ele>
        <time>2015-09-06T06:53:31.000Z</time>
      </trkpt>
      <trkpt lat="49.15124" lon="1.73012">
        <ele>134</ele>
        <time>2015-09-06T06:53:33.000Z</time>
      </trkpt>
      <trkpt lat="49.15131" lon="1.73012">
        <ele>135</ele>
        <time>2015-09-06T06:53:35.000Z</time>
      </trkpt>
      <trkpt lat="49.15131" lon="1.73012">
        <ele>135</ele>
        <time>2015-09-06T06:53:37.000Z</time>
      </trkpt>
      <trkpt lat="49.15139" lon="1.73011">
        <ele>135</ele>
        <time>2015-09-06T06:53:39.000Z</time>
      </trkpt>
      <trkpt lat="49.15147" lon="1.73009">
        <ele>136</ele>
        <time>2015-09-06T06:53:43.000Z</time>
      </trkpt>
      <trkpt lat="49.15147" lon="1.73009">
        <ele>136</ele>
        <time>2015-09-06T06:53:45.000Z</time>
      </trkpt>
      <trkpt lat="49.15152" lon="1.73004">
        <ele>137</ele>
        <time>2015-09-06T06:53:47.000Z</time>
      </trkpt>
      <trkpt lat="49.15152" lon="1.73004">
        <ele>137</ele>
        <time>2015-09-06T06:53:49.000Z</time>
      </trkpt>
      <trkpt lat="49.15153" lon="1.72994">
        <ele>137</ele>
        <time>2015-09-06T06:53:51.000Z</time>
      </trkpt>
      <trkpt lat="49.15152" lon="1.72984">
        <ele>137</ele>
        <time>2015-09-06T06:53:55.000Z</time>
      </trkpt>
      <trkpt lat="49.15152" lon="1.72972">
        <ele>137</ele>
        <time>2015-09-06T06:53:59.000Z</time>
      </trkpt>
      <trkpt lat="49.15152" lon="1.72963">
        <ele>137</ele>
        <time>2015-09-06T06:54:01.000Z</time>
      </trkpt>
      <trkpt lat="49.15152" lon="1.72951">
        <ele>137</ele>
        <time>2015-09-06T06:54:03.000Z</time>
      </trkpt>
      <trkpt lat="49.1515" lon="1.7294">
        <ele>137</ele>
        <time>2015-09-06T06:54:05.000Z</time>
      </trkpt>
      <trkpt lat="49.15149" lon="1.72932">
        <ele>137</ele>
        <time>2015-09-06T06:54:08.000Z</time>
      </trkpt>
      <trkpt lat="49.15149" lon="1.72922">
        <ele>138</ele>
        <time>2015-09-06T06:54:09.000Z</time>
      </trkpt>
      <trkpt lat="49.15148" lon="1.72912">
        <ele>138</ele>
        <time>2015-09-06T06:54:11.000Z</time>
      </trkpt>
      <trkpt lat="49.15147" lon="1.72902">
        <ele>138</ele>
        <time>2015-09-06T06:54:13.000Z</time>
      </trkpt>
      <trkpt lat="49.15147" lon="1.72893">
        <ele>137</ele>
        <time>2015-09-06T06:54:15.000Z</time>
      </trkpt>
      <trkpt lat="49.15147" lon="1.72883">
        <ele>137</ele>
        <time>2015-09-06T06:54:17.000Z</time>
      </trkpt>
      <trkpt lat="49.15149" lon="1.72872">
        <ele>137</ele>
        <time>2015-09-06T06:54:19.000Z</time>
      </trkpt>
      <trkpt lat="49.15152" lon="1.72863">
        <ele>136</ele>
        <time>2015-09-06T06:54:21.000Z</time>
      </trkpt>
      <trkpt lat="49.15155" lon="1.72855">
        <ele>136</ele>
        <time>2015-09-06T06:54:23.000Z</time>
      </trkpt>
      <trkpt lat="49.15159" lon="1.72847">
        <ele>135</ele>
        <time>2015-09-06T06:54:25.000Z</time>
      </trkpt>
      <trkpt lat="49.15159" lon="1.72847">
        <ele>135</ele>
        <time>2015-09-06T06:54:27.000Z</time>
      </trkpt>
      <trkpt lat="49.15166" lon="1.72835">
        <ele>134</ele>
        <time>2015-09-06T06:54:29.000Z</time>
      </trkpt>
      <trkpt lat="49.15171" lon="1.72826">
        <ele>134</ele>
        <time>2015-09-06T06:54:31.000Z</time>
      </trkpt>
      <trkpt lat="49.15174" lon="1.72816">
        <ele>134</ele>
        <time>2015-09-06T06:54:33.000Z</time>
      </trkpt>
      <trkpt lat="49.15178" lon="1.72806">
        <ele>133</ele>
        <time>2015-09-06T06:54:35.000Z</time>
      </trkpt>
      <trkpt lat="49.15181" lon="1.72796">
        <ele>133</ele>
        <time>2015-09-06T06:54:37.000Z</time>
      </trkpt>
      <trkpt lat="49.15183" lon="1.72787">
        <ele>133</ele>
        <time>2015-09-06T06:54:39.000Z</time>
      </trkpt>
      <trkpt lat="49.15184" lon="1.72778">
        <ele>133</ele>
        <time>2015-09-06T06:54:41.000Z</time>
      </trkpt>
      <trkpt lat="49.15184" lon="1.72778">
        <ele>133</ele>
        <time>2015-09-06T06:54:43.000Z</time>
      </trkpt>
      <trkpt lat="49.15184" lon="1.72766">
        <ele>132</ele>
        <time>2015-09-06T06:54:45.000Z</time>
      </trkpt>
      <trkpt lat="49.15184" lon="1.72766">
        <ele>132</ele>
        <time>2015-09-06T06:54:47.000Z</time>
      </trkpt>
      <trkpt lat="49.15184" lon="1.72766">
        <ele>132</ele>
        <time>2015-09-06T06:54:49.000Z</time>
      </trkpt>
      <trkpt lat="49.15184" lon="1.72766">
        <ele>132</ele>
        <time>2015-09-06T06:54:51.000Z</time>
      </trkpt>
      <trkpt lat="49.15181" lon="1.72755">
        <ele>131</ele>
        <time>2015-09-06T06:55:04.000Z</time>
      </trkpt>
      <trkpt lat="49.15175" lon="1.72749">
        <ele>130</ele>
        <time>2015-09-06T06:55:06.000Z</time>
      </trkpt>
      <trkpt lat="49.15168" lon="1.72739">
        <ele>130</ele>
        <time>2015-09-06T06:55:08.000Z</time>
      </trkpt>
      <trkpt lat="49.1516" lon="1.72729">
        <ele>129</ele>
        <time>2015-09-06T06:55:10.000Z</time>
      </trkpt>
      <trkpt lat="49.15151" lon="1.72716">
        <ele>129</ele>
        <time>2015-09-06T06:55:12.000Z</time>
      </trkpt>
      <trkpt lat="49.15142" lon="1.72703">
        <ele>128</ele>
        <time>2015-09-06T06:55:14.000Z</time>
      </trkpt>
      <trkpt lat="49.15132" lon="1.72689">
        <ele>128</ele>
        <time>2015-09-06T06:55:16.000Z</time>
      </trkpt>
      <trkpt lat="49.15122" lon="1.72675">
        <ele>127</ele>
        <time>2015-09-06T06:55:18.000Z</time>
      </trkpt>
      <trkpt lat="49.15113" lon="1.72661">
        <ele>127</ele>
        <time>2015-09-06T06:55:20.000Z</time>
      </trkpt>
      <trkpt lat="49.15104" lon="1.72649">
        <ele>127</ele>
        <time>2015-09-06T06:55:22.000Z</time>
      </trkpt>
      <trkpt lat="49.15094" lon="1.72638">
        <ele>126</ele>
        <time>2015-09-06T06:55:24.000Z</time>
      </trkpt>
      <trkpt lat="49.1508" lon="1.72632">
        <ele>125</ele>
        <time>2015-09-06T06:55:26.000Z</time>
      </trkpt>
      <trkpt lat="49.15065" lon="1.72631">
        <ele>124</ele>
        <time>2015-09-06T06:55:28.000Z</time>
      </trkpt>
      <trkpt lat="49.15052" lon="1.72629">
        <ele>123</ele>
        <time>2015-09-06T06:55:30.000Z</time>
      </trkpt>
      <trkpt lat="49.15039" lon="1.72623">
        <ele>122</ele>
        <time>2015-09-06T06:55:32.000Z</time>
      </trkpt>
      <trkpt lat="49.15026" lon="1.72614">
        <ele>121</ele>
        <time>2015-09-06T06:55:35.000Z</time>
      </trkpt>
      <trkpt lat="49.15011" lon="1.72603">
        <ele>120</ele>
        <time>2015-09-06T06:55:37.000Z</time>
      </trkpt>
      <trkpt lat="49.14995" lon="1.7259">
        <ele>119</ele>
        <time>2015-09-06T06:55:39.000Z</time>
      </trkpt>
      <trkpt lat="49.14979" lon="1.72577">
        <ele>118</ele>
        <time>2015-09-06T06:55:41.000Z</time>
      </trkpt>
      <trkpt lat="49.14962" lon="1.72564">
        <ele>117</ele>
        <time>2015-09-06T06:55:43.000Z</time>
      </trkpt>
      <trkpt lat="49.14946" lon="1.72553">
        <ele>115</ele>
        <time>2015-09-06T06:55:45.000Z</time>
      </trkpt>
      <trkpt lat="49.14931" lon="1.72541">
        <ele>113</ele>
        <time>2015-09-06T06:55:47.000Z</time>
      </trkpt>
      <trkpt lat="49.14917" lon="1.72528">
        <ele>111</ele>
        <time>2015-09-06T06:55:49.000Z</time>
      </trkpt>
      <trkpt lat="49.14904" lon="1.72516">
        <ele>110</ele>
        <time>2015-09-06T06:55:51.000Z</time>
      </trkpt>
      <trkpt lat="49.1489" lon="1.72506">
        <ele>108</ele>
        <time>2015-09-06T06:55:53.000Z</time>
      </trkpt>
      <trkpt lat="49.14875" lon="1.72498">
        <ele>107</ele>
        <time>2015-09-06T06:55:55.000Z</time>
      </trkpt>
      <trkpt lat="49.14859" lon="1.72492">
        <ele>106</ele>
        <time>2015-09-06T06:55:57.000Z</time>
      </trkpt>
      <trkpt lat="49.14842" lon="1.72484">
        <ele>105</ele>
        <time>2015-09-06T06:55:59.000Z</time>
      </trkpt>
      <trkpt lat="49.14826" lon="1.72471">
        <ele>103</ele>
        <time>2015-09-06T06:56:01.000Z</time>
      </trkpt>
      <trkpt lat="49.1481" lon="1.72461">
        <ele>103</ele>
        <time>2015-09-06T06:56:03.000Z</time>
      </trkpt>
      <trkpt lat="49.14793" lon="1.72456">
        <ele>102</ele>
        <time>2015-09-06T06:56:05.000Z</time>
      </trkpt>
      <trkpt lat="49.14775" lon="1.72457">
        <ele>101</ele>
        <time>2015-09-06T06:56:07.000Z</time>
      </trkpt>
      <trkpt lat="49.14758" lon="1.7246">
        <ele>100</ele>
        <time>2015-09-06T06:56:09.000Z</time>
      </trkpt>
      <trkpt lat="49.14742" lon="1.72462">
        <ele>99</ele>
        <time>2015-09-06T06:56:11.000Z</time>
      </trkpt>
      <trkpt lat="49.14727" lon="1.72464">
        <ele>99</ele>
        <time>2015-09-06T06:56:13.000Z</time>
      </trkpt>
      <trkpt lat="49.14714" lon="1.72465">
        <ele>98</ele>
        <time>2015-09-06T06:56:15.000Z</time>
      </trkpt>
      <trkpt lat="49.14701" lon="1.72466">
        <ele>98</ele>
        <time>2015-09-06T06:56:17.000Z</time>
      </trkpt>
      <trkpt lat="49.14691" lon="1.72465">
        <ele>98</ele>
        <time>2015-09-06T06:56:19.000Z</time>
      </trkpt>
      <trkpt lat="49.14684" lon="1.7246">
        <ele>98</ele>
        <time>2015-09-06T06:56:21.000Z</time>
      </trkpt>
      <trkpt lat="49.14676" lon="1.72455">
        <ele>98</ele>
        <time>2015-09-06T06:56:23.000Z</time>
      </trkpt>
      <trkpt lat="49.14668" lon="1.72451">
        <ele>98</ele>
        <time>2015-09-06T06:56:25.000Z</time>
      </trkpt>
      <trkpt lat="49.1466" lon="1.72448">
        <ele>98</ele>
        <time>2015-09-06T06:56:27.000Z</time>
      </trkpt>
      <trkpt lat="49.14653" lon="1.72442">
        <ele>98</ele>
        <time>2015-09-06T06:56:29.000Z</time>
      </trkpt>
      <trkpt lat="49.14647" lon="1.72436">
        <ele>98</ele>
        <time>2015-09-06T06:56:31.000Z</time>
      </trkpt>
      <trkpt lat="49.14642" lon="1.72431">
        <ele>98</ele>
        <time>2015-09-06T06:56:33.000Z</time>
      </trkpt>
      <trkpt lat="49.14642" lon="1.72431">
        <ele>98</ele>
        <time>2015-09-06T06:56:35.000Z</time>
      </trkpt>
      <trkpt lat="49.14637" lon="1.72421">
        <ele>98</ele>
        <time>2015-09-06T06:56:37.000Z</time>
      </trkpt>
      <trkpt lat="49.14637" lon="1.72421">
        <ele>98</ele>
        <time>2015-09-06T06:56:39.000Z</time>
      </trkpt>
      <trkpt lat="49.14632" lon="1.72414">
        <ele>99</ele>
        <time>2015-09-06T06:56:41.000Z</time>
      </trkpt>
      <trkpt lat="49.14632" lon="1.72414">
        <ele>99</ele>
        <time>2015-09-06T06:56:43.000Z</time>
      </trkpt>
      <trkpt lat="49.14628" lon="1.72403">
        <ele>99</ele>
        <time>2015-09-06T06:56:45.000Z</time>
      </trkpt>
      <trkpt lat="49.14622" lon="1.72389">
        <ele>99</ele>
        <time>2015-09-06T06:56:49.000Z</time>
      </trkpt>
      <trkpt lat="49.14617" lon="1.72378">
        <ele>100</ele>
        <time>2015-09-06T06:56:53.000Z</time>
      </trkpt>
      <trkpt lat="49.14617" lon="1.72378">
        <ele>100</ele>
        <time>2015-09-06T06:56:55.000Z</time>
      </trkpt>
      <trkpt lat="49.14611" lon="1.72369">
        <ele>101</ele>
        <time>2015-09-06T06:56:57.000Z</time>
      </trkpt>
      <trkpt lat="49.14611" lon="1.72369">
        <ele>101</ele>
        <time>2015-09-06T06:56:59.000Z</time>
      </trkpt>
      <trkpt lat="49.14608" lon="1.72365">
        <ele>101</ele>
        <time>2015-09-06T06:57:01.000Z</time>
      </trkpt>
      <trkpt lat="49.14604" lon="1.72362">
        <ele>102</ele>
        <time>2015-09-06T06:57:03.000Z</time>
      </trkpt>
      <trkpt lat="49.14601" lon="1.7236">
        <ele>102</ele>
        <time>2015-09-06T06:57:05.000Z</time>
      </trkpt>
      <trkpt lat="49.14597" lon="1.72359">
        <ele>103</ele>
        <time>2015-09-06T06:57:07.000Z</time>
      </trkpt>
      <trkpt lat="49.14594" lon="1.72358">
        <ele>103</ele>
        <time>2015-09-06T06:57:09.000Z</time>
      </trkpt>
      <trkpt lat="49.14587" lon="1.72356">
        <ele>104</ele>
        <time>2015-09-06T06:57:11.000Z</time>
      </trkpt>
      <trkpt lat="49.14587" lon="1.72356">
        <ele>104</ele>
        <time>2015-09-06T06:57:13.000Z</time>
      </trkpt>
      <trkpt lat="49.14581" lon="1.72355">
        <ele>104</ele>
        <time>2015-09-06T06:57:15.000Z</time>
      </trkpt>
      <trkpt lat="49.14581" lon="1.72355">
        <ele>104</ele>
        <time>2015-09-06T06:57:17.000Z</time>
      </trkpt>
      <trkpt lat="49.14575" lon="1.72356">
        <ele>105</ele>
        <time>2015-09-06T06:57:19.000Z</time>
      </trkpt>
      <trkpt lat="49.14575" lon="1.72356">
        <ele>105</ele>
        <time>2015-09-06T06:57:21.000Z</time>
      </trkpt>
      <trkpt lat="49.14569" lon="1.72357">
        <ele>106</ele>
        <time>2015-09-06T06:57:23.000Z</time>
      </trkpt>
      <trkpt lat="49.14563" lon="1.72357">
        <ele>107</ele>
        <time>2015-09-06T06:57:27.000Z</time>
      </trkpt>
      <trkpt lat="49.14563" lon="1.72357">
        <ele>107</ele>
        <time>2015-09-06T06:57:29.000Z</time>
      </trkpt>
      <trkpt lat="49.14563" lon="1.72357">
        <ele>107</ele>
        <time>2015-09-06T06:57:31.000Z</time>
      </trkpt>
      <trkpt lat="49.14552" lon="1.72361">
        <ele>109</ele>
        <time>2015-09-06T06:57:35.000Z</time>
      </trkpt>
      <trkpt lat="49.14552" lon="1.72361">
        <ele>109</ele>
        <time>2015-09-06T06:57:37.000Z</time>
      </trkpt>
      <trkpt lat="49.14552" lon="1.72361">
        <ele>109</ele>
        <time>2015-09-06T06:57:39.000Z</time>
      </trkpt>
      <trkpt lat="49.1453" lon="1.72364">
        <ele>113</ele>
        <time>2015-09-06T06:57:49.000Z</time>
      </trkpt>
      <trkpt lat="49.14523" lon="1.72363">
        <ele>114</ele>
        <time>2015-09-06T06:57:53.000Z</time>
      </trkpt>
      <trkpt lat="49.14523" lon="1.72363">
        <ele>114</ele>
        <time>2015-09-06T06:57:55.000Z</time>
      </trkpt>
      <trkpt lat="49.14523" lon="1.72363">
        <ele>114</ele>
        <time>2015-09-06T06:57:57.000Z</time>
      </trkpt>
      <trkpt lat="49.14518" lon="1.72356">
        <ele>115</ele>
        <time>2015-09-06T06:57:59.000Z</time>
      </trkpt>
      <trkpt lat="49.14513" lon="1.72349">
        <ele>116</ele>
        <time>2015-09-06T06:58:03.000Z</time>
      </trkpt>
      <trkpt lat="49.14509" lon="1.72342">
        <ele>116</ele>
        <time>2015-09-06T06:58:07.000Z</time>
      </trkpt>
      <trkpt lat="49.14505" lon="1.72334">
        <ele>117</ele>
        <time>2015-09-06T06:58:11.000Z</time>
      </trkpt>
      <trkpt lat="49.14505" lon="1.72334">
        <ele>117</ele>
        <time>2015-09-06T06:58:13.000Z</time>
      </trkpt>
      <trkpt lat="49.14501" lon="1.72327">
        <ele>118</ele>
        <time>2015-09-06T06:58:15.000Z</time>
      </trkpt>
      <trkpt lat="49.14497" lon="1.72319">
        <ele>118</ele>
        <time>2015-09-06T06:58:19.000Z</time>
      </trkpt>
      <trkpt lat="49.14495" lon="1.72309">
        <ele>119</ele>
        <time>2015-09-06T06:58:23.000Z</time>
      </trkpt>
      <trkpt lat="49.14492" lon="1.72299">
        <ele>119</ele>
        <time>2015-09-06T06:58:27.000Z</time>
      </trkpt>
      <trkpt lat="49.14492" lon="1.72299">
        <ele>119</ele>
        <time>2015-09-06T06:58:29.000Z</time>
      </trkpt>
      <trkpt lat="49.1449" lon="1.7229">
        <ele>119</ele>
        <time>2015-09-06T06:58:31.000Z</time>
      </trkpt>
      <trkpt lat="49.14487" lon="1.7228">
        <ele>120</ele>
        <time>2015-09-06T06:58:35.000Z</time>
      </trkpt>
      <trkpt lat="49.14487" lon="1.7228">
        <ele>120</ele>
        <time>2015-09-06T06:58:37.000Z</time>
      </trkpt>
      <trkpt lat="49.14484" lon="1.72272">
        <ele>121</ele>
        <time>2015-09-06T06:58:39.000Z</time>
      </trkpt>
      <trkpt lat="49.14482" lon="1.72262">
        <ele>121</ele>
        <time>2015-09-06T06:58:43.000Z</time>
      </trkpt>
      <trkpt lat="49.14478" lon="1.72254">
        <ele>122</ele>
        <time>2015-09-06T06:58:47.000Z</time>
      </trkpt>
      <trkpt lat="49.14474" lon="1.72246">
        <ele>122</ele>
        <time>2015-09-06T06:58:51.000Z</time>
      </trkpt>
      <trkpt lat="49.1447" lon="1.72237">
        <ele>122</ele>
        <time>2015-09-06T06:58:55.000Z</time>
      </trkpt>
      <trkpt lat="49.14465" lon="1.72228">
        <ele>123</ele>
        <time>2015-09-06T06:58:59.000Z</time>
      </trkpt>
      <trkpt lat="49.14459" lon="1.72219">
        <ele>123</ele>
        <time>2015-09-06T06:59:03.000Z</time>
      </trkpt>
      <trkpt lat="49.14453" lon="1.72211">
        <ele>124</ele>
        <time>2015-09-06T06:59:07.000Z</time>
      </trkpt>
      <trkpt lat="49.14453" lon="1.72211">
        <ele>124</ele>
        <time>2015-09-06T06:59:09.000Z</time>
      </trkpt>
      <trkpt lat="49.14447" lon="1.72202">
        <ele>125</ele>
        <time>2015-09-06T06:59:11.000Z</time>
      </trkpt>
      <trkpt lat="49.14447" lon="1.72202">
        <ele>125</ele>
        <time>2015-09-06T06:59:13.000Z</time>
      </trkpt>
      <trkpt lat="49.14445" lon="1.72198">
        <ele>125</ele>
        <time>2015-09-06T06:59:15.000Z</time>
      </trkpt>
      <trkpt lat="49.14442" lon="1.72195">
        <ele>125</ele>
        <time>2015-09-06T06:59:17.000Z</time>
      </trkpt>
      <trkpt lat="49.1444" lon="1.72191">
        <ele>126</ele>
        <time>2015-09-06T06:59:19.000Z</time>
      </trkpt>
      <trkpt lat="49.14437" lon="1.72187">
        <ele>126</ele>
        <time>2015-09-06T06:59:21.000Z</time>
      </trkpt>
      <trkpt lat="49.14435" lon="1.72184">
        <ele>126</ele>
        <time>2015-09-06T06:59:23.000Z</time>
      </trkpt>
      <trkpt lat="49.1443" lon="1.72176">
        <ele>126</ele>
        <time>2015-09-06T06:59:25.000Z</time>
      </trkpt>
      <trkpt lat="49.1443" lon="1.72176">
        <ele>126</ele>
        <time>2015-09-06T06:59:27.000Z</time>
      </trkpt>
      <trkpt lat="49.14425" lon="1.72169">
        <ele>127</ele>
        <time>2015-09-06T06:59:29.000Z</time>
      </trkpt>
      <trkpt lat="49.14425" lon="1.72169">
        <ele>127</ele>
        <time>2015-09-06T06:59:31.000Z</time>
      </trkpt>
      <trkpt lat="49.14421" lon="1.72162">
        <ele>128</ele>
        <time>2015-09-06T06:59:33.000Z</time>
      </trkpt>
      <trkpt lat="49.14421" lon="1.72162">
        <ele>128</ele>
        <time>2015-09-06T06:59:35.000Z</time>
      </trkpt>
      <trkpt lat="49.14417" lon="1.72155">
        <ele>129</ele>
        <time>2015-09-06T06:59:37.000Z</time>
      </trkpt>
      <trkpt lat="49.14412" lon="1.72148">
        <ele>130</ele>
        <time>2015-09-06T06:59:41.000Z</time>
      </trkpt>
      <trkpt lat="49.14412" lon="1.72148">
        <ele>130</ele>
        <time>2015-09-06T06:59:43.000Z</time>
      </trkpt>
      <trkpt lat="49.14408" lon="1.72141">
        <ele>130</ele>
        <time>2015-09-06T06:59:45.000Z</time>
      </trkpt>
      <trkpt lat="49.14408" lon="1.72141">
        <ele>130</ele>
        <time>2015-09-06T06:59:47.000Z</time>
      </trkpt>
      <trkpt lat="49.14404" lon="1.72134">
        <ele>131</ele>
        <time>2015-09-06T06:59:49.000Z</time>
      </trkpt>
      <trkpt lat="49.14404" lon="1.72134">
        <ele>131</ele>
        <time>2015-09-06T06:59:51.000Z</time>
      </trkpt>
      <trkpt lat="49.14399" lon="1.72128">
        <ele>131</ele>
        <time>2015-09-06T06:59:53.000Z</time>
      </trkpt>
      <trkpt lat="49.14399" lon="1.72128">
        <ele>131</ele>
        <time>2015-09-06T06:59:55.000Z</time>
      </trkpt>
      <trkpt lat="49.14395" lon="1.72121">
        <ele>132</ele>
        <time>2015-09-06T06:59:57.000Z</time>
      </trkpt>
      <trkpt lat="49.14395" lon="1.72121">
        <ele>132</ele>
        <time>2015-09-06T06:59:59.000Z</time>
      </trkpt>
      <trkpt lat="49.14391" lon="1.72115">
        <ele>133</ele>
        <time>2015-09-06T07:00:01.000Z</time>
      </trkpt>
      <trkpt lat="49.14386" lon="1.72107">
        <ele>134</ele>
        <time>2015-09-06T07:00:05.000Z</time>
      </trkpt>
      <trkpt lat="49.14381" lon="1.721">
        <ele>134</ele>
        <time>2015-09-06T07:00:09.000Z</time>
      </trkpt>
      <trkpt lat="49.14381" lon="1.721">
        <ele>134</ele>
        <time>2015-09-06T07:00:11.000Z</time>
      </trkpt>
      <trkpt lat="49.14377" lon="1.72094">
        <ele>135</ele>
        <time>2015-09-06T07:00:13.000Z</time>
      </trkpt>
      <trkpt lat="49.14377" lon="1.72094">
        <ele>135</ele>
        <time>2015-09-06T07:00:14.000Z</time>
      </trkpt>
      <trkpt lat="49.14372" lon="1.72087">
        <ele>136</ele>
        <time>2015-09-06T07:00:16.000Z</time>
      </trkpt>
      <trkpt lat="49.14368" lon="1.7208">
        <ele>136</ele>
        <time>2015-09-06T07:00:20.000Z</time>
      </trkpt>
      <trkpt lat="49.14363" lon="1.72073">
        <ele>137</ele>
        <time>2015-09-06T07:00:24.000Z</time>
      </trkpt>
      <trkpt lat="49.14363" lon="1.72073">
        <ele>137</ele>
        <time>2015-09-06T07:00:26.000Z</time>
      </trkpt>
      <trkpt lat="49.14359" lon="1.72067">
        <ele>138</ele>
        <time>2015-09-06T07:00:28.000Z</time>
      </trkpt>
      <trkpt lat="49.14359" lon="1.72067">
        <ele>138</ele>
        <time>2015-09-06T07:00:30.000Z</time>
      </trkpt>
      <trkpt lat="49.14355" lon="1.7206">
        <ele>138</ele>
        <time>2015-09-06T07:00:32.000Z</time>
      </trkpt>
      <trkpt lat="49.1435" lon="1.72053">
        <ele>139</ele>
        <time>2015-09-06T07:00:36.000Z</time>
      </trkpt>
      <trkpt lat="49.14346" lon="1.72046">
        <ele>140</ele>
        <time>2015-09-06T07:00:40.000Z</time>
      </trkpt>
      <trkpt lat="49.14341" lon="1.7204">
        <ele>141</ele>
        <time>2015-09-06T07:00:44.000Z</time>
      </trkpt>
      <trkpt lat="49.14341" lon="1.7204">
        <ele>141</ele>
        <time>2015-09-06T07:00:46.000Z</time>
      </trkpt>
      <trkpt lat="49.14337" lon="1.72033">
        <ele>142</ele>
        <time>2015-09-06T07:00:48.000Z</time>
      </trkpt>
      <trkpt lat="49.14333" lon="1.72026">
        <ele>142</ele>
        <time>2015-09-06T07:00:52.000Z</time>
      </trkpt>
      <trkpt lat="49.14328" lon="1.72019">
        <ele>143</ele>
        <time>2015-09-06T07:00:56.000Z</time>
      </trkpt>
      <trkpt lat="49.14328" lon="1.72019">
        <ele>143</ele>
        <time>2015-09-06T07:00:58.000Z</time>
      </trkpt>
      <trkpt lat="49.14323" lon="1.72012">
        <ele>144</ele>
        <time>2015-09-06T07:01:00.000Z</time>
      </trkpt>
      <trkpt lat="49.14319" lon="1.72006">
        <ele>144</ele>
        <time>2015-09-06T07:01:04.000Z</time>
      </trkpt>
      <trkpt lat="49.14314" lon="1.71999">
        <ele>145</ele>
        <time>2015-09-06T07:01:08.000Z</time>
      </trkpt>
      <trkpt lat="49.1431" lon="1.71992">
        <ele>145</ele>
        <time>2015-09-06T07:01:12.000Z</time>
      </trkpt>
      <trkpt lat="49.14305" lon="1.71985">
        <ele>146</ele>
        <time>2015-09-06T07:01:16.000Z</time>
      </trkpt>
      <trkpt lat="49.14305" lon="1.71985">
        <ele>146</ele>
        <time>2015-09-06T07:01:18.000Z</time>
      </trkpt>
      <trkpt lat="49.14301" lon="1.71979">
        <ele>147</ele>
        <time>2015-09-06T07:01:20.000Z</time>
      </trkpt>
      <trkpt lat="49.14301" lon="1.71979">
        <ele>147</ele>
        <time>2015-09-06T07:01:22.000Z</time>
      </trkpt>
      <trkpt lat="49.14299" lon="1.71975">
        <ele>147</ele>
        <time>2015-09-06T07:01:24.000Z</time>
      </trkpt>
      <trkpt lat="49.14296" lon="1.71972">
        <ele>147</ele>
        <time>2015-09-06T07:01:26.000Z</time>
      </trkpt>
      <trkpt lat="49.14294" lon="1.71969">
        <ele>148</ele>
        <time>2015-09-06T07:01:28.000Z</time>
      </trkpt>
      <trkpt lat="49.14292" lon="1.71965">
        <ele>148</ele>
        <time>2015-09-06T07:01:30.000Z</time>
      </trkpt>
      <trkpt lat="49.14289" lon="1.71962">
        <ele>148</ele>
        <time>2015-09-06T07:01:32.000Z</time>
      </trkpt>
      <trkpt lat="49.14284" lon="1.71955">
        <ele>148</ele>
        <time>2015-09-06T07:01:34.000Z</time>
      </trkpt>
      <trkpt lat="49.14284" lon="1.71955">
        <ele>148</ele>
        <time>2015-09-06T07:01:36.000Z</time>
      </trkpt>
      <trkpt lat="49.1428" lon="1.71948">
        <ele>149</ele>
        <time>2015-09-06T07:01:38.000Z</time>
      </trkpt>
      <trkpt lat="49.1428" lon="1.71948">
        <ele>149</ele>
        <time>2015-09-06T07:01:40.000Z</time>
      </trkpt>
      <trkpt lat="49.14275" lon="1.71941">
        <ele>149</ele>
        <time>2015-09-06T07:01:42.000Z</time>
      </trkpt>
      <trkpt lat="49.14275" lon="1.71941">
        <ele>149</ele>
        <time>2015-09-06T07:01:44.000Z</time>
      </trkpt>
      <trkpt lat="49.14271" lon="1.71935">
        <ele>150</ele>
        <time>2015-09-06T07:01:46.000Z</time>
      </trkpt>
      <trkpt lat="49.14265" lon="1.71929">
        <ele>151</ele>
        <time>2015-09-06T07:01:50.000Z</time>
      </trkpt>
      <trkpt lat="49.14265" lon="1.71929">
        <ele>151</ele>
        <time>2015-09-06T07:01:52.000Z</time>
      </trkpt>
      <trkpt lat="49.1426" lon="1.71924">
        <ele>151</ele>
        <time>2015-09-06T07:01:54.000Z</time>
      </trkpt>
      <trkpt lat="49.1426" lon="1.71924">
        <ele>151</ele>
        <time>2015-09-06T07:01:56.000Z</time>
      </trkpt>
      <trkpt lat="49.14254" lon="1.7192">
        <ele>152</ele>
        <time>2015-09-06T07:01:58.000Z</time>
      </trkpt>
      <trkpt lat="49.14254" lon="1.7192">
        <ele>152</ele>
        <time>2015-09-06T07:02:00.000Z</time>
      </trkpt>
      <trkpt lat="49.14249" lon="1.71917">
        <ele>153</ele>
        <time>2015-09-06T07:02:02.000Z</time>
      </trkpt>
      <trkpt lat="49.14243" lon="1.71914">
        <ele>154</ele>
        <time>2015-09-06T07:02:06.000Z</time>
      </trkpt>
      <trkpt lat="49.14236" lon="1.71913">
        <ele>155</ele>
        <time>2015-09-06T07:02:10.000Z</time>
      </trkpt>
      <trkpt lat="49.1423" lon="1.71912">
        <ele>155</ele>
        <time>2015-09-06T07:02:14.000Z</time>
      </trkpt>
      <trkpt lat="49.14223" lon="1.71911">
        <ele>156</ele>
        <time>2015-09-06T07:02:18.000Z</time>
      </trkpt>
      <trkpt lat="49.14216" lon="1.7191">
        <ele>157</ele>
        <time>2015-09-06T07:02:22.000Z</time>
      </trkpt>
      <trkpt lat="49.14209" lon="1.71909">
        <ele>158</ele>
        <time>2015-09-06T07:02:26.000Z</time>
      </trkpt>
      <trkpt lat="49.14201" lon="1.71908">
        <ele>158</ele>
        <time>2015-09-06T07:02:30.000Z</time>
      </trkpt>
      <trkpt lat="49.14201" lon="1.71908">
        <ele>158</ele>
        <time>2015-09-06T07:02:32.000Z</time>
      </trkpt>
      <trkpt lat="49.14194" lon="1.71907">
        <ele>159</ele>
        <time>2015-09-06T07:02:34.000Z</time>
      </trkpt>
      <trkpt lat="49.14194" lon="1.71907">
        <ele>159</ele>
        <time>2015-09-06T07:02:36.000Z</time>
      </trkpt>
      <trkpt lat="49.14186" lon="1.71907">
        <ele>159</ele>
        <time>2015-09-06T07:02:38.000Z</time>
      </trkpt>
      <trkpt lat="49.14186" lon="1.71907">
        <ele>159</ele>
        <time>2015-09-06T07:02:40.000Z</time>
      </trkpt>
      <trkpt lat="49.14179" lon="1.71908">
        <ele>160</ele>
        <time>2015-09-06T07:02:42.000Z</time>
      </trkpt>
      <trkpt lat="49.14179" lon="1.71908">
        <ele>160</ele>
        <time>2015-09-06T07:02:44.000Z</time>
      </trkpt>
      <trkpt lat="49.14172" lon="1.71911">
        <ele>161</ele>
        <time>2015-09-06T07:03:34.000Z</time>
      </trkpt>
      <trkpt lat="49.14164" lon="1.71919">
        <ele>161</ele>
        <time>2015-09-06T07:03:38.000Z</time>
      </trkpt>
      <trkpt lat="49.14155" lon="1.71927">
        <ele>161</ele>
        <time>2015-09-06T07:03:42.000Z</time>
      </trkpt>
      <trkpt lat="49.14148" lon="1.71932">
        <ele>162</ele>
        <time>2015-09-06T07:03:46.000Z</time>
      </trkpt>
      <trkpt lat="49.14142" lon="1.71936">
        <ele>162</ele>
        <time>2015-09-06T07:03:50.000Z</time>
      </trkpt>
      <trkpt lat="49.14133" lon="1.71941">
        <ele>163</ele>
        <time>2015-09-06T07:03:54.000Z</time>
      </trkpt>
      <trkpt lat="49.14124" lon="1.71948">
        <ele>163</ele>
        <time>2015-09-06T07:03:58.000Z</time>
      </trkpt>
      <trkpt lat="49.14114" lon="1.71954">
        <ele>164</ele>
        <time>2015-09-06T07:04:02.000Z</time>
      </trkpt>
      <trkpt lat="49.14103" lon="1.71958">
        <ele>164</ele>
        <time>2015-09-06T07:04:06.000Z</time>
      </trkpt>
      <trkpt lat="49.14103" lon="1.71958">
        <ele>164</ele>
        <time>2015-09-06T07:04:08.000Z</time>
      </trkpt>
      <trkpt lat="49.14093" lon="1.7196">
        <ele>165</ele>
        <time>2015-09-06T07:04:10.000Z</time>
      </trkpt>
      <trkpt lat="49.14093" lon="1.7196">
        <ele>165</ele>
        <time>2015-09-06T07:04:12.000Z</time>
      </trkpt>
      <trkpt lat="49.14083" lon="1.71961">
        <ele>165</ele>
        <time>2015-09-06T07:04:14.000Z</time>
      </trkpt>
      <trkpt lat="49.14083" lon="1.71961">
        <ele>165</ele>
        <time>2015-09-06T07:04:16.000Z</time>
      </trkpt>
      <trkpt lat="49.14078" lon="1.71962">
        <ele>165</ele>
        <time>2015-09-06T07:04:18.000Z</time>
      </trkpt>
      <trkpt lat="49.14072" lon="1.71963">
        <ele>166</ele>
        <time>2015-09-06T07:04:20.000Z</time>
      </trkpt>
      <trkpt lat="49.14067" lon="1.71964">
        <ele>166</ele>
        <time>2015-09-06T07:04:22.000Z</time>
      </trkpt>
      <trkpt lat="49.14063" lon="1.71965">
        <ele>166</ele>
        <time>2015-09-06T07:04:24.000Z</time>
      </trkpt>
      <trkpt lat="49.14058" lon="1.71966">
        <ele>166</ele>
        <time>2015-09-06T07:04:26.000Z</time>
      </trkpt>
      <trkpt lat="49.14049" lon="1.71966">
        <ele>166</ele>
        <time>2015-09-06T07:04:28.000Z</time>
      </trkpt>
      <trkpt lat="49.14049" lon="1.71966">
        <ele>166</ele>
        <time>2015-09-06T07:04:30.000Z</time>
      </trkpt>
      <trkpt lat="49.1404" lon="1.71967">
        <ele>167</ele>
        <time>2015-09-06T07:04:32.000Z</time>
      </trkpt>
      <trkpt lat="49.14031" lon="1.7197">
        <ele>167</ele>
        <time>2015-09-06T07:04:36.000Z</time>
      </trkpt>
      <trkpt lat="49.14022" lon="1.71974">
        <ele>166</ele>
        <time>2015-09-06T07:04:40.000Z</time>
      </trkpt>
      <trkpt lat="49.14022" lon="1.71974">
        <ele>166</ele>
        <time>2015-09-06T07:04:42.000Z</time>
      </trkpt>
      <trkpt lat="49.14012" lon="1.71978">
        <ele>163</ele>
        <time>2015-09-06T07:04:44.000Z</time>
      </trkpt>
      <trkpt lat="49.14003" lon="1.7197">
        <ele>163</ele>
        <time>2015-09-06T07:04:48.000Z</time>
      </trkpt>
      <trkpt lat="49.13998" lon="1.71963">
        <ele>163</ele>
        <time>2015-09-06T07:04:50.000Z</time>
      </trkpt>
      <trkpt lat="49.13993" lon="1.71956">
        <ele>163</ele>
        <time>2015-09-06T07:04:52.000Z</time>
      </trkpt>
      <trkpt lat="49.13986" lon="1.71948">
        <ele>163</ele>
        <time>2015-09-06T07:04:54.000Z</time>
      </trkpt>
      <trkpt lat="49.13979" lon="1.71941">
        <ele>163</ele>
        <time>2015-09-06T07:04:56.000Z</time>
      </trkpt>
      <trkpt lat="49.13971" lon="1.71934">
        <ele>163</ele>
        <time>2015-09-06T07:04:58.000Z</time>
      </trkpt>
      <trkpt lat="49.13962" lon="1.71927">
        <ele>163</ele>
        <time>2015-09-06T07:05:00.000Z</time>
      </trkpt>
      <trkpt lat="49.13953" lon="1.71918">
        <ele>163</ele>
        <time>2015-09-06T07:05:02.000Z</time>
      </trkpt>
      <trkpt lat="49.13943" lon="1.71908">
        <ele>163</ele>
        <time>2015-09-06T07:05:04.000Z</time>
      </trkpt>
      <trkpt lat="49.13933" lon="1.71898">
        <ele>163</ele>
        <time>2015-09-06T07:05:06.000Z</time>
      </trkpt>
      <trkpt lat="49.13925" lon="1.71889">
        <ele>163</ele>
        <time>2015-09-06T07:05:08.000Z</time>
      </trkpt>
      <trkpt lat="49.13919" lon="1.7188">
        <ele>163</ele>
        <time>2015-09-06T07:05:10.000Z</time>
      </trkpt>
      <trkpt lat="49.13913" lon="1.71874">
        <ele>162</ele>
        <time>2015-09-06T07:05:12.000Z</time>
      </trkpt>
      <trkpt lat="49.13907" lon="1.71868">
        <ele>162</ele>
        <time>2015-09-06T07:05:14.000Z</time>
      </trkpt>
      <trkpt lat="49.13899" lon="1.71861">
        <ele>162</ele>
        <time>2015-09-06T07:05:16.000Z</time>
      </trkpt>
      <trkpt lat="49.13891" lon="1.71854">
        <ele>162</ele>
        <time>2015-09-06T07:05:18.000Z</time>
      </trkpt>
      <trkpt lat="49.13882" lon="1.71849">
        <ele>162</ele>
        <time>2015-09-06T07:05:20.000Z</time>
      </trkpt>
      <trkpt lat="49.13874" lon="1.71845">
        <ele>161</ele>
        <time>2015-09-06T07:05:22.000Z</time>
      </trkpt>
      <trkpt lat="49.13865" lon="1.71842">
        <ele>162</ele>
        <time>2015-09-06T07:05:24.000Z</time>
      </trkpt>
      <trkpt lat="49.13857" lon="1.71841">
        <ele>162</ele>
        <time>2015-09-06T07:05:26.000Z</time>
      </trkpt>
      <trkpt lat="49.13848" lon="1.7184">
        <ele>162</ele>
        <time>2015-09-06T07:05:28.000Z</time>
      </trkpt>
      <trkpt lat="49.1384" lon="1.71837">
        <ele>162</ele>
        <time>2015-09-06T07:05:30.000Z</time>
      </trkpt>
      <trkpt lat="49.13831" lon="1.71835">
        <ele>162</ele>
        <time>2015-09-06T07:05:32.000Z</time>
      </trkpt>
      <trkpt lat="49.13822" lon="1.71834">
        <ele>162</ele>
        <time>2015-09-06T07:05:34.000Z</time>
      </trkpt>
      <trkpt lat="49.13814" lon="1.71834">
        <ele>163</ele>
        <time>2015-09-06T07:05:36.000Z</time>
      </trkpt>
      <trkpt lat="49.13806" lon="1.71833">
        <ele>163</ele>
        <time>2015-09-06T07:05:38.000Z</time>
      </trkpt>
      <trkpt lat="49.13798" lon="1.71833">
        <ele>163</ele>
        <time>2015-09-06T07:05:40.000Z</time>
      </trkpt>
      <trkpt lat="49.1379" lon="1.71833">
        <ele>163</ele>
        <time>2015-09-06T07:05:42.000Z</time>
      </trkpt>
      <trkpt lat="49.13782" lon="1.71832">
        <ele>164</ele>
        <time>2015-09-06T07:05:44.000Z</time>
      </trkpt>
      <trkpt lat="49.13774" lon="1.71832">
        <ele>164</ele>
        <time>2015-09-06T07:05:46.000Z</time>
      </trkpt>
      <trkpt lat="49.13766" lon="1.71832">
        <ele>164</ele>
        <time>2015-09-06T07:05:48.000Z</time>
      </trkpt>
      <trkpt lat="49.13759" lon="1.71831">
        <ele>164</ele>
        <time>2015-09-06T07:05:50.000Z</time>
      </trkpt>
      <trkpt lat="49.13752" lon="1.71831">
        <ele>165</ele>
        <time>2015-09-06T07:05:52.000Z</time>
      </trkpt>
      <trkpt lat="49.13744" lon="1.7183">
        <ele>165</ele>
        <time>2015-09-06T07:05:54.000Z</time>
      </trkpt>
      <trkpt lat="49.13737" lon="1.7183">
        <ele>165</ele>
        <time>2015-09-06T07:05:56.000Z</time>
      </trkpt>
      <trkpt lat="49.13731" lon="1.71829">
        <ele>166</ele>
        <time>2015-09-06T07:05:58.000Z</time>
      </trkpt>
      <trkpt lat="49.13724" lon="1.71828">
        <ele>166</ele>
        <time>2015-09-06T07:06:00.000Z</time>
      </trkpt>
      <trkpt lat="49.13717" lon="1.71825">
        <ele>166</ele>
        <time>2015-09-06T07:06:02.000Z</time>
      </trkpt>
      <trkpt lat="49.1371" lon="1.71823">
        <ele>166</ele>
        <time>2015-09-06T07:06:04.000Z</time>
      </trkpt>
      <trkpt lat="49.13703" lon="1.7182">
        <ele>167</ele>
        <time>2015-09-06T07:06:06.000Z</time>
      </trkpt>
      <trkpt lat="49.13696" lon="1.71818">
        <ele>167</ele>
        <time>2015-09-06T07:06:08.000Z</time>
      </trkpt>
      <trkpt lat="49.13689" lon="1.71816">
        <ele>167</ele>
        <time>2015-09-06T07:06:10.000Z</time>
      </trkpt>
      <trkpt lat="49.13682" lon="1.71813">
        <ele>168</ele>
        <time>2015-09-06T07:06:12.000Z</time>
      </trkpt>
      <trkpt lat="49.13675" lon="1.7181">
        <ele>168</ele>
        <time>2015-09-06T07:06:14.000Z</time>
      </trkpt>
      <trkpt lat="49.13667" lon="1.71808">
        <ele>168</ele>
        <time>2015-09-06T07:06:16.000Z</time>
      </trkpt>
      <trkpt lat="49.1366" lon="1.71806">
        <ele>168</ele>
        <time>2015-09-06T07:06:18.000Z</time>
      </trkpt>
      <trkpt lat="49.13652" lon="1.71804">
        <ele>168</ele>
        <time>2015-09-06T07:06:20.000Z</time>
      </trkpt>
      <trkpt lat="49.13645" lon="1.71801">
        <ele>168</ele>
        <time>2015-09-06T07:06:22.000Z</time>
      </trkpt>
      <trkpt lat="49.13638" lon="1.71799">
        <ele>169</ele>
        <time>2015-09-06T07:06:24.000Z</time>
      </trkpt>
      <trkpt lat="49.1363" lon="1.71797">
        <ele>169</ele>
        <time>2015-09-06T07:06:26.000Z</time>
      </trkpt>
      <trkpt lat="49.13623" lon="1.71795">
        <ele>169</ele>
        <time>2015-09-06T07:06:28.000Z</time>
      </trkpt>
      <trkpt lat="49.13616" lon="1.71793">
        <ele>169</ele>
        <time>2015-09-06T07:06:30.000Z</time>
      </trkpt>
      <trkpt lat="49.13609" lon="1.71792">
        <ele>169</ele>
        <time>2015-09-06T07:06:32.000Z</time>
      </trkpt>
      <trkpt lat="49.13602" lon="1.71791">
        <ele>170</ele>
        <time>2015-09-06T07:06:34.000Z</time>
      </trkpt>
      <trkpt lat="49.13594" lon="1.7179">
        <ele>170</ele>
        <time>2015-09-06T07:06:36.000Z</time>
      </trkpt>
      <trkpt lat="49.13587" lon="1.71789">
        <ele>170</ele>
        <time>2015-09-06T07:06:38.000Z</time>
      </trkpt>
      <trkpt lat="49.13581" lon="1.71787">
        <ele>171</ele>
        <time>2015-09-06T07:06:40.000Z</time>
      </trkpt>
      <trkpt lat="49.13573" lon="1.71786">
        <ele>171</ele>
        <time>2015-09-06T07:06:42.000Z</time>
      </trkpt>
      <trkpt lat="49.13566" lon="1.71785">
        <ele>171</ele>
        <time>2015-09-06T07:06:44.000Z</time>
      </trkpt>
      <trkpt lat="49.13558" lon="1.71784">
        <ele>171</ele>
        <time>2015-09-06T07:06:46.000Z</time>
      </trkpt>
      <trkpt lat="49.13551" lon="1.71783">
        <ele>171</ele>
        <time>2015-09-06T07:06:48.000Z</time>
      </trkpt>
      <trkpt lat="49.13543" lon="1.71782">
        <ele>171</ele>
        <time>2015-09-06T07:06:50.000Z</time>
      </trkpt>
      <trkpt lat="49.13535" lon="1.71781">
        <ele>172</ele>
        <time>2015-09-06T07:06:52.000Z</time>
      </trkpt>
      <trkpt lat="49.13527" lon="1.7178">
        <ele>172</ele>
        <time>2015-09-06T07:06:54.000Z</time>
      </trkpt>
      <trkpt lat="49.1352" lon="1.71778">
        <ele>172</ele>
        <time>2015-09-06T07:06:56.000Z</time>
      </trkpt>
      <trkpt lat="49.13512" lon="1.71776">
        <ele>172</ele>
        <time>2015-09-06T07:06:58.000Z</time>
      </trkpt>
      <trkpt lat="49.13504" lon="1.71775">
        <ele>172</ele>
        <time>2015-09-06T07:07:00.000Z</time>
      </trkpt>
      <trkpt lat="49.13496" lon="1.71773">
        <ele>172</ele>
        <time>2015-09-06T07:07:02.000Z</time>
      </trkpt>
      <trkpt lat="49.13488" lon="1.71772">
        <ele>173</ele>
        <time>2015-09-06T07:07:04.000Z</time>
      </trkpt>
      <trkpt lat="49.1348" lon="1.71771">
        <ele>173</ele>
        <time>2015-09-06T07:07:06.000Z</time>
      </trkpt>
      <trkpt lat="49.13473" lon="1.7177">
        <ele>173</ele>
        <time>2015-09-06T07:07:08.000Z</time>
      </trkpt>
      <trkpt lat="49.13465" lon="1.71768">
        <ele>174</ele>
        <time>2015-09-06T07:07:10.000Z</time>
      </trkpt>
      <trkpt lat="49.13458" lon="1.71767">
        <ele>174</ele>
        <time>2015-09-06T07:07:12.000Z</time>
      </trkpt>
      <trkpt lat="49.1345" lon="1.71765">
        <ele>174</ele>
        <time>2015-09-06T07:07:14.000Z</time>
      </trkpt>
      <trkpt lat="49.13442" lon="1.71764">
        <ele>175</ele>
        <time>2015-09-06T07:07:16.000Z</time>
      </trkpt>
      <trkpt lat="49.13434" lon="1.71763">
        <ele>175</ele>
        <time>2015-09-06T07:07:18.000Z</time>
      </trkpt>
      <trkpt lat="49.13426" lon="1.71761">
        <ele>175</ele>
        <time>2015-09-06T07:07:20.000Z</time>
      </trkpt>
      <trkpt lat="49.13417" lon="1.7176">
        <ele>175</ele>
        <time>2015-09-06T07:07:22.000Z</time>
      </trkpt>
      <trkpt lat="49.13409" lon="1.71758">
        <ele>176</ele>
        <time>2015-09-06T07:07:24.000Z</time>
      </trkpt>
      <trkpt lat="49.13401" lon="1.71757">
        <ele>176</ele>
        <time>2015-09-06T07:07:26.000Z</time>
      </trkpt>
      <trkpt lat="49.13393" lon="1.71756">
        <ele>176</ele>
        <time>2015-09-06T07:07:28.000Z</time>
      </trkpt>
      <trkpt lat="49.13385" lon="1.71755">
        <ele>176</ele>
        <time>2015-09-06T07:07:30.000Z</time>
      </trkpt>
      <trkpt lat="49.13377" lon="1.71753">
        <ele>177</ele>
        <time>2015-09-06T07:07:32.000Z</time>
      </trkpt>
      <trkpt lat="49.13368" lon="1.71752">
        <ele>177</ele>
        <time>2015-09-06T07:07:34.000Z</time>
      </trkpt>
      <trkpt lat="49.1336" lon="1.71751">
        <ele>177</ele>
        <time>2015-09-06T07:07:36.000Z</time>
      </trkpt>
      <trkpt lat="49.13352" lon="1.71749">
        <ele>177</ele>
        <time>2015-09-06T07:07:38.000Z</time>
      </trkpt>
      <trkpt lat="49.13344" lon="1.71748">
        <ele>177</ele>
        <time>2015-09-06T07:07:40.000Z</time>
      </trkpt>
      <trkpt lat="49.13336" lon="1.71747">
        <ele>178</ele>
        <time>2015-09-06T07:07:42.000Z</time>
      </trkpt>
      <trkpt lat="49.13328" lon="1.71745">
        <ele>178</ele>
        <time>2015-09-06T07:07:44.000Z</time>
      </trkpt>
      <trkpt lat="49.13321" lon="1.71744">
        <ele>178</ele>
        <time>2015-09-06T07:07:46.000Z</time>
      </trkpt>
      <trkpt lat="49.13313" lon="1.71742">
        <ele>179</ele>
        <time>2015-09-06T07:07:48.000Z</time>
      </trkpt>
      <trkpt lat="49.13305" lon="1.71741">
        <ele>179</ele>
        <time>2015-09-06T07:07:50.000Z</time>
      </trkpt>
      <trkpt lat="49.13298" lon="1.7174">
        <ele>179</ele>
        <time>2015-09-06T07:07:52.000Z</time>
      </trkpt>
      <trkpt lat="49.1329" lon="1.71739">
        <ele>179</ele>
        <time>2015-09-06T07:07:54.000Z</time>
      </trkpt>
      <trkpt lat="49.13284" lon="1.71738">
        <ele>180</ele>
        <time>2015-09-06T07:07:56.000Z</time>
      </trkpt>
      <trkpt lat="49.13277" lon="1.71736">
        <ele>180</ele>
        <time>2015-09-06T07:07:58.000Z</time>
      </trkpt>
      <trkpt lat="49.13271" lon="1.71735">
        <ele>180</ele>
        <time>2015-09-06T07:08:00.000Z</time>
      </trkpt>
      <trkpt lat="49.13271" lon="1.71735">
        <ele>180</ele>
        <time>2015-09-06T07:08:02.000Z</time>
      </trkpt>
      <trkpt lat="49.1326" lon="1.71733">
        <ele>181</ele>
        <time>2015-09-06T07:08:04.000Z</time>
      </trkpt>
      <trkpt lat="49.1326" lon="1.71733">
        <ele>181</ele>
        <time>2015-09-06T07:08:06.000Z</time>
      </trkpt>
      <trkpt lat="49.13251" lon="1.71732">
        <ele>181</ele>
        <time>2015-09-06T07:08:08.000Z</time>
      </trkpt>
      <trkpt lat="49.13251" lon="1.71732">
        <ele>181</ele>
        <time>2015-09-06T07:08:10.000Z</time>
      </trkpt>
      <trkpt lat="49.1324" lon="1.71729">
        <ele>181</ele>
        <time>2015-09-06T07:08:12.000Z</time>
      </trkpt>
      <trkpt lat="49.13233" lon="1.71728">
        <ele>181</ele>
        <time>2015-09-06T07:08:14.000Z</time>
      </trkpt>
      <trkpt lat="49.13226" lon="1.71727">
        <ele>181</ele>
        <time>2015-09-06T07:08:16.000Z</time>
      </trkpt>
      <trkpt lat="49.13218" lon="1.71727">
        <ele>182</ele>
        <time>2015-09-06T07:08:18.000Z</time>
      </trkpt>
      <trkpt lat="49.13211" lon="1.71728">
        <ele>182</ele>
        <time>2015-09-06T07:08:20.000Z</time>
      </trkpt>
      <trkpt lat="49.13204" lon="1.71727">
        <ele>182</ele>
        <time>2015-09-06T07:08:22.000Z</time>
      </trkpt>
      <trkpt lat="49.13197" lon="1.71726">
        <ele>182</ele>
        <time>2015-09-06T07:08:24.000Z</time>
      </trkpt>
      <trkpt lat="49.13189" lon="1.71725">
        <ele>182</ele>
        <time>2015-09-06T07:08:26.000Z</time>
      </trkpt>
      <trkpt lat="49.13182" lon="1.71724">
        <ele>182</ele>
        <time>2015-09-06T07:08:28.000Z</time>
      </trkpt>
      <trkpt lat="49.13176" lon="1.71725">
        <ele>182</ele>
        <time>2015-09-06T07:08:30.000Z</time>
      </trkpt>
      <trkpt lat="49.13171" lon="1.71729">
        <ele>182</ele>
        <time>2015-09-06T07:08:32.000Z</time>
      </trkpt>
      <trkpt lat="49.13167" lon="1.71737">
        <ele>183</ele>
        <time>2015-09-06T07:08:34.000Z</time>
      </trkpt>
      <trkpt lat="49.13167" lon="1.71747">
        <ele>183</ele>
        <time>2015-09-06T07:08:36.000Z</time>
      </trkpt>
      <trkpt lat="49.1317" lon="1.71758">
        <ele>184</ele>
        <time>2015-09-06T07:08:38.000Z</time>
      </trkpt>
      <trkpt lat="49.13173" lon="1.7177">
        <ele>184</ele>
        <time>2015-09-06T07:08:40.000Z</time>
      </trkpt>
      <trkpt lat="49.13176" lon="1.71781">
        <ele>184</ele>
        <time>2015-09-06T07:08:42.000Z</time>
      </trkpt>
      <trkpt lat="49.13179" lon="1.71792">
        <ele>184</ele>
        <time>2015-09-06T07:08:44.000Z</time>
      </trkpt>
      <trkpt lat="49.13182" lon="1.71803">
        <ele>184</ele>
        <time>2015-09-06T07:08:46.000Z</time>
      </trkpt>
      <trkpt lat="49.13185" lon="1.71812">
        <ele>184</ele>
        <time>2015-09-06T07:08:48.000Z</time>
      </trkpt>
      <trkpt lat="49.13187" lon="1.71821">
        <ele>184</ele>
        <time>2015-09-06T07:08:50.000Z</time>
      </trkpt>
      <trkpt lat="49.13187" lon="1.71821">
        <ele>184</ele>
        <time>2015-09-06T07:08:52.000Z</time>
      </trkpt>
      <trkpt lat="49.1318" lon="1.71831">
        <ele>184</ele>
        <time>2015-09-06T07:08:54.000Z</time>
      </trkpt>
      <trkpt lat="49.13175" lon="1.71835">
        <ele>184</ele>
        <time>2015-09-06T07:08:56.000Z</time>
      </trkpt>
      <trkpt lat="49.13169" lon="1.71839">
        <ele>184</ele>
        <time>2015-09-06T07:08:58.000Z</time>
      </trkpt>
      <trkpt lat="49.13163" lon="1.71843">
        <ele>184</ele>
        <time>2015-09-06T07:09:00.000Z</time>
      </trkpt>
      <trkpt lat="49.13156" lon="1.71848">
        <ele>184</ele>
        <time>2015-09-06T07:09:02.000Z</time>
      </trkpt>
      <trkpt lat="49.1315" lon="1.71853">
        <ele>184</ele>
        <time>2015-09-06T07:09:04.000Z</time>
      </trkpt>
      <trkpt lat="49.13142" lon="1.71859">
        <ele>184</ele>
        <time>2015-09-06T07:09:06.000Z</time>
      </trkpt>
      <trkpt lat="49.13135" lon="1.71865">
        <ele>184</ele>
        <time>2015-09-06T07:09:08.000Z</time>
      </trkpt>
      <trkpt lat="49.13128" lon="1.7187">
        <ele>184</ele>
        <time>2015-09-06T07:09:10.000Z</time>
      </trkpt>
      <trkpt lat="49.1312" lon="1.71876">
        <ele>184</ele>
        <time>2015-09-06T07:09:12.000Z</time>
      </trkpt>
      <trkpt lat="49.13113" lon="1.71882">
        <ele>184</ele>
        <time>2015-09-06T07:09:14.000Z</time>
      </trkpt>
      <trkpt lat="49.13105" lon="1.71887">
        <ele>184</ele>
        <time>2015-09-06T07:09:16.000Z</time>
      </trkpt>
      <trkpt lat="49.13097" lon="1.71893">
        <ele>184</ele>
        <time>2015-09-06T07:09:18.000Z</time>
      </trkpt>
      <trkpt lat="49.1309" lon="1.71899">
        <ele>184</ele>
        <time>2015-09-06T07:09:20.000Z</time>
      </trkpt>
      <trkpt lat="49.13083" lon="1.71905">
        <ele>184</ele>
        <time>2015-09-06T07:09:22.000Z</time>
      </trkpt>
      <trkpt lat="49.13075" lon="1.71911">
        <ele>184</ele>
        <time>2015-09-06T07:09:24.000Z</time>
      </trkpt>
      <trkpt lat="49.13067" lon="1.71917">
        <ele>184</ele>
        <time>2015-09-06T07:09:26.000Z</time>
      </trkpt>
      <trkpt lat="49.1306" lon="1.71923">
        <ele>184</ele>
        <time>2015-09-06T07:09:28.000Z</time>
      </trkpt>
      <trkpt lat="49.13052" lon="1.71928">
        <ele>184</ele>
        <time>2015-09-06T07:09:30.000Z</time>
      </trkpt>
      <trkpt lat="49.13044" lon="1.71933">
        <ele>184</ele>
        <time>2015-09-06T07:09:32.000Z</time>
      </trkpt>
      <trkpt lat="49.13037" lon="1.7194">
        <ele>184</ele>
        <time>2015-09-06T07:09:34.000Z</time>
      </trkpt>
      <trkpt lat="49.13029" lon="1.71947">
        <ele>184</ele>
        <time>2015-09-06T07:09:36.000Z</time>
      </trkpt>
      <trkpt lat="49.13021" lon="1.71953">
        <ele>184</ele>
        <time>2015-09-06T07:09:38.000Z</time>
      </trkpt>
      <trkpt lat="49.13013" lon="1.7196">
        <ele>183</ele>
        <time>2015-09-06T07:09:40.000Z</time>
      </trkpt>
      <trkpt lat="49.13005" lon="1.71967">
        <ele>183</ele>
        <time>2015-09-06T07:09:42.000Z</time>
      </trkpt>
      <trkpt lat="49.12996" lon="1.71973">
        <ele>183</ele>
        <time>2015-09-06T07:09:44.000Z</time>
      </trkpt>
      <trkpt lat="49.12988" lon="1.7198">
        <ele>183</ele>
        <time>2015-09-06T07:09:46.000Z</time>
      </trkpt>
      <trkpt lat="49.1298" lon="1.71987">
        <ele>183</ele>
        <time>2015-09-06T07:09:48.000Z</time>
      </trkpt>
      <trkpt lat="49.12971" lon="1.71994">
        <ele>182</ele>
        <time>2015-09-06T07:09:50.000Z</time>
      </trkpt>
      <trkpt lat="49.12963" lon="1.72002">
        <ele>182</ele>
        <time>2015-09-06T07:09:52.000Z</time>
      </trkpt>
      <trkpt lat="49.12954" lon="1.72009">
        <ele>182</ele>
        <time>2015-09-06T07:09:54.000Z</time>
      </trkpt>
      <trkpt lat="49.12946" lon="1.72017">
        <ele>182</ele>
        <time>2015-09-06T07:09:56.000Z</time>
      </trkpt>
      <trkpt lat="49.12938" lon="1.72024">
        <ele>182</ele>
        <time>2015-09-06T07:09:58.000Z</time>
      </trkpt>
      <trkpt lat="49.12929" lon="1.72032">
        <ele>181</ele>
        <time>2015-09-06T07:10:00.000Z</time>
      </trkpt>
      <trkpt lat="49.12921" lon="1.7204">
        <ele>181</ele>
        <time>2015-09-06T07:10:02.000Z</time>
      </trkpt>
      <trkpt lat="49.12912" lon="1.72048">
        <ele>181</ele>
        <time>2015-09-06T07:10:04.000Z</time>
      </trkpt>
      <trkpt lat="49.12904" lon="1.72057">
        <ele>182</ele>
        <time>2015-09-06T07:10:06.000Z</time>
      </trkpt>
      <trkpt lat="49.12897" lon="1.72067">
        <ele>182</ele>
        <time>2015-09-06T07:10:08.000Z</time>
      </trkpt>
      <trkpt lat="49.12891" lon="1.72078">
        <ele>181</ele>
        <time>2015-09-06T07:10:10.000Z</time>
      </trkpt>
      <trkpt lat="49.12885" lon="1.72089">
        <ele>182</ele>
        <time>2015-09-06T07:10:12.000Z</time>
      </trkpt>
      <trkpt lat="49.12878" lon="1.721">
        <ele>182</ele>
        <time>2015-09-06T07:10:14.000Z</time>
      </trkpt>
      <trkpt lat="49.12872" lon="1.72111">
        <ele>182</ele>
        <time>2015-09-06T07:10:16.000Z</time>
      </trkpt>
      <trkpt lat="49.12866" lon="1.72121">
        <ele>182</ele>
        <time>2015-09-06T07:10:18.000Z</time>
      </trkpt>
      <trkpt lat="49.1286" lon="1.7213">
        <ele>182</ele>
        <time>2015-09-06T07:10:20.000Z</time>
      </trkpt>
      <trkpt lat="49.12853" lon="1.72138">
        <ele>182</ele>
        <time>2015-09-06T07:10:22.000Z</time>
      </trkpt>
      <trkpt lat="49.12846" lon="1.72147">
        <ele>183</ele>
        <time>2015-09-06T07:10:24.000Z</time>
      </trkpt>
      <trkpt lat="49.12839" lon="1.72154">
        <ele>183</ele>
        <time>2015-09-06T07:10:26.000Z</time>
      </trkpt>
      <trkpt lat="49.12832" lon="1.72161">
        <ele>183</ele>
        <time>2015-09-06T07:10:28.000Z</time>
      </trkpt>
      <trkpt lat="49.12824" lon="1.72169">
        <ele>182</ele>
        <time>2015-09-06T07:10:30.000Z</time>
      </trkpt>
      <trkpt lat="49.12817" lon="1.72176">
        <ele>182</ele>
        <time>2015-09-06T07:10:32.000Z</time>
      </trkpt>
      <trkpt lat="49.12809" lon="1.72183">
        <ele>182</ele>
        <time>2015-09-06T07:10:34.000Z</time>
      </trkpt>
      <trkpt lat="49.12801" lon="1.72191">
        <ele>182</ele>
        <time>2015-09-06T07:10:36.000Z</time>
      </trkpt>
      <trkpt lat="49.12793" lon="1.72198">
        <ele>182</ele>
        <time>2015-09-06T07:10:38.000Z</time>
      </trkpt>
      <trkpt lat="49.12786" lon="1.72206">
        <ele>182</ele>
        <time>2015-09-06T07:10:40.000Z</time>
      </trkpt>
      <trkpt lat="49.12778" lon="1.72213">
        <ele>182</ele>
        <time>2015-09-06T07:10:42.000Z</time>
      </trkpt>
      <trkpt lat="49.12771" lon="1.72221">
        <ele>182</ele>
        <time>2015-09-06T07:10:44.000Z</time>
      </trkpt>
      <trkpt lat="49.12765" lon="1.72229">
        <ele>182</ele>
        <time>2015-09-06T07:10:46.000Z</time>
      </trkpt>
      <trkpt lat="49.12758" lon="1.72235">
        <ele>182</ele>
        <time>2015-09-06T07:10:48.000Z</time>
      </trkpt>
      <trkpt lat="49.12751" lon="1.72243">
        <ele>181</ele>
        <time>2015-09-06T07:10:50.000Z</time>
      </trkpt>
      <trkpt lat="49.12743" lon="1.7225">
        <ele>181</ele>
        <time>2015-09-06T07:10:52.000Z</time>
      </trkpt>
      <trkpt lat="49.12735" lon="1.72258">
        <ele>181</ele>
        <time>2015-09-06T07:10:54.000Z</time>
      </trkpt>
      <trkpt lat="49.12727" lon="1.72266">
        <ele>181</ele>
        <time>2015-09-06T07:10:56.000Z</time>
      </trkpt>
      <trkpt lat="49.12719" lon="1.72272">
        <ele>181</ele>
        <time>2015-09-06T07:10:58.000Z</time>
      </trkpt>
      <trkpt lat="49.12711" lon="1.72278">
        <ele>181</ele>
        <time>2015-09-06T07:11:00.000Z</time>
      </trkpt>
      <trkpt lat="49.12703" lon="1.72284">
        <ele>181</ele>
        <time>2015-09-06T07:11:02.000Z</time>
      </trkpt>
      <trkpt lat="49.12695" lon="1.72289">
        <ele>181</ele>
        <time>2015-09-06T07:11:04.000Z</time>
      </trkpt>
      <trkpt lat="49.12687" lon="1.72295">
        <ele>181</ele>
        <time>2015-09-06T07:11:06.000Z</time>
      </trkpt>
      <trkpt lat="49.1268" lon="1.72301">
        <ele>181</ele>
        <time>2015-09-06T07:11:08.000Z</time>
      </trkpt>
      <trkpt lat="49.12672" lon="1.72307">
        <ele>181</ele>
        <time>2015-09-06T07:11:10.000Z</time>
      </trkpt>
      <trkpt lat="49.12664" lon="1.72314">
        <ele>181</ele>
        <time>2015-09-06T07:11:12.000Z</time>
      </trkpt>
      <trkpt lat="49.12655" lon="1.7232">
        <ele>181</ele>
        <time>2015-09-06T07:11:14.000Z</time>
      </trkpt>
      <trkpt lat="49.12647" lon="1.72327">
        <ele>180</ele>
        <time>2015-09-06T07:11:16.000Z</time>
      </trkpt>
      <trkpt lat="49.12639" lon="1.72333">
        <ele>180</ele>
        <time>2015-09-06T07:11:18.000Z</time>
      </trkpt>
      <trkpt lat="49.12631" lon="1.72341">
        <ele>181</ele>
        <time>2015-09-06T07:11:20.000Z</time>
      </trkpt>
      <trkpt lat="49.12624" lon="1.72347">
        <ele>181</ele>
        <time>2015-09-06T07:11:22.000Z</time>
      </trkpt>
      <trkpt lat="49.12616" lon="1.72354">
        <ele>181</ele>
        <time>2015-09-06T07:11:24.000Z</time>
      </trkpt>
      <trkpt lat="49.12609" lon="1.7236">
        <ele>181</ele>
        <time>2015-09-06T07:11:26.000Z</time>
      </trkpt>
      <trkpt lat="49.12601" lon="1.72367">
        <ele>181</ele>
        <time>2015-09-06T07:11:28.000Z</time>
      </trkpt>
      <trkpt lat="49.12594" lon="1.72373">
        <ele>181</ele>
        <time>2015-09-06T07:11:30.000Z</time>
      </trkpt>
      <trkpt lat="49.12587" lon="1.7238">
        <ele>181</ele>
        <time>2015-09-06T07:11:32.000Z</time>
      </trkpt>
      <trkpt lat="49.1258" lon="1.72386">
        <ele>181</ele>
        <time>2015-09-06T07:11:34.000Z</time>
      </trkpt>
      <trkpt lat="49.12572" lon="1.72393">
        <ele>181</ele>
        <time>2015-09-06T07:11:36.000Z</time>
      </trkpt>
      <trkpt lat="49.12566" lon="1.72399">
        <ele>181</ele>
        <time>2015-09-06T07:11:38.000Z</time>
      </trkpt>
      <trkpt lat="49.12558" lon="1.72405">
        <ele>181</ele>
        <time>2015-09-06T07:11:40.000Z</time>
      </trkpt>
      <trkpt lat="49.12551" lon="1.72411">
        <ele>181</ele>
        <time>2015-09-06T07:11:42.000Z</time>
      </trkpt>
      <trkpt lat="49.12545" lon="1.72417">
        <ele>181</ele>
        <time>2015-09-06T07:11:44.000Z</time>
      </trkpt>
      <trkpt lat="49.12538" lon="1.72423">
        <ele>181</ele>
        <time>2015-09-06T07:11:46.000Z</time>
      </trkpt>
      <trkpt lat="49.12531" lon="1.72429">
        <ele>181</ele>
        <time>2015-09-06T07:11:48.000Z</time>
      </trkpt>
      <trkpt lat="49.12524" lon="1.72435">
        <ele>181</ele>
        <time>2015-09-06T07:11:50.000Z</time>
      </trkpt>
      <trkpt lat="49.12517" lon="1.72441">
        <ele>181</ele>
        <time>2015-09-06T07:11:52.000Z</time>
      </trkpt>
      <trkpt lat="49.1251" lon="1.72447">
        <ele>181</ele>
        <time>2015-09-06T07:11:54.000Z</time>
      </trkpt>
      <trkpt lat="49.12503" lon="1.72453">
        <ele>181</ele>
        <time>2015-09-06T07:11:56.000Z</time>
      </trkpt>
      <trkpt lat="49.12497" lon="1.72459">
        <ele>181</ele>
        <time>2015-09-06T07:11:58.000Z</time>
      </trkpt>
      <trkpt lat="49.12492" lon="1.72465">
        <ele>181</ele>
        <time>2015-09-06T07:12:00.000Z</time>
      </trkpt>
      <trkpt lat="49.12487" lon="1.7247">
        <ele>181</ele>
        <time>2015-09-06T07:12:02.000Z</time>
      </trkpt>
      <trkpt lat="49.12482" lon="1.72475">
        <ele>181</ele>
        <time>2015-09-06T07:12:04.000Z</time>
      </trkpt>
      <trkpt lat="49.12482" lon="1.72475">
        <ele>181</ele>
        <time>2015-09-06T07:12:06.000Z</time>
      </trkpt>
      <trkpt lat="49.12474" lon="1.72481">
        <ele>181</ele>
        <time>2015-09-06T07:12:08.000Z</time>
      </trkpt>
      <trkpt lat="49.12474" lon="1.72481">
        <ele>181</ele>
        <time>2015-09-06T07:12:10.000Z</time>
      </trkpt>
      <trkpt lat="49.12469" lon="1.72491">
        <ele>181</ele>
        <time>2015-09-06T07:12:12.000Z</time>
      </trkpt>
      <trkpt lat="49.12469" lon="1.725">
        <ele>181</ele>
        <time>2015-09-06T07:12:14.000Z</time>
      </trkpt>
      <trkpt lat="49.12471" lon="1.72518">
        <ele>181</ele>
        <time>2015-09-06T07:12:18.000Z</time>
      </trkpt>
      <trkpt lat="49.12471" lon="1.72529">
        <ele>181</ele>
        <time>2015-09-06T07:12:20.000Z</time>
      </trkpt>
      <trkpt lat="49.12471" lon="1.72541">
        <ele>181</ele>
        <time>2015-09-06T07:12:22.000Z</time>
      </trkpt>
      <trkpt lat="49.1247" lon="1.72552">
        <ele>181</ele>
        <time>2015-09-06T07:12:24.000Z</time>
      </trkpt>
      <trkpt lat="49.12469" lon="1.72562">
        <ele>181</ele>
        <time>2015-09-06T07:12:26.000Z</time>
      </trkpt>
      <trkpt lat="49.12469" lon="1.72572">
        <ele>181</ele>
        <time>2015-09-06T07:12:28.000Z</time>
      </trkpt>
      <trkpt lat="49.12469" lon="1.72572">
        <ele>181</ele>
        <time>2015-09-06T07:12:30.000Z</time>
      </trkpt>
      <trkpt lat="49.12469" lon="1.72586">
        <ele>181</ele>
        <time>2015-09-06T07:12:32.000Z</time>
      </trkpt>
      <trkpt lat="49.12468" lon="1.72595">
        <ele>181</ele>
        <time>2015-09-06T07:12:34.000Z</time>
      </trkpt>
      <trkpt lat="49.12467" lon="1.72612">
        <ele>181</ele>
        <time>2015-09-06T07:12:38.000Z</time>
      </trkpt>
      <trkpt lat="49.12467" lon="1.72623">
        <ele>181</ele>
        <time>2015-09-06T07:12:40.000Z</time>
      </trkpt>
      <trkpt lat="49.12466" lon="1.72635">
        <ele>181</ele>
        <time>2015-09-06T07:12:42.000Z</time>
      </trkpt>
      <trkpt lat="49.12465" lon="1.72648">
        <ele>181</ele>
        <time>2015-09-06T07:12:44.000Z</time>
      </trkpt>
      <trkpt lat="49.12465" lon="1.72661">
        <ele>181</ele>
        <time>2015-09-06T07:12:46.000Z</time>
      </trkpt>
      <trkpt lat="49.12465" lon="1.72673">
        <ele>181</ele>
        <time>2015-09-06T07:12:48.000Z</time>
      </trkpt>
      <trkpt lat="49.12464" lon="1.72682">
        <ele>181</ele>
        <time>2015-09-06T07:12:50.000Z</time>
      </trkpt>
      <trkpt lat="49.12464" lon="1.72693">
        <ele>181</ele>
        <time>2015-09-06T07:12:52.000Z</time>
      </trkpt>
      <trkpt lat="49.12463" lon="1.72704">
        <ele>181</ele>
        <time>2015-09-06T07:12:54.000Z</time>
      </trkpt>
      <trkpt lat="49.12463" lon="1.72717">
        <ele>181</ele>
        <time>2015-09-06T07:12:56.000Z</time>
      </trkpt>
      <trkpt lat="49.12461" lon="1.72729">
        <ele>181</ele>
        <time>2015-09-06T07:12:58.000Z</time>
      </trkpt>
      <trkpt lat="49.12461" lon="1.72742">
        <ele>180</ele>
        <time>2015-09-06T07:13:00.000Z</time>
      </trkpt>
      <trkpt lat="49.1246" lon="1.72755">
        <ele>180</ele>
        <time>2015-09-06T07:13:02.000Z</time>
      </trkpt>
      <trkpt lat="49.12459" lon="1.72769">
        <ele>180</ele>
        <time>2015-09-06T07:13:04.000Z</time>
      </trkpt>
      <trkpt lat="49.12458" lon="1.72783">
        <ele>180</ele>
        <time>2015-09-06T07:13:06.000Z</time>
      </trkpt>
      <trkpt lat="49.12457" lon="1.72797">
        <ele>180</ele>
        <time>2015-09-06T07:13:08.000Z</time>
      </trkpt>
      <trkpt lat="49.12457" lon="1.7281">
        <ele>180</ele>
        <time>2015-09-06T07:13:10.000Z</time>
      </trkpt>
      <trkpt lat="49.12455" lon="1.72824">
        <ele>180</ele>
        <time>2015-09-06T07:13:12.000Z</time>
      </trkpt>
      <trkpt lat="49.12454" lon="1.72839">
        <ele>179</ele>
        <time>2015-09-06T07:13:14.000Z</time>
      </trkpt>
      <trkpt lat="49.12453" lon="1.72853">
        <ele>179</ele>
        <time>2015-09-06T07:13:16.000Z</time>
      </trkpt>
      <trkpt lat="49.12452" lon="1.72867">
        <ele>179</ele>
        <time>2015-09-06T07:13:18.000Z</time>
      </trkpt>
      <trkpt lat="49.12451" lon="1.72881">
        <ele>178</ele>
        <time>2015-09-06T07:13:20.000Z</time>
      </trkpt>
      <trkpt lat="49.1245" lon="1.72895">
        <ele>178</ele>
        <time>2015-09-06T07:13:22.000Z</time>
      </trkpt>
      <trkpt lat="49.12449" lon="1.72908">
        <ele>178</ele>
        <time>2015-09-06T07:13:24.000Z</time>
      </trkpt>
      <trkpt lat="49.12448" lon="1.72919">
        <ele>177</ele>
        <time>2015-09-06T07:13:26.000Z</time>
      </trkpt>
      <trkpt lat="49.12447" lon="1.7293">
        <ele>177</ele>
        <time>2015-09-06T07:13:28.000Z</time>
      </trkpt>
      <trkpt lat="49.12447" lon="1.72942">
        <ele>177</ele>
        <time>2015-09-06T07:13:30.000Z</time>
      </trkpt>
      <trkpt lat="49.12445" lon="1.72954">
        <ele>176</ele>
        <time>2015-09-06T07:13:32.000Z</time>
      </trkpt>
      <trkpt lat="49.12444" lon="1.72965">
        <ele>176</ele>
        <time>2015-09-06T07:13:34.000Z</time>
      </trkpt>
      <trkpt lat="49.12444" lon="1.72974">
        <ele>176</ele>
        <time>2015-09-06T07:13:36.000Z</time>
      </trkpt>
      <trkpt lat="49.12443" lon="1.72984">
        <ele>176</ele>
        <time>2015-09-06T07:13:38.000Z</time>
      </trkpt>
      <trkpt lat="49.12444" lon="1.72994">
        <ele>176</ele>
        <time>2015-09-06T07:13:40.000Z</time>
      </trkpt>
      <trkpt lat="49.12444" lon="1.73004">
        <ele>176</ele>
        <time>2015-09-06T07:13:42.000Z</time>
      </trkpt>
      <trkpt lat="49.12444" lon="1.73014">
        <ele>176</ele>
        <time>2015-09-06T07:13:44.000Z</time>
      </trkpt>
      <trkpt lat="49.12445" lon="1.73025">
        <ele>175</ele>
        <time>2015-09-06T07:13:46.000Z</time>
      </trkpt>
      <trkpt lat="49.12445" lon="1.73037">
        <ele>175</ele>
        <time>2015-09-06T07:13:48.000Z</time>
      </trkpt>
      <trkpt lat="49.12446" lon="1.73048">
        <ele>175</ele>
        <time>2015-09-06T07:13:50.000Z</time>
      </trkpt>
      <trkpt lat="49.12446" lon="1.73058">
        <ele>175</ele>
        <time>2015-09-06T07:13:52.000Z</time>
      </trkpt>
      <trkpt lat="49.12447" lon="1.73068">
        <ele>175</ele>
        <time>2015-09-06T07:13:54.000Z</time>
      </trkpt>
      <trkpt lat="49.12447" lon="1.73079">
        <ele>175</ele>
        <time>2015-09-06T07:13:56.000Z</time>
      </trkpt>
      <trkpt lat="49.12447" lon="1.73089">
        <ele>174</ele>
        <time>2015-09-06T07:13:58.000Z</time>
      </trkpt>
      <trkpt lat="49.12447" lon="1.73101">
        <ele>174</ele>
        <time>2015-09-06T07:14:00.000Z</time>
      </trkpt>
      <trkpt lat="49.12448" lon="1.73112">
        <ele>174</ele>
        <time>2015-09-06T07:14:02.000Z</time>
      </trkpt>
      <trkpt lat="49.12449" lon="1.73124">
        <ele>174</ele>
        <time>2015-09-06T07:14:04.000Z</time>
      </trkpt>
      <trkpt lat="49.12449" lon="1.73136">
        <ele>174</ele>
        <time>2015-09-06T07:14:06.000Z</time>
      </trkpt>
      <trkpt lat="49.12449" lon="1.73148">
        <ele>174</ele>
        <time>2015-09-06T07:14:08.000Z</time>
      </trkpt>
      <trkpt lat="49.12449" lon="1.7316">
        <ele>174</ele>
        <time>2015-09-06T07:14:10.000Z</time>
      </trkpt>
      <trkpt lat="49.12448" lon="1.73172">
        <ele>174</ele>
        <time>2015-09-06T07:14:12.000Z</time>
      </trkpt>
      <trkpt lat="49.12448" lon="1.73184">
        <ele>174</ele>
        <time>2015-09-06T07:14:14.000Z</time>
      </trkpt>
      <trkpt lat="49.12447" lon="1.73196">
        <ele>174</ele>
        <time>2015-09-06T07:14:16.000Z</time>
      </trkpt>
      <trkpt lat="49.12446" lon="1.73208">
        <ele>173</ele>
        <time>2015-09-06T07:14:18.000Z</time>
      </trkpt>
      <trkpt lat="49.12445" lon="1.7322">
        <ele>173</ele>
        <time>2015-09-06T07:14:20.000Z</time>
      </trkpt>
      <trkpt lat="49.12444" lon="1.73232">
        <ele>173</ele>
        <time>2015-09-06T07:14:22.000Z</time>
      </trkpt>
      <trkpt lat="49.12443" lon="1.73243">
        <ele>173</ele>
        <time>2015-09-06T07:14:24.000Z</time>
      </trkpt>
      <trkpt lat="49.12442" lon="1.73256">
        <ele>173</ele>
        <time>2015-09-06T07:14:26.000Z</time>
      </trkpt>
      <trkpt lat="49.1244" lon="1.73268">
        <ele>172</ele>
        <time>2015-09-06T07:14:28.000Z</time>
      </trkpt>
      <trkpt lat="49.12439" lon="1.73281">
        <ele>172</ele>
        <time>2015-09-06T07:14:30.000Z</time>
      </trkpt>
      <trkpt lat="49.12438" lon="1.73293">
        <ele>172</ele>
        <time>2015-09-06T07:14:32.000Z</time>
      </trkpt>
      <trkpt lat="49.12437" lon="1.73305">
        <ele>172</ele>
        <time>2015-09-06T07:14:34.000Z</time>
      </trkpt>
      <trkpt lat="49.12435" lon="1.73317">
        <ele>171</ele>
        <time>2015-09-06T07:14:36.000Z</time>
      </trkpt>
      <trkpt lat="49.12434" lon="1.73329">
        <ele>171</ele>
        <time>2015-09-06T07:14:38.000Z</time>
      </trkpt>
      <trkpt lat="49.12432" lon="1.7334">
        <ele>171</ele>
        <time>2015-09-06T07:14:40.000Z</time>
      </trkpt>
      <trkpt lat="49.12431" lon="1.73351">
        <ele>171</ele>
        <time>2015-09-06T07:14:42.000Z</time>
      </trkpt>
      <trkpt lat="49.12429" lon="1.73361">
        <ele>171</ele>
        <time>2015-09-06T07:14:44.000Z</time>
      </trkpt>
      <trkpt lat="49.12428" lon="1.73372">
        <ele>171</ele>
        <time>2015-09-06T07:14:46.000Z</time>
      </trkpt>
      <trkpt lat="49.12426" lon="1.73384">
        <ele>171</ele>
        <time>2015-09-06T07:14:48.000Z</time>
      </trkpt>
      <trkpt lat="49.12423" lon="1.73397">
        <ele>170</ele>
        <time>2015-09-06T07:14:50.000Z</time>
      </trkpt>
      <trkpt lat="49.12421" lon="1.7341">
        <ele>170</ele>
        <time>2015-09-06T07:14:52.000Z</time>
      </trkpt>
      <trkpt lat="49.12419" lon="1.73424">
        <ele>170</ele>
        <time>2015-09-06T07:14:54.000Z</time>
      </trkpt>
      <trkpt lat="49.12416" lon="1.73437">
        <ele>171</ele>
        <time>2015-09-06T07:14:56.000Z</time>
      </trkpt>
      <trkpt lat="49.12414" lon="1.7345">
        <ele>171</ele>
        <time>2015-09-06T07:14:58.000Z</time>
      </trkpt>
      <trkpt lat="49.12411" lon="1.73463">
        <ele>171</ele>
        <time>2015-09-06T07:15:00.000Z</time>
      </trkpt>
      <trkpt lat="49.12409" lon="1.73474">
        <ele>171</ele>
        <time>2015-09-06T07:15:02.000Z</time>
      </trkpt>
      <trkpt lat="49.12407" lon="1.73485">
        <ele>171</ele>
        <time>2015-09-06T07:15:04.000Z</time>
      </trkpt>
      <trkpt lat="49.12404" lon="1.73497">
        <ele>171</ele>
        <time>2015-09-06T07:15:06.000Z</time>
      </trkpt>
      <trkpt lat="49.12401" lon="1.73508">
        <ele>172</ele>
        <time>2015-09-06T07:15:08.000Z</time>
      </trkpt>
      <trkpt lat="49.12398" lon="1.73518">
        <ele>172</ele>
        <time>2015-09-06T07:15:10.000Z</time>
      </trkpt>
      <trkpt lat="49.12395" lon="1.73528">
        <ele>172</ele>
        <time>2015-09-06T07:15:12.000Z</time>
      </trkpt>
      <trkpt lat="49.12392" lon="1.73538">
        <ele>172</ele>
        <time>2015-09-06T07:15:14.000Z</time>
      </trkpt>
      <trkpt lat="49.12389" lon="1.73548">
        <ele>172</ele>
        <time>2015-09-06T07:15:16.000Z</time>
      </trkpt>
      <trkpt lat="49.12385" lon="1.73557">
        <ele>172</ele>
        <time>2015-09-06T07:15:18.000Z</time>
      </trkpt>
      <trkpt lat="49.12381" lon="1.73565">
        <ele>173</ele>
        <time>2015-09-06T07:15:20.000Z</time>
      </trkpt>
      <trkpt lat="49.12377" lon="1.73571">
        <ele>173</ele>
        <time>2015-09-06T07:15:22.000Z</time>
      </trkpt>
      <trkpt lat="49.12372" lon="1.73576">
        <ele>173</ele>
        <time>2015-09-06T07:15:24.000Z</time>
      </trkpt>
      <trkpt lat="49.12368" lon="1.73582">
        <ele>173</ele>
        <time>2015-09-06T07:15:26.000Z</time>
      </trkpt>
      <trkpt lat="49.12368" lon="1.73582">
        <ele>173</ele>
        <time>2015-09-06T07:15:28.000Z</time>
      </trkpt>
      <trkpt lat="49.12359" lon="1.73592">
        <ele>173</ele>
        <time>2015-09-06T07:15:30.000Z</time>
      </trkpt>
      <trkpt lat="49.12354" lon="1.73598">
        <ele>173</ele>
        <time>2015-09-06T07:15:32.000Z</time>
      </trkpt>
      <trkpt lat="49.1235" lon="1.73605">
        <ele>174</ele>
        <time>2015-09-06T07:15:34.000Z</time>
      </trkpt>
      <trkpt lat="49.12346" lon="1.73615">
        <ele>174</ele>
        <time>2015-09-06T07:15:36.000Z</time>
      </trkpt>
      <trkpt lat="49.12341" lon="1.73626">
        <ele>174</ele>
        <time>2015-09-06T07:15:38.000Z</time>
      </trkpt>
      <trkpt lat="49.12337" lon="1.73636">
        <ele>174</ele>
        <time>2015-09-06T07:15:40.000Z</time>
      </trkpt>
      <trkpt lat="49.12333" lon="1.73646">
        <ele>174</ele>
        <time>2015-09-06T07:15:42.000Z</time>
      </trkpt>
      <trkpt lat="49.12328" lon="1.73654">
        <ele>174</ele>
        <time>2015-09-06T07:15:44.000Z</time>
      </trkpt>
      <trkpt lat="49.12321" lon="1.7366">
        <ele>174</ele>
        <time>2015-09-06T07:15:46.000Z</time>
      </trkpt>
      <trkpt lat="49.12314" lon="1.73663">
        <ele>174</ele>
        <time>2015-09-06T07:15:48.000Z</time>
      </trkpt>
      <trkpt lat="49.12307" lon="1.73664">
        <ele>174</ele>
        <time>2015-09-06T07:15:50.000Z</time>
      </trkpt>
      <trkpt lat="49.12299" lon="1.73662">
        <ele>174</ele>
        <time>2015-09-06T07:15:52.000Z</time>
      </trkpt>
      <trkpt lat="49.12293" lon="1.73656">
        <ele>174</ele>
        <time>2015-09-06T07:15:54.000Z</time>
      </trkpt>
      <trkpt lat="49.12286" lon="1.7365">
        <ele>174</ele>
        <time>2015-09-06T07:15:56.000Z</time>
      </trkpt>
      <trkpt lat="49.12279" lon="1.73647">
        <ele>174</ele>
        <time>2015-09-06T07:15:58.000Z</time>
      </trkpt>
      <trkpt lat="49.12272" lon="1.73643">
        <ele>174</ele>
        <time>2015-09-06T07:16:00.000Z</time>
      </trkpt>
      <trkpt lat="49.12265" lon="1.7364">
        <ele>174</ele>
        <time>2015-09-06T07:16:02.000Z</time>
      </trkpt>
      <trkpt lat="49.12259" lon="1.73636">
        <ele>174</ele>
        <time>2015-09-06T07:16:04.000Z</time>
      </trkpt>
      <trkpt lat="49.12252" lon="1.73631">
        <ele>175</ele>
        <time>2015-09-06T07:16:06.000Z</time>
      </trkpt>
      <trkpt lat="49.12245" lon="1.73627">
        <ele>175</ele>
        <time>2015-09-06T07:16:08.000Z</time>
      </trkpt>
      <trkpt lat="49.12238" lon="1.73624">
        <ele>176</ele>
        <time>2015-09-06T07:16:10.000Z</time>
      </trkpt>
      <trkpt lat="49.1223" lon="1.73618">
        <ele>176</ele>
        <time>2015-09-06T07:16:12.000Z</time>
      </trkpt>
      <trkpt lat="49.12223" lon="1.73613">
        <ele>175</ele>
        <time>2015-09-06T07:16:14.000Z</time>
      </trkpt>
      <trkpt lat="49.12216" lon="1.73607">
        <ele>176</ele>
        <time>2015-09-06T07:16:16.000Z</time>
      </trkpt>
      <trkpt lat="49.1221" lon="1.73601">
        <ele>176</ele>
        <time>2015-09-06T07:16:18.000Z</time>
      </trkpt>
      <trkpt lat="49.12203" lon="1.73593">
        <ele>176</ele>
        <time>2015-09-06T07:16:20.000Z</time>
      </trkpt>
      <trkpt lat="49.12196" lon="1.73587">
        <ele>176</ele>
        <time>2015-09-06T07:16:22.000Z</time>
      </trkpt>
      <trkpt lat="49.12188" lon="1.73581">
        <ele>176</ele>
        <time>2015-09-06T07:16:24.000Z</time>
      </trkpt>
      <trkpt lat="49.12181" lon="1.73575">
        <ele>175</ele>
        <time>2015-09-06T07:16:26.000Z</time>
      </trkpt>
      <trkpt lat="49.12174" lon="1.7357">
        <ele>175</ele>
        <time>2015-09-06T07:16:28.000Z</time>
      </trkpt>
      <trkpt lat="49.12167" lon="1.73565">
        <ele>175</ele>
        <time>2015-09-06T07:16:30.000Z</time>
      </trkpt>
      <trkpt lat="49.12162" lon="1.73559">
        <ele>175</ele>
        <time>2015-09-06T07:16:32.000Z</time>
      </trkpt>
      <trkpt lat="49.12156" lon="1.73552">
        <ele>175</ele>
        <time>2015-09-06T07:16:34.000Z</time>
      </trkpt>
      <trkpt lat="49.12151" lon="1.73547">
        <ele>175</ele>
        <time>2015-09-06T07:16:36.000Z</time>
      </trkpt>
      <trkpt lat="49.12151" lon="1.73547">
        <ele>175</ele>
        <time>2015-09-06T07:16:38.000Z</time>
      </trkpt>
      <trkpt lat="49.12151" lon="1.73547">
        <ele>175</ele>
        <time>2015-09-06T07:16:40.000Z</time>
      </trkpt>
      <trkpt lat="49.12146" lon="1.73536">
        <ele>176</ele>
        <time>2015-09-06T07:19:11.000Z</time>
      </trkpt>
      <trkpt lat="49.12141" lon="1.73526">
        <ele>176</ele>
        <time>2015-09-06T07:19:15.000Z</time>
      </trkpt>
      <trkpt lat="49.12136" lon="1.73519">
        <ele>176</ele>
        <time>2015-09-06T07:19:17.000Z</time>
      </trkpt>
      <trkpt lat="49.1213" lon="1.73513">
        <ele>176</ele>
        <time>2015-09-06T07:19:19.000Z</time>
      </trkpt>
      <trkpt lat="49.12125" lon="1.73506">
        <ele>176</ele>
        <time>2015-09-06T07:19:21.000Z</time>
      </trkpt>
      <trkpt lat="49.12119" lon="1.735">
        <ele>176</ele>
        <time>2015-09-06T07:19:23.000Z</time>
      </trkpt>
      <trkpt lat="49.12113" lon="1.73494">
        <ele>176</ele>
        <time>2015-09-06T07:19:25.000Z</time>
      </trkpt>
      <trkpt lat="49.12107" lon="1.73486">
        <ele>176</ele>
        <time>2015-09-06T07:19:27.000Z</time>
      </trkpt>
      <trkpt lat="49.12101" lon="1.73476">
        <ele>176</ele>
        <time>2015-09-06T07:19:29.000Z</time>
      </trkpt>
      <trkpt lat="49.12096" lon="1.73468">
        <ele>176</ele>
        <time>2015-09-06T07:19:31.000Z</time>
      </trkpt>
      <trkpt lat="49.12091" lon="1.73459">
        <ele>175</ele>
        <time>2015-09-06T07:19:33.000Z</time>
      </trkpt>
      <trkpt lat="49.12086" lon="1.7345">
        <ele>175</ele>
        <time>2015-09-06T07:19:35.000Z</time>
      </trkpt>
      <trkpt lat="49.12081" lon="1.73442">
        <ele>175</ele>
        <time>2015-09-06T07:19:37.000Z</time>
      </trkpt>
      <trkpt lat="49.12077" lon="1.73435">
        <ele>176</ele>
        <time>2015-09-06T07:19:39.000Z</time>
      </trkpt>
      <trkpt lat="49.12077" lon="1.73435">
        <ele>176</ele>
        <time>2015-09-06T07:19:41.000Z</time>
      </trkpt>
      <trkpt lat="49.12068" lon="1.73421">
        <ele>175</ele>
        <time>2015-09-06T07:19:44.000Z</time>
      </trkpt>
      <trkpt lat="49.12064" lon="1.73409">
        <ele>175</ele>
        <time>2015-09-06T07:19:45.000Z</time>
      </trkpt>
      <trkpt lat="49.1206" lon="1.73398">
        <ele>174</ele>
        <time>2015-09-06T07:19:47.000Z</time>
      </trkpt>
      <trkpt lat="49.12056" lon="1.73386">
        <ele>174</ele>
        <time>2015-09-06T07:19:49.000Z</time>
      </trkpt>
      <trkpt lat="49.12053" lon="1.73375">
        <ele>174</ele>
        <time>2015-09-06T07:19:51.000Z</time>
      </trkpt>
      <trkpt lat="49.12049" lon="1.73364">
        <ele>174</ele>
        <time>2015-09-06T07:19:53.000Z</time>
      </trkpt>
      <trkpt lat="49.12046" lon="1.73353">
        <ele>175</ele>
        <time>2015-09-06T07:19:55.000Z</time>
      </trkpt>
      <trkpt lat="49.12043" lon="1.73342">
        <ele>175</ele>
        <time>2015-09-06T07:19:57.000Z</time>
      </trkpt>
      <trkpt lat="49.12041" lon="1.73332">
        <ele>175</ele>
        <time>2015-09-06T07:19:59.000Z</time>
      </trkpt>
      <trkpt lat="49.12037" lon="1.73321">
        <ele>175</ele>
        <time>2015-09-06T07:20:01.000Z</time>
      </trkpt>
      <trkpt lat="49.12034" lon="1.73311">
        <ele>175</ele>
        <time>2015-09-06T07:20:03.000Z</time>
      </trkpt>
      <trkpt lat="49.1203" lon="1.73301">
        <ele>175</ele>
        <time>2015-09-06T07:20:05.000Z</time>
      </trkpt>
      <trkpt lat="49.12027" lon="1.7329">
        <ele>175</ele>
        <time>2015-09-06T07:20:07.000Z</time>
      </trkpt>
      <trkpt lat="49.12024" lon="1.7328">
        <ele>175</ele>
        <time>2015-09-06T07:20:09.000Z</time>
      </trkpt>
      <trkpt lat="49.1202" lon="1.73269">
        <ele>175</ele>
        <time>2015-09-06T07:20:11.000Z</time>
      </trkpt>
      <trkpt lat="49.12017" lon="1.73259">
        <ele>176</ele>
        <time>2015-09-06T07:20:13.000Z</time>
      </trkpt>
      <trkpt lat="49.12014" lon="1.73248">
        <ele>176</ele>
        <time>2015-09-06T07:20:15.000Z</time>
      </trkpt>
      <trkpt lat="49.1201" lon="1.73238">
        <ele>176</ele>
        <time>2015-09-06T07:20:17.000Z</time>
      </trkpt>
      <trkpt lat="49.12007" lon="1.73228">
        <ele>176</ele>
        <time>2015-09-06T07:20:19.000Z</time>
      </trkpt>
      <trkpt lat="49.12004" lon="1.73218">
        <ele>177</ele>
        <time>2015-09-06T07:20:21.000Z</time>
      </trkpt>
      <trkpt lat="49.12001" lon="1.73208">
        <ele>177</ele>
        <time>2015-09-06T07:20:23.000Z</time>
      </trkpt>
      <trkpt lat="49.12" lon="1.73198">
        <ele>177</ele>
        <time>2015-09-06T07:20:25.000Z</time>
      </trkpt>
      <trkpt lat="49.11997" lon="1.73189">
        <ele>177</ele>
        <time>2015-09-06T07:20:27.000Z</time>
      </trkpt>
      <trkpt lat="49.11994" lon="1.7318">
        <ele>178</ele>
        <time>2015-09-06T07:20:29.000Z</time>
      </trkpt>
      <trkpt lat="49.11991" lon="1.7317">
        <ele>177</ele>
        <time>2015-09-06T07:20:31.000Z</time>
      </trkpt>
      <trkpt lat="49.11989" lon="1.7316">
        <ele>177</ele>
        <time>2015-09-06T07:20:33.000Z</time>
      </trkpt>
      <trkpt lat="49.11987" lon="1.73151">
        <ele>178</ele>
        <time>2015-09-06T07:20:35.000Z</time>
      </trkpt>
      <trkpt lat="49.11983" lon="1.73142">
        <ele>178</ele>
        <time>2015-09-06T07:20:37.000Z</time>
      </trkpt>
      <trkpt lat="49.1198" lon="1.73133">
        <ele>178</ele>
        <time>2015-09-06T07:20:39.000Z</time>
      </trkpt>
      <trkpt lat="49.11977" lon="1.73123">
        <ele>178</ele>
        <time>2015-09-06T07:20:41.000Z</time>
      </trkpt>
      <trkpt lat="49.11974" lon="1.73112">
        <ele>178</ele>
        <time>2015-09-06T07:20:43.000Z</time>
      </trkpt>
      <trkpt lat="49.11971" lon="1.73102">
        <ele>179</ele>
        <time>2015-09-06T07:20:45.000Z</time>
      </trkpt>
      <trkpt lat="49.11968" lon="1.73092">
        <ele>179</ele>
        <time>2015-09-06T07:20:47.000Z</time>
      </trkpt>
      <trkpt lat="49.11965" lon="1.73081">
        <ele>179</ele>
        <time>2015-09-06T07:20:49.000Z</time>
      </trkpt>
      <trkpt lat="49.11962" lon="1.73071">
        <ele>179</ele>
        <time>2015-09-06T07:20:51.000Z</time>
      </trkpt>
      <trkpt lat="49.1196" lon="1.73063">
        <ele>179</ele>
        <time>2015-09-06T07:20:53.000Z</time>
      </trkpt>
      <trkpt lat="49.1196" lon="1.73063">
        <ele>179</ele>
        <time>2015-09-06T07:20:55.000Z</time>
      </trkpt>
      <trkpt lat="49.11955" lon="1.73048">
        <ele>180</ele>
        <time>2015-09-06T07:20:57.000Z</time>
      </trkpt>
      <trkpt lat="49.11953" lon="1.73039">
        <ele>180</ele>
        <time>2015-09-06T07:20:59.000Z</time>
      </trkpt>
      <trkpt lat="49.1195" lon="1.73029">
        <ele>180</ele>
        <time>2015-09-06T07:21:01.000Z</time>
      </trkpt>
      <trkpt lat="49.11947" lon="1.73019">
        <ele>180</ele>
        <time>2015-09-06T07:21:03.000Z</time>
      </trkpt>
      <trkpt lat="49.11944" lon="1.7301">
        <ele>180</ele>
        <time>2015-09-06T07:21:05.000Z</time>
      </trkpt>
      <trkpt lat="49.11942" lon="1.73">
        <ele>181</ele>
        <time>2015-09-06T07:21:07.000Z</time>
      </trkpt>
      <trkpt lat="49.11938" lon="1.7299">
        <ele>180</ele>
        <time>2015-09-06T07:21:09.000Z</time>
      </trkpt>
      <trkpt lat="49.11935" lon="1.72981">
        <ele>181</ele>
        <time>2015-09-06T07:21:11.000Z</time>
      </trkpt>
      <trkpt lat="49.11933" lon="1.72972">
        <ele>181</ele>
        <time>2015-09-06T07:21:13.000Z</time>
      </trkpt>
      <trkpt lat="49.1193" lon="1.72963">
        <ele>182</ele>
        <time>2015-09-06T07:21:15.000Z</time>
      </trkpt>
      <trkpt lat="49.11927" lon="1.72954">
        <ele>182</ele>
        <time>2015-09-06T07:21:17.000Z</time>
      </trkpt>
      <trkpt lat="49.11925" lon="1.72945">
        <ele>182</ele>
        <time>2015-09-06T07:21:19.000Z</time>
      </trkpt>
      <trkpt lat="49.11922" lon="1.72935">
        <ele>182</ele>
        <time>2015-09-06T07:21:21.000Z</time>
      </trkpt>
      <trkpt lat="49.1192" lon="1.72926">
        <ele>182</ele>
        <time>2015-09-06T07:21:23.000Z</time>
      </trkpt>
      <trkpt lat="49.11917" lon="1.72916">
        <ele>183</ele>
        <time>2015-09-06T07:21:25.000Z</time>
      </trkpt>
      <trkpt lat="49.11914" lon="1.72906">
        <ele>183</ele>
        <time>2015-09-06T07:21:27.000Z</time>
      </trkpt>
      <trkpt lat="49.11912" lon="1.72896">
        <ele>183</ele>
        <time>2015-09-06T07:21:29.000Z</time>
      </trkpt>
      <trkpt lat="49.11909" lon="1.72886">
        <ele>183</ele>
        <time>2015-09-06T07:21:31.000Z</time>
      </trkpt>
      <trkpt lat="49.11906" lon="1.72876">
        <ele>183</ele>
        <time>2015-09-06T07:21:33.000Z</time>
      </trkpt>
      <trkpt lat="49.11904" lon="1.72866">
        <ele>183</ele>
        <time>2015-09-06T07:21:35.000Z</time>
      </trkpt>
      <trkpt lat="49.119" lon="1.72856">
        <ele>183</ele>
        <time>2015-09-06T07:21:37.000Z</time>
      </trkpt>
      <trkpt lat="49.11896" lon="1.72846">
        <ele>183</ele>
        <time>2015-09-06T07:21:39.000Z</time>
      </trkpt>
      <trkpt lat="49.11893" lon="1.72837">
        <ele>183</ele>
        <time>2015-09-06T07:21:41.000Z</time>
      </trkpt>
      <trkpt lat="49.11889" lon="1.72827">
        <ele>183</ele>
        <time>2015-09-06T07:21:43.000Z</time>
      </trkpt>
      <trkpt lat="49.11885" lon="1.72818">
        <ele>184</ele>
        <time>2015-09-06T07:21:45.000Z</time>
      </trkpt>
      <trkpt lat="49.11882" lon="1.72808">
        <ele>184</ele>
        <time>2015-09-06T07:21:47.000Z</time>
      </trkpt>
      <trkpt lat="49.11879" lon="1.72797">
        <ele>184</ele>
        <time>2015-09-06T07:21:49.000Z</time>
      </trkpt>
      <trkpt lat="49.11876" lon="1.72786">
        <ele>184</ele>
        <time>2015-09-06T07:21:51.000Z</time>
      </trkpt>
      <trkpt lat="49.11872" lon="1.72775">
        <ele>184</ele>
        <time>2015-09-06T07:21:53.000Z</time>
      </trkpt>
      <trkpt lat="49.11868" lon="1.72765">
        <ele>184</ele>
        <time>2015-09-06T07:21:55.000Z</time>
      </trkpt>
      <trkpt lat="49.11863" lon="1.72755">
        <ele>184</ele>
        <time>2015-09-06T07:21:57.000Z</time>
      </trkpt>
      <trkpt lat="49.11858" lon="1.72745">
        <ele>184</ele>
        <time>2015-09-06T07:21:59.000Z</time>
      </trkpt>
      <trkpt lat="49.11854" lon="1.72735">
        <ele>184</ele>
        <time>2015-09-06T07:22:01.000Z</time>
      </trkpt>
      <trkpt lat="49.1185" lon="1.72726">
        <ele>184</ele>
        <time>2015-09-06T07:22:03.000Z</time>
      </trkpt>
      <trkpt lat="49.11845" lon="1.72717">
        <ele>184</ele>
        <time>2015-09-06T07:22:05.000Z</time>
      </trkpt>
      <trkpt lat="49.11841" lon="1.72708">
        <ele>184</ele>
        <time>2015-09-06T07:22:07.000Z</time>
      </trkpt>
      <trkpt lat="49.11836" lon="1.727">
        <ele>185</ele>
        <time>2015-09-06T07:22:09.000Z</time>
      </trkpt>
      <trkpt lat="49.11831" lon="1.72692">
        <ele>185</ele>
        <time>2015-09-06T07:22:11.000Z</time>
      </trkpt>
      <trkpt lat="49.11827" lon="1.72684">
        <ele>185</ele>
        <time>2015-09-06T07:22:13.000Z</time>
      </trkpt>
      <trkpt lat="49.11823" lon="1.72677">
        <ele>186</ele>
        <time>2015-09-06T07:22:15.000Z</time>
      </trkpt>
      <trkpt lat="49.11818" lon="1.72669">
        <ele>186</ele>
        <time>2015-09-06T07:22:17.000Z</time>
      </trkpt>
      <trkpt lat="49.11814" lon="1.72662">
        <ele>185</ele>
        <time>2015-09-06T07:22:19.000Z</time>
      </trkpt>
      <trkpt lat="49.1181" lon="1.72655">
        <ele>185</ele>
        <time>2015-09-06T07:22:21.000Z</time>
      </trkpt>
      <trkpt lat="49.1181" lon="1.72655">
        <ele>185</ele>
        <time>2015-09-06T07:22:23.000Z</time>
      </trkpt>
      <trkpt lat="49.11803" lon="1.72646">
        <ele>185</ele>
        <time>2015-09-06T07:22:25.000Z</time>
      </trkpt>
      <trkpt lat="49.11803" lon="1.72646">
        <ele>185</ele>
        <time>2015-09-06T07:22:27.000Z</time>
      </trkpt>
      <trkpt lat="49.11803" lon="1.72646">
        <ele>185</ele>
        <time>2015-09-06T07:22:29.000Z</time>
      </trkpt>
      <trkpt lat="49.11809" lon="1.72658">
        <ele>186</ele>
        <time>2015-09-06T07:24:25.000Z</time>
      </trkpt>
      <trkpt lat="49.11815" lon="1.72666">
        <ele>186</ele>
        <time>2015-09-06T07:24:27.000Z</time>
      </trkpt>
      <trkpt lat="49.11821" lon="1.72675">
        <ele>186</ele>
        <time>2015-09-06T07:24:29.000Z</time>
      </trkpt>
      <trkpt lat="49.11826" lon="1.72685">
        <ele>186</ele>
        <time>2015-09-06T07:24:31.000Z</time>
      </trkpt>
      <trkpt lat="49.11832" lon="1.72696">
        <ele>186</ele>
        <time>2015-09-06T07:24:33.000Z</time>
      </trkpt>
      <trkpt lat="49.11838" lon="1.72706">
        <ele>186</ele>
        <time>2015-09-06T07:24:35.000Z</time>
      </trkpt>
      <trkpt lat="49.11845" lon="1.72717">
        <ele>186</ele>
        <time>2015-09-06T07:24:37.000Z</time>
      </trkpt>
      <trkpt lat="49.11851" lon="1.72729">
        <ele>186</ele>
        <time>2015-09-06T07:24:39.000Z</time>
      </trkpt>
      <trkpt lat="49.11857" lon="1.72742">
        <ele>186</ele>
        <time>2015-09-06T07:24:41.000Z</time>
      </trkpt>
      <trkpt lat="49.11863" lon="1.72755">
        <ele>186</ele>
        <time>2015-09-06T07:24:43.000Z</time>
      </trkpt>
      <trkpt lat="49.11869" lon="1.72768">
        <ele>186</ele>
        <time>2015-09-06T07:24:45.000Z</time>
      </trkpt>
      <trkpt lat="49.11874" lon="1.72781">
        <ele>186</ele>
        <time>2015-09-06T07:24:47.000Z</time>
      </trkpt>
      <trkpt lat="49.11878" lon="1.72794">
        <ele>186</ele>
        <time>2015-09-06T07:24:49.000Z</time>
      </trkpt>
      <trkpt lat="49.11883" lon="1.72807">
        <ele>186</ele>
        <time>2015-09-06T07:24:51.000Z</time>
      </trkpt>
      <trkpt lat="49.11888" lon="1.72821">
        <ele>186</ele>
        <time>2015-09-06T07:24:53.000Z</time>
      </trkpt>
      <trkpt lat="49.11892" lon="1.72836">
        <ele>185</ele>
        <time>2015-09-06T07:24:55.000Z</time>
      </trkpt>
      <trkpt lat="49.11898" lon="1.72849">
        <ele>186</ele>
        <time>2015-09-06T07:24:57.000Z</time>
      </trkpt>
      <trkpt lat="49.11902" lon="1.72864">
        <ele>186</ele>
        <time>2015-09-06T07:24:59.000Z</time>
      </trkpt>
      <trkpt lat="49.11906" lon="1.72878">
        <ele>185</ele>
        <time>2015-09-06T07:25:01.000Z</time>
      </trkpt>
      <trkpt lat="49.11911" lon="1.72891">
        <ele>185</ele>
        <time>2015-09-06T07:25:03.000Z</time>
      </trkpt>
      <trkpt lat="49.11914" lon="1.72906">
        <ele>185</ele>
        <time>2015-09-06T07:25:05.000Z</time>
      </trkpt>
      <trkpt lat="49.11918" lon="1.72921">
        <ele>184</ele>
        <time>2015-09-06T07:25:07.000Z</time>
      </trkpt>
      <trkpt lat="49.11922" lon="1.72936">
        <ele>184</ele>
        <time>2015-09-06T07:25:09.000Z</time>
      </trkpt>
      <trkpt lat="49.11926" lon="1.72951">
        <ele>184</ele>
        <time>2015-09-06T07:25:11.000Z</time>
      </trkpt>
      <trkpt lat="49.11932" lon="1.72966">
        <ele>184</ele>
        <time>2015-09-06T07:25:13.000Z</time>
      </trkpt>
      <trkpt lat="49.11936" lon="1.72981">
        <ele>184</ele>
        <time>2015-09-06T07:25:15.000Z</time>
      </trkpt>
      <trkpt lat="49.1194" lon="1.72997">
        <ele>184</ele>
        <time>2015-09-06T07:25:17.000Z</time>
      </trkpt>
      <trkpt lat="49.11945" lon="1.73011">
        <ele>184</ele>
        <time>2015-09-06T07:25:19.000Z</time>
      </trkpt>
      <trkpt lat="49.1195" lon="1.73026">
        <ele>184</ele>
        <time>2015-09-06T07:25:21.000Z</time>
      </trkpt>
      <trkpt lat="49.11954" lon="1.7304">
        <ele>184</ele>
        <time>2015-09-06T07:25:23.000Z</time>
      </trkpt>
      <trkpt lat="49.11957" lon="1.73054">
        <ele>183</ele>
        <time>2015-09-06T07:25:25.000Z</time>
      </trkpt>
      <trkpt lat="49.11961" lon="1.73069">
        <ele>183</ele>
        <time>2015-09-06T07:25:27.000Z</time>
      </trkpt>
      <trkpt lat="49.11966" lon="1.73086">
        <ele>182</ele>
        <time>2015-09-06T07:25:29.000Z</time>
      </trkpt>
      <trkpt lat="49.11971" lon="1.73102">
        <ele>182</ele>
        <time>2015-09-06T07:25:31.000Z</time>
      </trkpt>
      <trkpt lat="49.11975" lon="1.73118">
        <ele>182</ele>
        <time>2015-09-06T07:25:33.000Z</time>
      </trkpt>
      <trkpt lat="49.1198" lon="1.73133">
        <ele>181</ele>
        <time>2015-09-06T07:25:35.000Z</time>
      </trkpt>
      <trkpt lat="49.11984" lon="1.73145">
        <ele>181</ele>
        <time>2015-09-06T07:25:37.000Z</time>
      </trkpt>
      <trkpt lat="49.11987" lon="1.73154">
        <ele>181</ele>
        <time>2015-09-06T07:25:39.000Z</time>
      </trkpt>
      <trkpt lat="49.11987" lon="1.73154">
        <ele>181</ele>
        <time>2015-09-06T07:25:41.000Z</time>
      </trkpt>
      <trkpt lat="49.11982" lon="1.73166">
        <ele>181</ele>
        <time>2015-09-06T07:25:43.000Z</time>
      </trkpt>
      <trkpt lat="49.11982" lon="1.73166">
        <ele>181</ele>
        <time>2015-09-06T07:25:45.000Z</time>
      </trkpt>
      <trkpt lat="49.11972" lon="1.73176">
        <ele>183</ele>
        <time>2015-09-06T07:25:47.000Z</time>
      </trkpt>
      <trkpt lat="49.11966" lon="1.73181">
        <ele>183</ele>
        <time>2015-09-06T07:25:49.000Z</time>
      </trkpt>
      <trkpt lat="49.1196" lon="1.73187">
        <ele>183</ele>
        <time>2015-09-06T07:25:51.000Z</time>
      </trkpt>
      <trkpt lat="49.11954" lon="1.73193">
        <ele>183</ele>
        <time>2015-09-06T07:25:53.000Z</time>
      </trkpt>
      <trkpt lat="49.11949" lon="1.732">
        <ele>183</ele>
        <time>2015-09-06T07:25:55.000Z</time>
      </trkpt>
      <trkpt lat="49.11944" lon="1.73208">
        <ele>183</ele>
        <time>2015-09-06T07:25:57.000Z</time>
      </trkpt>
      <trkpt lat="49.11937" lon="1.73216">
        <ele>183</ele>
        <time>2015-09-06T07:25:59.000Z</time>
      </trkpt>
      <trkpt lat="49.1193" lon="1.73223">
        <ele>183</ele>
        <time>2015-09-06T07:26:01.000Z</time>
      </trkpt>
      <trkpt lat="49.11924" lon="1.7323">
        <ele>182</ele>
        <time>2015-09-06T07:26:03.000Z</time>
      </trkpt>
      <trkpt lat="49.11918" lon="1.73236">
        <ele>182</ele>
        <time>2015-09-06T07:26:05.000Z</time>
      </trkpt>
      <trkpt lat="49.11913" lon="1.73242">
        <ele>182</ele>
        <time>2015-09-06T07:26:07.000Z</time>
      </trkpt>
      <trkpt lat="49.11906" lon="1.73249">
        <ele>182</ele>
        <time>2015-09-06T07:26:09.000Z</time>
      </trkpt>
      <trkpt lat="49.119" lon="1.73256">
        <ele>182</ele>
        <time>2015-09-06T07:26:11.000Z</time>
      </trkpt>
      <trkpt lat="49.11895" lon="1.73261">
        <ele>182</ele>
        <time>2015-09-06T07:26:13.000Z</time>
      </trkpt>
      <trkpt lat="49.11889" lon="1.73266">
        <ele>182</ele>
        <time>2015-09-06T07:26:15.000Z</time>
      </trkpt>
      <trkpt lat="49.11882" lon="1.73273">
        <ele>182</ele>
        <time>2015-09-06T07:26:17.000Z</time>
      </trkpt>
      <trkpt lat="49.11875" lon="1.73281">
        <ele>181</ele>
        <time>2015-09-06T07:26:19.000Z</time>
      </trkpt>
      <trkpt lat="49.11868" lon="1.73288">
        <ele>181</ele>
        <time>2015-09-06T07:26:21.000Z</time>
      </trkpt>
      <trkpt lat="49.11861" lon="1.73295">
        <ele>181</ele>
        <time>2015-09-06T07:26:23.000Z</time>
      </trkpt>
      <trkpt lat="49.11854" lon="1.73302">
        <ele>181</ele>
        <time>2015-09-06T07:26:25.000Z</time>
      </trkpt>
      <trkpt lat="49.11847" lon="1.7331">
        <ele>180</ele>
        <time>2015-09-06T07:26:27.000Z</time>
      </trkpt>
      <trkpt lat="49.1184" lon="1.73318">
        <ele>180</ele>
        <time>2015-09-06T07:26:29.000Z</time>
      </trkpt>
      <trkpt lat="49.11834" lon="1.73324">
        <ele>180</ele>
        <time>2015-09-06T07:26:31.000Z</time>
      </trkpt>
      <trkpt lat="49.11827" lon="1.73331">
        <ele>179</ele>
        <time>2015-09-06T07:26:33.000Z</time>
      </trkpt>
      <trkpt lat="49.11821" lon="1.73338">
        <ele>179</ele>
        <time>2015-09-06T07:26:35.000Z</time>
      </trkpt>
      <trkpt lat="49.11815" lon="1.73345">
        <ele>179</ele>
        <time>2015-09-06T07:26:37.000Z</time>
      </trkpt>
      <trkpt lat="49.11808" lon="1.73351">
        <ele>179</ele>
        <time>2015-09-06T07:26:39.000Z</time>
      </trkpt>
      <trkpt lat="49.11802" lon="1.73358">
        <ele>179</ele>
        <time>2015-09-06T07:26:41.000Z</time>
      </trkpt>
      <trkpt lat="49.11796" lon="1.73365">
        <ele>179</ele>
        <time>2015-09-06T07:26:43.000Z</time>
      </trkpt>
      <trkpt lat="49.1179" lon="1.73372">
        <ele>179</ele>
        <time>2015-09-06T07:26:45.000Z</time>
      </trkpt>
      <trkpt lat="49.11785" lon="1.73377">
        <ele>179</ele>
        <time>2015-09-06T07:26:47.000Z</time>
      </trkpt>
      <trkpt lat="49.1178" lon="1.73383">
        <ele>180</ele>
        <time>2015-09-06T07:26:49.000Z</time>
      </trkpt>
      <trkpt lat="49.11774" lon="1.73389">
        <ele>180</ele>
        <time>2015-09-06T07:26:51.000Z</time>
      </trkpt>
      <trkpt lat="49.11767" lon="1.73396">
        <ele>179</ele>
        <time>2015-09-06T07:26:53.000Z</time>
      </trkpt>
      <trkpt lat="49.11761" lon="1.73402">
        <ele>180</ele>
        <time>2015-09-06T07:26:55.000Z</time>
      </trkpt>
      <trkpt lat="49.11756" lon="1.73407">
        <ele>180</ele>
        <time>2015-09-06T07:26:57.000Z</time>
      </trkpt>
      <trkpt lat="49.1175" lon="1.7341">
        <ele>180</ele>
        <time>2015-09-06T07:26:59.000Z</time>
      </trkpt>
      <trkpt lat="49.11743" lon="1.73413">
        <ele>180</ele>
        <time>2015-09-06T07:27:01.000Z</time>
      </trkpt>
      <trkpt lat="49.11736" lon="1.73418">
        <ele>180</ele>
        <time>2015-09-06T07:27:03.000Z</time>
      </trkpt>
      <trkpt lat="49.1173" lon="1.73424">
        <ele>180</ele>
        <time>2015-09-06T07:27:05.000Z</time>
      </trkpt>
      <trkpt lat="49.11724" lon="1.7343">
        <ele>181</ele>
        <time>2015-09-06T07:27:07.000Z</time>
      </trkpt>
      <trkpt lat="49.11718" lon="1.73437">
        <ele>181</ele>
        <time>2015-09-06T07:27:09.000Z</time>
      </trkpt>
      <trkpt lat="49.11712" lon="1.73444">
        <ele>182</ele>
        <time>2015-09-06T07:27:11.000Z</time>
      </trkpt>
      <trkpt lat="49.11707" lon="1.7345">
        <ele>182</ele>
        <time>2015-09-06T07:27:13.000Z</time>
      </trkpt>
      <trkpt lat="49.11701" lon="1.73457">
        <ele>182</ele>
        <time>2015-09-06T07:27:15.000Z</time>
      </trkpt>
      <trkpt lat="49.11696" lon="1.73466">
        <ele>182</ele>
        <time>2015-09-06T07:27:17.000Z</time>
      </trkpt>
      <trkpt lat="49.1169" lon="1.73474">
        <ele>182</ele>
        <time>2015-09-06T07:27:19.000Z</time>
      </trkpt>
      <trkpt lat="49.11684" lon="1.73484">
        <ele>182</ele>
        <time>2015-09-06T07:27:21.000Z</time>
      </trkpt>
      <trkpt lat="49.11678" lon="1.73493">
        <ele>181</ele>
        <time>2015-09-06T07:27:23.000Z</time>
      </trkpt>
      <trkpt lat="49.11671" lon="1.73504">
        <ele>181</ele>
        <time>2015-09-06T07:27:25.000Z</time>
      </trkpt>
      <trkpt lat="49.11665" lon="1.73515">
        <ele>181</ele>
        <time>2015-09-06T07:27:27.000Z</time>
      </trkpt>
      <trkpt lat="49.11659" lon="1.73526">
        <ele>181</ele>
        <time>2015-09-06T07:27:29.000Z</time>
      </trkpt>
      <trkpt lat="49.11653" lon="1.73537">
        <ele>181</ele>
        <time>2015-09-06T07:27:31.000Z</time>
      </trkpt>
      <trkpt lat="49.11647" lon="1.73547">
        <ele>180</ele>
        <time>2015-09-06T07:27:33.000Z</time>
      </trkpt>
      <trkpt lat="49.1164" lon="1.73557">
        <ele>180</ele>
        <time>2015-09-06T07:27:35.000Z</time>
      </trkpt>
      <trkpt lat="49.11633" lon="1.73567">
        <ele>180</ele>
        <time>2015-09-06T07:27:37.000Z</time>
      </trkpt>
      <trkpt lat="49.11626" lon="1.73577">
        <ele>180</ele>
        <time>2015-09-06T07:27:39.000Z</time>
      </trkpt>
      <trkpt lat="49.11619" lon="1.73586">
        <ele>180</ele>
        <time>2015-09-06T07:27:41.000Z</time>
      </trkpt>
      <trkpt lat="49.11613" lon="1.73595">
        <ele>179</ele>
        <time>2015-09-06T07:27:43.000Z</time>
      </trkpt>
      <trkpt lat="49.11606" lon="1.73603">
        <ele>179</ele>
        <time>2015-09-06T07:27:45.000Z</time>
      </trkpt>
      <trkpt lat="49.11599" lon="1.73613">
        <ele>179</ele>
        <time>2015-09-06T07:27:47.000Z</time>
      </trkpt>
      <trkpt lat="49.11591" lon="1.73622">
        <ele>179</ele>
        <time>2015-09-06T07:27:49.000Z</time>
      </trkpt>
      <trkpt lat="49.11584" lon="1.73631">
        <ele>179</ele>
        <time>2015-09-06T07:27:51.000Z</time>
      </trkpt>
      <trkpt lat="49.11578" lon="1.73639">
        <ele>179</ele>
        <time>2015-09-06T07:27:53.000Z</time>
      </trkpt>
      <trkpt lat="49.11573" lon="1.73644">
        <ele>179</ele>
        <time>2015-09-06T07:27:55.000Z</time>
      </trkpt>
      <trkpt lat="49.11573" lon="1.73644">
        <ele>179</ele>
        <time>2015-09-06T07:27:57.000Z</time>
      </trkpt>
      <trkpt lat="49.1157" lon="1.73653">
        <ele>178</ele>
        <time>2015-09-06T07:27:59.000Z</time>
      </trkpt>
      <trkpt lat="49.1157" lon="1.73653">
        <ele>178</ele>
        <time>2015-09-06T07:28:01.000Z</time>
      </trkpt>
      <trkpt lat="49.1157" lon="1.73653">
        <ele>178</ele>
        <time>2015-09-06T07:28:03.000Z</time>
      </trkpt>
      <trkpt lat="49.11575" lon="1.73657">
        <ele>177</ele>
        <time>2015-09-06T07:32:09.000Z</time>
      </trkpt>
      <trkpt lat="49.11579" lon="1.73662">
        <ele>177</ele>
        <time>2015-09-06T07:32:11.000Z</time>
      </trkpt>
      <trkpt lat="49.11579" lon="1.73662">
        <ele>177</ele>
        <time>2015-09-06T07:32:14.000Z</time>
      </trkpt>
      <trkpt lat="49.11583" lon="1.73667">
        <ele>177</ele>
        <time>2015-09-06T07:32:25.000Z</time>
      </trkpt>
      <trkpt lat="49.11585" lon="1.73671">
        <ele>177</ele>
        <time>2015-09-06T07:32:27.000Z</time>
      </trkpt>
      <trkpt lat="49.11588" lon="1.73675">
        <ele>177</ele>
        <time>2015-09-06T07:32:29.000Z</time>
      </trkpt>
      <trkpt lat="49.1159" lon="1.73679">
        <ele>177</ele>
        <time>2015-09-06T07:32:31.000Z</time>
      </trkpt>
      <trkpt lat="49.11593" lon="1.73684">
        <ele>176</ele>
        <time>2015-09-06T07:32:33.000Z</time>
      </trkpt>
      <trkpt lat="49.11599" lon="1.73693">
        <ele>176</ele>
        <time>2015-09-06T07:32:35.000Z</time>
      </trkpt>
      <trkpt lat="49.11599" lon="1.73693">
        <ele>176</ele>
        <time>2015-09-06T07:32:37.000Z</time>
      </trkpt>
      <trkpt lat="49.11599" lon="1.73693">
        <ele>176</ele>
        <time>2015-09-06T07:32:39.000Z</time>
      </trkpt>
      <trkpt lat="49.11606" lon="1.73699">
        <ele>177</ele>
        <time>2015-09-06T07:32:41.000Z</time>
      </trkpt>
      <trkpt lat="49.11613" lon="1.73703">
        <ele>177</ele>
        <time>2015-09-06T07:32:45.000Z</time>
      </trkpt>
      <trkpt lat="49.11621" lon="1.73714">
        <ele>176</ele>
        <time>2015-09-06T07:32:49.000Z</time>
      </trkpt>
      <trkpt lat="49.11625" lon="1.73721">
        <ele>176</ele>
        <time>2015-09-06T07:32:51.000Z</time>
      </trkpt>
      <trkpt lat="49.11629" lon="1.73729">
        <ele>176</ele>
        <time>2015-09-06T07:32:53.000Z</time>
      </trkpt>
      <trkpt lat="49.11634" lon="1.73736">
        <ele>176</ele>
        <time>2015-09-06T07:32:55.000Z</time>
      </trkpt>
      <trkpt lat="49.11638" lon="1.73744">
        <ele>175</ele>
        <time>2015-09-06T07:32:57.000Z</time>
      </trkpt>
      <trkpt lat="49.11642" lon="1.7375">
        <ele>175</ele>
        <time>2015-09-06T07:32:59.000Z</time>
      </trkpt>
      <trkpt lat="49.11642" lon="1.7375">
        <ele>175</ele>
        <time>2015-09-06T07:33:01.000Z</time>
      </trkpt>
      <trkpt lat="49.11649" lon="1.73762">
        <ele>175</ele>
        <time>2015-09-06T07:33:03.000Z</time>
      </trkpt>
      <trkpt lat="49.11649" lon="1.73762">
        <ele>175</ele>
        <time>2015-09-06T07:33:05.000Z</time>
      </trkpt>
      <trkpt lat="49.11656" lon="1.73776">
        <ele>175</ele>
        <time>2015-09-06T07:33:07.000Z</time>
      </trkpt>
      <trkpt lat="49.1166" lon="1.73783">
        <ele>175</ele>
        <time>2015-09-06T07:33:09.000Z</time>
      </trkpt>
      <trkpt lat="49.11664" lon="1.7379">
        <ele>176</ele>
        <time>2015-09-06T07:33:11.000Z</time>
      </trkpt>
      <trkpt lat="49.11664" lon="1.7379">
        <ele>176</ele>
        <time>2015-09-06T07:33:13.000Z</time>
      </trkpt>
      <trkpt lat="49.11671" lon="1.73802">
        <ele>176</ele>
        <time>2015-09-06T07:33:15.000Z</time>
      </trkpt>
      <trkpt lat="49.11671" lon="1.73802">
        <ele>176</ele>
        <time>2015-09-06T07:33:17.000Z</time>
      </trkpt>
      <trkpt lat="49.11678" lon="1.73811">
        <ele>176</ele>
        <time>2015-09-06T07:33:19.000Z</time>
      </trkpt>
      <trkpt lat="49.11678" lon="1.73811">
        <ele>176</ele>
        <time>2015-09-06T07:33:21.000Z</time>
      </trkpt>
      <trkpt lat="49.11678" lon="1.73828">
        <ele>176</ele>
        <time>2015-09-06T07:33:38.000Z</time>
      </trkpt>
      <trkpt lat="49.11676" lon="1.73843">
        <ele>176</ele>
        <time>2015-09-06T07:33:42.000Z</time>
      </trkpt>
      <trkpt lat="49.11681" lon="1.73852">
        <ele>176</ele>
        <time>2015-09-06T07:33:44.000Z</time>
      </trkpt>
      <trkpt lat="49.11684" lon="1.73862">
        <ele>176</ele>
        <time>2015-09-06T07:33:46.000Z</time>
      </trkpt>
      <trkpt lat="49.11687" lon="1.73872">
        <ele>175</ele>
        <time>2015-09-06T07:33:48.000Z</time>
      </trkpt>
      <trkpt lat="49.11689" lon="1.73882">
        <ele>175</ele>
        <time>2015-09-06T07:33:50.000Z</time>
      </trkpt>
      <trkpt lat="49.11692" lon="1.73891">
        <ele>174</ele>
        <time>2015-09-06T07:33:52.000Z</time>
      </trkpt>
      <trkpt lat="49.11696" lon="1.73899">
        <ele>174</ele>
        <time>2015-09-06T07:33:54.000Z</time>
      </trkpt>
      <trkpt lat="49.11701" lon="1.73908">
        <ele>174</ele>
        <time>2015-09-06T07:33:56.000Z</time>
      </trkpt>
      <trkpt lat="49.11703" lon="1.73918">
        <ele>174</ele>
        <time>2015-09-06T07:33:58.000Z</time>
      </trkpt>
      <trkpt lat="49.11708" lon="1.73929">
        <ele>174</ele>
        <time>2015-09-06T07:34:00.000Z</time>
      </trkpt>
      <trkpt lat="49.11712" lon="1.73941">
        <ele>174</ele>
        <time>2015-09-06T07:34:02.000Z</time>
      </trkpt>
      <trkpt lat="49.11714" lon="1.73952">
        <ele>173</ele>
        <time>2015-09-06T07:34:04.000Z</time>
      </trkpt>
      <trkpt lat="49.11716" lon="1.73964">
        <ele>172</ele>
        <time>2015-09-06T07:34:06.000Z</time>
      </trkpt>
      <trkpt lat="49.11718" lon="1.73975">
        <ele>171</ele>
        <time>2015-09-06T07:34:08.000Z</time>
      </trkpt>
      <trkpt lat="49.11721" lon="1.73986">
        <ele>171</ele>
        <time>2015-09-06T07:34:10.000Z</time>
      </trkpt>
      <trkpt lat="49.11724" lon="1.73997">
        <ele>170</ele>
        <time>2015-09-06T07:34:13.000Z</time>
      </trkpt>
      <trkpt lat="49.1173" lon="1.74006">
        <ele>169</ele>
        <time>2015-09-06T07:34:14.000Z</time>
      </trkpt>
      <trkpt lat="49.11734" lon="1.74016">
        <ele>169</ele>
        <time>2015-09-06T07:34:16.000Z</time>
      </trkpt>
      <trkpt lat="49.11739" lon="1.74024">
        <ele>169</ele>
        <time>2015-09-06T07:34:18.000Z</time>
      </trkpt>
      <trkpt lat="49.11742" lon="1.74031">
        <ele>168</ele>
        <time>2015-09-06T07:34:20.000Z</time>
      </trkpt>
      <trkpt lat="49.11747" lon="1.74038">
        <ele>168</ele>
        <time>2015-09-06T07:34:22.000Z</time>
      </trkpt>
      <trkpt lat="49.11753" lon="1.74048">
        <ele>168</ele>
        <time>2015-09-06T07:34:24.000Z</time>
      </trkpt>
      <trkpt lat="49.11757" lon="1.74056">
        <ele>167</ele>
        <time>2015-09-06T07:34:27.000Z</time>
      </trkpt>
      <trkpt lat="49.11757" lon="1.74056">
        <ele>167</ele>
        <time>2015-09-06T07:34:28.000Z</time>
      </trkpt>
      <trkpt lat="49.11765" lon="1.74068">
        <ele>167</ele>
        <time>2015-09-06T07:34:30.000Z</time>
      </trkpt>
      <trkpt lat="49.11769" lon="1.74076">
        <ele>167</ele>
        <time>2015-09-06T07:34:32.000Z</time>
      </trkpt>
      <trkpt lat="49.11772" lon="1.74087">
        <ele>166</ele>
        <time>2015-09-06T07:34:34.000Z</time>
      </trkpt>
      <trkpt lat="49.11776" lon="1.74095">
        <ele>166</ele>
        <time>2015-09-06T07:34:36.000Z</time>
      </trkpt>
      <trkpt lat="49.11776" lon="1.74095">
        <ele>166</ele>
        <time>2015-09-06T07:34:38.000Z</time>
      </trkpt>
      <trkpt lat="49.1178" lon="1.74102">
        <ele>165</ele>
        <time>2015-09-06T07:34:41.000Z</time>
      </trkpt>
      <trkpt lat="49.1178" lon="1.74102">
        <ele>165</ele>
        <time>2015-09-06T07:34:42.000Z</time>
      </trkpt>
      <trkpt lat="49.11786" lon="1.74116">
        <ele>165</ele>
        <time>2015-09-06T07:34:45.000Z</time>
      </trkpt>
      <trkpt lat="49.11789" lon="1.74123">
        <ele>164</ele>
        <time>2015-09-06T07:34:47.000Z</time>
      </trkpt>
      <trkpt lat="49.11793" lon="1.74132">
        <ele>164</ele>
        <time>2015-09-06T07:34:48.000Z</time>
      </trkpt>
      <trkpt lat="49.11799" lon="1.7414">
        <ele>163</ele>
        <time>2015-09-06T07:34:50.000Z</time>
      </trkpt>
      <trkpt lat="49.11805" lon="1.74148">
        <ele>162</ele>
        <time>2015-09-06T07:34:53.000Z</time>
      </trkpt>
      <trkpt lat="49.1181" lon="1.74157">
        <ele>161</ele>
        <time>2015-09-06T07:34:54.000Z</time>
      </trkpt>
      <trkpt lat="49.11814" lon="1.74165">
        <ele>161</ele>
        <time>2015-09-06T07:34:56.000Z</time>
      </trkpt>
      <trkpt lat="49.11818" lon="1.74171">
        <ele>160</ele>
        <time>2015-09-06T07:34:58.000Z</time>
      </trkpt>
      <trkpt lat="49.11823" lon="1.74177">
        <ele>159</ele>
        <time>2015-09-06T07:35:01.000Z</time>
      </trkpt>
      <trkpt lat="49.11828" lon="1.74184">
        <ele>159</ele>
        <time>2015-09-06T07:35:02.000Z</time>
      </trkpt>
      <trkpt lat="49.11833" lon="1.74191">
        <ele>159</ele>
        <time>2015-09-06T07:35:04.000Z</time>
      </trkpt>
      <trkpt lat="49.11839" lon="1.74197">
        <ele>159</ele>
        <time>2015-09-06T07:35:06.000Z</time>
      </trkpt>
      <trkpt lat="49.11843" lon="1.74204">
        <ele>159</ele>
        <time>2015-09-06T07:35:09.000Z</time>
      </trkpt>
      <trkpt lat="49.11847" lon="1.74211">
        <ele>158</ele>
        <time>2015-09-06T07:35:10.000Z</time>
      </trkpt>
      <trkpt lat="49.11847" lon="1.74211">
        <ele>158</ele>
        <time>2015-09-06T07:35:12.000Z</time>
      </trkpt>
      <trkpt lat="49.11853" lon="1.74225">
        <ele>158</ele>
        <time>2015-09-06T07:35:14.000Z</time>
      </trkpt>
      <trkpt lat="49.11856" lon="1.74235">
        <ele>159</ele>
        <time>2015-09-06T07:35:17.000Z</time>
      </trkpt>
      <trkpt lat="49.11861" lon="1.74243">
        <ele>159</ele>
        <time>2015-09-06T07:35:18.000Z</time>
      </trkpt>
      <trkpt lat="49.11865" lon="1.7425">
        <ele>159</ele>
        <time>2015-09-06T07:35:21.000Z</time>
      </trkpt>
      <trkpt lat="49.11871" lon="1.7426">
        <ele>158</ele>
        <time>2015-09-06T07:35:23.000Z</time>
      </trkpt>
      <trkpt lat="49.11875" lon="1.74268">
        <ele>158</ele>
        <time>2015-09-06T07:35:25.000Z</time>
      </trkpt>
      <trkpt lat="49.11879" lon="1.74275">
        <ele>158</ele>
        <time>2015-09-06T07:35:27.000Z</time>
      </trkpt>
      <trkpt lat="49.11882" lon="1.74285">
        <ele>157</ele>
        <time>2015-09-06T07:35:28.000Z</time>
      </trkpt>
      <trkpt lat="49.11882" lon="1.74285">
        <ele>157</ele>
        <time>2015-09-06T07:35:30.000Z</time>
      </trkpt>
      <trkpt lat="49.11882" lon="1.74285">
        <ele>157</ele>
        <time>2015-09-06T07:35:33.000Z</time>
      </trkpt>
      <trkpt lat="49.1189" lon="1.7429">
        <ele>159</ele>
        <time>2015-09-06T07:39:05.000Z</time>
      </trkpt>
      <trkpt lat="49.11898" lon="1.7429">
        <ele>159</ele>
        <time>2015-09-06T07:39:09.000Z</time>
      </trkpt>
      <trkpt lat="49.1191" lon="1.74287">
        <ele>159</ele>
        <time>2015-09-06T07:39:12.000Z</time>
      </trkpt>
      <trkpt lat="49.11917" lon="1.74285">
        <ele>159</ele>
        <time>2015-09-06T07:39:15.000Z</time>
      </trkpt>
      <trkpt lat="49.11924" lon="1.74283">
        <ele>159</ele>
        <time>2015-09-06T07:39:17.000Z</time>
      </trkpt>
      <trkpt lat="49.11931" lon="1.7428">
        <ele>159</ele>
        <time>2015-09-06T07:39:18.000Z</time>
      </trkpt>
      <trkpt lat="49.11938" lon="1.74277">
        <ele>160</ele>
        <time>2015-09-06T07:39:21.000Z</time>
      </trkpt>
      <trkpt lat="49.11946" lon="1.74273">
        <ele>160</ele>
        <time>2015-09-06T07:39:22.000Z</time>
      </trkpt>
      <trkpt lat="49.11953" lon="1.74271">
        <ele>161</ele>
        <time>2015-09-06T07:39:24.000Z</time>
      </trkpt>
      <trkpt lat="49.11953" lon="1.74271">
        <ele>161</ele>
        <time>2015-09-06T07:39:26.000Z</time>
      </trkpt>
      <trkpt lat="49.11964" lon="1.7427">
        <ele>162</ele>
        <time>2015-09-06T07:39:28.000Z</time>
      </trkpt>
      <trkpt lat="49.11964" lon="1.7427">
        <ele>162</ele>
        <time>2015-09-06T07:39:31.000Z</time>
      </trkpt>
      <trkpt lat="49.11974" lon="1.74269">
        <ele>163</ele>
        <time>2015-09-06T07:39:32.000Z</time>
      </trkpt>
      <trkpt lat="49.11974" lon="1.74269">
        <ele>163</ele>
        <time>2015-09-06T07:39:34.000Z</time>
      </trkpt>
      <trkpt lat="49.11985" lon="1.74265">
        <ele>164</ele>
        <time>2015-09-06T07:39:36.000Z</time>
      </trkpt>
      <trkpt lat="49.11996" lon="1.74264">
        <ele>164</ele>
        <time>2015-09-06T07:39:40.000Z</time>
      </trkpt>
      <trkpt lat="49.12003" lon="1.74264">
        <ele>163</ele>
        <time>2015-09-06T07:39:42.000Z</time>
      </trkpt>
      <trkpt lat="49.12011" lon="1.74271">
        <ele>163</ele>
        <time>2015-09-06T07:39:46.000Z</time>
      </trkpt>
      <trkpt lat="49.12011" lon="1.74271">
        <ele>163</ele>
        <time>2015-09-06T07:39:48.000Z</time>
      </trkpt>
      <trkpt lat="49.12016" lon="1.74275">
        <ele>164</ele>
        <time>2015-09-06T07:39:51.000Z</time>
      </trkpt>
      <trkpt lat="49.12016" lon="1.74275">
        <ele>164</ele>
        <time>2015-09-06T07:39:52.000Z</time>
      </trkpt>
      <trkpt lat="49.12022" lon="1.74284">
        <ele>164</ele>
        <time>2015-09-06T07:39:54.000Z</time>
      </trkpt>
      <trkpt lat="49.1203" lon="1.74292">
        <ele>165</ele>
        <time>2015-09-06T07:39:59.000Z</time>
      </trkpt>
      <trkpt lat="49.1203" lon="1.74292">
        <ele>165</ele>
        <time>2015-09-06T07:40:00.000Z</time>
      </trkpt>
      <trkpt lat="49.12037" lon="1.74295">
        <ele>165</ele>
        <time>2015-09-06T07:40:03.000Z</time>
      </trkpt>
      <trkpt lat="49.12037" lon="1.74295">
        <ele>165</ele>
        <time>2015-09-06T07:40:04.000Z</time>
      </trkpt>
      <trkpt lat="49.12043" lon="1.74299">
        <ele>166</ele>
        <time>2015-09-06T07:40:07.000Z</time>
      </trkpt>
      <trkpt lat="49.12053" lon="1.74301">
        <ele>166</ele>
        <time>2015-09-06T07:40:10.000Z</time>
      </trkpt>
      <trkpt lat="49.12059" lon="1.74302">
        <ele>167</ele>
        <time>2015-09-06T07:40:13.000Z</time>
      </trkpt>
      <trkpt lat="49.12065" lon="1.74302">
        <ele>167</ele>
        <time>2015-09-06T07:40:15.000Z</time>
      </trkpt>
      <trkpt lat="49.12065" lon="1.74302">
        <ele>167</ele>
        <time>2015-09-06T07:40:16.000Z</time>
      </trkpt>
      <trkpt lat="49.12069" lon="1.74302">
        <ele>167</ele>
        <time>2015-09-06T07:40:19.000Z</time>
      </trkpt>
      <trkpt lat="49.12069" lon="1.74302">
        <ele>167</ele>
        <time>2015-09-06T07:40:21.000Z</time>
      </trkpt>
      <trkpt lat="49.12076" lon="1.74302">
        <ele>168</ele>
        <time>2015-09-06T07:40:23.000Z</time>
      </trkpt>
      <trkpt lat="49.12082" lon="1.74301">
        <ele>168</ele>
        <time>2015-09-06T07:40:26.000Z</time>
      </trkpt>
      <trkpt lat="49.12088" lon="1.743">
        <ele>168</ele>
        <time>2015-09-06T07:40:27.000Z</time>
      </trkpt>
      <trkpt lat="49.12092" lon="1.74299">
        <ele>168</ele>
        <time>2015-09-06T07:40:30.000Z</time>
      </trkpt>
      <trkpt lat="49.12096" lon="1.74297">
        <ele>168</ele>
        <time>2015-09-06T07:40:32.000Z</time>
      </trkpt>
      <trkpt lat="49.12103" lon="1.74294">
        <ele>168</ele>
        <time>2015-09-06T07:40:33.000Z</time>
      </trkpt>
      <trkpt lat="49.12111" lon="1.74292">
        <ele>168</ele>
        <time>2015-09-06T07:40:38.000Z</time>
      </trkpt>
      <trkpt lat="49.12118" lon="1.74292">
        <ele>169</ele>
        <time>2015-09-06T07:40:41.000Z</time>
      </trkpt>
      <trkpt lat="49.12118" lon="1.74292">
        <ele>169</ele>
        <time>2015-09-06T07:40:43.000Z</time>
      </trkpt>
      <trkpt lat="49.12125" lon="1.74291">
        <ele>170</ele>
        <time>2015-09-06T07:40:46.000Z</time>
      </trkpt>
      <trkpt lat="49.12132" lon="1.74291">
        <ele>172</ele>
        <time>2015-09-06T07:40:51.000Z</time>
      </trkpt>
      <trkpt lat="49.12132" lon="1.74291">
        <ele>172</ele>
        <time>2015-09-06T07:40:52.000Z</time>
      </trkpt>
      <trkpt lat="49.12138" lon="1.74294">
        <ele>172</ele>
        <time>2015-09-06T07:40:54.000Z</time>
      </trkpt>
      <trkpt lat="49.12138" lon="1.74294">
        <ele>172</ele>
        <time>2015-09-06T07:40:57.000Z</time>
      </trkpt>
      <trkpt lat="49.12144" lon="1.74296">
        <ele>174</ele>
        <time>2015-09-06T07:40:59.000Z</time>
      </trkpt>
      <trkpt lat="49.12151" lon="1.74299">
        <ele>174</ele>
        <time>2015-09-06T07:41:03.000Z</time>
      </trkpt>
      <trkpt lat="49.12157" lon="1.74302">
        <ele>174</ele>
        <time>2015-09-06T07:41:06.000Z</time>
      </trkpt>
      <trkpt lat="49.12163" lon="1.74305">
        <ele>175</ele>
        <time>2015-09-06T07:41:10.000Z</time>
      </trkpt>
      <trkpt lat="49.12168" lon="1.74309">
        <ele>176</ele>
        <time>2015-09-06T07:41:15.000Z</time>
      </trkpt>
      <trkpt lat="49.12173" lon="1.74314">
        <ele>177</ele>
        <time>2015-09-06T07:41:18.000Z</time>
      </trkpt>
      <trkpt lat="49.12173" lon="1.74314">
        <ele>177</ele>
        <time>2015-09-06T07:41:21.000Z</time>
      </trkpt>
      <trkpt lat="49.1218" lon="1.74318">
        <ele>176</ele>
        <time>2015-09-06T07:41:22.000Z</time>
      </trkpt>
      <trkpt lat="49.12188" lon="1.74323">
        <ele>177</ele>
        <time>2015-09-06T07:41:27.000Z</time>
      </trkpt>
      <trkpt lat="49.12195" lon="1.74328">
        <ele>176</ele>
        <time>2015-09-06T07:41:30.000Z</time>
      </trkpt>
      <trkpt lat="49.12201" lon="1.74337">
        <ele>177</ele>
        <time>2015-09-06T07:41:34.000Z</time>
      </trkpt>
      <trkpt lat="49.12208" lon="1.74344">
        <ele>176</ele>
        <time>2015-09-06T07:41:39.000Z</time>
      </trkpt>
      <trkpt lat="49.12214" lon="1.74353">
        <ele>176</ele>
        <time>2015-09-06T07:41:42.000Z</time>
      </trkpt>
      <trkpt lat="49.12214" lon="1.74353">
        <ele>176</ele>
        <time>2015-09-06T07:41:45.000Z</time>
      </trkpt>
      <trkpt lat="49.12221" lon="1.74362">
        <ele>176</ele>
        <time>2015-09-06T07:41:46.000Z</time>
      </trkpt>
      <trkpt lat="49.12221" lon="1.74362">
        <ele>176</ele>
        <time>2015-09-06T07:41:48.000Z</time>
      </trkpt>
      <trkpt lat="49.12228" lon="1.7437">
        <ele>176</ele>
        <time>2015-09-06T07:41:51.000Z</time>
      </trkpt>
      <trkpt lat="49.12233" lon="1.74376">
        <ele>176</ele>
        <time>2015-09-06T07:41:52.000Z</time>
      </trkpt>
      <trkpt lat="49.12238" lon="1.74386">
        <ele>174</ele>
        <time>2015-09-06T07:41:54.000Z</time>
      </trkpt>
      <trkpt lat="49.12245" lon="1.74394">
        <ele>173</ele>
        <time>2015-09-06T07:41:57.000Z</time>
      </trkpt>
      <trkpt lat="49.12254" lon="1.74401">
        <ele>173</ele>
        <time>2015-09-06T07:41:58.000Z</time>
      </trkpt>
      <trkpt lat="49.12263" lon="1.74409">
        <ele>173</ele>
        <time>2015-09-06T07:42:00.000Z</time>
      </trkpt>
      <trkpt lat="49.12271" lon="1.74418">
        <ele>173</ele>
        <time>2015-09-06T07:42:02.000Z</time>
      </trkpt>
      <trkpt lat="49.12281" lon="1.74426">
        <ele>172</ele>
        <time>2015-09-06T07:42:04.000Z</time>
      </trkpt>
      <trkpt lat="49.12289" lon="1.74434">
        <ele>172</ele>
        <time>2015-09-06T07:42:07.000Z</time>
      </trkpt>
      <trkpt lat="49.12297" lon="1.74441">
        <ele>172</ele>
        <time>2015-09-06T07:42:08.000Z</time>
      </trkpt>
      <trkpt lat="49.12305" lon="1.74447">
        <ele>171</ele>
        <time>2015-09-06T07:42:10.000Z</time>
      </trkpt>
      <trkpt lat="49.12313" lon="1.74454">
        <ele>171</ele>
        <time>2015-09-06T07:42:13.000Z</time>
      </trkpt>
      <trkpt lat="49.12321" lon="1.74463">
        <ele>170</ele>
        <time>2015-09-06T07:42:14.000Z</time>
      </trkpt>
      <trkpt lat="49.12329" lon="1.74471">
        <ele>170</ele>
        <time>2015-09-06T07:42:16.000Z</time>
      </trkpt>
      <trkpt lat="49.12335" lon="1.74477">
        <ele>170</ele>
        <time>2015-09-06T07:42:18.000Z</time>
      </trkpt>
      <trkpt lat="49.12335" lon="1.74477">
        <ele>170</ele>
        <time>2015-09-06T07:42:20.000Z</time>
      </trkpt>
      <trkpt lat="49.12344" lon="1.74487">
        <ele>171</ele>
        <time>2015-09-06T07:42:22.000Z</time>
      </trkpt>
      <trkpt lat="49.12344" lon="1.74487">
        <ele>171</ele>
        <time>2015-09-06T07:42:24.000Z</time>
      </trkpt>
      <trkpt lat="49.12349" lon="1.74493">
        <ele>171</ele>
        <time>2015-09-06T07:42:27.000Z</time>
      </trkpt>
      <trkpt lat="49.12349" lon="1.74493">
        <ele>171</ele>
        <time>2015-09-06T07:42:28.000Z</time>
      </trkpt>
      <trkpt lat="49.12358" lon="1.74499">
        <ele>172</ele>
        <time>2015-09-06T07:42:53.000Z</time>
      </trkpt>
      <trkpt lat="49.1237" lon="1.74497">
        <ele>172</ele>
        <time>2015-09-06T07:42:57.000Z</time>
      </trkpt>
      <trkpt lat="49.12378" lon="1.74498">
        <ele>173</ele>
        <time>2015-09-06T07:42:58.000Z</time>
      </trkpt>
      <trkpt lat="49.12386" lon="1.745">
        <ele>173</ele>
        <time>2015-09-06T07:43:00.000Z</time>
      </trkpt>
      <trkpt lat="49.12394" lon="1.74504">
        <ele>173</ele>
        <time>2015-09-06T07:43:03.000Z</time>
      </trkpt>
      <trkpt lat="49.12401" lon="1.74512">
        <ele>172</ele>
        <time>2015-09-06T07:43:05.000Z</time>
      </trkpt>
      <trkpt lat="49.12408" lon="1.7452">
        <ele>170</ele>
        <time>2015-09-06T07:43:06.000Z</time>
      </trkpt>
      <trkpt lat="49.12415" lon="1.7453">
        <ele>170</ele>
        <time>2015-09-06T07:43:09.000Z</time>
      </trkpt>
      <trkpt lat="49.12421" lon="1.74539">
        <ele>169</ele>
        <time>2015-09-06T07:43:10.000Z</time>
      </trkpt>
      <trkpt lat="49.12427" lon="1.74548">
        <ele>169</ele>
        <time>2015-09-06T07:43:12.000Z</time>
      </trkpt>
      <trkpt lat="49.12433" lon="1.74557">
        <ele>169</ele>
        <time>2015-09-06T07:43:15.000Z</time>
      </trkpt>
      <trkpt lat="49.1244" lon="1.74566">
        <ele>169</ele>
        <time>2015-09-06T07:43:17.000Z</time>
      </trkpt>
      <trkpt lat="49.12446" lon="1.74574">
        <ele>169</ele>
        <time>2015-09-06T07:43:18.000Z</time>
      </trkpt>
      <trkpt lat="49.12452" lon="1.74582">
        <ele>169</ele>
        <time>2015-09-06T07:43:21.000Z</time>
      </trkpt>
      <trkpt lat="49.12459" lon="1.74591">
        <ele>169</ele>
        <time>2015-09-06T07:43:22.000Z</time>
      </trkpt>
      <trkpt lat="49.12465" lon="1.746">
        <ele>169</ele>
        <time>2015-09-06T07:43:25.000Z</time>
      </trkpt>
      <trkpt lat="49.12471" lon="1.74609">
        <ele>169</ele>
        <time>2015-09-06T07:43:26.000Z</time>
      </trkpt>
      <trkpt lat="49.12477" lon="1.74619">
        <ele>169</ele>
        <time>2015-09-06T07:43:28.000Z</time>
      </trkpt>
      <trkpt lat="49.12481" lon="1.7463">
        <ele>169</ele>
        <time>2015-09-06T07:43:31.000Z</time>
      </trkpt>
      <trkpt lat="49.12486" lon="1.74642">
        <ele>168</ele>
        <time>2015-09-06T07:43:32.000Z</time>
      </trkpt>
      <trkpt lat="49.1249" lon="1.74653">
        <ele>168</ele>
        <time>2015-09-06T07:43:34.000Z</time>
      </trkpt>
      <trkpt lat="49.12495" lon="1.74663">
        <ele>168</ele>
        <time>2015-09-06T07:43:36.000Z</time>
      </trkpt>
      <trkpt lat="49.12498" lon="1.74673">
        <ele>168</ele>
        <time>2015-09-06T07:43:38.000Z</time>
      </trkpt>
      <trkpt lat="49.12502" lon="1.74682">
        <ele>169</ele>
        <time>2015-09-06T07:43:40.000Z</time>
      </trkpt>
      <trkpt lat="49.12506" lon="1.7469">
        <ele>169</ele>
        <time>2015-09-06T07:43:43.000Z</time>
      </trkpt>
      <trkpt lat="49.12506" lon="1.7469">
        <ele>169</ele>
        <time>2015-09-06T07:43:45.000Z</time>
      </trkpt>
      <trkpt lat="49.12515" lon="1.74698">
        <ele>169</ele>
        <time>2015-09-06T07:43:46.000Z</time>
      </trkpt>
      <trkpt lat="49.12515" lon="1.74698">
        <ele>169</ele>
        <time>2015-09-06T07:43:48.000Z</time>
      </trkpt>
      <trkpt lat="49.12523" lon="1.74711">
        <ele>168</ele>
        <time>2015-09-06T07:43:50.000Z</time>
      </trkpt>
      <trkpt lat="49.12524" lon="1.74721">
        <ele>168</ele>
        <time>2015-09-06T07:43:52.000Z</time>
      </trkpt>
      <trkpt lat="49.12524" lon="1.74735">
        <ele>167</ele>
        <time>2015-09-06T07:43:54.000Z</time>
      </trkpt>
      <trkpt lat="49.12521" lon="1.74749">
        <ele>167</ele>
        <time>2015-09-06T07:43:57.000Z</time>
      </trkpt>
      <trkpt lat="49.12517" lon="1.74764">
        <ele>167</ele>
        <time>2015-09-06T07:43:58.000Z</time>
      </trkpt>
      <trkpt lat="49.12513" lon="1.74779">
        <ele>166</ele>
        <time>2015-09-06T07:44:00.000Z</time>
      </trkpt>
      <trkpt lat="49.1251" lon="1.74789">
        <ele>166</ele>
        <time>2015-09-06T07:44:02.000Z</time>
      </trkpt>
      <trkpt lat="49.1251" lon="1.74789">
        <ele>166</ele>
        <time>2015-09-06T07:44:05.000Z</time>
      </trkpt>
      <trkpt lat="49.12509" lon="1.74798">
        <ele>165</ele>
        <time>2015-09-06T07:44:06.000Z</time>
      </trkpt>
      <trkpt lat="49.12509" lon="1.74798">
        <ele>165</ele>
        <time>2015-09-06T07:44:08.000Z</time>
      </trkpt>
      <trkpt lat="49.12509" lon="1.74798">
        <ele>165</ele>
        <time>2015-09-06T07:44:11.000Z</time>
      </trkpt>
      <trkpt lat="49.12513" lon="1.74785">
        <ele>165</ele>
        <time>2015-09-06T07:44:12.000Z</time>
      </trkpt>
      <trkpt lat="49.12514" lon="1.74776">
        <ele>166</ele>
        <time>2015-09-06T07:44:16.000Z</time>
      </trkpt>
      <trkpt lat="49.12514" lon="1.74776">
        <ele>166</ele>
        <time>2015-09-06T07:44:19.000Z</time>
      </trkpt>
      <trkpt lat="49.12517" lon="1.74778">
        <ele>166</ele>
        <time>2015-09-06T07:44:21.000Z</time>
      </trkpt>
      <trkpt lat="49.12517" lon="1.74778">
        <ele>166</ele>
        <time>2015-09-06T07:44:22.000Z</time>
      </trkpt>
      <trkpt lat="49.12517" lon="1.74778">
        <ele>166</ele>
        <time>2015-09-06T07:44:24.000Z</time>
      </trkpt>
      <trkpt lat="49.12519" lon="1.74786">
        <ele>165</ele>
        <time>2015-09-06T07:44:27.000Z</time>
      </trkpt>
      <trkpt lat="49.12522" lon="1.74792">
        <ele>165</ele>
        <time>2015-09-06T07:44:28.000Z</time>
      </trkpt>
      <trkpt lat="49.12525" lon="1.74799">
        <ele>164</ele>
        <time>2015-09-06T07:44:30.000Z</time>
      </trkpt>
      <trkpt lat="49.12531" lon="1.74805">
        <ele>163</ele>
        <time>2015-09-06T07:44:33.000Z</time>
      </trkpt>
      <trkpt lat="49.12536" lon="1.7481">
        <ele>162</ele>
        <time>2015-09-06T07:44:34.000Z</time>
      </trkpt>
      <trkpt lat="49.12549" lon="1.74818">
        <ele>160</ele>
        <time>2015-09-06T07:44:36.000Z</time>
      </trkpt>
      <trkpt lat="49.12556" lon="1.7482">
        <ele>159</ele>
        <time>2015-09-06T07:44:39.000Z</time>
      </trkpt>
      <trkpt lat="49.12563" lon="1.74825">
        <ele>158</ele>
        <time>2015-09-06T07:44:40.000Z</time>
      </trkpt>
      <trkpt lat="49.12569" lon="1.74832">
        <ele>158</ele>
        <time>2015-09-06T07:44:42.000Z</time>
      </trkpt>
      <trkpt lat="49.12572" lon="1.74843">
        <ele>157</ele>
        <time>2015-09-06T07:44:45.000Z</time>
      </trkpt>
      <trkpt lat="49.12574" lon="1.74857">
        <ele>157</ele>
        <time>2015-09-06T07:44:47.000Z</time>
      </trkpt>
      <trkpt lat="49.12576" lon="1.74873">
        <ele>156</ele>
        <time>2015-09-06T07:44:48.000Z</time>
      </trkpt>
      <trkpt lat="49.1258" lon="1.74887">
        <ele>155</ele>
        <time>2015-09-06T07:44:51.000Z</time>
      </trkpt>
      <trkpt lat="49.12585" lon="1.74903">
        <ele>153</ele>
        <time>2015-09-06T07:44:52.000Z</time>
      </trkpt>
      <trkpt lat="49.12589" lon="1.74917">
        <ele>152</ele>
        <time>2015-09-06T07:44:54.000Z</time>
      </trkpt>
      <trkpt lat="49.12593" lon="1.74929">
        <ele>151</ele>
        <time>2015-09-06T07:44:56.000Z</time>
      </trkpt>
      <trkpt lat="49.12598" lon="1.74941">
        <ele>150</ele>
        <time>2015-09-06T07:44:58.000Z</time>
      </trkpt>
      <trkpt lat="49.12602" lon="1.74952">
        <ele>148</ele>
        <time>2015-09-06T07:45:00.000Z</time>
      </trkpt>
      <trkpt lat="49.12605" lon="1.74964">
        <ele>146</ele>
        <time>2015-09-06T07:45:03.000Z</time>
      </trkpt>
      <trkpt lat="49.12608" lon="1.74977">
        <ele>146</ele>
        <time>2015-09-06T07:45:04.000Z</time>
      </trkpt>
      <trkpt lat="49.12611" lon="1.7499">
        <ele>145</ele>
        <time>2015-09-06T07:45:06.000Z</time>
      </trkpt>
      <trkpt lat="49.12614" lon="1.75004">
        <ele>143</ele>
        <time>2015-09-06T07:45:09.000Z</time>
      </trkpt>
      <trkpt lat="49.12615" lon="1.75017">
        <ele>141</ele>
        <time>2015-09-06T07:45:10.000Z</time>
      </trkpt>
      <trkpt lat="49.12616" lon="1.75026">
        <ele>140</ele>
        <time>2015-09-06T07:45:13.000Z</time>
      </trkpt>
      <trkpt lat="49.12616" lon="1.75026">
        <ele>140</ele>
        <time>2015-09-06T07:45:14.000Z</time>
      </trkpt>
      <trkpt lat="49.12613" lon="1.75038">
        <ele>139</ele>
        <time>2015-09-06T07:45:16.000Z</time>
      </trkpt>
      <trkpt lat="49.12613" lon="1.75038">
        <ele>139</ele>
        <time>2015-09-06T07:45:18.000Z</time>
      </trkpt>
      <trkpt lat="49.12602" lon="1.75039">
        <ele>137</ele>
        <time>2015-09-06T07:45:20.000Z</time>
      </trkpt>
      <trkpt lat="49.12602" lon="1.75039">
        <ele>137</ele>
        <time>2015-09-06T07:45:22.000Z</time>
      </trkpt>
      <trkpt lat="49.12595" lon="1.75042">
        <ele>137</ele>
        <time>2015-09-06T07:45:25.000Z</time>
      </trkpt>
      <trkpt lat="49.12595" lon="1.75042">
        <ele>137</ele>
        <time>2015-09-06T07:45:27.000Z</time>
      </trkpt>
      <trkpt lat="49.12588" lon="1.75048">
        <ele>138</ele>
        <time>2015-09-06T07:46:10.000Z</time>
      </trkpt>
      <trkpt lat="49.12583" lon="1.75052">
        <ele>139</ele>
        <time>2015-09-06T07:46:11.000Z</time>
      </trkpt>
      <trkpt lat="49.12577" lon="1.75058">
        <ele>139</ele>
        <time>2015-09-06T07:46:14.000Z</time>
      </trkpt>
      <trkpt lat="49.12571" lon="1.75063">
        <ele>139</ele>
        <time>2015-09-06T07:46:15.000Z</time>
      </trkpt>
      <trkpt lat="49.12565" lon="1.75069">
        <ele>139</ele>
        <time>2015-09-06T07:46:17.000Z</time>
      </trkpt>
      <trkpt lat="49.12559" lon="1.75075">
        <ele>139</ele>
        <time>2015-09-06T07:46:20.000Z</time>
      </trkpt>
      <trkpt lat="49.12554" lon="1.7508">
        <ele>139</ele>
        <time>2015-09-06T07:46:21.000Z</time>
      </trkpt>
      <trkpt lat="49.12549" lon="1.75084">
        <ele>139</ele>
        <time>2015-09-06T07:46:23.000Z</time>
      </trkpt>
      <trkpt lat="49.12543" lon="1.75089">
        <ele>139</ele>
        <time>2015-09-06T07:46:26.000Z</time>
      </trkpt>
      <trkpt lat="49.12537" lon="1.75093">
        <ele>139</ele>
        <time>2015-09-06T07:46:27.000Z</time>
      </trkpt>
      <trkpt lat="49.12531" lon="1.75098">
        <ele>138</ele>
        <time>2015-09-06T07:46:29.000Z</time>
      </trkpt>
      <trkpt lat="49.12531" lon="1.75098">
        <ele>138</ele>
        <time>2015-09-06T07:46:32.000Z</time>
      </trkpt>
      <trkpt lat="49.12524" lon="1.75106">
        <ele>138</ele>
        <time>2015-09-06T07:46:33.000Z</time>
      </trkpt>
      <trkpt lat="49.12524" lon="1.75106">
        <ele>138</ele>
        <time>2015-09-06T07:46:35.000Z</time>
      </trkpt>
      <trkpt lat="49.12518" lon="1.75119">
        <ele>138</ele>
        <time>2015-09-06T07:46:38.000Z</time>
      </trkpt>
      <trkpt lat="49.12513" lon="1.75126">
        <ele>138</ele>
        <time>2015-09-06T07:46:40.000Z</time>
      </trkpt>
      <trkpt lat="49.12506" lon="1.75135">
        <ele>138</ele>
        <time>2015-09-06T07:46:41.000Z</time>
      </trkpt>
      <trkpt lat="49.125" lon="1.75145">
        <ele>138</ele>
        <time>2015-09-06T07:46:44.000Z</time>
      </trkpt>
      <trkpt lat="49.12491" lon="1.75155">
        <ele>138</ele>
        <time>2015-09-06T07:46:45.000Z</time>
      </trkpt>
      <trkpt lat="49.12482" lon="1.75164">
        <ele>137</ele>
        <time>2015-09-06T07:46:47.000Z</time>
      </trkpt>
      <trkpt lat="49.12475" lon="1.75171">
        <ele>137</ele>
        <time>2015-09-06T07:46:50.000Z</time>
      </trkpt>
      <trkpt lat="49.12468" lon="1.75176">
        <ele>137</ele>
        <time>2015-09-06T07:46:51.000Z</time>
      </trkpt>
      <trkpt lat="49.12462" lon="1.75182">
        <ele>137</ele>
        <time>2015-09-06T07:46:53.000Z</time>
      </trkpt>
      <trkpt lat="49.12456" lon="1.75188">
        <ele>137</ele>
        <time>2015-09-06T07:46:56.000Z</time>
      </trkpt>
      <trkpt lat="49.1245" lon="1.75194">
        <ele>138</ele>
        <time>2015-09-06T07:46:57.000Z</time>
      </trkpt>
      <trkpt lat="49.12445" lon="1.752">
        <ele>138</ele>
        <time>2015-09-06T07:46:59.000Z</time>
      </trkpt>
      <trkpt lat="49.1244" lon="1.75208">
        <ele>139</ele>
        <time>2015-09-06T07:47:01.000Z</time>
      </trkpt>
      <trkpt lat="49.12435" lon="1.75217">
        <ele>139</ele>
        <time>2015-09-06T07:47:03.000Z</time>
      </trkpt>
      <trkpt lat="49.12431" lon="1.75227">
        <ele>139</ele>
        <time>2015-09-06T07:47:05.000Z</time>
      </trkpt>
      <trkpt lat="49.12425" lon="1.75236">
        <ele>140</ele>
        <time>2015-09-06T07:47:07.000Z</time>
      </trkpt>
      <trkpt lat="49.12419" lon="1.75245">
        <ele>141</ele>
        <time>2015-09-06T07:47:10.000Z</time>
      </trkpt>
      <trkpt lat="49.12413" lon="1.75255">
        <ele>141</ele>
        <time>2015-09-06T07:47:11.000Z</time>
      </trkpt>
      <trkpt lat="49.12407" lon="1.75264">
        <ele>141</ele>
        <time>2015-09-06T07:47:14.000Z</time>
      </trkpt>
      <trkpt lat="49.12402" lon="1.75274">
        <ele>140</ele>
        <time>2015-09-06T07:47:15.000Z</time>
      </trkpt>
      <trkpt lat="49.12396" lon="1.75284">
        <ele>139</ele>
        <time>2015-09-06T07:47:17.000Z</time>
      </trkpt>
      <trkpt lat="49.12391" lon="1.75294">
        <ele>139</ele>
        <time>2015-09-06T07:47:20.000Z</time>
      </trkpt>
      <trkpt lat="49.12384" lon="1.75302">
        <ele>138</ele>
        <time>2015-09-06T07:47:21.000Z</time>
      </trkpt>
      <trkpt lat="49.12377" lon="1.75311">
        <ele>138</ele>
        <time>2015-09-06T07:47:23.000Z</time>
      </trkpt>
      <trkpt lat="49.12371" lon="1.7532">
        <ele>138</ele>
        <time>2015-09-06T07:47:26.000Z</time>
      </trkpt>
      <trkpt lat="49.12365" lon="1.75328">
        <ele>138</ele>
        <time>2015-09-06T07:47:27.000Z</time>
      </trkpt>
      <trkpt lat="49.1236" lon="1.75336">
        <ele>138</ele>
        <time>2015-09-06T07:47:30.000Z</time>
      </trkpt>
      <trkpt lat="49.12354" lon="1.75345">
        <ele>138</ele>
        <time>2015-09-06T07:47:32.000Z</time>
      </trkpt>
      <trkpt lat="49.12348" lon="1.75354">
        <ele>139</ele>
        <time>2015-09-06T07:47:34.000Z</time>
      </trkpt>
      <trkpt lat="49.12342" lon="1.75363">
        <ele>139</ele>
        <time>2015-09-06T07:47:35.000Z</time>
      </trkpt>
      <trkpt lat="49.12336" lon="1.75371">
        <ele>139</ele>
        <time>2015-09-06T07:47:38.000Z</time>
      </trkpt>
      <trkpt lat="49.12331" lon="1.7538">
        <ele>140</ele>
        <time>2015-09-06T07:47:40.000Z</time>
      </trkpt>
      <trkpt lat="49.12325" lon="1.75389">
        <ele>140</ele>
        <time>2015-09-06T07:47:41.000Z</time>
      </trkpt>
      <trkpt lat="49.1232" lon="1.75397">
        <ele>141</ele>
        <time>2015-09-06T07:47:43.000Z</time>
      </trkpt>
      <trkpt lat="49.12315" lon="1.75404">
        <ele>141</ele>
        <time>2015-09-06T07:47:46.000Z</time>
      </trkpt>
      <trkpt lat="49.12312" lon="1.75411">
        <ele>142</ele>
        <time>2015-09-06T07:47:47.000Z</time>
      </trkpt>
      <trkpt lat="49.12312" lon="1.75411">
        <ele>142</ele>
        <time>2015-09-06T07:47:50.000Z</time>
      </trkpt>
      <trkpt lat="49.12304" lon="1.75423">
        <ele>142</ele>
        <time>2015-09-06T07:47:51.000Z</time>
      </trkpt>
      <trkpt lat="49.123" lon="1.75429">
        <ele>142</ele>
        <time>2015-09-06T07:47:53.000Z</time>
      </trkpt>
      <trkpt lat="49.12295" lon="1.75436">
        <ele>142</ele>
        <time>2015-09-06T07:47:55.000Z</time>
      </trkpt>
      <trkpt lat="49.12291" lon="1.75443">
        <ele>142</ele>
        <time>2015-09-06T07:47:58.000Z</time>
      </trkpt>
      <trkpt lat="49.12291" lon="1.75443">
        <ele>142</ele>
        <time>2015-09-06T07:48:00.000Z</time>
      </trkpt>
      <trkpt lat="49.12284" lon="1.7545">
        <ele>142</ele>
        <time>2015-09-06T07:48:01.000Z</time>
      </trkpt>
      <trkpt lat="49.12284" lon="1.7545">
        <ele>142</ele>
        <time>2015-09-06T07:48:04.000Z</time>
      </trkpt>
      <trkpt lat="49.12248" lon="1.75473">
        <ele>145</ele>
        <time>2015-09-06T07:48:40.000Z</time>
      </trkpt>
      <trkpt lat="49.1224" lon="1.75476">
        <ele>145</ele>
        <time>2015-09-06T07:48:43.000Z</time>
      </trkpt>
      <trkpt lat="49.12231" lon="1.75478">
        <ele>146</ele>
        <time>2015-09-06T07:48:48.000Z</time>
      </trkpt>
      <trkpt lat="49.12221" lon="1.75485">
        <ele>146</ele>
        <time>2015-09-06T07:48:52.000Z</time>
      </trkpt>
      <trkpt lat="49.12212" lon="1.75487">
        <ele>147</ele>
        <time>2015-09-06T07:48:55.000Z</time>
      </trkpt>
      <trkpt lat="49.12212" lon="1.75487">
        <ele>147</ele>
        <time>2015-09-06T07:48:57.000Z</time>
      </trkpt>
      <trkpt lat="49.12202" lon="1.75494">
        <ele>146</ele>
        <time>2015-09-06T07:48:59.000Z</time>
      </trkpt>
      <trkpt lat="49.12194" lon="1.75499">
        <ele>146</ele>
        <time>2015-09-06T07:49:01.000Z</time>
      </trkpt>
      <trkpt lat="49.12187" lon="1.75503">
        <ele>146</ele>
        <time>2015-09-06T07:49:04.000Z</time>
      </trkpt>
      <trkpt lat="49.1218" lon="1.75508">
        <ele>146</ele>
        <time>2015-09-06T07:49:05.000Z</time>
      </trkpt>
      <trkpt lat="49.12174" lon="1.75511">
        <ele>146</ele>
        <time>2015-09-06T07:49:07.000Z</time>
      </trkpt>
      <trkpt lat="49.12174" lon="1.75511">
        <ele>146</ele>
        <time>2015-09-06T07:49:10.000Z</time>
      </trkpt>
      <trkpt lat="49.12169" lon="1.75516">
        <ele>147</ele>
        <time>2015-09-06T07:49:11.000Z</time>
      </trkpt>
      <trkpt lat="49.12157" lon="1.75525">
        <ele>147</ele>
        <time>2015-09-06T07:49:22.000Z</time>
      </trkpt>
      <trkpt lat="49.12149" lon="1.7553">
        <ele>147</ele>
        <time>2015-09-06T07:49:27.000Z</time>
      </trkpt>
      <trkpt lat="49.12141" lon="1.75536">
        <ele>147</ele>
        <time>2015-09-06T07:49:30.000Z</time>
      </trkpt>
      <trkpt lat="49.12133" lon="1.75544">
        <ele>148</ele>
        <time>2015-09-06T07:49:34.000Z</time>
      </trkpt>
      <trkpt lat="49.12126" lon="1.75554">
        <ele>148</ele>
        <time>2015-09-06T07:49:38.000Z</time>
      </trkpt>
      <trkpt lat="49.12119" lon="1.75565">
        <ele>149</ele>
        <time>2015-09-06T07:49:42.000Z</time>
      </trkpt>
      <trkpt lat="49.12112" lon="1.75576">
        <ele>149</ele>
        <time>2015-09-06T07:49:47.000Z</time>
      </trkpt>
      <trkpt lat="49.12112" lon="1.75576">
        <ele>149</ele>
        <time>2015-09-06T07:49:48.000Z</time>
      </trkpt>
      <trkpt lat="49.12107" lon="1.75585">
        <ele>149</ele>
        <time>2015-09-06T07:49:50.000Z</time>
      </trkpt>
      <trkpt lat="49.12107" lon="1.75585">
        <ele>149</ele>
        <time>2015-09-06T07:49:52.000Z</time>
      </trkpt>
      <trkpt lat="49.12107" lon="1.75585">
        <ele>149</ele>
        <time>2015-09-06T07:49:54.000Z</time>
      </trkpt>
      <trkpt lat="49.12107" lon="1.75585">
        <ele>149</ele>
        <time>2015-09-06T07:49:57.000Z</time>
      </trkpt>
      <trkpt lat="49.12115" lon="1.75575">
        <ele>150</ele>
        <time>2015-09-06T07:50:00.000Z</time>
      </trkpt>
      <trkpt lat="49.12119" lon="1.75568">
        <ele>149</ele>
        <time>2015-09-06T07:50:03.000Z</time>
      </trkpt>
      <trkpt lat="49.12124" lon="1.7556">
        <ele>150</ele>
        <time>2015-09-06T07:50:04.000Z</time>
      </trkpt>
      <trkpt lat="49.12129" lon="1.75551">
        <ele>150</ele>
        <time>2015-09-06T07:50:06.000Z</time>
      </trkpt>
      <trkpt lat="49.12135" lon="1.75544">
        <ele>149</ele>
        <time>2015-09-06T07:50:09.000Z</time>
      </trkpt>
      <trkpt lat="49.12143" lon="1.75537">
        <ele>149</ele>
        <time>2015-09-06T07:50:10.000Z</time>
      </trkpt>
      <trkpt lat="49.12151" lon="1.75531">
        <ele>149</ele>
        <time>2015-09-06T07:50:12.000Z</time>
      </trkpt>
      <trkpt lat="49.12159" lon="1.75526">
        <ele>148</ele>
        <time>2015-09-06T07:50:15.000Z</time>
      </trkpt>
      <trkpt lat="49.12167" lon="1.75521">
        <ele>148</ele>
        <time>2015-09-06T07:50:16.000Z</time>
      </trkpt>
      <trkpt lat="49.12175" lon="1.75515">
        <ele>148</ele>
        <time>2015-09-06T07:50:18.000Z</time>
      </trkpt>
      <trkpt lat="49.12185" lon="1.75509">
        <ele>147</ele>
        <time>2015-09-06T07:50:21.000Z</time>
      </trkpt>
      <trkpt lat="49.12194" lon="1.75504">
        <ele>147</ele>
        <time>2015-09-06T07:50:22.000Z</time>
      </trkpt>
      <trkpt lat="49.12204" lon="1.75499">
        <ele>147</ele>
        <time>2015-09-06T07:50:24.000Z</time>
      </trkpt>
      <trkpt lat="49.12213" lon="1.75493">
        <ele>146</ele>
        <time>2015-09-06T07:50:26.000Z</time>
      </trkpt>
      <trkpt lat="49.12223" lon="1.75487">
        <ele>146</ele>
        <time>2015-09-06T07:50:28.000Z</time>
      </trkpt>
      <trkpt lat="49.12236" lon="1.75481">
        <ele>146</ele>
        <time>2015-09-06T07:50:31.000Z</time>
      </trkpt>
      <trkpt lat="49.12249" lon="1.75474">
        <ele>146</ele>
        <time>2015-09-06T07:50:32.000Z</time>
      </trkpt>
      <trkpt lat="49.1226" lon="1.75468">
        <ele>145</ele>
        <time>2015-09-06T07:50:35.000Z</time>
      </trkpt>
      <trkpt lat="49.12272" lon="1.75462">
        <ele>145</ele>
        <time>2015-09-06T07:50:36.000Z</time>
      </trkpt>
      <trkpt lat="49.12281" lon="1.75456">
        <ele>145</ele>
        <time>2015-09-06T07:50:38.000Z</time>
      </trkpt>
      <trkpt lat="49.12287" lon="1.75452">
        <ele>145</ele>
        <time>2015-09-06T07:50:40.000Z</time>
      </trkpt>
      <trkpt lat="49.12287" lon="1.75452">
        <ele>145</ele>
        <time>2015-09-06T07:50:42.000Z</time>
      </trkpt>
      <trkpt lat="49.12295" lon="1.75462">
        <ele>142</ele>
        <time>2015-09-06T07:50:44.000Z</time>
      </trkpt>
      <trkpt lat="49.123" lon="1.75473">
        <ele>141</ele>
        <time>2015-09-06T07:50:46.000Z</time>
      </trkpt>
      <trkpt lat="49.12306" lon="1.75484">
        <ele>141</ele>
        <time>2015-09-06T07:50:49.000Z</time>
      </trkpt>
      <trkpt lat="49.12312" lon="1.75496">
        <ele>140</ele>
        <time>2015-09-06T07:50:50.000Z</time>
      </trkpt>
      <trkpt lat="49.12318" lon="1.75506">
        <ele>140</ele>
        <time>2015-09-06T07:50:52.000Z</time>
      </trkpt>
      <trkpt lat="49.12324" lon="1.75516">
        <ele>139</ele>
        <time>2015-09-06T07:50:55.000Z</time>
      </trkpt>
      <trkpt lat="49.12333" lon="1.75522">
        <ele>138</ele>
        <time>2015-09-06T07:50:56.000Z</time>
      </trkpt>
      <trkpt lat="49.12343" lon="1.75525">
        <ele>137</ele>
        <time>2015-09-06T07:50:58.000Z</time>
      </trkpt>
      <trkpt lat="49.12354" lon="1.75526">
        <ele>137</ele>
        <time>2015-09-06T07:51:01.000Z</time>
      </trkpt>
      <trkpt lat="49.12364" lon="1.75528">
        <ele>136</ele>
        <time>2015-09-06T07:51:02.000Z</time>
      </trkpt>
      <trkpt lat="49.12373" lon="1.7553">
        <ele>136</ele>
        <time>2015-09-06T07:51:05.000Z</time>
      </trkpt>
      <trkpt lat="49.12382" lon="1.75532">
        <ele>135</ele>
        <time>2015-09-06T07:51:06.000Z</time>
      </trkpt>
      <trkpt lat="49.12391" lon="1.75535">
        <ele>135</ele>
        <time>2015-09-06T07:51:08.000Z</time>
      </trkpt>
      <trkpt lat="49.124" lon="1.75537">
        <ele>134</ele>
        <time>2015-09-06T07:51:10.000Z</time>
      </trkpt>
      <trkpt lat="49.12409" lon="1.75537">
        <ele>134</ele>
        <time>2015-09-06T07:51:12.000Z</time>
      </trkpt>
      <trkpt lat="49.12418" lon="1.75537">
        <ele>133</ele>
        <time>2015-09-06T07:51:14.000Z</time>
      </trkpt>
      <trkpt lat="49.12426" lon="1.7554">
        <ele>133</ele>
        <time>2015-09-06T07:51:16.000Z</time>
      </trkpt>
      <trkpt lat="49.12435" lon="1.75544">
        <ele>133</ele>
        <time>2015-09-06T07:51:19.000Z</time>
      </trkpt>
      <trkpt lat="49.12442" lon="1.7555">
        <ele>133</ele>
        <time>2015-09-06T07:51:20.000Z</time>
      </trkpt>
      <trkpt lat="49.12448" lon="1.75558">
        <ele>134</ele>
        <time>2015-09-06T07:51:22.000Z</time>
      </trkpt>
      <trkpt lat="49.12452" lon="1.75568">
        <ele>134</ele>
        <time>2015-09-06T07:51:25.000Z</time>
      </trkpt>
      <trkpt lat="49.12455" lon="1.75578">
        <ele>134</ele>
        <time>2015-09-06T07:51:26.000Z</time>
      </trkpt>
      <trkpt lat="49.12458" lon="1.75587">
        <ele>135</ele>
        <time>2015-09-06T07:51:28.000Z</time>
      </trkpt>
      <trkpt lat="49.12463" lon="1.75597">
        <ele>135</ele>
        <time>2015-09-06T07:51:30.000Z</time>
      </trkpt>
      <trkpt lat="49.12468" lon="1.75608">
        <ele>135</ele>
        <time>2015-09-06T07:51:33.000Z</time>
      </trkpt>
      <trkpt lat="49.12472" lon="1.75618">
        <ele>135</ele>
        <time>2015-09-06T07:51:34.000Z</time>
      </trkpt>
      <trkpt lat="49.12476" lon="1.75628">
        <ele>136</ele>
        <time>2015-09-06T07:51:36.000Z</time>
      </trkpt>
      <trkpt lat="49.12479" lon="1.75636">
        <ele>136</ele>
        <time>2015-09-06T07:51:38.000Z</time>
      </trkpt>
      <trkpt lat="49.12482" lon="1.75644">
        <ele>136</ele>
        <time>2015-09-06T07:51:40.000Z</time>
      </trkpt>
      <trkpt lat="49.12482" lon="1.75644">
        <ele>136</ele>
        <time>2015-09-06T07:51:42.000Z</time>
      </trkpt>
      <trkpt lat="49.12484" lon="1.75655">
        <ele>136</ele>
        <time>2015-09-06T07:51:45.000Z</time>
      </trkpt>
      <trkpt lat="49.12484" lon="1.75655">
        <ele>136</ele>
        <time>2015-09-06T07:51:46.000Z</time>
      </trkpt>
      <trkpt lat="49.12481" lon="1.7566">
        <ele>136</ele>
        <time>2015-09-06T07:51:49.000Z</time>
      </trkpt>
      <trkpt lat="49.12477" lon="1.75665">
        <ele>137</ele>
        <time>2015-09-06T07:51:50.000Z</time>
      </trkpt>
      <trkpt lat="49.12472" lon="1.75671">
        <ele>137</ele>
        <time>2015-09-06T07:51:52.000Z</time>
      </trkpt>
      <trkpt lat="49.12466" lon="1.75676">
        <ele>137</ele>
        <time>2015-09-06T07:51:55.000Z</time>
      </trkpt>
      <trkpt lat="49.12461" lon="1.75681">
        <ele>137</ele>
        <time>2015-09-06T07:51:56.000Z</time>
      </trkpt>
      <trkpt lat="49.1245" lon="1.7569">
        <ele>137</ele>
        <time>2015-09-06T07:51:58.000Z</time>
      </trkpt>
      <trkpt lat="49.1245" lon="1.7569">
        <ele>137</ele>
        <time>2015-09-06T07:52:00.000Z</time>
      </trkpt>
      <trkpt lat="49.12441" lon="1.75698">
        <ele>137</ele>
        <time>2015-09-06T07:52:02.000Z</time>
      </trkpt>
      <trkpt lat="49.12433" lon="1.757">
        <ele>138</ele>
        <time>2015-09-06T07:52:04.000Z</time>
      </trkpt>
      <trkpt lat="49.12426" lon="1.75703">
        <ele>139</ele>
        <time>2015-09-06T07:52:07.000Z</time>
      </trkpt>
      <trkpt lat="49.1242" lon="1.75706">
        <ele>139</ele>
        <time>2015-09-06T07:52:08.000Z</time>
      </trkpt>
      <trkpt lat="49.12414" lon="1.75709">
        <ele>140</ele>
        <time>2015-09-06T07:52:10.000Z</time>
      </trkpt>
      <trkpt lat="49.12414" lon="1.75709">
        <ele>140</ele>
        <time>2015-09-06T07:52:12.000Z</time>
      </trkpt>
      <trkpt lat="49.12405" lon="1.75715">
        <ele>140</ele>
        <time>2015-09-06T07:52:14.000Z</time>
      </trkpt>
      <trkpt lat="49.12405" lon="1.75715">
        <ele>140</ele>
        <time>2015-09-06T07:52:17.000Z</time>
      </trkpt>
      <trkpt lat="49.12396" lon="1.7572">
        <ele>141</ele>
        <time>2015-09-06T07:52:18.000Z</time>
      </trkpt>
      <trkpt lat="49.12396" lon="1.7572">
        <ele>141</ele>
        <time>2015-09-06T07:52:20.000Z</time>
      </trkpt>
      <trkpt lat="49.12386" lon="1.75726">
        <ele>142</ele>
        <time>2015-09-06T07:52:22.000Z</time>
      </trkpt>
      <trkpt lat="49.12381" lon="1.75731">
        <ele>143</ele>
        <time>2015-09-06T07:52:24.000Z</time>
      </trkpt>
      <trkpt lat="49.12371" lon="1.75741">
        <ele>142</ele>
        <time>2015-09-06T07:52:28.000Z</time>
      </trkpt>
      <trkpt lat="49.12366" lon="1.75746">
        <ele>142</ele>
        <time>2015-09-06T07:52:30.000Z</time>
      </trkpt>
      <trkpt lat="49.12358" lon="1.75751">
        <ele>142</ele>
        <time>2015-09-06T07:52:33.000Z</time>
      </trkpt>
      <trkpt lat="49.12352" lon="1.75756">
        <ele>142</ele>
        <time>2015-09-06T07:52:34.000Z</time>
      </trkpt>
      <trkpt lat="49.12346" lon="1.75761">
        <ele>142</ele>
        <time>2015-09-06T07:52:36.000Z</time>
      </trkpt>
      <trkpt lat="49.12341" lon="1.75766">
        <ele>142</ele>
        <time>2015-09-06T07:52:39.000Z</time>
      </trkpt>
      <trkpt lat="49.12335" lon="1.75773">
        <ele>143</ele>
        <time>2015-09-06T07:52:40.000Z</time>
      </trkpt>
      <trkpt lat="49.1233" lon="1.75779">
        <ele>143</ele>
        <time>2015-09-06T07:52:42.000Z</time>
      </trkpt>
      <trkpt lat="49.12325" lon="1.75784">
        <ele>143</ele>
        <time>2015-09-06T07:52:45.000Z</time>
      </trkpt>
      <trkpt lat="49.12319" lon="1.7579">
        <ele>143</ele>
        <time>2015-09-06T07:52:46.000Z</time>
      </trkpt>
      <trkpt lat="49.12314" lon="1.75796">
        <ele>143</ele>
        <time>2015-09-06T07:52:48.000Z</time>
      </trkpt>
      <trkpt lat="49.12309" lon="1.75801">
        <ele>144</ele>
        <time>2015-09-06T07:52:51.000Z</time>
      </trkpt>
      <trkpt lat="49.12302" lon="1.75806">
        <ele>144</ele>
        <time>2015-09-06T07:52:52.000Z</time>
      </trkpt>
      <trkpt lat="49.12297" lon="1.75811">
        <ele>144</ele>
        <time>2015-09-06T07:52:54.000Z</time>
      </trkpt>
      <trkpt lat="49.1229" lon="1.75816">
        <ele>144</ele>
        <time>2015-09-06T07:52:57.000Z</time>
      </trkpt>
      <trkpt lat="49.12284" lon="1.75822">
        <ele>144</ele>
        <time>2015-09-06T07:52:58.000Z</time>
      </trkpt>
      <trkpt lat="49.12279" lon="1.75827">
        <ele>144</ele>
        <time>2015-09-06T07:53:00.000Z</time>
      </trkpt>
      <trkpt lat="49.12275" lon="1.75832">
        <ele>145</ele>
        <time>2015-09-06T07:53:03.000Z</time>
      </trkpt>
      <trkpt lat="49.1227" lon="1.75838">
        <ele>145</ele>
        <time>2015-09-06T07:53:04.000Z</time>
      </trkpt>
      <trkpt lat="49.1227" lon="1.75838">
        <ele>145</ele>
        <time>2015-09-06T07:53:06.000Z</time>
      </trkpt>
      <trkpt lat="49.12265" lon="1.75845">
        <ele>146</ele>
        <time>2015-09-06T07:53:09.000Z</time>
      </trkpt>
      <trkpt lat="49.12265" lon="1.75845">
        <ele>146</ele>
        <time>2015-09-06T07:53:10.000Z</time>
      </trkpt>
      <trkpt lat="49.12265" lon="1.75845">
        <ele>146</ele>
        <time>2015-09-06T07:53:12.000Z</time>
      </trkpt>
      <trkpt lat="49.12261" lon="1.75862">
        <ele>150</ele>
        <time>2015-09-06T07:54:33.000Z</time>
      </trkpt>
      <trkpt lat="49.12258" lon="1.75876">
        <ele>150</ele>
        <time>2015-09-06T07:54:35.000Z</time>
      </trkpt>
      <trkpt lat="49.12256" lon="1.75886">
        <ele>150</ele>
        <time>2015-09-06T07:54:38.000Z</time>
      </trkpt>
      <trkpt lat="49.12253" lon="1.75897">
        <ele>151</ele>
        <time>2015-09-06T07:54:39.000Z</time>
      </trkpt>
      <trkpt lat="49.12249" lon="1.75909">
        <ele>151</ele>
        <time>2015-09-06T07:54:41.000Z</time>
      </trkpt>
      <trkpt lat="49.12245" lon="1.75921">
        <ele>151</ele>
        <time>2015-09-06T07:54:43.000Z</time>
      </trkpt>
      <trkpt lat="49.1224" lon="1.75933">
        <ele>151</ele>
        <time>2015-09-06T07:54:46.000Z</time>
      </trkpt>
      <trkpt lat="49.12236" lon="1.75944">
        <ele>152</ele>
        <time>2015-09-06T07:54:48.000Z</time>
      </trkpt>
      <trkpt lat="49.12233" lon="1.75955">
        <ele>152</ele>
        <time>2015-09-06T07:54:50.000Z</time>
      </trkpt>
      <trkpt lat="49.12228" lon="1.75966">
        <ele>152</ele>
        <time>2015-09-06T07:54:51.000Z</time>
      </trkpt>
      <trkpt lat="49.12225" lon="1.75976">
        <ele>152</ele>
        <time>2015-09-06T07:54:53.000Z</time>
      </trkpt>
      <trkpt lat="49.12221" lon="1.75986">
        <ele>152</ele>
        <time>2015-09-06T07:54:56.000Z</time>
      </trkpt>
      <trkpt lat="49.12217" lon="1.75997">
        <ele>153</ele>
        <time>2015-09-06T07:54:57.000Z</time>
      </trkpt>
      <trkpt lat="49.12214" lon="1.76007">
        <ele>153</ele>
        <time>2015-09-06T07:54:59.000Z</time>
      </trkpt>
      <trkpt lat="49.12209" lon="1.76018">
        <ele>153</ele>
        <time>2015-09-06T07:55:02.000Z</time>
      </trkpt>
      <trkpt lat="49.12205" lon="1.76029">
        <ele>154</ele>
        <time>2015-09-06T07:55:03.000Z</time>
      </trkpt>
      <trkpt lat="49.12201" lon="1.76039">
        <ele>154</ele>
        <time>2015-09-06T07:55:05.000Z</time>
      </trkpt>
      <trkpt lat="49.12197" lon="1.76049">
        <ele>155</ele>
        <time>2015-09-06T07:55:07.000Z</time>
      </trkpt>
      <trkpt lat="49.12193" lon="1.76059">
        <ele>155</ele>
        <time>2015-09-06T07:55:09.000Z</time>
      </trkpt>
      <trkpt lat="49.12188" lon="1.76069">
        <ele>156</ele>
        <time>2015-09-06T07:55:12.000Z</time>
      </trkpt>
      <trkpt lat="49.12185" lon="1.76077">
        <ele>156</ele>
        <time>2015-09-06T07:55:14.000Z</time>
      </trkpt>
      <trkpt lat="49.12181" lon="1.76084">
        <ele>156</ele>
        <time>2015-09-06T07:55:15.000Z</time>
      </trkpt>
      <trkpt lat="49.12177" lon="1.76092">
        <ele>157</ele>
        <time>2015-09-06T07:55:17.000Z</time>
      </trkpt>
      <trkpt lat="49.12174" lon="1.76101">
        <ele>157</ele>
        <time>2015-09-06T07:55:20.000Z</time>
      </trkpt>
      <trkpt lat="49.12174" lon="1.76101">
        <ele>157</ele>
        <time>2015-09-06T07:55:21.000Z</time>
      </trkpt>
      <trkpt lat="49.1217" lon="1.76113">
        <ele>157</ele>
        <time>2015-09-06T07:55:23.000Z</time>
      </trkpt>
      <trkpt lat="49.1217" lon="1.76113">
        <ele>157</ele>
        <time>2015-09-06T07:55:26.000Z</time>
      </trkpt>
      <trkpt lat="49.1217" lon="1.76113">
        <ele>157</ele>
        <time>2015-09-06T07:55:28.000Z</time>
      </trkpt>
      <trkpt lat="49.12165" lon="1.76123">
        <ele>156</ele>
        <time>2015-09-06T07:55:44.000Z</time>
      </trkpt>
      <trkpt lat="49.12157" lon="1.76132">
        <ele>157</ele>
        <time>2015-09-06T07:55:47.000Z</time>
      </trkpt>
      <trkpt lat="49.12152" lon="1.7614">
        <ele>157</ele>
        <time>2015-09-06T07:55:50.000Z</time>
      </trkpt>
      <trkpt lat="49.12148" lon="1.76148">
        <ele>157</ele>
        <time>2015-09-06T07:55:51.000Z</time>
      </trkpt>
      <trkpt lat="49.12141" lon="1.76164">
        <ele>157</ele>
        <time>2015-09-06T07:55:55.000Z</time>
      </trkpt>
      <trkpt lat="49.12138" lon="1.76173">
        <ele>157</ele>
        <time>2015-09-06T07:55:58.000Z</time>
      </trkpt>
      <trkpt lat="49.12134" lon="1.76184">
        <ele>157</ele>
        <time>2015-09-06T07:56:00.000Z</time>
      </trkpt>
      <trkpt lat="49.1213" lon="1.76197">
        <ele>157</ele>
        <time>2015-09-06T07:56:01.000Z</time>
      </trkpt>
      <trkpt lat="49.12127" lon="1.76208">
        <ele>157</ele>
        <time>2015-09-06T07:56:04.000Z</time>
      </trkpt>
      <trkpt lat="49.12124" lon="1.76222">
        <ele>157</ele>
        <time>2015-09-06T07:56:05.000Z</time>
      </trkpt>
      <trkpt lat="49.12122" lon="1.76236">
        <ele>157</ele>
        <time>2015-09-06T07:56:07.000Z</time>
      </trkpt>
      <trkpt lat="49.12122" lon="1.76249">
        <ele>156</ele>
        <time>2015-09-06T07:56:10.000Z</time>
      </trkpt>
      <trkpt lat="49.1212" lon="1.76267">
        <ele>156</ele>
        <time>2015-09-06T07:56:11.000Z</time>
      </trkpt>
      <trkpt lat="49.12118" lon="1.76285">
        <ele>155</ele>
        <time>2015-09-06T07:56:13.000Z</time>
      </trkpt>
      <trkpt lat="49.12115" lon="1.76304">
        <ele>154</ele>
        <time>2015-09-06T07:56:15.000Z</time>
      </trkpt>
      <trkpt lat="49.12114" lon="1.76325">
        <ele>154</ele>
        <time>2015-09-06T07:56:17.000Z</time>
      </trkpt>
      <trkpt lat="49.12114" lon="1.7634">
        <ele>154</ele>
        <time>2015-09-06T07:56:19.000Z</time>
      </trkpt>
      <trkpt lat="49.12117" lon="1.76348">
        <ele>155</ele>
        <time>2015-09-06T07:56:22.000Z</time>
      </trkpt>
      <trkpt lat="49.12117" lon="1.76348">
        <ele>155</ele>
        <time>2015-09-06T07:56:23.000Z</time>
      </trkpt>
      <trkpt lat="49.12117" lon="1.76348">
        <ele>155</ele>
        <time>2015-09-06T07:56:25.000Z</time>
      </trkpt>
      <trkpt lat="49.12119" lon="1.76371">
        <ele>160</ele>
        <time>2015-09-06T07:56:47.000Z</time>
      </trkpt>
      <trkpt lat="49.12119" lon="1.76371">
        <ele>160</ele>
        <time>2015-09-06T07:56:50.000Z</time>
      </trkpt>
      <trkpt lat="49.12121" lon="1.76385">
        <ele>160</ele>
        <time>2015-09-06T07:56:51.000Z</time>
      </trkpt>
      <trkpt lat="49.12122" lon="1.76396">
        <ele>160</ele>
        <time>2015-09-06T07:56:53.000Z</time>
      </trkpt>
      <trkpt lat="49.12122" lon="1.76408">
        <ele>159</ele>
        <time>2015-09-06T07:56:56.000Z</time>
      </trkpt>
      <trkpt lat="49.12122" lon="1.76419">
        <ele>157</ele>
        <time>2015-09-06T07:56:57.000Z</time>
      </trkpt>
      <trkpt lat="49.12124" lon="1.76428">
        <ele>157</ele>
        <time>2015-09-06T07:56:59.000Z</time>
      </trkpt>
      <trkpt lat="49.12123" lon="1.76438">
        <ele>156</ele>
        <time>2015-09-06T07:57:02.000Z</time>
      </trkpt>
      <trkpt lat="49.12124" lon="1.76448">
        <ele>156</ele>
        <time>2015-09-06T07:57:03.000Z</time>
      </trkpt>
      <trkpt lat="49.12125" lon="1.76459">
        <ele>156</ele>
        <time>2015-09-06T07:57:05.000Z</time>
      </trkpt>
      <trkpt lat="49.12129" lon="1.76471">
        <ele>156</ele>
        <time>2015-09-06T07:57:08.000Z</time>
      </trkpt>
      <trkpt lat="49.12129" lon="1.76471">
        <ele>156</ele>
        <time>2015-09-06T07:57:09.000Z</time>
      </trkpt>
      <trkpt lat="49.1213" lon="1.76486">
        <ele>157</ele>
        <time>2015-09-06T07:57:12.000Z</time>
      </trkpt>
      <trkpt lat="49.12131" lon="1.76495">
        <ele>156</ele>
        <time>2015-09-06T07:57:14.000Z</time>
      </trkpt>
      <trkpt lat="49.12131" lon="1.76495">
        <ele>156</ele>
        <time>2015-09-06T07:57:15.000Z</time>
      </trkpt>
      <trkpt lat="49.12132" lon="1.76514">
        <ele>156</ele>
        <time>2015-09-06T07:57:17.000Z</time>
      </trkpt>
      <trkpt lat="49.12132" lon="1.76525">
        <ele>155</ele>
        <time>2015-09-06T07:57:20.000Z</time>
      </trkpt>
      <trkpt lat="49.12131" lon="1.76535">
        <ele>155</ele>
        <time>2015-09-06T07:57:21.000Z</time>
      </trkpt>
      <trkpt lat="49.12131" lon="1.76547">
        <ele>154</ele>
        <time>2015-09-06T07:57:23.000Z</time>
      </trkpt>
      <trkpt lat="49.12133" lon="1.76558">
        <ele>153</ele>
        <time>2015-09-06T07:57:25.000Z</time>
      </trkpt>
      <trkpt lat="49.12134" lon="1.76571">
        <ele>153</ele>
        <time>2015-09-06T07:57:27.000Z</time>
      </trkpt>
      <trkpt lat="49.12134" lon="1.76585">
        <ele>154</ele>
        <time>2015-09-06T07:57:29.000Z</time>
      </trkpt>
      <trkpt lat="49.12132" lon="1.76596">
        <ele>153</ele>
        <time>2015-09-06T07:57:31.000Z</time>
      </trkpt>
      <trkpt lat="49.1213" lon="1.76605">
        <ele>154</ele>
        <time>2015-09-06T07:57:33.000Z</time>
      </trkpt>
      <trkpt lat="49.1213" lon="1.76614">
        <ele>154</ele>
        <time>2015-09-06T07:57:35.000Z</time>
      </trkpt>
      <trkpt lat="49.1213" lon="1.76614">
        <ele>154</ele>
        <time>2015-09-06T07:57:37.000Z</time>
      </trkpt>
      <trkpt lat="49.12128" lon="1.76629">
        <ele>155</ele>
        <time>2015-09-06T07:57:40.000Z</time>
      </trkpt>
      <trkpt lat="49.12128" lon="1.76629">
        <ele>155</ele>
        <time>2015-09-06T07:57:41.000Z</time>
      </trkpt>
      <trkpt lat="49.12128" lon="1.76648">
        <ele>157</ele>
        <time>2015-09-06T07:57:44.000Z</time>
      </trkpt>
      <trkpt lat="49.12128" lon="1.76658">
        <ele>156</ele>
        <time>2015-09-06T07:57:46.000Z</time>
      </trkpt>
      <trkpt lat="49.12128" lon="1.76668">
        <ele>157</ele>
        <time>2015-09-06T07:57:48.000Z</time>
      </trkpt>
      <trkpt lat="49.12128" lon="1.76679">
        <ele>157</ele>
        <time>2015-09-06T07:57:50.000Z</time>
      </trkpt>
      <trkpt lat="49.12127" lon="1.76688">
        <ele>157</ele>
        <time>2015-09-06T07:57:52.000Z</time>
      </trkpt>
      <trkpt lat="49.12125" lon="1.767">
        <ele>158</ele>
        <time>2015-09-06T07:57:56.000Z</time>
      </trkpt>
      <trkpt lat="49.12125" lon="1.767">
        <ele>158</ele>
        <time>2015-09-06T07:57:58.000Z</time>
      </trkpt>
      <trkpt lat="49.12126" lon="1.76713">
        <ele>158</ele>
        <time>2015-09-06T07:58:01.000Z</time>
      </trkpt>
      <trkpt lat="49.12125" lon="1.76725">
        <ele>160</ele>
        <time>2015-09-06T07:58:04.000Z</time>
      </trkpt>
      <trkpt lat="49.12122" lon="1.76738">
        <ele>160</ele>
        <time>2015-09-06T07:58:09.000Z</time>
      </trkpt>
      <trkpt lat="49.12122" lon="1.76738">
        <ele>160</ele>
        <time>2015-09-06T07:58:10.000Z</time>
      </trkpt>
      <trkpt lat="49.1212" lon="1.76753">
        <ele>159</ele>
        <time>2015-09-06T07:58:12.000Z</time>
      </trkpt>
      <trkpt lat="49.12119" lon="1.76762">
        <ele>159</ele>
        <time>2015-09-06T07:58:15.000Z</time>
      </trkpt>
      <trkpt lat="49.12119" lon="1.76762">
        <ele>159</ele>
        <time>2015-09-06T07:58:16.000Z</time>
      </trkpt>
      <trkpt lat="49.12119" lon="1.76762">
        <ele>159</ele>
        <time>2015-09-06T07:58:19.000Z</time>
      </trkpt>
      <trkpt lat="49.12117" lon="1.7679">
        <ele>159</ele>
        <time>2015-09-06T07:58:22.000Z</time>
      </trkpt>
      <trkpt lat="49.12116" lon="1.768">
        <ele>159</ele>
        <time>2015-09-06T07:58:25.000Z</time>
      </trkpt>
      <trkpt lat="49.12114" lon="1.76817">
        <ele>158</ele>
        <time>2015-09-06T07:58:28.000Z</time>
      </trkpt>
      <trkpt lat="49.12111" lon="1.7683">
        <ele>157</ele>
        <time>2015-09-06T07:58:30.000Z</time>
      </trkpt>
      <trkpt lat="49.12109" lon="1.76844">
        <ele>155</ele>
        <time>2015-09-06T07:58:32.000Z</time>
      </trkpt>
      <trkpt lat="49.12108" lon="1.76856">
        <ele>155</ele>
        <time>2015-09-06T07:58:34.000Z</time>
      </trkpt>
      <trkpt lat="49.12106" lon="1.76869">
        <ele>155</ele>
        <time>2015-09-06T07:58:37.000Z</time>
      </trkpt>
      <trkpt lat="49.12106" lon="1.7688">
        <ele>155</ele>
        <time>2015-09-06T07:58:38.000Z</time>
      </trkpt>
      <trkpt lat="49.12107" lon="1.76891">
        <ele>155</ele>
        <time>2015-09-06T07:58:40.000Z</time>
      </trkpt>
      <trkpt lat="49.12106" lon="1.76904">
        <ele>155</ele>
        <time>2015-09-06T07:58:42.000Z</time>
      </trkpt>
      <trkpt lat="49.12104" lon="1.76917">
        <ele>154</ele>
        <time>2015-09-06T07:58:45.000Z</time>
      </trkpt>
      <trkpt lat="49.12101" lon="1.76929">
        <ele>154</ele>
        <time>2015-09-06T07:58:46.000Z</time>
      </trkpt>
      <trkpt lat="49.121" lon="1.76938">
        <ele>155</ele>
        <time>2015-09-06T07:58:49.000Z</time>
      </trkpt>
      <trkpt lat="49.121" lon="1.76938">
        <ele>155</ele>
        <time>2015-09-06T07:58:50.000Z</time>
      </trkpt>
      <trkpt lat="49.121" lon="1.76938">
        <ele>155</ele>
        <time>2015-09-06T07:58:52.000Z</time>
      </trkpt>
      <trkpt lat="49.121" lon="1.76945">
        <ele>159</ele>
        <time>2015-09-06T08:01:28.000Z</time>
      </trkpt>
      <trkpt lat="49.121" lon="1.76952">
        <ele>160</ele>
        <time>2015-09-06T08:01:29.000Z</time>
      </trkpt>
      <trkpt lat="49.12099" lon="1.76959">
        <ele>160</ele>
        <time>2015-09-06T08:01:31.000Z</time>
      </trkpt>
      <trkpt lat="49.12098" lon="1.76966">
        <ele>160</ele>
        <time>2015-09-06T08:01:33.000Z</time>
      </trkpt>
      <trkpt lat="49.12097" lon="1.76974">
        <ele>159</ele>
        <time>2015-09-06T08:01:35.000Z</time>
      </trkpt>
      <trkpt lat="49.12095" lon="1.7699">
        <ele>159</ele>
        <time>2015-09-06T08:01:37.000Z</time>
      </trkpt>
      <trkpt lat="49.12095" lon="1.7699">
        <ele>159</ele>
        <time>2015-09-06T08:01:40.000Z</time>
      </trkpt>
      <trkpt lat="49.12093" lon="1.77006">
        <ele>160</ele>
        <time>2015-09-06T08:01:41.000Z</time>
      </trkpt>
      <trkpt lat="49.12092" lon="1.77019">
        <ele>158</ele>
        <time>2015-09-06T08:01:43.000Z</time>
      </trkpt>
      <trkpt lat="49.12093" lon="1.7703">
        <ele>158</ele>
        <time>2015-09-06T08:01:46.000Z</time>
      </trkpt>
      <trkpt lat="49.12094" lon="1.77039">
        <ele>158</ele>
        <time>2015-09-06T08:01:47.000Z</time>
      </trkpt>
      <trkpt lat="49.12094" lon="1.77039">
        <ele>158</ele>
        <time>2015-09-06T08:01:49.000Z</time>
      </trkpt>
      <trkpt lat="49.12091" lon="1.77054">
        <ele>159</ele>
        <time>2015-09-06T08:01:51.000Z</time>
      </trkpt>
      <trkpt lat="49.12091" lon="1.77054">
        <ele>159</ele>
        <time>2015-09-06T08:01:54.000Z</time>
      </trkpt>
      <trkpt lat="49.12088" lon="1.77067">
        <ele>159</ele>
        <time>2015-09-06T08:01:56.000Z</time>
      </trkpt>
      <trkpt lat="49.12088" lon="1.77067">
        <ele>159</ele>
        <time>2015-09-06T08:01:57.000Z</time>
      </trkpt>
      <trkpt lat="49.12085" lon="1.77079">
        <ele>160</ele>
        <time>2015-09-06T08:01:59.000Z</time>
      </trkpt>
      <trkpt lat="49.12083" lon="1.77095">
        <ele>160</ele>
        <time>2015-09-06T08:02:03.000Z</time>
      </trkpt>
      <trkpt lat="49.1208" lon="1.77107">
        <ele>160</ele>
        <time>2015-09-06T08:02:07.000Z</time>
      </trkpt>
      <trkpt lat="49.1208" lon="1.77107">
        <ele>160</ele>
        <time>2015-09-06T08:02:09.000Z</time>
      </trkpt>
      <trkpt lat="49.12077" lon="1.77119">
        <ele>160</ele>
        <time>2015-09-06T08:02:11.000Z</time>
      </trkpt>
      <trkpt lat="49.12072" lon="1.77132">
        <ele>162</ele>
        <time>2015-09-06T08:02:15.000Z</time>
      </trkpt>
      <trkpt lat="49.12069" lon="1.7714">
        <ele>161</ele>
        <time>2015-09-06T08:02:17.000Z</time>
      </trkpt>
      <trkpt lat="49.12069" lon="1.7714">
        <ele>161</ele>
        <time>2015-09-06T08:02:20.000Z</time>
      </trkpt>
      <trkpt lat="49.12067" lon="1.77153">
        <ele>162</ele>
        <time>2015-09-06T08:02:21.000Z</time>
      </trkpt>
      <trkpt lat="49.12066" lon="1.77161">
        <ele>161</ele>
        <time>2015-09-06T08:02:23.000Z</time>
      </trkpt>
      <trkpt lat="49.12066" lon="1.77161">
        <ele>161</ele>
        <time>2015-09-06T08:02:25.000Z</time>
      </trkpt>
      <trkpt lat="49.12063" lon="1.77175">
        <ele>160</ele>
        <time>2015-09-06T08:02:27.000Z</time>
      </trkpt>
      <trkpt lat="49.12059" lon="1.77184">
        <ele>161</ele>
        <time>2015-09-06T08:02:29.000Z</time>
      </trkpt>
      <trkpt lat="49.12056" lon="1.77197">
        <ele>161</ele>
        <time>2015-09-06T08:02:33.000Z</time>
      </trkpt>
      <trkpt lat="49.12052" lon="1.77206">
        <ele>161</ele>
        <time>2015-09-06T08:02:35.000Z</time>
      </trkpt>
      <trkpt lat="49.1205" lon="1.77215">
        <ele>161</ele>
        <time>2015-09-06T08:02:37.000Z</time>
      </trkpt>
      <trkpt lat="49.12046" lon="1.77224">
        <ele>160</ele>
        <time>2015-09-06T08:02:39.000Z</time>
      </trkpt>
      <trkpt lat="49.12042" lon="1.77233">
        <ele>159</ele>
        <time>2015-09-06T08:02:42.000Z</time>
      </trkpt>
      <trkpt lat="49.12039" lon="1.7724">
        <ele>160</ele>
        <time>2015-09-06T08:02:43.000Z</time>
      </trkpt>
      <trkpt lat="49.12033" lon="1.77251">
        <ele>160</ele>
        <time>2015-09-06T08:02:45.000Z</time>
      </trkpt>
      <trkpt lat="49.12027" lon="1.77261">
        <ele>160</ele>
        <time>2015-09-06T08:02:47.000Z</time>
      </trkpt>
      <trkpt lat="49.12021" lon="1.7727">
        <ele>160</ele>
        <time>2015-09-06T08:02:49.000Z</time>
      </trkpt>
      <trkpt lat="49.12017" lon="1.77278">
        <ele>160</ele>
        <time>2015-09-06T08:02:51.000Z</time>
      </trkpt>
      <trkpt lat="49.12012" lon="1.77286">
        <ele>160</ele>
        <time>2015-09-06T08:02:53.000Z</time>
      </trkpt>
      <trkpt lat="49.12008" lon="1.77293">
        <ele>160</ele>
        <time>2015-09-06T08:02:55.000Z</time>
      </trkpt>
      <trkpt lat="49.12004" lon="1.77301">
        <ele>160</ele>
        <time>2015-09-06T08:02:57.000Z</time>
      </trkpt>
      <trkpt lat="49.12004" lon="1.77301">
        <ele>160</ele>
        <time>2015-09-06T08:02:59.000Z</time>
      </trkpt>
      <trkpt lat="49.11999" lon="1.77315">
        <ele>160</ele>
        <time>2015-09-06T08:03:02.000Z</time>
      </trkpt>
      <trkpt lat="49.11995" lon="1.77322">
        <ele>160</ele>
        <time>2015-09-06T08:03:03.000Z</time>
      </trkpt>
      <trkpt lat="49.11995" lon="1.77322">
        <ele>160</ele>
        <time>2015-09-06T08:03:05.000Z</time>
      </trkpt>
      <trkpt lat="49.11985" lon="1.77337">
        <ele>161</ele>
        <time>2015-09-06T08:03:07.000Z</time>
      </trkpt>
      <trkpt lat="49.1198" lon="1.77349">
        <ele>161</ele>
        <time>2015-09-06T08:03:09.000Z</time>
      </trkpt>
      <trkpt lat="49.11974" lon="1.77357">
        <ele>161</ele>
        <time>2015-09-06T08:03:11.000Z</time>
      </trkpt>
      <trkpt lat="49.11967" lon="1.77366">
        <ele>161</ele>
        <time>2015-09-06T08:03:13.000Z</time>
      </trkpt>
      <trkpt lat="49.11963" lon="1.77376">
        <ele>161</ele>
        <time>2015-09-06T08:03:15.000Z</time>
      </trkpt>
      <trkpt lat="49.11956" lon="1.77388">
        <ele>161</ele>
        <time>2015-09-06T08:03:17.000Z</time>
      </trkpt>
      <trkpt lat="49.11951" lon="1.77398">
        <ele>161</ele>
        <time>2015-09-06T08:03:19.000Z</time>
      </trkpt>
      <trkpt lat="49.11946" lon="1.77408">
        <ele>161</ele>
        <time>2015-09-06T08:03:21.000Z</time>
      </trkpt>
      <trkpt lat="49.11944" lon="1.77419">
        <ele>161</ele>
        <time>2015-09-06T08:03:23.000Z</time>
      </trkpt>
      <trkpt lat="49.11944" lon="1.77419">
        <ele>161</ele>
        <time>2015-09-06T08:03:26.000Z</time>
      </trkpt>
      <trkpt lat="49.11941" lon="1.77431">
        <ele>162</ele>
        <time>2015-09-06T08:03:27.000Z</time>
      </trkpt>
      <trkpt lat="49.11941" lon="1.77431">
        <ele>162</ele>
        <time>2015-09-06T08:03:29.000Z</time>
      </trkpt>
      <trkpt lat="49.11938" lon="1.77441">
        <ele>161</ele>
        <time>2015-09-06T08:03:31.000Z</time>
      </trkpt>
      <trkpt lat="49.11938" lon="1.77441">
        <ele>161</ele>
        <time>2015-09-06T08:03:33.000Z</time>
      </trkpt>
      <trkpt lat="49.11937" lon="1.77455">
        <ele>160</ele>
        <time>2015-09-06T08:03:36.000Z</time>
      </trkpt>
      <trkpt lat="49.11936" lon="1.77464">
        <ele>159</ele>
        <time>2015-09-06T08:03:37.000Z</time>
      </trkpt>
      <trkpt lat="49.11935" lon="1.77482">
        <ele>159</ele>
        <time>2015-09-06T08:03:42.000Z</time>
      </trkpt>
      <trkpt lat="49.11933" lon="1.77492">
        <ele>159</ele>
        <time>2015-09-06T08:03:43.000Z</time>
      </trkpt>
      <trkpt lat="49.1193" lon="1.77502">
        <ele>158</ele>
        <time>2015-09-06T08:03:45.000Z</time>
      </trkpt>
      <trkpt lat="49.11928" lon="1.77511">
        <ele>158</ele>
        <time>2015-09-06T08:03:47.000Z</time>
      </trkpt>
      <trkpt lat="49.11928" lon="1.7752">
        <ele>158</ele>
        <time>2015-09-06T08:03:49.000Z</time>
      </trkpt>
      <trkpt lat="49.11928" lon="1.7753">
        <ele>158</ele>
        <time>2015-09-06T08:03:51.000Z</time>
      </trkpt>
      <trkpt lat="49.11928" lon="1.7753">
        <ele>158</ele>
        <time>2015-09-06T08:03:53.000Z</time>
      </trkpt>
      <trkpt lat="49.11929" lon="1.77546">
        <ele>159</ele>
        <time>2015-09-06T08:03:56.000Z</time>
      </trkpt>
      <trkpt lat="49.11929" lon="1.77546">
        <ele>159</ele>
        <time>2015-09-06T08:03:57.000Z</time>
      </trkpt>
      <trkpt lat="49.11927" lon="1.77559">
        <ele>161</ele>
        <time>2015-09-06T08:03:59.000Z</time>
      </trkpt>
      <trkpt lat="49.11919" lon="1.77569">
        <ele>164</ele>
        <time>2015-09-06T08:04:03.000Z</time>
      </trkpt>
      <trkpt lat="49.11911" lon="1.7758">
        <ele>164</ele>
        <time>2015-09-06T08:04:07.000Z</time>
      </trkpt>
      <trkpt lat="49.11911" lon="1.7758">
        <ele>164</ele>
        <time>2015-09-06T08:04:09.000Z</time>
      </trkpt>
      <trkpt lat="49.11902" lon="1.77592">
        <ele>162</ele>
        <time>2015-09-06T08:04:11.000Z</time>
      </trkpt>
      <trkpt lat="49.11892" lon="1.77602">
        <ele>162</ele>
        <time>2015-09-06T08:04:15.000Z</time>
      </trkpt>
      <trkpt lat="49.11887" lon="1.77608">
        <ele>163</ele>
        <time>2015-09-06T08:04:17.000Z</time>
      </trkpt>
      <trkpt lat="49.11882" lon="1.77615">
        <ele>163</ele>
        <time>2015-09-06T08:04:20.000Z</time>
      </trkpt>
      <trkpt lat="49.11877" lon="1.7762">
        <ele>164</ele>
        <time>2015-09-06T08:04:21.000Z</time>
      </trkpt>
      <trkpt lat="49.11872" lon="1.77625">
        <ele>164</ele>
        <time>2015-09-06T08:04:23.000Z</time>
      </trkpt>
      <trkpt lat="49.11872" lon="1.77625">
        <ele>164</ele>
        <time>2015-09-06T08:04:26.000Z</time>
      </trkpt>
      <trkpt lat="49.11862" lon="1.77634">
        <ele>166</ele>
        <time>2015-09-06T08:04:27.000Z</time>
      </trkpt>
      <trkpt lat="49.11856" lon="1.77638">
        <ele>165</ele>
        <time>2015-09-06T08:04:29.000Z</time>
      </trkpt>
      <trkpt lat="49.1185" lon="1.77645">
        <ele>165</ele>
        <time>2015-09-06T08:04:31.000Z</time>
      </trkpt>
      <trkpt lat="49.11847" lon="1.77654">
        <ele>166</ele>
        <time>2015-09-06T08:04:33.000Z</time>
      </trkpt>
      <trkpt lat="49.11843" lon="1.77663">
        <ele>165</ele>
        <time>2015-09-06T08:04:35.000Z</time>
      </trkpt>
      <trkpt lat="49.11842" lon="1.77672">
        <ele>165</ele>
        <time>2015-09-06T08:04:38.000Z</time>
      </trkpt>
      <trkpt lat="49.11842" lon="1.77672">
        <ele>165</ele>
        <time>2015-09-06T08:04:39.000Z</time>
      </trkpt>
      <trkpt lat="49.11841" lon="1.77691">
        <ele>165</ele>
        <time>2015-09-06T08:04:41.000Z</time>
      </trkpt>
      <trkpt lat="49.11838" lon="1.77701">
        <ele>164</ele>
        <time>2015-09-06T08:04:43.000Z</time>
      </trkpt>
      <trkpt lat="49.11836" lon="1.77712">
        <ele>164</ele>
        <time>2015-09-06T08:04:45.000Z</time>
      </trkpt>
      <trkpt lat="49.11836" lon="1.77721">
        <ele>165</ele>
        <time>2015-09-06T08:04:47.000Z</time>
      </trkpt>
      <trkpt lat="49.11834" lon="1.7773">
        <ele>166</ele>
        <time>2015-09-06T08:04:50.000Z</time>
      </trkpt>
      <trkpt lat="49.11831" lon="1.77737">
        <ele>167</ele>
        <time>2015-09-06T08:04:52.000Z</time>
      </trkpt>
      <trkpt lat="49.11827" lon="1.77749">
        <ele>168</ele>
        <time>2015-09-06T08:04:53.000Z</time>
      </trkpt>
      <trkpt lat="49.11824" lon="1.77761">
        <ele>169</ele>
        <time>2015-09-06T08:04:55.000Z</time>
      </trkpt>
      <trkpt lat="49.11821" lon="1.7777">
        <ele>170</ele>
        <time>2015-09-06T08:04:57.000Z</time>
      </trkpt>
      <trkpt lat="49.11817" lon="1.77777">
        <ele>171</ele>
        <time>2015-09-06T08:04:59.000Z</time>
      </trkpt>
      <trkpt lat="49.11814" lon="1.77789">
        <ele>172</ele>
        <time>2015-09-06T08:05:02.000Z</time>
      </trkpt>
      <trkpt lat="49.11811" lon="1.77801">
        <ele>172</ele>
        <time>2015-09-06T08:05:03.000Z</time>
      </trkpt>
      <trkpt lat="49.11808" lon="1.77815">
        <ele>173</ele>
        <time>2015-09-06T08:05:05.000Z</time>
      </trkpt>
      <trkpt lat="49.11802" lon="1.7783">
        <ele>172</ele>
        <time>2015-09-06T08:05:08.000Z</time>
      </trkpt>
      <trkpt lat="49.11799" lon="1.77842">
        <ele>171</ele>
        <time>2015-09-06T08:05:09.000Z</time>
      </trkpt>
      <trkpt lat="49.11796" lon="1.77856">
        <ele>170</ele>
        <time>2015-09-06T08:05:11.000Z</time>
      </trkpt>
      <trkpt lat="49.11798" lon="1.77868">
        <ele>170</ele>
        <time>2015-09-06T08:05:14.000Z</time>
      </trkpt>
      <trkpt lat="49.11798" lon="1.77879">
        <ele>171</ele>
        <time>2015-09-06T08:05:15.000Z</time>
      </trkpt>
      <trkpt lat="49.11798" lon="1.77891">
        <ele>172</ele>
        <time>2015-09-06T08:05:17.000Z</time>
      </trkpt>
      <trkpt lat="49.11796" lon="1.77906">
        <ele>172</ele>
        <time>2015-09-06T08:05:20.000Z</time>
      </trkpt>
      <trkpt lat="49.11792" lon="1.77919">
        <ele>172</ele>
        <time>2015-09-06T08:05:21.000Z</time>
      </trkpt>
      <trkpt lat="49.11789" lon="1.77928">
        <ele>173</ele>
        <time>2015-09-06T08:05:24.000Z</time>
      </trkpt>
      <trkpt lat="49.11789" lon="1.77928">
        <ele>173</ele>
        <time>2015-09-06T08:05:25.000Z</time>
      </trkpt>
      <trkpt lat="49.11786" lon="1.77941">
        <ele>174</ele>
        <time>2015-09-06T08:05:27.000Z</time>
      </trkpt>
      <trkpt lat="49.11786" lon="1.77941">
        <ele>174</ele>
        <time>2015-09-06T08:05:29.000Z</time>
      </trkpt>
      <trkpt lat="49.11784" lon="1.77954">
        <ele>173</ele>
        <time>2015-09-06T08:05:31.000Z</time>
      </trkpt>
      <trkpt lat="49.11784" lon="1.77964">
        <ele>173</ele>
        <time>2015-09-06T08:05:34.000Z</time>
      </trkpt>
      <trkpt lat="49.11783" lon="1.77973">
        <ele>174</ele>
        <time>2015-09-06T08:05:35.000Z</time>
      </trkpt>
      <trkpt lat="49.11782" lon="1.77985">
        <ele>175</ele>
        <time>2015-09-06T08:05:37.000Z</time>
      </trkpt>
      <trkpt lat="49.11783" lon="1.77995">
        <ele>174</ele>
        <time>2015-09-06T08:05:39.000Z</time>
      </trkpt>
      <trkpt lat="49.11784" lon="1.78005">
        <ele>175</ele>
        <time>2015-09-06T08:05:41.000Z</time>
      </trkpt>
      <trkpt lat="49.11784" lon="1.78005">
        <ele>175</ele>
        <time>2015-09-06T08:05:43.000Z</time>
      </trkpt>
      <trkpt lat="49.11782" lon="1.78022">
        <ele>175</ele>
        <time>2015-09-06T08:05:46.000Z</time>
      </trkpt>
      <trkpt lat="49.1178" lon="1.78033">
        <ele>174</ele>
        <time>2015-09-06T08:05:47.000Z</time>
      </trkpt>
      <trkpt lat="49.11779" lon="1.78046">
        <ele>173</ele>
        <time>2015-09-06T08:05:49.000Z</time>
      </trkpt>
      <trkpt lat="49.1178" lon="1.78059">
        <ele>171</ele>
        <time>2015-09-06T08:05:52.000Z</time>
      </trkpt>
      <trkpt lat="49.11782" lon="1.78072">
        <ele>170</ele>
        <time>2015-09-06T08:05:53.000Z</time>
      </trkpt>
      <trkpt lat="49.11784" lon="1.78085">
        <ele>169</ele>
        <time>2015-09-06T08:05:55.000Z</time>
      </trkpt>
      <trkpt lat="49.11787" lon="1.78098">
        <ele>169</ele>
        <time>2015-09-06T08:05:57.000Z</time>
      </trkpt>
      <trkpt lat="49.1179" lon="1.7811">
        <ele>168</ele>
        <time>2015-09-06T08:05:59.000Z</time>
      </trkpt>
      <trkpt lat="49.11794" lon="1.78121">
        <ele>168</ele>
        <time>2015-09-06T08:06:01.000Z</time>
      </trkpt>
      <trkpt lat="49.11798" lon="1.78132">
        <ele>168</ele>
        <time>2015-09-06T08:06:03.000Z</time>
      </trkpt>
      <trkpt lat="49.11801" lon="1.78141">
        <ele>168</ele>
        <time>2015-09-06T08:06:05.000Z</time>
      </trkpt>
      <trkpt lat="49.11804" lon="1.7815">
        <ele>168</ele>
        <time>2015-09-06T08:06:07.000Z</time>
      </trkpt>
      <trkpt lat="49.11807" lon="1.78159">
        <ele>168</ele>
        <time>2015-09-06T08:06:09.000Z</time>
      </trkpt>
      <trkpt lat="49.11811" lon="1.78167">
        <ele>168</ele>
        <time>2015-09-06T08:06:11.000Z</time>
      </trkpt>
      <trkpt lat="49.11814" lon="1.78175">
        <ele>168</ele>
        <time>2015-09-06T08:06:14.000Z</time>
      </trkpt>
      <trkpt lat="49.11817" lon="1.78183">
        <ele>168</ele>
        <time>2015-09-06T08:06:15.000Z</time>
      </trkpt>
      <trkpt lat="49.1182" lon="1.7819">
        <ele>168</ele>
        <time>2015-09-06T08:06:17.000Z</time>
      </trkpt>
      <trkpt lat="49.11823" lon="1.78198">
        <ele>169</ele>
        <time>2015-09-06T08:06:20.000Z</time>
      </trkpt>
      <trkpt lat="49.11826" lon="1.78206">
        <ele>169</ele>
        <time>2015-09-06T08:06:21.000Z</time>
      </trkpt>
      <trkpt lat="49.11829" lon="1.78214">
        <ele>169</ele>
        <time>2015-09-06T08:06:23.000Z</time>
      </trkpt>
      <trkpt lat="49.11832" lon="1.78222">
        <ele>170</ele>
        <time>2015-09-06T08:06:26.000Z</time>
      </trkpt>
      <trkpt lat="49.11835" lon="1.7823">
        <ele>170</ele>
        <time>2015-09-06T08:06:27.000Z</time>
      </trkpt>
      <trkpt lat="49.11839" lon="1.78237">
        <ele>171</ele>
        <time>2015-09-06T08:06:29.000Z</time>
      </trkpt>
      <trkpt lat="49.11842" lon="1.78245">
        <ele>171</ele>
        <time>2015-09-06T08:06:32.000Z</time>
      </trkpt>
      <trkpt lat="49.11845" lon="1.78253">
        <ele>171</ele>
        <time>2015-09-06T08:06:33.000Z</time>
      </trkpt>
      <trkpt lat="49.11848" lon="1.7826">
        <ele>172</ele>
        <time>2015-09-06T08:06:35.000Z</time>
      </trkpt>
      <trkpt lat="49.11851" lon="1.78268">
        <ele>172</ele>
        <time>2015-09-06T08:06:37.000Z</time>
      </trkpt>
      <trkpt lat="49.11851" lon="1.78268">
        <ele>172</ele>
        <time>2015-09-06T08:06:39.000Z</time>
      </trkpt>
      <trkpt lat="49.11857" lon="1.78283">
        <ele>173</ele>
        <time>2015-09-06T08:06:41.000Z</time>
      </trkpt>
      <trkpt lat="49.11857" lon="1.78283">
        <ele>173</ele>
        <time>2015-09-06T08:06:43.000Z</time>
      </trkpt>
      <trkpt lat="49.1186" lon="1.7829">
        <ele>174</ele>
        <time>2015-09-06T08:06:45.000Z</time>
      </trkpt>
      <trkpt lat="49.11862" lon="1.78298">
        <ele>174</ele>
        <time>2015-09-06T08:06:48.000Z</time>
      </trkpt>
      <trkpt lat="49.11864" lon="1.78305">
        <ele>175</ele>
        <time>2015-09-06T08:06:50.000Z</time>
      </trkpt>
      <trkpt lat="49.11867" lon="1.78313">
        <ele>175</ele>
        <time>2015-09-06T08:06:51.000Z</time>
      </trkpt>
      <trkpt lat="49.11869" lon="1.7832">
        <ele>176</ele>
        <time>2015-09-06T08:06:53.000Z</time>
      </trkpt>
      <trkpt lat="49.11873" lon="1.78335">
        <ele>176</ele>
        <time>2015-09-06T08:06:56.000Z</time>
      </trkpt>
      <trkpt lat="49.11877" lon="1.7835">
        <ele>177</ele>
        <time>2015-09-06T08:06:59.000Z</time>
      </trkpt>
      <trkpt lat="49.1188" lon="1.78366">
        <ele>177</ele>
        <time>2015-09-06T08:07:04.000Z</time>
      </trkpt>
      <trkpt lat="49.1188" lon="1.78366">
        <ele>177</ele>
        <time>2015-09-06T08:07:05.000Z</time>
      </trkpt>
      <trkpt lat="49.11882" lon="1.78382">
        <ele>177</ele>
        <time>2015-09-06T08:07:07.000Z</time>
      </trkpt>
      <trkpt lat="49.11885" lon="1.7839">
        <ele>177</ele>
        <time>2015-09-06T08:07:10.000Z</time>
      </trkpt>
      <trkpt lat="49.11887" lon="1.78398">
        <ele>177</ele>
        <time>2015-09-06T08:07:11.000Z</time>
      </trkpt>
      <trkpt lat="49.11889" lon="1.78407">
        <ele>177</ele>
        <time>2015-09-06T08:07:13.000Z</time>
      </trkpt>
      <trkpt lat="49.11892" lon="1.78415">
        <ele>177</ele>
        <time>2015-09-06T08:07:15.000Z</time>
      </trkpt>
      <trkpt lat="49.11893" lon="1.78424">
        <ele>177</ele>
        <time>2015-09-06T08:07:17.000Z</time>
      </trkpt>
      <trkpt lat="49.11896" lon="1.78433">
        <ele>177</ele>
        <time>2015-09-06T08:07:19.000Z</time>
      </trkpt>
      <trkpt lat="49.11898" lon="1.78442">
        <ele>177</ele>
        <time>2015-09-06T08:07:21.000Z</time>
      </trkpt>
      <trkpt lat="49.119" lon="1.78451">
        <ele>178</ele>
        <time>2015-09-06T08:07:23.000Z</time>
      </trkpt>
      <trkpt lat="49.11901" lon="1.78461">
        <ele>178</ele>
        <time>2015-09-06T08:07:25.000Z</time>
      </trkpt>
      <trkpt lat="49.11903" lon="1.7847">
        <ele>178</ele>
        <time>2015-09-06T08:07:27.000Z</time>
      </trkpt>
      <trkpt lat="49.11904" lon="1.78479">
        <ele>179</ele>
        <time>2015-09-06T08:07:29.000Z</time>
      </trkpt>
      <trkpt lat="49.11905" lon="1.78488">
        <ele>179</ele>
        <time>2015-09-06T08:07:32.000Z</time>
      </trkpt>
      <trkpt lat="49.11905" lon="1.78498">
        <ele>179</ele>
        <time>2015-09-06T08:07:33.000Z</time>
      </trkpt>
      <trkpt lat="49.11905" lon="1.78508">
        <ele>179</ele>
        <time>2015-09-06T08:07:36.000Z</time>
      </trkpt>
      <trkpt lat="49.11905" lon="1.78518">
        <ele>180</ele>
        <time>2015-09-06T08:07:37.000Z</time>
      </trkpt>
      <trkpt lat="49.11905" lon="1.78528">
        <ele>180</ele>
        <time>2015-09-06T08:07:39.000Z</time>
      </trkpt>
      <trkpt lat="49.11905" lon="1.78539">
        <ele>180</ele>
        <time>2015-09-06T08:07:41.000Z</time>
      </trkpt>
      <trkpt lat="49.11905" lon="1.78549">
        <ele>180</ele>
        <time>2015-09-06T08:07:44.000Z</time>
      </trkpt>
      <trkpt lat="49.11905" lon="1.7856">
        <ele>181</ele>
        <time>2015-09-06T08:07:45.000Z</time>
      </trkpt>
      <trkpt lat="49.11905" lon="1.78571">
        <ele>181</ele>
        <time>2015-09-06T08:07:47.000Z</time>
      </trkpt>
      <trkpt lat="49.11905" lon="1.78582">
        <ele>181</ele>
        <time>2015-09-06T08:07:50.000Z</time>
      </trkpt>
      <trkpt lat="49.11906" lon="1.78593">
        <ele>181</ele>
        <time>2015-09-06T08:07:51.000Z</time>
      </trkpt>
      <trkpt lat="49.11906" lon="1.78604">
        <ele>181</ele>
        <time>2015-09-06T08:07:53.000Z</time>
      </trkpt>
      <trkpt lat="49.11906" lon="1.78615">
        <ele>181</ele>
        <time>2015-09-06T08:07:56.000Z</time>
      </trkpt>
      <trkpt lat="49.11905" lon="1.78626">
        <ele>181</ele>
        <time>2015-09-06T08:07:57.000Z</time>
      </trkpt>
      <trkpt lat="49.11905" lon="1.78637">
        <ele>181</ele>
        <time>2015-09-06T08:07:59.000Z</time>
      </trkpt>
      <trkpt lat="49.11905" lon="1.78647">
        <ele>181</ele>
        <time>2015-09-06T08:08:02.000Z</time>
      </trkpt>
      <trkpt lat="49.11904" lon="1.78658">
        <ele>181</ele>
        <time>2015-09-06T08:08:03.000Z</time>
      </trkpt>
      <trkpt lat="49.11904" lon="1.78668">
        <ele>181</ele>
        <time>2015-09-06T08:08:05.000Z</time>
      </trkpt>
      <trkpt lat="49.11903" lon="1.78678">
        <ele>181</ele>
        <time>2015-09-06T08:08:08.000Z</time>
      </trkpt>
      <trkpt lat="49.11901" lon="1.78689">
        <ele>181</ele>
        <time>2015-09-06T08:08:09.000Z</time>
      </trkpt>
      <trkpt lat="49.119" lon="1.78701">
        <ele>181</ele>
        <time>2015-09-06T08:08:11.000Z</time>
      </trkpt>
      <trkpt lat="49.11898" lon="1.78713">
        <ele>181</ele>
        <time>2015-09-06T08:08:14.000Z</time>
      </trkpt>
      <trkpt lat="49.11896" lon="1.78725">
        <ele>181</ele>
        <time>2015-09-06T08:08:15.000Z</time>
      </trkpt>
      <trkpt lat="49.11893" lon="1.78739">
        <ele>181</ele>
        <time>2015-09-06T08:08:17.000Z</time>
      </trkpt>
      <trkpt lat="49.1189" lon="1.78752">
        <ele>180</ele>
        <time>2015-09-06T08:08:19.000Z</time>
      </trkpt>
      <trkpt lat="49.11887" lon="1.78767">
        <ele>180</ele>
        <time>2015-09-06T08:08:21.000Z</time>
      </trkpt>
      <trkpt lat="49.11884" lon="1.78781">
        <ele>180</ele>
        <time>2015-09-06T08:08:23.000Z</time>
      </trkpt>
      <trkpt lat="49.11881" lon="1.78796">
        <ele>179</ele>
        <time>2015-09-06T08:08:26.000Z</time>
      </trkpt>
      <trkpt lat="49.11878" lon="1.78811">
        <ele>179</ele>
        <time>2015-09-06T08:08:27.000Z</time>
      </trkpt>
      <trkpt lat="49.11875" lon="1.78825">
        <ele>179</ele>
        <time>2015-09-06T08:08:29.000Z</time>
      </trkpt>
      <trkpt lat="49.11872" lon="1.78841">
        <ele>179</ele>
        <time>2015-09-06T08:08:32.000Z</time>
      </trkpt>
      <trkpt lat="49.11869" lon="1.78856">
        <ele>178</ele>
        <time>2015-09-06T08:08:33.000Z</time>
      </trkpt>
      <trkpt lat="49.11866" lon="1.78872">
        <ele>178</ele>
        <time>2015-09-06T08:08:35.000Z</time>
      </trkpt>
      <trkpt lat="49.11863" lon="1.78888">
        <ele>178</ele>
        <time>2015-09-06T08:08:37.000Z</time>
      </trkpt>
      <trkpt lat="49.1186" lon="1.78903">
        <ele>177</ele>
        <time>2015-09-06T08:08:39.000Z</time>
      </trkpt>
      <trkpt lat="49.11856" lon="1.78919">
        <ele>177</ele>
        <time>2015-09-06T08:08:41.000Z</time>
      </trkpt>
      <trkpt lat="49.11853" lon="1.78934">
        <ele>177</ele>
        <time>2015-09-06T08:08:44.000Z</time>
      </trkpt>
      <trkpt lat="49.1185" lon="1.78948">
        <ele>177</ele>
        <time>2015-09-06T08:08:45.000Z</time>
      </trkpt>
      <trkpt lat="49.11847" lon="1.78962">
        <ele>177</ele>
        <time>2015-09-06T08:08:47.000Z</time>
      </trkpt>
      <trkpt lat="49.11844" lon="1.78974">
        <ele>176</ele>
        <time>2015-09-06T08:08:49.000Z</time>
      </trkpt>
      <trkpt lat="49.11842" lon="1.78983">
        <ele>176</ele>
        <time>2015-09-06T08:08:51.000Z</time>
      </trkpt>
      <trkpt lat="49.11841" lon="1.78992">
        <ele>176</ele>
        <time>2015-09-06T08:08:53.000Z</time>
      </trkpt>
      <trkpt lat="49.11841" lon="1.78992">
        <ele>176</ele>
        <time>2015-09-06T08:08:56.000Z</time>
      </trkpt>
      <trkpt lat="49.11841" lon="1.79004">
        <ele>175</ele>
        <time>2015-09-06T08:08:58.000Z</time>
      </trkpt>
      <trkpt lat="49.11841" lon="1.79004">
        <ele>175</ele>
        <time>2015-09-06T08:08:59.000Z</time>
      </trkpt>
      <trkpt lat="49.11841" lon="1.79004">
        <ele>175</ele>
        <time>2015-09-06T08:09:01.000Z</time>
      </trkpt>
      <trkpt lat="49.11836" lon="1.79009">
        <ele>175</ele>
        <time>2015-09-06T08:14:53.000Z</time>
      </trkpt>
      <trkpt lat="49.11824" lon="1.7901">
        <ele>175</ele>
        <time>2015-09-06T08:14:56.000Z</time>
      </trkpt>
      <trkpt lat="49.11816" lon="1.7901">
        <ele>174</ele>
        <time>2015-09-06T08:14:58.000Z</time>
      </trkpt>
      <trkpt lat="49.11807" lon="1.79011">
        <ele>174</ele>
        <time>2015-09-06T08:15:00.000Z</time>
      </trkpt>
      <trkpt lat="49.11798" lon="1.79012">
        <ele>174</ele>
        <time>2015-09-06T08:15:03.000Z</time>
      </trkpt>
      <trkpt lat="49.11787" lon="1.79013">
        <ele>173</ele>
        <time>2015-09-06T08:15:04.000Z</time>
      </trkpt>
      <trkpt lat="49.11775" lon="1.79014">
        <ele>173</ele>
        <time>2015-09-06T08:15:06.000Z</time>
      </trkpt>
      <trkpt lat="49.11762" lon="1.79015">
        <ele>173</ele>
        <time>2015-09-06T08:15:09.000Z</time>
      </trkpt>
      <trkpt lat="49.11748" lon="1.79016">
        <ele>172</ele>
        <time>2015-09-06T08:15:10.000Z</time>
      </trkpt>
      <trkpt lat="49.11733" lon="1.79018">
        <ele>172</ele>
        <time>2015-09-06T08:15:12.000Z</time>
      </trkpt>
      <trkpt lat="49.11718" lon="1.79019">
        <ele>171</ele>
        <time>2015-09-06T08:15:14.000Z</time>
      </trkpt>
      <trkpt lat="49.11703" lon="1.7902">
        <ele>171</ele>
        <time>2015-09-06T08:15:16.000Z</time>
      </trkpt>
      <trkpt lat="49.11689" lon="1.79022">
        <ele>170</ele>
        <time>2015-09-06T08:15:18.000Z</time>
      </trkpt>
      <trkpt lat="49.11673" lon="1.79023">
        <ele>170</ele>
        <time>2015-09-06T08:15:20.000Z</time>
      </trkpt>
      <trkpt lat="49.11658" lon="1.79024">
        <ele>170</ele>
        <time>2015-09-06T08:15:22.000Z</time>
      </trkpt>
      <trkpt lat="49.11642" lon="1.79025">
        <ele>171</ele>
        <time>2015-09-06T08:15:24.000Z</time>
      </trkpt>
      <trkpt lat="49.11627" lon="1.79027">
        <ele>171</ele>
        <time>2015-09-06T08:15:27.000Z</time>
      </trkpt>
      <trkpt lat="49.11612" lon="1.79028">
        <ele>171</ele>
        <time>2015-09-06T08:15:28.000Z</time>
      </trkpt>
      <trkpt lat="49.11598" lon="1.79029">
        <ele>171</ele>
        <time>2015-09-06T08:15:30.000Z</time>
      </trkpt>
      <trkpt lat="49.11583" lon="1.7903">
        <ele>171</ele>
        <time>2015-09-06T08:15:32.000Z</time>
      </trkpt>
      <trkpt lat="49.11568" lon="1.79031">
        <ele>171</ele>
        <time>2015-09-06T08:15:34.000Z</time>
      </trkpt>
      <trkpt lat="49.11554" lon="1.79032">
        <ele>171</ele>
        <time>2015-09-06T08:15:37.000Z</time>
      </trkpt>
      <trkpt lat="49.11539" lon="1.79033">
        <ele>170</ele>
        <time>2015-09-06T08:15:38.000Z</time>
      </trkpt>
      <trkpt lat="49.11524" lon="1.79034">
        <ele>170</ele>
        <time>2015-09-06T08:15:40.000Z</time>
      </trkpt>
      <trkpt lat="49.11509" lon="1.79035">
        <ele>170</ele>
        <time>2015-09-06T08:15:42.000Z</time>
      </trkpt>
      <trkpt lat="49.11494" lon="1.79037">
        <ele>170</ele>
        <time>2015-09-06T08:15:44.000Z</time>
      </trkpt>
      <trkpt lat="49.11479" lon="1.79038">
        <ele>170</ele>
        <time>2015-09-06T08:15:46.000Z</time>
      </trkpt>
      <trkpt lat="49.11464" lon="1.79039">
        <ele>171</ele>
        <time>2015-09-06T08:15:48.000Z</time>
      </trkpt>
      <trkpt lat="49.11448" lon="1.7904">
        <ele>171</ele>
        <time>2015-09-06T08:15:50.000Z</time>
      </trkpt>
      <trkpt lat="49.11433" lon="1.79041">
        <ele>171</ele>
        <time>2015-09-06T08:15:52.000Z</time>
      </trkpt>
      <trkpt lat="49.11419" lon="1.79042">
        <ele>171</ele>
        <time>2015-09-06T08:15:54.000Z</time>
      </trkpt>
      <trkpt lat="49.11403" lon="1.79043">
        <ele>171</ele>
        <time>2015-09-06T08:15:56.000Z</time>
      </trkpt>
      <trkpt lat="49.11388" lon="1.79044">
        <ele>171</ele>
        <time>2015-09-06T08:15:58.000Z</time>
      </trkpt>
      <trkpt lat="49.11373" lon="1.79045">
        <ele>171</ele>
        <time>2015-09-06T08:16:00.000Z</time>
      </trkpt>
      <trkpt lat="49.11358" lon="1.79046">
        <ele>171</ele>
        <time>2015-09-06T08:16:02.000Z</time>
      </trkpt>
      <trkpt lat="49.11343" lon="1.79047">
        <ele>171</ele>
        <time>2015-09-06T08:16:04.000Z</time>
      </trkpt>
      <trkpt lat="49.11329" lon="1.79048">
        <ele>171</ele>
        <time>2015-09-06T08:16:07.000Z</time>
      </trkpt>
      <trkpt lat="49.11315" lon="1.7905">
        <ele>172</ele>
        <time>2015-09-06T08:16:08.000Z</time>
      </trkpt>
      <trkpt lat="49.113" lon="1.79051">
        <ele>172</ele>
        <time>2015-09-06T08:16:10.000Z</time>
      </trkpt>
      <trkpt lat="49.11286" lon="1.79052">
        <ele>172</ele>
        <time>2015-09-06T08:16:12.000Z</time>
      </trkpt>
      <trkpt lat="49.11271" lon="1.79053">
        <ele>172</ele>
        <time>2015-09-06T08:16:15.000Z</time>
      </trkpt>
      <trkpt lat="49.11257" lon="1.79053">
        <ele>172</ele>
        <time>2015-09-06T08:16:16.000Z</time>
      </trkpt>
      <trkpt lat="49.11242" lon="1.79054">
        <ele>172</ele>
        <time>2015-09-06T08:16:18.000Z</time>
      </trkpt>
      <trkpt lat="49.11228" lon="1.79056">
        <ele>172</ele>
        <time>2015-09-06T08:16:20.000Z</time>
      </trkpt>
      <trkpt lat="49.11214" lon="1.79057">
        <ele>173</ele>
        <time>2015-09-06T08:16:22.000Z</time>
      </trkpt>
      <trkpt lat="49.11201" lon="1.79058">
        <ele>173</ele>
        <time>2015-09-06T08:16:24.000Z</time>
      </trkpt>
      <trkpt lat="49.11188" lon="1.79059">
        <ele>173</ele>
        <time>2015-09-06T08:16:26.000Z</time>
      </trkpt>
      <trkpt lat="49.11175" lon="1.7906">
        <ele>174</ele>
        <time>2015-09-06T08:16:29.000Z</time>
      </trkpt>
      <trkpt lat="49.11163" lon="1.7906">
        <ele>174</ele>
        <time>2015-09-06T08:16:30.000Z</time>
      </trkpt>
      <trkpt lat="49.11152" lon="1.79061">
        <ele>174</ele>
        <time>2015-09-06T08:16:32.000Z</time>
      </trkpt>
      <trkpt lat="49.11141" lon="1.79062">
        <ele>175</ele>
        <time>2015-09-06T08:16:34.000Z</time>
      </trkpt>
      <trkpt lat="49.1113" lon="1.79062">
        <ele>175</ele>
        <time>2015-09-06T08:16:36.000Z</time>
      </trkpt>
      <trkpt lat="49.11119" lon="1.79064">
        <ele>175</ele>
        <time>2015-09-06T08:16:38.000Z</time>
      </trkpt>
      <trkpt lat="49.11108" lon="1.79065">
        <ele>176</ele>
        <time>2015-09-06T08:16:41.000Z</time>
      </trkpt>
      <trkpt lat="49.11098" lon="1.79066">
        <ele>176</ele>
        <time>2015-09-06T08:16:42.000Z</time>
      </trkpt>
      <trkpt lat="49.11087" lon="1.79067">
        <ele>176</ele>
        <time>2015-09-06T08:16:44.000Z</time>
      </trkpt>
      <trkpt lat="49.11076" lon="1.79067">
        <ele>175</ele>
        <time>2015-09-06T08:16:47.000Z</time>
      </trkpt>
      <trkpt lat="49.11064" lon="1.79069">
        <ele>175</ele>
        <time>2015-09-06T08:16:48.000Z</time>
      </trkpt>
      <trkpt lat="49.11052" lon="1.79069">
        <ele>175</ele>
        <time>2015-09-06T08:16:50.000Z</time>
      </trkpt>
      <trkpt lat="49.1104" lon="1.7907">
        <ele>175</ele>
        <time>2015-09-06T08:16:52.000Z</time>
      </trkpt>
      <trkpt lat="49.11028" lon="1.79071">
        <ele>175</ele>
        <time>2015-09-06T08:16:54.000Z</time>
      </trkpt>
      <trkpt lat="49.11015" lon="1.79072">
        <ele>175</ele>
        <time>2015-09-06T08:16:56.000Z</time>
      </trkpt>
      <trkpt lat="49.11003" lon="1.79073">
        <ele>174</ele>
        <time>2015-09-06T08:16:58.000Z</time>
      </trkpt>
      <trkpt lat="49.10991" lon="1.79074">
        <ele>174</ele>
        <time>2015-09-06T08:17:00.000Z</time>
      </trkpt>
      <trkpt lat="49.10978" lon="1.79075">
        <ele>174</ele>
        <time>2015-09-06T08:17:03.000Z</time>
      </trkpt>
      <trkpt lat="49.10965" lon="1.79075">
        <ele>174</ele>
        <time>2015-09-06T08:17:04.000Z</time>
      </trkpt>
      <trkpt lat="49.10953" lon="1.79076">
        <ele>174</ele>
        <time>2015-09-06T08:17:07.000Z</time>
      </trkpt>
      <trkpt lat="49.10939" lon="1.79077">
        <ele>174</ele>
        <time>2015-09-06T08:17:08.000Z</time>
      </trkpt>
      <trkpt lat="49.10927" lon="1.79078">
        <ele>174</ele>
        <time>2015-09-06T08:17:10.000Z</time>
      </trkpt>
      <trkpt lat="49.10915" lon="1.79079">
        <ele>174</ele>
        <time>2015-09-06T08:17:12.000Z</time>
      </trkpt>
      <trkpt lat="49.10902" lon="1.7908">
        <ele>174</ele>
        <time>2015-09-06T08:17:15.000Z</time>
      </trkpt>
      <trkpt lat="49.1089" lon="1.79081">
        <ele>174</ele>
        <time>2015-09-06T08:17:16.000Z</time>
      </trkpt>
      <trkpt lat="49.10879" lon="1.79083">
        <ele>174</ele>
        <time>2015-09-06T08:17:18.000Z</time>
      </trkpt>
      <trkpt lat="49.10867" lon="1.79084">
        <ele>175</ele>
        <time>2015-09-06T08:17:20.000Z</time>
      </trkpt>
      <trkpt lat="49.10855" lon="1.79085">
        <ele>175</ele>
        <time>2015-09-06T08:17:22.000Z</time>
      </trkpt>
      <trkpt lat="49.10844" lon="1.79086">
        <ele>175</ele>
        <time>2015-09-06T08:17:24.000Z</time>
      </trkpt>
      <trkpt lat="49.10831" lon="1.79086">
        <ele>175</ele>
        <time>2015-09-06T08:17:26.000Z</time>
      </trkpt>
      <trkpt lat="49.1082" lon="1.79087">
        <ele>175</ele>
        <time>2015-09-06T08:17:28.000Z</time>
      </trkpt>
      <trkpt lat="49.10809" lon="1.79088">
        <ele>175</ele>
        <time>2015-09-06T08:17:30.000Z</time>
      </trkpt>
      <trkpt lat="49.10797" lon="1.79089">
        <ele>175</ele>
        <time>2015-09-06T08:17:32.000Z</time>
      </trkpt>
      <trkpt lat="49.10785" lon="1.7909">
        <ele>175</ele>
        <time>2015-09-06T08:17:34.000Z</time>
      </trkpt>
      <trkpt lat="49.10774" lon="1.79091">
        <ele>175</ele>
        <time>2015-09-06T08:17:36.000Z</time>
      </trkpt>
      <trkpt lat="49.10763" lon="1.79092">
        <ele>176</ele>
        <time>2015-09-06T08:17:38.000Z</time>
      </trkpt>
      <trkpt lat="49.10752" lon="1.79093">
        <ele>176</ele>
        <time>2015-09-06T08:17:41.000Z</time>
      </trkpt>
      <trkpt lat="49.1074" lon="1.79093">
        <ele>176</ele>
        <time>2015-09-06T08:17:42.000Z</time>
      </trkpt>
      <trkpt lat="49.10726" lon="1.79094">
        <ele>177</ele>
        <time>2015-09-06T08:17:44.000Z</time>
      </trkpt>
      <trkpt lat="49.10713" lon="1.79095">
        <ele>177</ele>
        <time>2015-09-06T08:17:46.000Z</time>
      </trkpt>
      <trkpt lat="49.10701" lon="1.79096">
        <ele>177</ele>
        <time>2015-09-06T08:17:48.000Z</time>
      </trkpt>
      <trkpt lat="49.10689" lon="1.79096">
        <ele>177</ele>
        <time>2015-09-06T08:17:51.000Z</time>
      </trkpt>
      <trkpt lat="49.10677" lon="1.79097">
        <ele>177</ele>
        <time>2015-09-06T08:17:52.000Z</time>
      </trkpt>
      <trkpt lat="49.10666" lon="1.79098">
        <ele>178</ele>
        <time>2015-09-06T08:17:54.000Z</time>
      </trkpt>
      <trkpt lat="49.10654" lon="1.79099">
        <ele>178</ele>
        <time>2015-09-06T08:17:57.000Z</time>
      </trkpt>
      <trkpt lat="49.10643" lon="1.791">
        <ele>178</ele>
        <time>2015-09-06T08:17:59.000Z</time>
      </trkpt>
      <trkpt lat="49.10632" lon="1.791">
        <ele>179</ele>
        <time>2015-09-06T08:18:00.000Z</time>
      </trkpt>
      <trkpt lat="49.1062" lon="1.79101">
        <ele>179</ele>
        <time>2015-09-06T08:18:03.000Z</time>
      </trkpt>
      <trkpt lat="49.10609" lon="1.79102">
        <ele>179</ele>
        <time>2015-09-06T08:18:04.000Z</time>
      </trkpt>
      <trkpt lat="49.10598" lon="1.79103">
        <ele>179</ele>
        <time>2015-09-06T08:18:06.000Z</time>
      </trkpt>
      <trkpt lat="49.10587" lon="1.79104">
        <ele>180</ele>
        <time>2015-09-06T08:18:08.000Z</time>
      </trkpt>
      <trkpt lat="49.10576" lon="1.79105">
        <ele>181</ele>
        <time>2015-09-06T08:18:11.000Z</time>
      </trkpt>
      <trkpt lat="49.10566" lon="1.79106">
        <ele>181</ele>
        <time>2015-09-06T08:18:12.000Z</time>
      </trkpt>
      <trkpt lat="49.10556" lon="1.79108">
        <ele>181</ele>
        <time>2015-09-06T08:18:14.000Z</time>
      </trkpt>
      <trkpt lat="49.10548" lon="1.79109">
        <ele>181</ele>
        <time>2015-09-06T08:18:17.000Z</time>
      </trkpt>
      <trkpt lat="49.10541" lon="1.79112">
        <ele>182</ele>
        <time>2015-09-06T08:18:18.000Z</time>
      </trkpt>
      <trkpt lat="49.10538" lon="1.79119">
        <ele>182</ele>
        <time>2015-09-06T08:18:21.000Z</time>
      </trkpt>
      <trkpt lat="49.10538" lon="1.79119">
        <ele>182</ele>
        <time>2015-09-06T08:18:22.000Z</time>
      </trkpt>
      <trkpt lat="49.10541" lon="1.79132">
        <ele>183</ele>
        <time>2015-09-06T08:18:24.000Z</time>
      </trkpt>
      <trkpt lat="49.10541" lon="1.79132">
        <ele>183</ele>
        <time>2015-09-06T08:18:27.000Z</time>
      </trkpt>
      <trkpt lat="49.10547" lon="1.79141">
        <ele>184</ele>
        <time>2015-09-06T08:18:28.000Z</time>
      </trkpt>
      <trkpt lat="49.10547" lon="1.79141">
        <ele>184</ele>
        <time>2015-09-06T08:18:30.000Z</time>
      </trkpt>
      <trkpt lat="49.10556" lon="1.79148">
        <ele>183</ele>
        <time>2015-09-06T08:18:32.000Z</time>
      </trkpt>
      <trkpt lat="49.10562" lon="1.79153">
        <ele>183</ele>
        <time>2015-09-06T08:18:34.000Z</time>
      </trkpt>
      <trkpt lat="49.10569" lon="1.79159">
        <ele>183</ele>
        <time>2015-09-06T08:18:37.000Z</time>
      </trkpt>
      <trkpt lat="49.10575" lon="1.79165">
        <ele>183</ele>
        <time>2015-09-06T08:18:38.000Z</time>
      </trkpt>
      <trkpt lat="49.10582" lon="1.79172">
        <ele>183</ele>
        <time>2015-09-06T08:18:40.000Z</time>
      </trkpt>
      <trkpt lat="49.10589" lon="1.79177">
        <ele>183</ele>
        <time>2015-09-06T08:18:42.000Z</time>
      </trkpt>
      <trkpt lat="49.10596" lon="1.79183">
        <ele>183</ele>
        <time>2015-09-06T08:18:44.000Z</time>
      </trkpt>
      <trkpt lat="49.10603" lon="1.79189">
        <ele>183</ele>
        <time>2015-09-06T08:18:46.000Z</time>
      </trkpt>
      <trkpt lat="49.10611" lon="1.79195">
        <ele>182</ele>
        <time>2015-09-06T08:18:48.000Z</time>
      </trkpt>
      <trkpt lat="49.10619" lon="1.792">
        <ele>182</ele>
        <time>2015-09-06T08:18:51.000Z</time>
      </trkpt>
      <trkpt lat="49.10627" lon="1.79206">
        <ele>182</ele>
        <time>2015-09-06T08:18:52.000Z</time>
      </trkpt>
      <trkpt lat="49.10635" lon="1.79213">
        <ele>182</ele>
        <time>2015-09-06T08:18:54.000Z</time>
      </trkpt>
      <trkpt lat="49.10643" lon="1.7922">
        <ele>182</ele>
        <time>2015-09-06T08:18:57.000Z</time>
      </trkpt>
      <trkpt lat="49.10651" lon="1.79226">
        <ele>182</ele>
        <time>2015-09-06T08:18:58.000Z</time>
      </trkpt>
      <trkpt lat="49.10659" lon="1.79233">
        <ele>182</ele>
        <time>2015-09-06T08:19:01.000Z</time>
      </trkpt>
      <trkpt lat="49.10666" lon="1.7924">
        <ele>182</ele>
        <time>2015-09-06T08:19:02.000Z</time>
      </trkpt>
      <trkpt lat="49.10674" lon="1.79246">
        <ele>182</ele>
        <time>2015-09-06T08:19:04.000Z</time>
      </trkpt>
      <trkpt lat="49.10682" lon="1.79253">
        <ele>182</ele>
        <time>2015-09-06T08:19:07.000Z</time>
      </trkpt>
      <trkpt lat="49.1069" lon="1.7926">
        <ele>182</ele>
        <time>2015-09-06T08:19:08.000Z</time>
      </trkpt>
      <trkpt lat="49.10697" lon="1.79267">
        <ele>182</ele>
        <time>2015-09-06T08:19:10.000Z</time>
      </trkpt>
      <trkpt lat="49.10705" lon="1.79274">
        <ele>182</ele>
        <time>2015-09-06T08:19:13.000Z</time>
      </trkpt>
      <trkpt lat="49.10714" lon="1.7928">
        <ele>182</ele>
        <time>2015-09-06T08:19:15.000Z</time>
      </trkpt>
      <trkpt lat="49.10723" lon="1.79283">
        <ele>182</ele>
        <time>2015-09-06T08:19:16.000Z</time>
      </trkpt>
      <trkpt lat="49.10732" lon="1.79284">
        <ele>182</ele>
        <time>2015-09-06T08:19:18.000Z</time>
      </trkpt>
      <trkpt lat="49.10741" lon="1.79285">
        <ele>182</ele>
        <time>2015-09-06T08:19:21.000Z</time>
      </trkpt>
      <trkpt lat="49.10751" lon="1.79284">
        <ele>182</ele>
        <time>2015-09-06T08:19:22.000Z</time>
      </trkpt>
      <trkpt lat="49.10759" lon="1.79284">
        <ele>182</ele>
        <time>2015-09-06T08:19:24.000Z</time>
      </trkpt>
      <trkpt lat="49.10768" lon="1.79283">
        <ele>182</ele>
        <time>2015-09-06T08:19:27.000Z</time>
      </trkpt>
      <trkpt lat="49.10777" lon="1.79282">
        <ele>182</ele>
        <time>2015-09-06T08:19:28.000Z</time>
      </trkpt>
      <trkpt lat="49.10785" lon="1.79281">
        <ele>182</ele>
        <time>2015-09-06T08:19:30.000Z</time>
      </trkpt>
      <trkpt lat="49.10794" lon="1.79281">
        <ele>182</ele>
        <time>2015-09-06T08:19:32.000Z</time>
      </trkpt>
      <trkpt lat="49.10802" lon="1.7928">
        <ele>182</ele>
        <time>2015-09-06T08:19:34.000Z</time>
      </trkpt>
      <trkpt lat="49.10811" lon="1.79279">
        <ele>182</ele>
        <time>2015-09-06T08:19:36.000Z</time>
      </trkpt>
      <trkpt lat="49.1082" lon="1.79278">
        <ele>182</ele>
        <time>2015-09-06T08:19:38.000Z</time>
      </trkpt>
      <trkpt lat="49.10829" lon="1.79277">
        <ele>182</ele>
        <time>2015-09-06T08:19:41.000Z</time>
      </trkpt>
      <trkpt lat="49.10838" lon="1.79276">
        <ele>182</ele>
        <time>2015-09-06T08:19:42.000Z</time>
      </trkpt>
      <trkpt lat="49.10846" lon="1.79276">
        <ele>182</ele>
        <time>2015-09-06T08:19:44.000Z</time>
      </trkpt>
      <trkpt lat="49.10855" lon="1.79276">
        <ele>182</ele>
        <time>2015-09-06T08:19:47.000Z</time>
      </trkpt>
      <trkpt lat="49.10863" lon="1.79276">
        <ele>182</ele>
        <time>2015-09-06T08:19:48.000Z</time>
      </trkpt>
      <trkpt lat="49.10872" lon="1.79276">
        <ele>182</ele>
        <time>2015-09-06T08:19:50.000Z</time>
      </trkpt>
      <trkpt lat="49.10881" lon="1.79277">
        <ele>182</ele>
        <time>2015-09-06T08:19:52.000Z</time>
      </trkpt>
      <trkpt lat="49.1089" lon="1.79277">
        <ele>182</ele>
        <time>2015-09-06T08:19:54.000Z</time>
      </trkpt>
      <trkpt lat="49.10899" lon="1.79278">
        <ele>182</ele>
        <time>2015-09-06T08:19:56.000Z</time>
      </trkpt>
      <trkpt lat="49.10908" lon="1.79278">
        <ele>182</ele>
        <time>2015-09-06T08:19:59.000Z</time>
      </trkpt>
      <trkpt lat="49.10917" lon="1.79278">
        <ele>182</ele>
        <time>2015-09-06T08:20:00.000Z</time>
      </trkpt>
      <trkpt lat="49.10926" lon="1.79279">
        <ele>182</ele>
        <time>2015-09-06T08:20:02.000Z</time>
      </trkpt>
      <trkpt lat="49.10935" lon="1.79281">
        <ele>182</ele>
        <time>2015-09-06T08:20:05.000Z</time>
      </trkpt>
      <trkpt lat="49.10944" lon="1.79283">
        <ele>182</ele>
        <time>2015-09-06T08:20:06.000Z</time>
      </trkpt>
      <trkpt lat="49.10953" lon="1.79286">
        <ele>181</ele>
        <time>2015-09-06T08:20:08.000Z</time>
      </trkpt>
      <trkpt lat="49.10962" lon="1.79289">
        <ele>181</ele>
        <time>2015-09-06T08:20:10.000Z</time>
      </trkpt>
      <trkpt lat="49.1097" lon="1.79294">
        <ele>181</ele>
        <time>2015-09-06T08:20:12.000Z</time>
      </trkpt>
      <trkpt lat="49.10979" lon="1.793">
        <ele>181</ele>
        <time>2015-09-06T08:20:15.000Z</time>
      </trkpt>
      <trkpt lat="49.10987" lon="1.79307">
        <ele>181</ele>
        <time>2015-09-06T08:20:16.000Z</time>
      </trkpt>
      <trkpt lat="49.10996" lon="1.79314">
        <ele>181</ele>
        <time>2015-09-06T08:20:18.000Z</time>
      </trkpt>
      <trkpt lat="49.11004" lon="1.79321">
        <ele>181</ele>
        <time>2015-09-06T08:20:21.000Z</time>
      </trkpt>
      <trkpt lat="49.11012" lon="1.79327">
        <ele>180</ele>
        <time>2015-09-06T08:20:22.000Z</time>
      </trkpt>
      <trkpt lat="49.11021" lon="1.79333">
        <ele>180</ele>
        <time>2015-09-06T08:20:24.000Z</time>
      </trkpt>
      <trkpt lat="49.11029" lon="1.79339">
        <ele>180</ele>
        <time>2015-09-06T08:20:27.000Z</time>
      </trkpt>
      <trkpt lat="49.11038" lon="1.79345">
        <ele>179</ele>
        <time>2015-09-06T08:20:28.000Z</time>
      </trkpt>
      <trkpt lat="49.11047" lon="1.79351">
        <ele>179</ele>
        <time>2015-09-06T08:20:30.000Z</time>
      </trkpt>
      <trkpt lat="49.11055" lon="1.79357">
        <ele>179</ele>
        <time>2015-09-06T08:20:32.000Z</time>
      </trkpt>
      <trkpt lat="49.11065" lon="1.79364">
        <ele>179</ele>
        <time>2015-09-06T08:20:35.000Z</time>
      </trkpt>
      <trkpt lat="49.11074" lon="1.79371">
        <ele>178</ele>
        <time>2015-09-06T08:20:36.000Z</time>
      </trkpt>
      <trkpt lat="49.11083" lon="1.79378">
        <ele>178</ele>
        <time>2015-09-06T08:20:39.000Z</time>
      </trkpt>
      <trkpt lat="49.11092" lon="1.79385">
        <ele>178</ele>
        <time>2015-09-06T08:20:40.000Z</time>
      </trkpt>
      <trkpt lat="49.11102" lon="1.79392">
        <ele>177</ele>
        <time>2015-09-06T08:20:43.000Z</time>
      </trkpt>
      <trkpt lat="49.11111" lon="1.79399">
        <ele>177</ele>
        <time>2015-09-06T08:20:44.000Z</time>
      </trkpt>
      <trkpt lat="49.1112" lon="1.79406">
        <ele>177</ele>
        <time>2015-09-06T08:20:46.000Z</time>
      </trkpt>
      <trkpt lat="49.11129" lon="1.79413">
        <ele>176</ele>
        <time>2015-09-06T08:20:49.000Z</time>
      </trkpt>
      <trkpt lat="49.11138" lon="1.7942">
        <ele>176</ele>
        <time>2015-09-06T08:20:50.000Z</time>
      </trkpt>
      <trkpt lat="49.11147" lon="1.79428">
        <ele>176</ele>
        <time>2015-09-06T08:20:52.000Z</time>
      </trkpt>
      <trkpt lat="49.11156" lon="1.79436">
        <ele>176</ele>
        <time>2015-09-06T08:20:54.000Z</time>
      </trkpt>
      <trkpt lat="49.11164" lon="1.79443">
        <ele>175</ele>
        <time>2015-09-06T08:20:57.000Z</time>
      </trkpt>
      <trkpt lat="49.11173" lon="1.7945">
        <ele>175</ele>
        <time>2015-09-06T08:20:58.000Z</time>
      </trkpt>
      <trkpt lat="49.11182" lon="1.79457">
        <ele>175</ele>
        <time>2015-09-06T08:21:00.000Z</time>
      </trkpt>
      <trkpt lat="49.1119" lon="1.79464">
        <ele>175</ele>
        <time>2015-09-06T08:21:03.000Z</time>
      </trkpt>
      <trkpt lat="49.112" lon="1.79471">
        <ele>174</ele>
        <time>2015-09-06T08:21:04.000Z</time>
      </trkpt>
      <trkpt lat="49.11209" lon="1.79479">
        <ele>174</ele>
        <time>2015-09-06T08:21:06.000Z</time>
      </trkpt>
      <trkpt lat="49.11218" lon="1.79486">
        <ele>174</ele>
        <time>2015-09-06T08:21:09.000Z</time>
      </trkpt>
      <trkpt lat="49.11227" lon="1.79494">
        <ele>173</ele>
        <time>2015-09-06T08:21:10.000Z</time>
      </trkpt>
      <trkpt lat="49.11237" lon="1.79501">
        <ele>173</ele>
        <time>2015-09-06T08:21:12.000Z</time>
      </trkpt>
      <trkpt lat="49.11246" lon="1.79509">
        <ele>172</ele>
        <time>2015-09-06T08:21:15.000Z</time>
      </trkpt>
      <trkpt lat="49.11256" lon="1.79517">
        <ele>172</ele>
        <time>2015-09-06T08:21:16.000Z</time>
      </trkpt>
      <trkpt lat="49.11265" lon="1.79525">
        <ele>172</ele>
        <time>2015-09-06T08:21:18.000Z</time>
      </trkpt>
      <trkpt lat="49.11274" lon="1.79532">
        <ele>172</ele>
        <time>2015-09-06T08:21:21.000Z</time>
      </trkpt>
      <trkpt lat="49.11283" lon="1.79539">
        <ele>171</ele>
        <time>2015-09-06T08:21:22.000Z</time>
      </trkpt>
      <trkpt lat="49.11292" lon="1.79546">
        <ele>171</ele>
        <time>2015-09-06T08:21:24.000Z</time>
      </trkpt>
      <trkpt lat="49.11301" lon="1.79553">
        <ele>171</ele>
        <time>2015-09-06T08:21:27.000Z</time>
      </trkpt>
      <trkpt lat="49.1131" lon="1.7956">
        <ele>170</ele>
        <time>2015-09-06T08:21:28.000Z</time>
      </trkpt>
      <trkpt lat="49.11319" lon="1.79567">
        <ele>170</ele>
        <time>2015-09-06T08:21:30.000Z</time>
      </trkpt>
      <trkpt lat="49.11328" lon="1.79574">
        <ele>170</ele>
        <time>2015-09-06T08:21:33.000Z</time>
      </trkpt>
      <trkpt lat="49.11337" lon="1.79581">
        <ele>170</ele>
        <time>2015-09-06T08:21:34.000Z</time>
      </trkpt>
      <trkpt lat="49.11345" lon="1.79588">
        <ele>169</ele>
        <time>2015-09-06T08:21:36.000Z</time>
      </trkpt>
      <trkpt lat="49.11354" lon="1.79594">
        <ele>169</ele>
        <time>2015-09-06T08:21:38.000Z</time>
      </trkpt>
      <trkpt lat="49.11362" lon="1.796">
        <ele>169</ele>
        <time>2015-09-06T08:21:40.000Z</time>
      </trkpt>
      <trkpt lat="49.1137" lon="1.79606">
        <ele>169</ele>
        <time>2015-09-06T08:21:43.000Z</time>
      </trkpt>
      <trkpt lat="49.11378" lon="1.79612">
        <ele>169</ele>
        <time>2015-09-06T08:21:44.000Z</time>
      </trkpt>
      <trkpt lat="49.11386" lon="1.79618">
        <ele>169</ele>
        <time>2015-09-06T08:21:46.000Z</time>
      </trkpt>
      <trkpt lat="49.11393" lon="1.79624">
        <ele>170</ele>
        <time>2015-09-06T08:21:48.000Z</time>
      </trkpt>
      <trkpt lat="49.11399" lon="1.7963">
        <ele>170</ele>
        <time>2015-09-06T08:21:51.000Z</time>
      </trkpt>
      <trkpt lat="49.11406" lon="1.79634">
        <ele>171</ele>
        <time>2015-09-06T08:21:52.000Z</time>
      </trkpt>
      <trkpt lat="49.11411" lon="1.79639">
        <ele>171</ele>
        <time>2015-09-06T08:21:54.000Z</time>
      </trkpt>
      <trkpt lat="49.11418" lon="1.79644">
        <ele>171</ele>
        <time>2015-09-06T08:21:57.000Z</time>
      </trkpt>
      <trkpt lat="49.11424" lon="1.79649">
        <ele>172</ele>
        <time>2015-09-06T08:21:58.000Z</time>
      </trkpt>
      <trkpt lat="49.1143" lon="1.79654">
        <ele>172</ele>
        <time>2015-09-06T08:22:00.000Z</time>
      </trkpt>
      <trkpt lat="49.11436" lon="1.79659">
        <ele>172</ele>
        <time>2015-09-06T08:22:03.000Z</time>
      </trkpt>
      <trkpt lat="49.11443" lon="1.79664">
        <ele>172</ele>
        <time>2015-09-06T08:22:04.000Z</time>
      </trkpt>
      <trkpt lat="49.11449" lon="1.79668">
        <ele>173</ele>
        <time>2015-09-06T08:22:07.000Z</time>
      </trkpt>
      <trkpt lat="49.11455" lon="1.79673">
        <ele>173</ele>
        <time>2015-09-06T08:22:08.000Z</time>
      </trkpt>
      <trkpt lat="49.11461" lon="1.79678">
        <ele>173</ele>
        <time>2015-09-06T08:22:10.000Z</time>
      </trkpt>
      <trkpt lat="49.11468" lon="1.79683">
        <ele>173</ele>
        <time>2015-09-06T08:22:13.000Z</time>
      </trkpt>
      <trkpt lat="49.11474" lon="1.79687">
        <ele>173</ele>
        <time>2015-09-06T08:22:14.000Z</time>
      </trkpt>
      <trkpt lat="49.1148" lon="1.79692">
        <ele>174</ele>
        <time>2015-09-06T08:22:16.000Z</time>
      </trkpt>
      <trkpt lat="49.11486" lon="1.79697">
        <ele>174</ele>
        <time>2015-09-06T08:22:19.000Z</time>
      </trkpt>
      <trkpt lat="49.11492" lon="1.79701">
        <ele>174</ele>
        <time>2015-09-06T08:22:20.000Z</time>
      </trkpt>
      <trkpt lat="49.11497" lon="1.79706">
        <ele>174</ele>
        <time>2015-09-06T08:22:22.000Z</time>
      </trkpt>
      <trkpt lat="49.11503" lon="1.79711">
        <ele>174</ele>
        <time>2015-09-06T08:22:24.000Z</time>
      </trkpt>
      <trkpt lat="49.11509" lon="1.79716">
        <ele>174</ele>
        <time>2015-09-06T08:22:26.000Z</time>
      </trkpt>
      <trkpt lat="49.11514" lon="1.79721">
        <ele>175</ele>
        <time>2015-09-06T08:22:28.000Z</time>
      </trkpt>
      <trkpt lat="49.1152" lon="1.79725">
        <ele>175</ele>
        <time>2015-09-06T08:22:30.000Z</time>
      </trkpt>
      <trkpt lat="49.11526" lon="1.7973">
        <ele>175</ele>
        <time>2015-09-06T08:22:32.000Z</time>
      </trkpt>
      <trkpt lat="49.11532" lon="1.79735">
        <ele>175</ele>
        <time>2015-09-06T08:22:35.000Z</time>
      </trkpt>
      <trkpt lat="49.11538" lon="1.79739">
        <ele>175</ele>
        <time>2015-09-06T08:22:36.000Z</time>
      </trkpt>
      <trkpt lat="49.11544" lon="1.79744">
        <ele>175</ele>
        <time>2015-09-06T08:22:38.000Z</time>
      </trkpt>
      <trkpt lat="49.11549" lon="1.79749">
        <ele>175</ele>
        <time>2015-09-06T08:22:40.000Z</time>
      </trkpt>
      <trkpt lat="49.11555" lon="1.79754">
        <ele>175</ele>
        <time>2015-09-06T08:22:42.000Z</time>
      </trkpt>
      <trkpt lat="49.1156" lon="1.79759">
        <ele>176</ele>
        <time>2015-09-06T08:22:45.000Z</time>
      </trkpt>
      <trkpt lat="49.11566" lon="1.79764">
        <ele>176</ele>
        <time>2015-09-06T08:22:46.000Z</time>
      </trkpt>
      <trkpt lat="49.11572" lon="1.79769">
        <ele>176</ele>
        <time>2015-09-06T08:22:48.000Z</time>
      </trkpt>
      <trkpt lat="49.11577" lon="1.79774">
        <ele>176</ele>
        <time>2015-09-06T08:22:51.000Z</time>
      </trkpt>
      <trkpt lat="49.11583" lon="1.79779">
        <ele>176</ele>
        <time>2015-09-06T08:22:52.000Z</time>
      </trkpt>
      <trkpt lat="49.11588" lon="1.79784">
        <ele>176</ele>
        <time>2015-09-06T08:22:55.000Z</time>
      </trkpt>
      <trkpt lat="49.11593" lon="1.79788">
        <ele>177</ele>
        <time>2015-09-06T08:22:56.000Z</time>
      </trkpt>
      <trkpt lat="49.11599" lon="1.79793">
        <ele>177</ele>
        <time>2015-09-06T08:22:58.000Z</time>
      </trkpt>
      <trkpt lat="49.11604" lon="1.79798">
        <ele>177</ele>
        <time>2015-09-06T08:23:00.000Z</time>
      </trkpt>
      <trkpt lat="49.1161" lon="1.79804">
        <ele>177</ele>
        <time>2015-09-06T08:23:03.000Z</time>
      </trkpt>
      <trkpt lat="49.11615" lon="1.79809">
        <ele>177</ele>
        <time>2015-09-06T08:23:04.000Z</time>
      </trkpt>
      <trkpt lat="49.1162" lon="1.79814">
        <ele>177</ele>
        <time>2015-09-06T08:23:06.000Z</time>
      </trkpt>
      <trkpt lat="49.11626" lon="1.79818">
        <ele>177</ele>
        <time>2015-09-06T08:23:09.000Z</time>
      </trkpt>
      <trkpt lat="49.11631" lon="1.79823">
        <ele>177</ele>
        <time>2015-09-06T08:23:11.000Z</time>
      </trkpt>
      <trkpt lat="49.11636" lon="1.79828">
        <ele>177</ele>
        <time>2015-09-06T08:23:12.000Z</time>
      </trkpt>
      <trkpt lat="49.11641" lon="1.79832">
        <ele>177</ele>
        <time>2015-09-06T08:23:14.000Z</time>
      </trkpt>
      <trkpt lat="49.11647" lon="1.79837">
        <ele>177</ele>
        <time>2015-09-06T08:23:17.000Z</time>
      </trkpt>
      <trkpt lat="49.11652" lon="1.79842">
        <ele>178</ele>
        <time>2015-09-06T08:23:18.000Z</time>
      </trkpt>
      <trkpt lat="49.11657" lon="1.79847">
        <ele>178</ele>
        <time>2015-09-06T08:23:20.000Z</time>
      </trkpt>
      <trkpt lat="49.11663" lon="1.79852">
        <ele>178</ele>
        <time>2015-09-06T08:23:22.000Z</time>
      </trkpt>
      <trkpt lat="49.11668" lon="1.79857">
        <ele>178</ele>
        <time>2015-09-06T08:23:24.000Z</time>
      </trkpt>
      <trkpt lat="49.11673" lon="1.79862">
        <ele>178</ele>
        <time>2015-09-06T08:23:27.000Z</time>
      </trkpt>
      <trkpt lat="49.11679" lon="1.79866">
        <ele>178</ele>
        <time>2015-09-06T08:23:28.000Z</time>
      </trkpt>
      <trkpt lat="49.11684" lon="1.79871">
        <ele>178</ele>
        <time>2015-09-06T08:23:30.000Z</time>
      </trkpt>
      <trkpt lat="49.11689" lon="1.79875">
        <ele>179</ele>
        <time>2015-09-06T08:23:33.000Z</time>
      </trkpt>
      <trkpt lat="49.11694" lon="1.7988">
        <ele>179</ele>
        <time>2015-09-06T08:23:34.000Z</time>
      </trkpt>
      <trkpt lat="49.117" lon="1.79885">
        <ele>179</ele>
        <time>2015-09-06T08:23:36.000Z</time>
      </trkpt>
      <trkpt lat="49.11706" lon="1.7989">
        <ele>179</ele>
        <time>2015-09-06T08:23:39.000Z</time>
      </trkpt>
      <trkpt lat="49.11712" lon="1.79895">
        <ele>179</ele>
        <time>2015-09-06T08:23:40.000Z</time>
      </trkpt>
      <trkpt lat="49.11718" lon="1.79899">
        <ele>179</ele>
        <time>2015-09-06T08:23:42.000Z</time>
      </trkpt>
      <trkpt lat="49.11724" lon="1.79904">
        <ele>179</ele>
        <time>2015-09-06T08:23:45.000Z</time>
      </trkpt>
      <trkpt lat="49.11729" lon="1.79909">
        <ele>179</ele>
        <time>2015-09-06T08:23:46.000Z</time>
      </trkpt>
      <trkpt lat="49.11735" lon="1.79914">
        <ele>179</ele>
        <time>2015-09-06T08:23:48.000Z</time>
      </trkpt>
      <trkpt lat="49.1174" lon="1.79918">
        <ele>179</ele>
        <time>2015-09-06T08:23:50.000Z</time>
      </trkpt>
      <trkpt lat="49.11746" lon="1.79924">
        <ele>179</ele>
        <time>2015-09-06T08:23:52.000Z</time>
      </trkpt>
      <trkpt lat="49.11752" lon="1.79929">
        <ele>179</ele>
        <time>2015-09-06T08:23:54.000Z</time>
      </trkpt>
      <trkpt lat="49.11758" lon="1.79934">
        <ele>179</ele>
        <time>2015-09-06T08:23:56.000Z</time>
      </trkpt>
      <trkpt lat="49.11764" lon="1.79939">
        <ele>179</ele>
        <time>2015-09-06T08:23:58.000Z</time>
      </trkpt>
      <trkpt lat="49.11769" lon="1.79945">
        <ele>179</ele>
        <time>2015-09-06T08:24:00.000Z</time>
      </trkpt>
      <trkpt lat="49.11775" lon="1.7995">
        <ele>179</ele>
        <time>2015-09-06T08:24:02.000Z</time>
      </trkpt>
      <trkpt lat="49.11781" lon="1.79955">
        <ele>179</ele>
        <time>2015-09-06T08:24:04.000Z</time>
      </trkpt>
      <trkpt lat="49.11787" lon="1.7996">
        <ele>179</ele>
        <time>2015-09-06T08:24:06.000Z</time>
      </trkpt>
      <trkpt lat="49.11793" lon="1.79965">
        <ele>180</ele>
        <time>2015-09-06T08:24:08.000Z</time>
      </trkpt>
      <trkpt lat="49.11799" lon="1.79971">
        <ele>180</ele>
        <time>2015-09-06T08:24:11.000Z</time>
      </trkpt>
      <trkpt lat="49.11805" lon="1.79976">
        <ele>180</ele>
        <time>2015-09-06T08:24:12.000Z</time>
      </trkpt>
      <trkpt lat="49.1181" lon="1.79981">
        <ele>180</ele>
        <time>2015-09-06T08:24:14.000Z</time>
      </trkpt>
      <trkpt lat="49.11816" lon="1.79985">
        <ele>181</ele>
        <time>2015-09-06T08:24:17.000Z</time>
      </trkpt>
      <trkpt lat="49.11821" lon="1.7999">
        <ele>181</ele>
        <time>2015-09-06T08:24:18.000Z</time>
      </trkpt>
      <trkpt lat="49.11826" lon="1.79995">
        <ele>182</ele>
        <time>2015-09-06T08:24:20.000Z</time>
      </trkpt>
      <trkpt lat="49.11831" lon="1.8">
        <ele>182</ele>
        <time>2015-09-06T08:24:22.000Z</time>
      </trkpt>
      <trkpt lat="49.11836" lon="1.80005">
        <ele>182</ele>
        <time>2015-09-06T08:24:24.000Z</time>
      </trkpt>
      <trkpt lat="49.11841" lon="1.80009">
        <ele>182</ele>
        <time>2015-09-06T08:24:26.000Z</time>
      </trkpt>
      <trkpt lat="49.11846" lon="1.80014">
        <ele>182</ele>
        <time>2015-09-06T08:24:28.000Z</time>
      </trkpt>
      <trkpt lat="49.11851" lon="1.80019">
        <ele>182</ele>
        <time>2015-09-06T08:24:30.000Z</time>
      </trkpt>
      <trkpt lat="49.11856" lon="1.80023">
        <ele>182</ele>
        <time>2015-09-06T08:24:33.000Z</time>
      </trkpt>
      <trkpt lat="49.11861" lon="1.80028">
        <ele>183</ele>
        <time>2015-09-06T08:24:34.000Z</time>
      </trkpt>
      <trkpt lat="49.11866" lon="1.80033">
        <ele>183</ele>
        <time>2015-09-06T08:24:36.000Z</time>
      </trkpt>
      <trkpt lat="49.11871" lon="1.80037">
        <ele>183</ele>
        <time>2015-09-06T08:24:39.000Z</time>
      </trkpt>
      <trkpt lat="49.11876" lon="1.80042">
        <ele>183</ele>
        <time>2015-09-06T08:24:40.000Z</time>
      </trkpt>
      <trkpt lat="49.11882" lon="1.80046">
        <ele>183</ele>
        <time>2015-09-06T08:24:42.000Z</time>
      </trkpt>
      <trkpt lat="49.11887" lon="1.80051">
        <ele>184</ele>
        <time>2015-09-06T08:24:45.000Z</time>
      </trkpt>
      <trkpt lat="49.11892" lon="1.80056">
        <ele>184</ele>
        <time>2015-09-06T08:24:46.000Z</time>
      </trkpt>
      <trkpt lat="49.11897" lon="1.8006">
        <ele>184</ele>
        <time>2015-09-06T08:24:48.000Z</time>
      </trkpt>
      <trkpt lat="49.11902" lon="1.80065">
        <ele>184</ele>
        <time>2015-09-06T08:24:50.000Z</time>
      </trkpt>
      <trkpt lat="49.11908" lon="1.8007">
        <ele>184</ele>
        <time>2015-09-06T08:24:52.000Z</time>
      </trkpt>
      <trkpt lat="49.11913" lon="1.80076">
        <ele>184</ele>
        <time>2015-09-06T08:24:54.000Z</time>
      </trkpt>
      <trkpt lat="49.11919" lon="1.8008">
        <ele>185</ele>
        <time>2015-09-06T08:24:57.000Z</time>
      </trkpt>
      <trkpt lat="49.11924" lon="1.80085">
        <ele>185</ele>
        <time>2015-09-06T08:24:58.000Z</time>
      </trkpt>
      <trkpt lat="49.11929" lon="1.8009">
        <ele>185</ele>
        <time>2015-09-06T08:25:00.000Z</time>
      </trkpt>
      <trkpt lat="49.11934" lon="1.80095">
        <ele>185</ele>
        <time>2015-09-06T08:25:03.000Z</time>
      </trkpt>
      <trkpt lat="49.11939" lon="1.801">
        <ele>185</ele>
        <time>2015-09-06T08:25:04.000Z</time>
      </trkpt>
      <trkpt lat="49.11945" lon="1.80105">
        <ele>185</ele>
        <time>2015-09-06T08:25:06.000Z</time>
      </trkpt>
      <trkpt lat="49.1195" lon="1.8011">
        <ele>185</ele>
        <time>2015-09-06T08:25:08.000Z</time>
      </trkpt>
      <trkpt lat="49.11955" lon="1.80114">
        <ele>186</ele>
        <time>2015-09-06T08:25:10.000Z</time>
      </trkpt>
      <trkpt lat="49.11955" lon="1.80114">
        <ele>186</ele>
        <time>2015-09-06T08:25:12.000Z</time>
      </trkpt>
      <trkpt lat="49.11964" lon="1.80122">
        <ele>186</ele>
        <time>2015-09-06T08:25:14.000Z</time>
      </trkpt>
      <trkpt lat="49.11964" lon="1.80122">
        <ele>186</ele>
        <time>2015-09-06T08:25:16.000Z</time>
      </trkpt>
      <trkpt lat="49.11973" lon="1.8013">
        <ele>186</ele>
        <time>2015-09-06T08:25:18.000Z</time>
      </trkpt>
      <trkpt lat="49.11973" lon="1.8013">
        <ele>186</ele>
        <time>2015-09-06T08:25:21.000Z</time>
      </trkpt>
      <trkpt lat="49.1198" lon="1.80137">
        <ele>186</ele>
        <time>2015-09-06T08:25:22.000Z</time>
      </trkpt>
      <trkpt lat="49.1198" lon="1.80137">
        <ele>186</ele>
        <time>2015-09-06T08:25:24.000Z</time>
      </trkpt>
      <trkpt lat="49.11989" lon="1.80143">
        <ele>186</ele>
        <time>2015-09-06T08:25:26.000Z</time>
      </trkpt>
      <trkpt lat="49.11996" lon="1.8015">
        <ele>186</ele>
        <time>2015-09-06T08:25:31.000Z</time>
      </trkpt>
      <trkpt lat="49.12005" lon="1.80158">
        <ele>186</ele>
        <time>2015-09-06T08:25:34.000Z</time>
      </trkpt>
      <trkpt lat="49.12005" lon="1.80158">
        <ele>186</ele>
        <time>2015-09-06T08:25:37.000Z</time>
      </trkpt>
      <trkpt lat="49.12011" lon="1.80165">
        <ele>186</ele>
        <time>2015-09-06T08:25:38.000Z</time>
      </trkpt>
      <trkpt lat="49.12011" lon="1.80165">
        <ele>186</ele>
        <time>2015-09-06T08:25:40.000Z</time>
      </trkpt>
      <trkpt lat="49.12019" lon="1.8017">
        <ele>186</ele>
        <time>2015-09-06T08:25:43.000Z</time>
      </trkpt>
      <trkpt lat="49.12019" lon="1.8017">
        <ele>186</ele>
        <time>2015-09-06T08:25:44.000Z</time>
      </trkpt>
      <trkpt lat="49.12025" lon="1.80174">
        <ele>186</ele>
        <time>2015-09-06T08:25:46.000Z</time>
      </trkpt>
      <trkpt lat="49.12025" lon="1.80174">
        <ele>186</ele>
        <time>2015-09-06T08:25:48.000Z</time>
      </trkpt>
      <trkpt lat="49.12025" lon="1.80174">
        <ele>186</ele>
        <time>2015-09-06T08:25:50.000Z</time>
      </trkpt>
      <trkpt lat="49.12033" lon="1.8018">
        <ele>187</ele>
        <time>2015-09-06T08:32:25.000Z</time>
      </trkpt>
      <trkpt lat="49.12041" lon="1.8019">
        <ele>187</ele>
        <time>2015-09-06T08:32:29.000Z</time>
      </trkpt>
      <trkpt lat="49.12047" lon="1.80195">
        <ele>187</ele>
        <time>2015-09-06T08:32:31.000Z</time>
      </trkpt>
      <trkpt lat="49.12053" lon="1.802">
        <ele>187</ele>
        <time>2015-09-06T08:32:34.000Z</time>
      </trkpt>
      <trkpt lat="49.12059" lon="1.80206">
        <ele>187</ele>
        <time>2015-09-06T08:32:35.000Z</time>
      </trkpt>
      <trkpt lat="49.12066" lon="1.80213">
        <ele>187</ele>
        <time>2015-09-06T08:32:37.000Z</time>
      </trkpt>
      <trkpt lat="49.12073" lon="1.80219">
        <ele>187</ele>
        <time>2015-09-06T08:32:40.000Z</time>
      </trkpt>
      <trkpt lat="49.1208" lon="1.80226">
        <ele>187</ele>
        <time>2015-09-06T08:32:41.000Z</time>
      </trkpt>
      <trkpt lat="49.12087" lon="1.80232">
        <ele>187</ele>
        <time>2015-09-06T08:32:43.000Z</time>
      </trkpt>
      <trkpt lat="49.12094" lon="1.80238">
        <ele>187</ele>
        <time>2015-09-06T08:32:45.000Z</time>
      </trkpt>
      <trkpt lat="49.12102" lon="1.80245">
        <ele>187</ele>
        <time>2015-09-06T08:32:47.000Z</time>
      </trkpt>
      <trkpt lat="49.1211" lon="1.8025">
        <ele>186</ele>
        <time>2015-09-06T08:32:49.000Z</time>
      </trkpt>
      <trkpt lat="49.12118" lon="1.80257">
        <ele>186</ele>
        <time>2015-09-06T08:32:51.000Z</time>
      </trkpt>
      <trkpt lat="49.12126" lon="1.80265">
        <ele>186</ele>
        <time>2015-09-06T08:32:53.000Z</time>
      </trkpt>
      <trkpt lat="49.12133" lon="1.80272">
        <ele>186</ele>
        <time>2015-09-06T08:32:56.000Z</time>
      </trkpt>
      <trkpt lat="49.12141" lon="1.80279">
        <ele>186</ele>
        <time>2015-09-06T08:32:57.000Z</time>
      </trkpt>
      <trkpt lat="49.12149" lon="1.80288">
        <ele>185</ele>
        <time>2015-09-06T08:32:59.000Z</time>
      </trkpt>
      <trkpt lat="49.12157" lon="1.80296">
        <ele>185</ele>
        <time>2015-09-06T08:33:02.000Z</time>
      </trkpt>
      <trkpt lat="49.12166" lon="1.80305">
        <ele>185</ele>
        <time>2015-09-06T08:33:03.000Z</time>
      </trkpt>
      <trkpt lat="49.12175" lon="1.80312">
        <ele>184</ele>
        <time>2015-09-06T08:33:05.000Z</time>
      </trkpt>
      <trkpt lat="49.12183" lon="1.8032">
        <ele>184</ele>
        <time>2015-09-06T08:33:08.000Z</time>
      </trkpt>
      <trkpt lat="49.12191" lon="1.80327">
        <ele>184</ele>
        <time>2015-09-06T08:33:09.000Z</time>
      </trkpt>
      <trkpt lat="49.122" lon="1.80335">
        <ele>184</ele>
        <time>2015-09-06T08:33:11.000Z</time>
      </trkpt>
      <trkpt lat="49.12209" lon="1.80341">
        <ele>183</ele>
        <time>2015-09-06T08:33:14.000Z</time>
      </trkpt>
      <trkpt lat="49.12217" lon="1.80347">
        <ele>183</ele>
        <time>2015-09-06T08:33:15.000Z</time>
      </trkpt>
      <trkpt lat="49.12225" lon="1.80355">
        <ele>183</ele>
        <time>2015-09-06T08:33:17.000Z</time>
      </trkpt>
      <trkpt lat="49.12233" lon="1.80362">
        <ele>182</ele>
        <time>2015-09-06T08:33:19.000Z</time>
      </trkpt>
      <trkpt lat="49.12242" lon="1.80369">
        <ele>182</ele>
        <time>2015-09-06T08:33:22.000Z</time>
      </trkpt>
      <trkpt lat="49.12251" lon="1.80376">
        <ele>182</ele>
        <time>2015-09-06T08:33:23.000Z</time>
      </trkpt>
      <trkpt lat="49.12259" lon="1.80384">
        <ele>181</ele>
        <time>2015-09-06T08:33:25.000Z</time>
      </trkpt>
      <trkpt lat="49.12268" lon="1.80392">
        <ele>181</ele>
        <time>2015-09-06T08:33:27.000Z</time>
      </trkpt>
      <trkpt lat="49.12277" lon="1.804">
        <ele>181</ele>
        <time>2015-09-06T08:33:29.000Z</time>
      </trkpt>
      <trkpt lat="49.12286" lon="1.80408">
        <ele>180</ele>
        <time>2015-09-06T08:33:32.000Z</time>
      </trkpt>
      <trkpt lat="49.12295" lon="1.80416">
        <ele>180</ele>
        <time>2015-09-06T08:33:33.000Z</time>
      </trkpt>
      <trkpt lat="49.12304" lon="1.80425">
        <ele>179</ele>
        <time>2015-09-06T08:33:35.000Z</time>
      </trkpt>
      <trkpt lat="49.12312" lon="1.80434">
        <ele>179</ele>
        <time>2015-09-06T08:33:38.000Z</time>
      </trkpt>
      <trkpt lat="49.1232" lon="1.80443">
        <ele>179</ele>
        <time>2015-09-06T08:33:39.000Z</time>
      </trkpt>
      <trkpt lat="49.12328" lon="1.80452">
        <ele>179</ele>
        <time>2015-09-06T08:33:42.000Z</time>
      </trkpt>
      <trkpt lat="49.12334" lon="1.80462">
        <ele>179</ele>
        <time>2015-09-06T08:33:44.000Z</time>
      </trkpt>
      <trkpt lat="49.12341" lon="1.80471">
        <ele>179</ele>
        <time>2015-09-06T08:33:46.000Z</time>
      </trkpt>
      <trkpt lat="49.12348" lon="1.80482">
        <ele>178</ele>
        <time>2015-09-06T08:33:47.000Z</time>
      </trkpt>
      <trkpt lat="49.12355" lon="1.80493">
        <ele>178</ele>
        <time>2015-09-06T08:33:49.000Z</time>
      </trkpt>
      <trkpt lat="49.12363" lon="1.80503">
        <ele>178</ele>
        <time>2015-09-06T08:33:52.000Z</time>
      </trkpt>
      <trkpt lat="49.12371" lon="1.80515">
        <ele>178</ele>
        <time>2015-09-06T08:33:53.000Z</time>
      </trkpt>
      <trkpt lat="49.12378" lon="1.80526">
        <ele>178</ele>
        <time>2015-09-06T08:33:55.000Z</time>
      </trkpt>
      <trkpt lat="49.12385" lon="1.80538">
        <ele>177</ele>
        <time>2015-09-06T08:33:57.000Z</time>
      </trkpt>
      <trkpt lat="49.12392" lon="1.80549">
        <ele>177</ele>
        <time>2015-09-06T08:34:00.000Z</time>
      </trkpt>
      <trkpt lat="49.12399" lon="1.8056">
        <ele>177</ele>
        <time>2015-09-06T08:34:02.000Z</time>
      </trkpt>
      <trkpt lat="49.12405" lon="1.8057">
        <ele>177</ele>
        <time>2015-09-06T08:34:03.000Z</time>
      </trkpt>
      <trkpt lat="49.1241" lon="1.8058">
        <ele>177</ele>
        <time>2015-09-06T08:34:05.000Z</time>
      </trkpt>
      <trkpt lat="49.12415" lon="1.8059">
        <ele>177</ele>
        <time>2015-09-06T08:34:08.000Z</time>
      </trkpt>
      <trkpt lat="49.1242" lon="1.806">
        <ele>177</ele>
        <time>2015-09-06T08:34:09.000Z</time>
      </trkpt>
      <trkpt lat="49.12425" lon="1.80612">
        <ele>177</ele>
        <time>2015-09-06T08:34:12.000Z</time>
      </trkpt>
      <trkpt lat="49.12429" lon="1.80623">
        <ele>177</ele>
        <time>2015-09-06T08:34:13.000Z</time>
      </trkpt>
      <trkpt lat="49.12434" lon="1.80634">
        <ele>177</ele>
        <time>2015-09-06T08:34:15.000Z</time>
      </trkpt>
      <trkpt lat="49.12438" lon="1.80646">
        <ele>177</ele>
        <time>2015-09-06T08:34:18.000Z</time>
      </trkpt>
      <trkpt lat="49.12441" lon="1.80657">
        <ele>177</ele>
        <time>2015-09-06T08:34:20.000Z</time>
      </trkpt>
      <trkpt lat="49.12444" lon="1.80668">
        <ele>176</ele>
        <time>2015-09-06T08:34:21.000Z</time>
      </trkpt>
      <trkpt lat="49.12448" lon="1.80679">
        <ele>176</ele>
        <time>2015-09-06T08:34:23.000Z</time>
      </trkpt>
      <trkpt lat="49.12452" lon="1.80691">
        <ele>176</ele>
        <time>2015-09-06T08:34:26.000Z</time>
      </trkpt>
      <trkpt lat="49.12456" lon="1.80702">
        <ele>176</ele>
        <time>2015-09-06T08:34:27.000Z</time>
      </trkpt>
      <trkpt lat="49.1246" lon="1.80714">
        <ele>176</ele>
        <time>2015-09-06T08:34:29.000Z</time>
      </trkpt>
      <trkpt lat="49.12463" lon="1.80725">
        <ele>176</ele>
        <time>2015-09-06T08:34:32.000Z</time>
      </trkpt>
      <trkpt lat="49.12466" lon="1.80736">
        <ele>176</ele>
        <time>2015-09-06T08:34:33.000Z</time>
      </trkpt>
      <trkpt lat="49.1247" lon="1.80748">
        <ele>176</ele>
        <time>2015-09-06T08:34:35.000Z</time>
      </trkpt>
      <trkpt lat="49.12473" lon="1.80758">
        <ele>176</ele>
        <time>2015-09-06T08:34:38.000Z</time>
      </trkpt>
      <trkpt lat="49.12477" lon="1.80769">
        <ele>176</ele>
        <time>2015-09-06T08:34:39.000Z</time>
      </trkpt>
      <trkpt lat="49.1248" lon="1.8078">
        <ele>176</ele>
        <time>2015-09-06T08:34:41.000Z</time>
      </trkpt>
      <trkpt lat="49.12484" lon="1.80789">
        <ele>176</ele>
        <time>2015-09-06T08:34:44.000Z</time>
      </trkpt>
      <trkpt lat="49.12486" lon="1.80797">
        <ele>176</ele>
        <time>2015-09-06T08:34:45.000Z</time>
      </trkpt>
      <trkpt lat="49.12486" lon="1.80797">
        <ele>176</ele>
        <time>2015-09-06T08:34:48.000Z</time>
      </trkpt>
      <trkpt lat="49.12491" lon="1.80806">
        <ele>176</ele>
        <time>2015-09-06T08:34:50.000Z</time>
      </trkpt>
      <trkpt lat="49.12491" lon="1.80806">
        <ele>176</ele>
        <time>2015-09-06T08:34:51.000Z</time>
      </trkpt>
      <trkpt lat="49.12496" lon="1.80814">
        <ele>177</ele>
        <time>2015-09-06T08:34:53.000Z</time>
      </trkpt>
      <trkpt lat="49.12496" lon="1.80814">
        <ele>177</ele>
        <time>2015-09-06T08:34:56.000Z</time>
      </trkpt>
      <trkpt lat="49.12496" lon="1.80814">
        <ele>177</ele>
        <time>2015-09-06T08:34:57.000Z</time>
      </trkpt>
      <trkpt lat="49.12505" lon="1.80816">
        <ele>176</ele>
        <time>2015-09-06T08:35:00.000Z</time>
      </trkpt>
      <trkpt lat="49.12514" lon="1.8081">
        <ele>176</ele>
        <time>2015-09-06T08:35:03.000Z</time>
      </trkpt>
      <trkpt lat="49.12521" lon="1.80807">
        <ele>176</ele>
        <time>2015-09-06T08:35:05.000Z</time>
      </trkpt>
      <trkpt lat="49.12528" lon="1.80804">
        <ele>176</ele>
        <time>2015-09-06T08:35:08.000Z</time>
      </trkpt>
      <trkpt lat="49.12537" lon="1.808">
        <ele>176</ele>
        <time>2015-09-06T08:35:10.000Z</time>
      </trkpt>
      <trkpt lat="49.12546" lon="1.80798">
        <ele>176</ele>
        <time>2015-09-06T08:35:11.000Z</time>
      </trkpt>
      <trkpt lat="49.12556" lon="1.80796">
        <ele>175</ele>
        <time>2015-09-06T08:35:13.000Z</time>
      </trkpt>
      <trkpt lat="49.12567" lon="1.80795">
        <ele>175</ele>
        <time>2015-09-06T08:35:15.000Z</time>
      </trkpt>
      <trkpt lat="49.12577" lon="1.80796">
        <ele>175</ele>
        <time>2015-09-06T08:35:17.000Z</time>
      </trkpt>
      <trkpt lat="49.12588" lon="1.80797">
        <ele>175</ele>
        <time>2015-09-06T08:35:20.000Z</time>
      </trkpt>
      <trkpt lat="49.12598" lon="1.80799">
        <ele>175</ele>
        <time>2015-09-06T08:35:21.000Z</time>
      </trkpt>
      <trkpt lat="49.12608" lon="1.80801">
        <ele>174</ele>
        <time>2015-09-06T08:35:23.000Z</time>
      </trkpt>
      <trkpt lat="49.12617" lon="1.80803">
        <ele>174</ele>
        <time>2015-09-06T08:35:25.000Z</time>
      </trkpt>
      <trkpt lat="49.12627" lon="1.80807">
        <ele>174</ele>
        <time>2015-09-06T08:35:27.000Z</time>
      </trkpt>
      <trkpt lat="49.12637" lon="1.80812">
        <ele>174</ele>
        <time>2015-09-06T08:35:29.000Z</time>
      </trkpt>
      <trkpt lat="49.12647" lon="1.80817">
        <ele>173</ele>
        <time>2015-09-06T08:35:31.000Z</time>
      </trkpt>
      <trkpt lat="49.12657" lon="1.80823">
        <ele>173</ele>
        <time>2015-09-06T08:35:34.000Z</time>
      </trkpt>
      <trkpt lat="49.12667" lon="1.80828">
        <ele>173</ele>
        <time>2015-09-06T08:35:35.000Z</time>
      </trkpt>
      <trkpt lat="49.12678" lon="1.80834">
        <ele>173</ele>
        <time>2015-09-06T08:35:37.000Z</time>
      </trkpt>
      <trkpt lat="49.12688" lon="1.80841">
        <ele>173</ele>
        <time>2015-09-06T08:35:39.000Z</time>
      </trkpt>
      <trkpt lat="49.12698" lon="1.80846">
        <ele>172</ele>
        <time>2015-09-06T08:35:41.000Z</time>
      </trkpt>
      <trkpt lat="49.12708" lon="1.80851">
        <ele>172</ele>
        <time>2015-09-06T08:35:43.000Z</time>
      </trkpt>
      <trkpt lat="49.12718" lon="1.80856">
        <ele>172</ele>
        <time>2015-09-06T08:35:46.000Z</time>
      </trkpt>
      <trkpt lat="49.12728" lon="1.8086">
        <ele>172</ele>
        <time>2015-09-06T08:35:47.000Z</time>
      </trkpt>
      <trkpt lat="49.12738" lon="1.80864">
        <ele>172</ele>
        <time>2015-09-06T08:35:49.000Z</time>
      </trkpt>
      <trkpt lat="49.12748" lon="1.80866">
        <ele>172</ele>
        <time>2015-09-06T08:35:51.000Z</time>
      </trkpt>
      <trkpt lat="49.12757" lon="1.80867">
        <ele>172</ele>
        <time>2015-09-06T08:35:53.000Z</time>
      </trkpt>
      <trkpt lat="49.12766" lon="1.80867">
        <ele>172</ele>
        <time>2015-09-06T08:35:55.000Z</time>
      </trkpt>
      <trkpt lat="49.12774" lon="1.80867">
        <ele>172</ele>
        <time>2015-09-06T08:35:58.000Z</time>
      </trkpt>
      <trkpt lat="49.12774" lon="1.80867">
        <ele>172</ele>
        <time>2015-09-06T08:35:59.000Z</time>
      </trkpt>
      <trkpt lat="49.12782" lon="1.80877">
        <ele>171</ele>
        <time>2015-09-06T08:36:02.000Z</time>
      </trkpt>
      <trkpt lat="49.1278" lon="1.80886">
        <ele>171</ele>
        <time>2015-09-06T08:36:03.000Z</time>
      </trkpt>
      <trkpt lat="49.12776" lon="1.80894">
        <ele>171</ele>
        <time>2015-09-06T08:36:05.000Z</time>
      </trkpt>
      <trkpt lat="49.1277" lon="1.80903">
        <ele>171</ele>
        <time>2015-09-06T08:36:08.000Z</time>
      </trkpt>
      <trkpt lat="49.12766" lon="1.80912">
        <ele>171</ele>
        <time>2015-09-06T08:36:09.000Z</time>
      </trkpt>
      <trkpt lat="49.1276" lon="1.80923">
        <ele>171</ele>
        <time>2015-09-06T08:36:11.000Z</time>
      </trkpt>
      <trkpt lat="49.12755" lon="1.80935">
        <ele>171</ele>
        <time>2015-09-06T08:36:14.000Z</time>
      </trkpt>
      <trkpt lat="49.12749" lon="1.80949">
        <ele>170</ele>
        <time>2015-09-06T08:36:16.000Z</time>
      </trkpt>
      <trkpt lat="49.12744" lon="1.80965">
        <ele>170</ele>
        <time>2015-09-06T08:36:17.000Z</time>
      </trkpt>
      <trkpt lat="49.1274" lon="1.80982">
        <ele>169</ele>
        <time>2015-09-06T08:36:19.000Z</time>
      </trkpt>
      <trkpt lat="49.12735" lon="1.81">
        <ele>169</ele>
        <time>2015-09-06T08:36:21.000Z</time>
      </trkpt>
      <trkpt lat="49.12733" lon="1.81018">
        <ele>169</ele>
        <time>2015-09-06T08:36:24.000Z</time>
      </trkpt>
      <trkpt lat="49.12735" lon="1.81037">
        <ele>168</ele>
        <time>2015-09-06T08:36:25.000Z</time>
      </trkpt>
      <trkpt lat="49.1274" lon="1.81054">
        <ele>168</ele>
        <time>2015-09-06T08:36:27.000Z</time>
      </trkpt>
      <trkpt lat="49.12748" lon="1.8107">
        <ele>168</ele>
        <time>2015-09-06T08:36:29.000Z</time>
      </trkpt>
      <trkpt lat="49.12757" lon="1.81085">
        <ele>168</ele>
        <time>2015-09-06T08:36:32.000Z</time>
      </trkpt>
      <trkpt lat="49.12765" lon="1.811">
        <ele>167</ele>
        <time>2015-09-06T08:36:33.000Z</time>
      </trkpt>
      <trkpt lat="49.12774" lon="1.81114">
        <ele>167</ele>
        <time>2015-09-06T08:36:35.000Z</time>
      </trkpt>
      <trkpt lat="49.12781" lon="1.81127">
        <ele>167</ele>
        <time>2015-09-06T08:36:38.000Z</time>
      </trkpt>
      <trkpt lat="49.12787" lon="1.81139">
        <ele>167</ele>
        <time>2015-09-06T08:36:39.000Z</time>
      </trkpt>
      <trkpt lat="49.12791" lon="1.8115">
        <ele>166</ele>
        <time>2015-09-06T08:36:42.000Z</time>
      </trkpt>
      <trkpt lat="49.12794" lon="1.8116">
        <ele>166</ele>
        <time>2015-09-06T08:36:44.000Z</time>
      </trkpt>
      <trkpt lat="49.12799" lon="1.81167">
        <ele>166</ele>
        <time>2015-09-06T08:36:45.000Z</time>
      </trkpt>
      <trkpt lat="49.12805" lon="1.81166">
        <ele>166</ele>
        <time>2015-09-06T08:36:47.000Z</time>
      </trkpt>
      <trkpt lat="49.12811" lon="1.8116">
        <ele>166</ele>
        <time>2015-09-06T08:36:50.000Z</time>
      </trkpt>
      <trkpt lat="49.12817" lon="1.81153">
        <ele>166</ele>
        <time>2015-09-06T08:36:51.000Z</time>
      </trkpt>
      <trkpt lat="49.12824" lon="1.81148">
        <ele>166</ele>
        <time>2015-09-06T08:36:53.000Z</time>
      </trkpt>
      <trkpt lat="49.12831" lon="1.81143">
        <ele>166</ele>
        <time>2015-09-06T08:36:56.000Z</time>
      </trkpt>
      <trkpt lat="49.12838" lon="1.81138">
        <ele>166</ele>
        <time>2015-09-06T08:36:57.000Z</time>
      </trkpt>
      <trkpt lat="49.12845" lon="1.81135">
        <ele>166</ele>
        <time>2015-09-06T08:36:59.000Z</time>
      </trkpt>
      <trkpt lat="49.12854" lon="1.81131">
        <ele>165</ele>
        <time>2015-09-06T08:37:02.000Z</time>
      </trkpt>
      <trkpt lat="49.12862" lon="1.81128">
        <ele>165</ele>
        <time>2015-09-06T08:37:03.000Z</time>
      </trkpt>
      <trkpt lat="49.12872" lon="1.81126">
        <ele>165</ele>
        <time>2015-09-06T08:37:05.000Z</time>
      </trkpt>
      <trkpt lat="49.12881" lon="1.81124">
        <ele>164</ele>
        <time>2015-09-06T08:37:08.000Z</time>
      </trkpt>
      <trkpt lat="49.12892" lon="1.81122">
        <ele>164</ele>
        <time>2015-09-06T08:37:09.000Z</time>
      </trkpt>
      <trkpt lat="49.12902" lon="1.81121">
        <ele>164</ele>
        <time>2015-09-06T08:37:12.000Z</time>
      </trkpt>
      <trkpt lat="49.12913" lon="1.81121">
        <ele>163</ele>
        <time>2015-09-06T08:37:14.000Z</time>
      </trkpt>
      <trkpt lat="49.12923" lon="1.8112">
        <ele>163</ele>
        <time>2015-09-06T08:37:15.000Z</time>
      </trkpt>
      <trkpt lat="49.12933" lon="1.8112">
        <ele>163</ele>
        <time>2015-09-06T08:37:17.000Z</time>
      </trkpt>
      <trkpt lat="49.12943" lon="1.81119">
        <ele>163</ele>
        <time>2015-09-06T08:37:20.000Z</time>
      </trkpt>
      <trkpt lat="49.12952" lon="1.8112">
        <ele>163</ele>
        <time>2015-09-06T08:37:21.000Z</time>
      </trkpt>
      <trkpt lat="49.12959" lon="1.81122">
        <ele>163</ele>
        <time>2015-09-06T08:37:23.000Z</time>
      </trkpt>
      <trkpt lat="49.12959" lon="1.81122">
        <ele>163</ele>
        <time>2015-09-06T08:37:26.000Z</time>
      </trkpt>
      <trkpt lat="49.12959" lon="1.81122">
        <ele>163</ele>
        <time>2015-09-06T08:37:27.000Z</time>
      </trkpt>
      <trkpt lat="49.12959" lon="1.81122">
        <ele>163</ele>
        <time>2015-09-06T08:37:29.000Z</time>
      </trkpt>
      <trkpt lat="49.12955" lon="1.81121">
        <ele>163</ele>
        <time>2015-09-06T08:39:16.000Z</time>
      </trkpt>
      <trkpt lat="49.12949" lon="1.81119">
        <ele>163</ele>
        <time>2015-09-06T08:39:17.000Z</time>
      </trkpt>
      <trkpt lat="49.12943" lon="1.81118">
        <ele>163</ele>
        <time>2015-09-06T08:39:19.000Z</time>
      </trkpt>
      <trkpt lat="49.12936" lon="1.81118">
        <ele>163</ele>
        <time>2015-09-06T08:39:22.000Z</time>
      </trkpt>
      <trkpt lat="49.12928" lon="1.81118">
        <ele>163</ele>
        <time>2015-09-06T08:39:23.000Z</time>
      </trkpt>
      <trkpt lat="49.12912" lon="1.81118">
        <ele>163</ele>
        <time>2015-09-06T08:39:25.000Z</time>
      </trkpt>
      <trkpt lat="49.12903" lon="1.81119">
        <ele>163</ele>
        <time>2015-09-06T08:39:27.000Z</time>
      </trkpt>
      <trkpt lat="49.12895" lon="1.81119">
        <ele>163</ele>
        <time>2015-09-06T08:39:29.000Z</time>
      </trkpt>
      <trkpt lat="49.12887" lon="1.81121">
        <ele>164</ele>
        <time>2015-09-06T08:39:32.000Z</time>
      </trkpt>
      <trkpt lat="49.12879" lon="1.81123">
        <ele>164</ele>
        <time>2015-09-06T08:39:33.000Z</time>
      </trkpt>
      <trkpt lat="49.12872" lon="1.81125">
        <ele>164</ele>
        <time>2015-09-06T08:39:35.000Z</time>
      </trkpt>
      <trkpt lat="49.12864" lon="1.81127">
        <ele>165</ele>
        <time>2015-09-06T08:39:38.000Z</time>
      </trkpt>
      <trkpt lat="49.12856" lon="1.81129">
        <ele>165</ele>
        <time>2015-09-06T08:39:39.000Z</time>
      </trkpt>
      <trkpt lat="49.12849" lon="1.81132">
        <ele>165</ele>
        <time>2015-09-06T08:39:41.000Z</time>
      </trkpt>
      <trkpt lat="49.12841" lon="1.81135">
        <ele>165</ele>
        <time>2015-09-06T08:39:43.000Z</time>
      </trkpt>
      <trkpt lat="49.12835" lon="1.81139">
        <ele>165</ele>
        <time>2015-09-06T08:39:45.000Z</time>
      </trkpt>
      <trkpt lat="49.12828" lon="1.81143">
        <ele>166</ele>
        <time>2015-09-06T08:39:47.000Z</time>
      </trkpt>
      <trkpt lat="49.12821" lon="1.81148">
        <ele>166</ele>
        <time>2015-09-06T08:39:50.000Z</time>
      </trkpt>
      <trkpt lat="49.12815" lon="1.81153">
        <ele>166</ele>
        <time>2015-09-06T08:39:51.000Z</time>
      </trkpt>
      <trkpt lat="49.12809" lon="1.81159">
        <ele>166</ele>
        <time>2015-09-06T08:39:53.000Z</time>
      </trkpt>
      <trkpt lat="49.12803" lon="1.81165">
        <ele>166</ele>
        <time>2015-09-06T08:39:56.000Z</time>
      </trkpt>
      <trkpt lat="49.12798" lon="1.81173">
        <ele>165</ele>
        <time>2015-09-06T08:39:57.000Z</time>
      </trkpt>
      <trkpt lat="49.12794" lon="1.81181">
        <ele>165</ele>
        <time>2015-09-06T08:39:59.000Z</time>
      </trkpt>
      <trkpt lat="49.12791" lon="1.81191">
        <ele>165</ele>
        <time>2015-09-06T08:40:02.000Z</time>
      </trkpt>
      <trkpt lat="49.1279" lon="1.81202">
        <ele>165</ele>
        <time>2015-09-06T08:40:03.000Z</time>
      </trkpt>
      <trkpt lat="49.12788" lon="1.81212">
        <ele>165</ele>
        <time>2015-09-06T08:40:05.000Z</time>
      </trkpt>
      <trkpt lat="49.12785" lon="1.81221">
        <ele>165</ele>
        <time>2015-09-06T08:40:08.000Z</time>
      </trkpt>
      <trkpt lat="49.12781" lon="1.8123">
        <ele>165</ele>
        <time>2015-09-06T08:40:09.000Z</time>
      </trkpt>
      <trkpt lat="49.12776" lon="1.81238">
        <ele>165</ele>
        <time>2015-09-06T08:40:11.000Z</time>
      </trkpt>
      <trkpt lat="49.1277" lon="1.81245">
        <ele>165</ele>
        <time>2015-09-06T08:40:14.000Z</time>
      </trkpt>
      <trkpt lat="49.12764" lon="1.81251">
        <ele>165</ele>
        <time>2015-09-06T08:40:15.000Z</time>
      </trkpt>
      <trkpt lat="49.12756" lon="1.81256">
        <ele>165</ele>
        <time>2015-09-06T08:40:17.000Z</time>
      </trkpt>
      <trkpt lat="49.12748" lon="1.8126">
        <ele>165</ele>
        <time>2015-09-06T08:40:20.000Z</time>
      </trkpt>
      <trkpt lat="49.1274" lon="1.81263">
        <ele>166</ele>
        <time>2015-09-06T08:40:21.000Z</time>
      </trkpt>
      <trkpt lat="49.12731" lon="1.81267">
        <ele>166</ele>
        <time>2015-09-06T08:40:23.000Z</time>
      </trkpt>
      <trkpt lat="49.12723" lon="1.81271">
        <ele>167</ele>
        <time>2015-09-06T08:40:26.000Z</time>
      </trkpt>
      <trkpt lat="49.12715" lon="1.81274">
        <ele>167</ele>
        <time>2015-09-06T08:40:27.000Z</time>
      </trkpt>
      <trkpt lat="49.12707" lon="1.81278">
        <ele>167</ele>
        <time>2015-09-06T08:40:30.000Z</time>
      </trkpt>
      <trkpt lat="49.127" lon="1.81285">
        <ele>167</ele>
        <time>2015-09-06T08:40:32.000Z</time>
      </trkpt>
      <trkpt lat="49.12693" lon="1.81292">
        <ele>168</ele>
        <time>2015-09-06T08:40:33.000Z</time>
      </trkpt>
      <trkpt lat="49.12688" lon="1.813">
        <ele>168</ele>
        <time>2015-09-06T08:40:35.000Z</time>
      </trkpt>
      <trkpt lat="49.12683" lon="1.81308">
        <ele>168</ele>
        <time>2015-09-06T08:40:38.000Z</time>
      </trkpt>
      <trkpt lat="49.12677" lon="1.81315">
        <ele>168</ele>
        <time>2015-09-06T08:40:39.000Z</time>
      </trkpt>
      <trkpt lat="49.12671" lon="1.81323">
        <ele>169</ele>
        <time>2015-09-06T08:40:41.000Z</time>
      </trkpt>
      <trkpt lat="49.12664" lon="1.81331">
        <ele>169</ele>
        <time>2015-09-06T08:40:43.000Z</time>
      </trkpt>
      <trkpt lat="49.12656" lon="1.8134">
        <ele>169</ele>
        <time>2015-09-06T08:40:46.000Z</time>
      </trkpt>
      <trkpt lat="49.1265" lon="1.8135">
        <ele>169</ele>
        <time>2015-09-06T08:40:47.000Z</time>
      </trkpt>
      <trkpt lat="49.12642" lon="1.81359">
        <ele>170</ele>
        <time>2015-09-06T08:40:49.000Z</time>
      </trkpt>
      <trkpt lat="49.12635" lon="1.81367">
        <ele>170</ele>
        <time>2015-09-06T08:40:52.000Z</time>
      </trkpt>
      <trkpt lat="49.12629" lon="1.81376">
        <ele>171</ele>
        <time>2015-09-06T08:40:53.000Z</time>
      </trkpt>
      <trkpt lat="49.12622" lon="1.81385">
        <ele>171</ele>
        <time>2015-09-06T08:40:55.000Z</time>
      </trkpt>
      <trkpt lat="49.12617" lon="1.81394">
        <ele>172</ele>
        <time>2015-09-06T08:40:57.000Z</time>
      </trkpt>
      <trkpt lat="49.1261" lon="1.81403">
        <ele>172</ele>
        <time>2015-09-06T08:40:59.000Z</time>
      </trkpt>
      <trkpt lat="49.12604" lon="1.81412">
        <ele>172</ele>
        <time>2015-09-06T08:41:01.000Z</time>
      </trkpt>
      <trkpt lat="49.12597" lon="1.81421">
        <ele>173</ele>
        <time>2015-09-06T08:41:04.000Z</time>
      </trkpt>
      <trkpt lat="49.12592" lon="1.8143">
        <ele>173</ele>
        <time>2015-09-06T08:41:05.000Z</time>
      </trkpt>
      <trkpt lat="49.12587" lon="1.81439">
        <ele>173</ele>
        <time>2015-09-06T08:41:07.000Z</time>
      </trkpt>
      <trkpt lat="49.12581" lon="1.81447">
        <ele>173</ele>
        <time>2015-09-06T08:41:09.000Z</time>
      </trkpt>
      <trkpt lat="49.12577" lon="1.81453">
        <ele>172</ele>
        <time>2015-09-06T08:41:11.000Z</time>
      </trkpt>
      <trkpt lat="49.12577" lon="1.81453">
        <ele>172</ele>
        <time>2015-09-06T08:41:13.000Z</time>
      </trkpt>
      <trkpt lat="49.12571" lon="1.81459">
        <ele>172</ele>
        <time>2015-09-06T08:41:15.000Z</time>
      </trkpt>
      <trkpt lat="49.12571" lon="1.81459">
        <ele>172</ele>
        <time>2015-09-06T08:41:17.000Z</time>
      </trkpt>
      <trkpt lat="49.12572" lon="1.81472">
        <ele>172</ele>
        <time>2015-09-06T08:41:20.000Z</time>
      </trkpt>
      <trkpt lat="49.1258" lon="1.81479">
        <ele>173</ele>
        <time>2015-09-06T08:41:21.000Z</time>
      </trkpt>
      <trkpt lat="49.12588" lon="1.81485">
        <ele>173</ele>
        <time>2015-09-06T08:41:23.000Z</time>
      </trkpt>
      <trkpt lat="49.12596" lon="1.81491">
        <ele>173</ele>
        <time>2015-09-06T08:41:26.000Z</time>
      </trkpt>
      <trkpt lat="49.12605" lon="1.81499">
        <ele>173</ele>
        <time>2015-09-06T08:41:27.000Z</time>
      </trkpt>
      <trkpt lat="49.12614" lon="1.81507">
        <ele>172</ele>
        <time>2015-09-06T08:41:29.000Z</time>
      </trkpt>
      <trkpt lat="49.12623" lon="1.81515">
        <ele>173</ele>
        <time>2015-09-06T08:41:32.000Z</time>
      </trkpt>
      <trkpt lat="49.12632" lon="1.81523">
        <ele>173</ele>
        <time>2015-09-06T08:41:33.000Z</time>
      </trkpt>
      <trkpt lat="49.12641" lon="1.81532">
        <ele>173</ele>
        <time>2015-09-06T08:41:35.000Z</time>
      </trkpt>
      <trkpt lat="49.1265" lon="1.81541">
        <ele>173</ele>
        <time>2015-09-06T08:41:38.000Z</time>
      </trkpt>
      <trkpt lat="49.12658" lon="1.8155">
        <ele>172</ele>
        <time>2015-09-06T08:41:39.000Z</time>
      </trkpt>
      <trkpt lat="49.12666" lon="1.81559">
        <ele>172</ele>
        <time>2015-09-06T08:41:41.000Z</time>
      </trkpt>
      <trkpt lat="49.12674" lon="1.81568">
        <ele>172</ele>
        <time>2015-09-06T08:41:43.000Z</time>
      </trkpt>
      <trkpt lat="49.12682" lon="1.81577">
        <ele>172</ele>
        <time>2015-09-06T08:41:45.000Z</time>
      </trkpt>
      <trkpt lat="49.12688" lon="1.81586">
        <ele>172</ele>
        <time>2015-09-06T08:41:47.000Z</time>
      </trkpt>
      <trkpt lat="49.12695" lon="1.81595">
        <ele>172</ele>
        <time>2015-09-06T08:41:50.000Z</time>
      </trkpt>
      <trkpt lat="49.12702" lon="1.81601">
        <ele>172</ele>
        <time>2015-09-06T08:41:51.000Z</time>
      </trkpt>
      <trkpt lat="49.12708" lon="1.81607">
        <ele>172</ele>
        <time>2015-09-06T08:41:53.000Z</time>
      </trkpt>
      <trkpt lat="49.12715" lon="1.81612">
        <ele>173</ele>
        <time>2015-09-06T08:41:56.000Z</time>
      </trkpt>
      <trkpt lat="49.12721" lon="1.81617">
        <ele>173</ele>
        <time>2015-09-06T08:41:57.000Z</time>
      </trkpt>
      <trkpt lat="49.12726" lon="1.81624">
        <ele>174</ele>
        <time>2015-09-06T08:41:59.000Z</time>
      </trkpt>
      <trkpt lat="49.12726" lon="1.81624">
        <ele>174</ele>
        <time>2015-09-06T08:42:02.000Z</time>
      </trkpt>
      <trkpt lat="49.12732" lon="1.81633">
        <ele>173</ele>
        <time>2015-09-06T08:42:03.000Z</time>
      </trkpt>
      <trkpt lat="49.12732" lon="1.81633">
        <ele>173</ele>
        <time>2015-09-06T08:42:05.000Z</time>
      </trkpt>
      <trkpt lat="49.12741" lon="1.81645">
        <ele>173</ele>
        <time>2015-09-06T08:42:07.000Z</time>
      </trkpt>
      <trkpt lat="49.12745" lon="1.81652">
        <ele>174</ele>
        <time>2015-09-06T08:42:10.000Z</time>
      </trkpt>
      <trkpt lat="49.1275" lon="1.8166">
        <ele>174</ele>
        <time>2015-09-06T08:42:11.000Z</time>
      </trkpt>
      <trkpt lat="49.12754" lon="1.81667">
        <ele>174</ele>
        <time>2015-09-06T08:42:13.000Z</time>
      </trkpt>
      <trkpt lat="49.12758" lon="1.81675">
        <ele>174</ele>
        <time>2015-09-06T08:42:16.000Z</time>
      </trkpt>
      <trkpt lat="49.12758" lon="1.81675">
        <ele>174</ele>
        <time>2015-09-06T08:42:17.000Z</time>
      </trkpt>
      <trkpt lat="49.12764" lon="1.81688">
        <ele>175</ele>
        <time>2015-09-06T08:42:20.000Z</time>
      </trkpt>
      <trkpt lat="49.12764" lon="1.81688">
        <ele>175</ele>
        <time>2015-09-06T08:42:21.000Z</time>
      </trkpt>
      <trkpt lat="49.12768" lon="1.81704">
        <ele>176</ele>
        <time>2015-09-06T08:42:23.000Z</time>
      </trkpt>
      <trkpt lat="49.12769" lon="1.81713">
        <ele>176</ele>
        <time>2015-09-06T08:42:25.000Z</time>
      </trkpt>
      <trkpt lat="49.12769" lon="1.81722">
        <ele>176</ele>
        <time>2015-09-06T08:42:27.000Z</time>
      </trkpt>
      <trkpt lat="49.12769" lon="1.81731">
        <ele>176</ele>
        <time>2015-09-06T08:42:29.000Z</time>
      </trkpt>
      <trkpt lat="49.12769" lon="1.8174">
        <ele>176</ele>
        <time>2015-09-06T08:42:31.000Z</time>
      </trkpt>
      <trkpt lat="49.12769" lon="1.8175">
        <ele>176</ele>
        <time>2015-09-06T08:42:33.000Z</time>
      </trkpt>
      <trkpt lat="49.1277" lon="1.81759">
        <ele>176</ele>
        <time>2015-09-06T08:42:35.000Z</time>
      </trkpt>
      <trkpt lat="49.1277" lon="1.81768">
        <ele>176</ele>
        <time>2015-09-06T08:42:37.000Z</time>
      </trkpt>
      <trkpt lat="49.1277" lon="1.81778">
        <ele>176</ele>
        <time>2015-09-06T08:42:39.000Z</time>
      </trkpt>
      <trkpt lat="49.12771" lon="1.81787">
        <ele>176</ele>
        <time>2015-09-06T08:42:42.000Z</time>
      </trkpt>
      <trkpt lat="49.12771" lon="1.81787">
        <ele>176</ele>
        <time>2015-09-06T08:42:43.000Z</time>
      </trkpt>
      <trkpt lat="49.1277" lon="1.81803">
        <ele>178</ele>
        <time>2015-09-06T08:42:45.000Z</time>
      </trkpt>
      <trkpt lat="49.12771" lon="1.81812">
        <ele>178</ele>
        <time>2015-09-06T08:42:47.000Z</time>
      </trkpt>
      <trkpt lat="49.12772" lon="1.81821">
        <ele>178</ele>
        <time>2015-09-06T08:42:50.000Z</time>
      </trkpt>
      <trkpt lat="49.12772" lon="1.8183">
        <ele>179</ele>
        <time>2015-09-06T08:42:51.000Z</time>
      </trkpt>
      <trkpt lat="49.12774" lon="1.81839">
        <ele>179</ele>
        <time>2015-09-06T08:42:53.000Z</time>
      </trkpt>
      <trkpt lat="49.12774" lon="1.81848">
        <ele>180</ele>
        <time>2015-09-06T08:42:56.000Z</time>
      </trkpt>
      <trkpt lat="49.12774" lon="1.81856">
        <ele>181</ele>
        <time>2015-09-06T08:42:57.000Z</time>
      </trkpt>
      <trkpt lat="49.12775" lon="1.81865">
        <ele>181</ele>
        <time>2015-09-06T08:42:59.000Z</time>
      </trkpt>
      <trkpt lat="49.12777" lon="1.81874">
        <ele>182</ele>
        <time>2015-09-06T08:43:02.000Z</time>
      </trkpt>
      <trkpt lat="49.12777" lon="1.81874">
        <ele>182</ele>
        <time>2015-09-06T08:43:03.000Z</time>
      </trkpt>
      <trkpt lat="49.12781" lon="1.81889">
        <ele>182</ele>
        <time>2015-09-06T08:43:05.000Z</time>
      </trkpt>
      <trkpt lat="49.12781" lon="1.81889">
        <ele>182</ele>
        <time>2015-09-06T08:43:08.000Z</time>
      </trkpt>
      <trkpt lat="49.12785" lon="1.81903">
        <ele>183</ele>
        <time>2015-09-06T08:43:09.000Z</time>
      </trkpt>
      <trkpt lat="49.1279" lon="1.81917">
        <ele>183</ele>
        <time>2015-09-06T08:43:14.000Z</time>
      </trkpt>
      <trkpt lat="49.12797" lon="1.81928">
        <ele>184</ele>
        <time>2015-09-06T08:43:17.000Z</time>
      </trkpt>
      <trkpt lat="49.12797" lon="1.81928">
        <ele>184</ele>
        <time>2015-09-06T08:43:20.000Z</time>
      </trkpt>
      <trkpt lat="49.12806" lon="1.81931">
        <ele>184</ele>
        <time>2015-09-06T08:43:22.000Z</time>
      </trkpt>
      <trkpt lat="49.12806" lon="1.81931">
        <ele>184</ele>
        <time>2015-09-06T08:43:24.000Z</time>
      </trkpt>
      <trkpt lat="49.12806" lon="1.81931">
        <ele>184</ele>
        <time>2015-09-06T08:43:26.000Z</time>
      </trkpt>
      <trkpt lat="49.12811" lon="1.81928">
        <ele>184</ele>
        <time>2015-09-06T08:46:20.000Z</time>
      </trkpt>
      <trkpt lat="49.12821" lon="1.81928">
        <ele>184</ele>
        <time>2015-09-06T08:46:24.000Z</time>
      </trkpt>
      <trkpt lat="49.12827" lon="1.81928">
        <ele>185</ele>
        <time>2015-09-06T08:46:26.000Z</time>
      </trkpt>
      <trkpt lat="49.12833" lon="1.81929">
        <ele>185</ele>
        <time>2015-09-06T08:46:28.000Z</time>
      </trkpt>
      <trkpt lat="49.12839" lon="1.81932">
        <ele>186</ele>
        <time>2015-09-06T08:46:30.000Z</time>
      </trkpt>
      <trkpt lat="49.12845" lon="1.81936">
        <ele>187</ele>
        <time>2015-09-06T08:46:32.000Z</time>
      </trkpt>
      <trkpt lat="49.12845" lon="1.81936">
        <ele>187</ele>
        <time>2015-09-06T08:46:34.000Z</time>
      </trkpt>
      <trkpt lat="49.12857" lon="1.81945">
        <ele>189</ele>
        <time>2015-09-06T08:46:36.000Z</time>
      </trkpt>
      <trkpt lat="49.12862" lon="1.81949">
        <ele>190</ele>
        <time>2015-09-06T08:46:38.000Z</time>
      </trkpt>
      <trkpt lat="49.12868" lon="1.81952">
        <ele>191</ele>
        <time>2015-09-06T08:46:40.000Z</time>
      </trkpt>
      <trkpt lat="49.12868" lon="1.81952">
        <ele>191</ele>
        <time>2015-09-06T08:46:42.000Z</time>
      </trkpt>
      <trkpt lat="49.12876" lon="1.81958">
        <ele>192</ele>
        <time>2015-09-06T08:46:44.000Z</time>
      </trkpt>
      <trkpt lat="49.12876" lon="1.81958">
        <ele>192</ele>
        <time>2015-09-06T08:46:46.000Z</time>
      </trkpt>
      <trkpt lat="49.12884" lon="1.81963">
        <ele>193</ele>
        <time>2015-09-06T08:46:48.000Z</time>
      </trkpt>
      <trkpt lat="49.12894" lon="1.81966">
        <ele>193</ele>
        <time>2015-09-06T08:46:52.000Z</time>
      </trkpt>
      <trkpt lat="49.12902" lon="1.81972">
        <ele>193</ele>
        <time>2015-09-06T08:46:56.000Z</time>
      </trkpt>
      <trkpt lat="49.1291" lon="1.81977">
        <ele>194</ele>
        <time>2015-09-06T08:47:00.000Z</time>
      </trkpt>
      <trkpt lat="49.1291" lon="1.81977">
        <ele>194</ele>
        <time>2015-09-06T08:47:02.000Z</time>
      </trkpt>
      <trkpt lat="49.12919" lon="1.81982">
        <ele>195</ele>
        <time>2015-09-06T08:47:04.000Z</time>
      </trkpt>
      <trkpt lat="49.1293" lon="1.81986">
        <ele>195</ele>
        <time>2015-09-06T08:47:08.000Z</time>
      </trkpt>
      <trkpt lat="49.12935" lon="1.81989">
        <ele>195</ele>
        <time>2015-09-06T08:47:10.000Z</time>
      </trkpt>
      <trkpt lat="49.12944" lon="1.81993">
        <ele>196</ele>
        <time>2015-09-06T08:47:14.000Z</time>
      </trkpt>
      <trkpt lat="49.12944" lon="1.81993">
        <ele>196</ele>
        <time>2015-09-06T08:47:16.000Z</time>
      </trkpt>
      <trkpt lat="49.12953" lon="1.81997">
        <ele>197</ele>
        <time>2015-09-06T08:47:18.000Z</time>
      </trkpt>
      <trkpt lat="49.12953" lon="1.81997">
        <ele>197</ele>
        <time>2015-09-06T08:47:20.000Z</time>
      </trkpt>
      <trkpt lat="49.12962" lon="1.82002">
        <ele>197</ele>
        <time>2015-09-06T08:47:22.000Z</time>
      </trkpt>
      <trkpt lat="49.12962" lon="1.82002">
        <ele>197</ele>
        <time>2015-09-06T08:47:24.000Z</time>
      </trkpt>
      <trkpt lat="49.12971" lon="1.82006">
        <ele>197</ele>
        <time>2015-09-06T08:47:26.000Z</time>
      </trkpt>
      <trkpt lat="49.12976" lon="1.82009">
        <ele>197</ele>
        <time>2015-09-06T08:47:28.000Z</time>
      </trkpt>
      <trkpt lat="49.12986" lon="1.82013">
        <ele>197</ele>
        <time>2015-09-06T08:47:32.000Z</time>
      </trkpt>
      <trkpt lat="49.12986" lon="1.82013">
        <ele>197</ele>
        <time>2015-09-06T08:47:34.000Z</time>
      </trkpt>
      <trkpt lat="49.12996" lon="1.82016">
        <ele>198</ele>
        <time>2015-09-06T08:47:36.000Z</time>
      </trkpt>
      <trkpt lat="49.12996" lon="1.82016">
        <ele>198</ele>
        <time>2015-09-06T08:47:38.000Z</time>
      </trkpt>
      <trkpt lat="49.13" lon="1.82019">
        <ele>198</ele>
        <time>2015-09-06T08:47:40.000Z</time>
      </trkpt>
      <trkpt lat="49.13005" lon="1.82022">
        <ele>198</ele>
        <time>2015-09-06T08:47:42.000Z</time>
      </trkpt>
      <trkpt lat="49.13009" lon="1.82025">
        <ele>198</ele>
        <time>2015-09-06T08:47:44.000Z</time>
      </trkpt>
      <trkpt lat="49.13013" lon="1.82028">
        <ele>198</ele>
        <time>2015-09-06T08:47:46.000Z</time>
      </trkpt>
      <trkpt lat="49.13018" lon="1.82032">
        <ele>198</ele>
        <time>2015-09-06T08:47:48.000Z</time>
      </trkpt>
      <trkpt lat="49.13027" lon="1.82041">
        <ele>198</ele>
        <time>2015-09-06T08:47:50.000Z</time>
      </trkpt>
      <trkpt lat="49.13036" lon="1.82052">
        <ele>198</ele>
        <time>2015-09-06T08:47:54.000Z</time>
      </trkpt>
      <trkpt lat="49.1304" lon="1.82058">
        <ele>198</ele>
        <time>2015-09-06T08:47:56.000Z</time>
      </trkpt>
      <trkpt lat="49.13045" lon="1.82064">
        <ele>198</ele>
        <time>2015-09-06T08:47:58.000Z</time>
      </trkpt>
      <trkpt lat="49.13049" lon="1.8207">
        <ele>198</ele>
        <time>2015-09-06T08:48:00.000Z</time>
      </trkpt>
      <trkpt lat="49.13055" lon="1.82076">
        <ele>198</ele>
        <time>2015-09-06T08:48:02.000Z</time>
      </trkpt>
      <trkpt lat="49.1306" lon="1.82083">
        <ele>198</ele>
        <time>2015-09-06T08:48:04.000Z</time>
      </trkpt>
      <trkpt lat="49.13065" lon="1.8209">
        <ele>198</ele>
        <time>2015-09-06T08:48:06.000Z</time>
      </trkpt>
      <trkpt lat="49.13071" lon="1.82097">
        <ele>199</ele>
        <time>2015-09-06T08:48:08.000Z</time>
      </trkpt>
      <trkpt lat="49.13076" lon="1.82103">
        <ele>199</ele>
        <time>2015-09-06T08:48:10.000Z</time>
      </trkpt>
      <trkpt lat="49.13082" lon="1.82109">
        <ele>199</ele>
        <time>2015-09-06T08:48:12.000Z</time>
      </trkpt>
      <trkpt lat="49.13088" lon="1.82116">
        <ele>199</ele>
        <time>2015-09-06T08:48:14.000Z</time>
      </trkpt>
      <trkpt lat="49.13094" lon="1.82123">
        <ele>199</ele>
        <time>2015-09-06T08:48:16.000Z</time>
      </trkpt>
      <trkpt lat="49.131" lon="1.8213">
        <ele>199</ele>
        <time>2015-09-06T08:48:18.000Z</time>
      </trkpt>
      <trkpt lat="49.13106" lon="1.82137">
        <ele>199</ele>
        <time>2015-09-06T08:48:20.000Z</time>
      </trkpt>
      <trkpt lat="49.13112" lon="1.82144">
        <ele>199</ele>
        <time>2015-09-06T08:48:22.000Z</time>
      </trkpt>
      <trkpt lat="49.13118" lon="1.82151">
        <ele>199</ele>
        <time>2015-09-06T08:48:24.000Z</time>
      </trkpt>
      <trkpt lat="49.13124" lon="1.82157">
        <ele>199</ele>
        <time>2015-09-06T08:48:26.000Z</time>
      </trkpt>
      <trkpt lat="49.1313" lon="1.82164">
        <ele>199</ele>
        <time>2015-09-06T08:48:28.000Z</time>
      </trkpt>
      <trkpt lat="49.13136" lon="1.8217">
        <ele>199</ele>
        <time>2015-09-06T08:48:30.000Z</time>
      </trkpt>
      <trkpt lat="49.13142" lon="1.82177">
        <ele>199</ele>
        <time>2015-09-06T08:48:32.000Z</time>
      </trkpt>
      <trkpt lat="49.13149" lon="1.82183">
        <ele>199</ele>
        <time>2015-09-06T08:48:34.000Z</time>
      </trkpt>
      <trkpt lat="49.13155" lon="1.82189">
        <ele>199</ele>
        <time>2015-09-06T08:48:36.000Z</time>
      </trkpt>
      <trkpt lat="49.13162" lon="1.82195">
        <ele>199</ele>
        <time>2015-09-06T08:48:38.000Z</time>
      </trkpt>
      <trkpt lat="49.13169" lon="1.822">
        <ele>200</ele>
        <time>2015-09-06T08:48:40.000Z</time>
      </trkpt>
      <trkpt lat="49.13176" lon="1.82205">
        <ele>200</ele>
        <time>2015-09-06T08:48:42.000Z</time>
      </trkpt>
      <trkpt lat="49.13183" lon="1.8221">
        <ele>200</ele>
        <time>2015-09-06T08:48:44.000Z</time>
      </trkpt>
      <trkpt lat="49.1319" lon="1.82214">
        <ele>200</ele>
        <time>2015-09-06T08:48:46.000Z</time>
      </trkpt>
      <trkpt lat="49.13197" lon="1.82219">
        <ele>199</ele>
        <time>2015-09-06T08:48:48.000Z</time>
      </trkpt>
      <trkpt lat="49.13204" lon="1.82224">
        <ele>199</ele>
        <time>2015-09-06T08:48:50.000Z</time>
      </trkpt>
      <trkpt lat="49.13211" lon="1.82228">
        <ele>199</ele>
        <time>2015-09-06T08:48:52.000Z</time>
      </trkpt>
      <trkpt lat="49.13218" lon="1.82233">
        <ele>200</ele>
        <time>2015-09-06T08:48:54.000Z</time>
      </trkpt>
      <trkpt lat="49.13225" lon="1.82237">
        <ele>200</ele>
        <time>2015-09-06T08:48:56.000Z</time>
      </trkpt>
      <trkpt lat="49.13232" lon="1.82242">
        <ele>200</ele>
        <time>2015-09-06T08:48:58.000Z</time>
      </trkpt>
      <trkpt lat="49.13238" lon="1.82247">
        <ele>200</ele>
        <time>2015-09-06T08:49:00.000Z</time>
      </trkpt>
      <trkpt lat="49.13245" lon="1.82251">
        <ele>200</ele>
        <time>2015-09-06T08:49:02.000Z</time>
      </trkpt>
      <trkpt lat="49.13252" lon="1.82256">
        <ele>200</ele>
        <time>2015-09-06T08:49:04.000Z</time>
      </trkpt>
      <trkpt lat="49.13259" lon="1.82261">
        <ele>200</ele>
        <time>2015-09-06T08:49:06.000Z</time>
      </trkpt>
      <trkpt lat="49.13266" lon="1.82266">
        <ele>200</ele>
        <time>2015-09-06T08:49:08.000Z</time>
      </trkpt>
      <trkpt lat="49.13273" lon="1.82271">
        <ele>200</ele>
        <time>2015-09-06T08:49:10.000Z</time>
      </trkpt>
      <trkpt lat="49.1328" lon="1.82276">
        <ele>200</ele>
        <time>2015-09-06T08:49:12.000Z</time>
      </trkpt>
      <trkpt lat="49.13287" lon="1.82281">
        <ele>200</ele>
        <time>2015-09-06T08:49:14.000Z</time>
      </trkpt>
      <trkpt lat="49.13294" lon="1.82286">
        <ele>200</ele>
        <time>2015-09-06T08:49:16.000Z</time>
      </trkpt>
      <trkpt lat="49.13301" lon="1.8229">
        <ele>201</ele>
        <time>2015-09-06T08:49:18.000Z</time>
      </trkpt>
      <trkpt lat="49.13308" lon="1.82295">
        <ele>201</ele>
        <time>2015-09-06T08:49:20.000Z</time>
      </trkpt>
      <trkpt lat="49.13314" lon="1.82299">
        <ele>201</ele>
        <time>2015-09-06T08:49:22.000Z</time>
      </trkpt>
      <trkpt lat="49.13321" lon="1.82302">
        <ele>201</ele>
        <time>2015-09-06T08:49:24.000Z</time>
      </trkpt>
      <trkpt lat="49.13327" lon="1.82307">
        <ele>201</ele>
        <time>2015-09-06T08:49:26.000Z</time>
      </trkpt>
      <trkpt lat="49.13333" lon="1.82312">
        <ele>201</ele>
        <time>2015-09-06T08:49:28.000Z</time>
      </trkpt>
      <trkpt lat="49.13339" lon="1.82317">
        <ele>202</ele>
        <time>2015-09-06T08:49:30.000Z</time>
      </trkpt>
      <trkpt lat="49.13346" lon="1.82322">
        <ele>202</ele>
        <time>2015-09-06T08:49:32.000Z</time>
      </trkpt>
      <trkpt lat="49.13352" lon="1.82326">
        <ele>202</ele>
        <time>2015-09-06T08:49:34.000Z</time>
      </trkpt>
      <trkpt lat="49.13358" lon="1.82331">
        <ele>202</ele>
        <time>2015-09-06T08:49:36.000Z</time>
      </trkpt>
      <trkpt lat="49.13364" lon="1.82335">
        <ele>202</ele>
        <time>2015-09-06T08:49:38.000Z</time>
      </trkpt>
      <trkpt lat="49.13371" lon="1.8234">
        <ele>202</ele>
        <time>2015-09-06T08:49:40.000Z</time>
      </trkpt>
      <trkpt lat="49.13377" lon="1.82344">
        <ele>202</ele>
        <time>2015-09-06T08:49:42.000Z</time>
      </trkpt>
      <trkpt lat="49.13383" lon="1.82349">
        <ele>202</ele>
        <time>2015-09-06T08:49:44.000Z</time>
      </trkpt>
      <trkpt lat="49.13389" lon="1.82354">
        <ele>202</ele>
        <time>2015-09-06T08:49:46.000Z</time>
      </trkpt>
      <trkpt lat="49.13395" lon="1.82358">
        <ele>202</ele>
        <time>2015-09-06T08:49:48.000Z</time>
      </trkpt>
      <trkpt lat="49.13401" lon="1.82363">
        <ele>202</ele>
        <time>2015-09-06T08:49:50.000Z</time>
      </trkpt>
      <trkpt lat="49.13407" lon="1.82368">
        <ele>202</ele>
        <time>2015-09-06T08:49:52.000Z</time>
      </trkpt>
      <trkpt lat="49.13414" lon="1.82373">
        <ele>202</ele>
        <time>2015-09-06T08:49:54.000Z</time>
      </trkpt>
      <trkpt lat="49.1342" lon="1.82378">
        <ele>202</ele>
        <time>2015-09-06T08:49:56.000Z</time>
      </trkpt>
      <trkpt lat="49.13427" lon="1.82383">
        <ele>202</ele>
        <time>2015-09-06T08:49:58.000Z</time>
      </trkpt>
      <trkpt lat="49.13433" lon="1.82389">
        <ele>202</ele>
        <time>2015-09-06T08:50:00.000Z</time>
      </trkpt>
      <trkpt lat="49.1344" lon="1.82394">
        <ele>202</ele>
        <time>2015-09-06T08:50:02.000Z</time>
      </trkpt>
      <trkpt lat="49.13447" lon="1.82399">
        <ele>202</ele>
        <time>2015-09-06T08:50:04.000Z</time>
      </trkpt>
      <trkpt lat="49.13454" lon="1.82404">
        <ele>202</ele>
        <time>2015-09-06T08:50:06.000Z</time>
      </trkpt>
      <trkpt lat="49.13461" lon="1.82409">
        <ele>202</ele>
        <time>2015-09-06T08:50:08.000Z</time>
      </trkpt>
      <trkpt lat="49.13467" lon="1.82414">
        <ele>202</ele>
        <time>2015-09-06T08:50:10.000Z</time>
      </trkpt>
      <trkpt lat="49.13474" lon="1.82419">
        <ele>202</ele>
        <time>2015-09-06T08:50:12.000Z</time>
      </trkpt>
      <trkpt lat="49.13481" lon="1.82424">
        <ele>202</ele>
        <time>2015-09-06T08:50:14.000Z</time>
      </trkpt>
      <trkpt lat="49.13488" lon="1.82429">
        <ele>202</ele>
        <time>2015-09-06T08:50:16.000Z</time>
      </trkpt>
      <trkpt lat="49.13494" lon="1.82434">
        <ele>202</ele>
        <time>2015-09-06T08:50:18.000Z</time>
      </trkpt>
      <trkpt lat="49.13501" lon="1.82439">
        <ele>202</ele>
        <time>2015-09-06T08:50:20.000Z</time>
      </trkpt>
      <trkpt lat="49.13508" lon="1.82444">
        <ele>202</ele>
        <time>2015-09-06T08:50:22.000Z</time>
      </trkpt>
      <trkpt lat="49.13515" lon="1.8245">
        <ele>202</ele>
        <time>2015-09-06T08:50:24.000Z</time>
      </trkpt>
      <trkpt lat="49.13522" lon="1.82456">
        <ele>202</ele>
        <time>2015-09-06T08:50:26.000Z</time>
      </trkpt>
      <trkpt lat="49.13528" lon="1.82461">
        <ele>202</ele>
        <time>2015-09-06T08:50:28.000Z</time>
      </trkpt>
      <trkpt lat="49.13535" lon="1.82466">
        <ele>202</ele>
        <time>2015-09-06T08:50:30.000Z</time>
      </trkpt>
      <trkpt lat="49.13542" lon="1.82471">
        <ele>202</ele>
        <time>2015-09-06T08:50:32.000Z</time>
      </trkpt>
      <trkpt lat="49.13549" lon="1.82475">
        <ele>202</ele>
        <time>2015-09-06T08:50:34.000Z</time>
      </trkpt>
      <trkpt lat="49.13556" lon="1.8248">
        <ele>202</ele>
        <time>2015-09-06T08:50:36.000Z</time>
      </trkpt>
      <trkpt lat="49.13562" lon="1.82485">
        <ele>202</ele>
        <time>2015-09-06T08:50:38.000Z</time>
      </trkpt>
      <trkpt lat="49.13569" lon="1.8249">
        <ele>202</ele>
        <time>2015-09-06T08:50:40.000Z</time>
      </trkpt>
      <trkpt lat="49.13576" lon="1.82495">
        <ele>202</ele>
        <time>2015-09-06T08:50:42.000Z</time>
      </trkpt>
      <trkpt lat="49.13582" lon="1.82501">
        <ele>203</ele>
        <time>2015-09-06T08:50:44.000Z</time>
      </trkpt>
      <trkpt lat="49.13588" lon="1.82507">
        <ele>203</ele>
        <time>2015-09-06T08:50:46.000Z</time>
      </trkpt>
      <trkpt lat="49.13592" lon="1.82516">
        <ele>203</ele>
        <time>2015-09-06T08:50:48.000Z</time>
      </trkpt>
      <trkpt lat="49.13594" lon="1.82527">
        <ele>203</ele>
        <time>2015-09-06T08:50:50.000Z</time>
      </trkpt>
      <trkpt lat="49.13596" lon="1.82537">
        <ele>203</ele>
        <time>2015-09-06T08:50:52.000Z</time>
      </trkpt>
      <trkpt lat="49.13594" lon="1.82547">
        <ele>203</ele>
        <time>2015-09-06T08:50:54.000Z</time>
      </trkpt>
      <trkpt lat="49.13591" lon="1.82556">
        <ele>203</ele>
        <time>2015-09-06T08:50:56.000Z</time>
      </trkpt>
      <trkpt lat="49.13587" lon="1.82567">
        <ele>203</ele>
        <time>2015-09-06T08:50:58.000Z</time>
      </trkpt>
      <trkpt lat="49.13583" lon="1.82577">
        <ele>204</ele>
        <time>2015-09-06T08:51:00.000Z</time>
      </trkpt>
      <trkpt lat="49.13578" lon="1.82588">
        <ele>204</ele>
        <time>2015-09-06T08:51:02.000Z</time>
      </trkpt>
      <trkpt lat="49.13573" lon="1.82599">
        <ele>204</ele>
        <time>2015-09-06T08:51:04.000Z</time>
      </trkpt>
      <trkpt lat="49.13569" lon="1.8261">
        <ele>204</ele>
        <time>2015-09-06T08:51:06.000Z</time>
      </trkpt>
      <trkpt lat="49.13564" lon="1.82621">
        <ele>204</ele>
        <time>2015-09-06T08:51:08.000Z</time>
      </trkpt>
      <trkpt lat="49.13559" lon="1.82632">
        <ele>204</ele>
        <time>2015-09-06T08:51:10.000Z</time>
      </trkpt>
      <trkpt lat="49.13554" lon="1.82643">
        <ele>204</ele>
        <time>2015-09-06T08:51:12.000Z</time>
      </trkpt>
      <trkpt lat="49.1355" lon="1.82655">
        <ele>204</ele>
        <time>2015-09-06T08:51:14.000Z</time>
      </trkpt>
      <trkpt lat="49.13546" lon="1.82667">
        <ele>204</ele>
        <time>2015-09-06T08:51:16.000Z</time>
      </trkpt>
      <trkpt lat="49.13541" lon="1.82679">
        <ele>204</ele>
        <time>2015-09-06T08:51:18.000Z</time>
      </trkpt>
      <trkpt lat="49.13536" lon="1.82691">
        <ele>204</ele>
        <time>2015-09-06T08:51:20.000Z</time>
      </trkpt>
      <trkpt lat="49.1353" lon="1.82704">
        <ele>204</ele>
        <time>2015-09-06T08:51:22.000Z</time>
      </trkpt>
      <trkpt lat="49.13526" lon="1.82717">
        <ele>204</ele>
        <time>2015-09-06T08:51:24.000Z</time>
      </trkpt>
      <trkpt lat="49.13521" lon="1.8273">
        <ele>204</ele>
        <time>2015-09-06T08:51:26.000Z</time>
      </trkpt>
      <trkpt lat="49.13515" lon="1.82743">
        <ele>204</ele>
        <time>2015-09-06T08:51:28.000Z</time>
      </trkpt>
      <trkpt lat="49.1351" lon="1.82757">
        <ele>204</ele>
        <time>2015-09-06T08:51:30.000Z</time>
      </trkpt>
      <trkpt lat="49.13504" lon="1.8277">
        <ele>204</ele>
        <time>2015-09-06T08:51:32.000Z</time>
      </trkpt>
      <trkpt lat="49.13499" lon="1.82784">
        <ele>204</ele>
        <time>2015-09-06T08:51:34.000Z</time>
      </trkpt>
      <trkpt lat="49.13494" lon="1.82798">
        <ele>204</ele>
        <time>2015-09-06T08:51:36.000Z</time>
      </trkpt>
      <trkpt lat="49.13488" lon="1.82812">
        <ele>205</ele>
        <time>2015-09-06T08:51:38.000Z</time>
      </trkpt>
      <trkpt lat="49.13482" lon="1.82826">
        <ele>205</ele>
        <time>2015-09-06T08:51:40.000Z</time>
      </trkpt>
      <trkpt lat="49.13477" lon="1.82841">
        <ele>205</ele>
        <time>2015-09-06T08:51:42.000Z</time>
      </trkpt>
      <trkpt lat="49.13471" lon="1.82855">
        <ele>205</ele>
        <time>2015-09-06T08:51:44.000Z</time>
      </trkpt>
      <trkpt lat="49.13465" lon="1.82869">
        <ele>205</ele>
        <time>2015-09-06T08:51:46.000Z</time>
      </trkpt>
      <trkpt lat="49.13459" lon="1.82883">
        <ele>205</ele>
        <time>2015-09-06T08:51:48.000Z</time>
      </trkpt>
      <trkpt lat="49.13454" lon="1.82898">
        <ele>205</ele>
        <time>2015-09-06T08:51:50.000Z</time>
      </trkpt>
      <trkpt lat="49.13448" lon="1.82913">
        <ele>205</ele>
        <time>2015-09-06T08:51:52.000Z</time>
      </trkpt>
      <trkpt lat="49.13442" lon="1.82928">
        <ele>205</ele>
        <time>2015-09-06T08:51:54.000Z</time>
      </trkpt>
      <trkpt lat="49.13437" lon="1.82943">
        <ele>205</ele>
        <time>2015-09-06T08:51:56.000Z</time>
      </trkpt>
      <trkpt lat="49.13431" lon="1.82959">
        <ele>205</ele>
        <time>2015-09-06T08:51:58.000Z</time>
      </trkpt>
      <trkpt lat="49.13425" lon="1.82974">
        <ele>205</ele>
        <time>2015-09-06T08:52:00.000Z</time>
      </trkpt>
      <trkpt lat="49.1342" lon="1.82989">
        <ele>205</ele>
        <time>2015-09-06T08:52:02.000Z</time>
      </trkpt>
      <trkpt lat="49.13415" lon="1.83005">
        <ele>205</ele>
        <time>2015-09-06T08:52:04.000Z</time>
      </trkpt>
      <trkpt lat="49.1341" lon="1.8302">
        <ele>205</ele>
        <time>2015-09-06T08:52:06.000Z</time>
      </trkpt>
      <trkpt lat="49.13405" lon="1.83036">
        <ele>205</ele>
        <time>2015-09-06T08:52:08.000Z</time>
      </trkpt>
      <trkpt lat="49.134" lon="1.83051">
        <ele>205</ele>
        <time>2015-09-06T08:52:10.000Z</time>
      </trkpt>
      <trkpt lat="49.13395" lon="1.83067">
        <ele>205</ele>
        <time>2015-09-06T08:52:12.000Z</time>
      </trkpt>
      <trkpt lat="49.13391" lon="1.83082">
        <ele>205</ele>
        <time>2015-09-06T08:52:14.000Z</time>
      </trkpt>
      <trkpt lat="49.13386" lon="1.83098">
        <ele>205</ele>
        <time>2015-09-06T08:52:16.000Z</time>
      </trkpt>
      <trkpt lat="49.1338" lon="1.83113">
        <ele>205</ele>
        <time>2015-09-06T08:52:18.000Z</time>
      </trkpt>
      <trkpt lat="49.13375" lon="1.83129">
        <ele>205</ele>
        <time>2015-09-06T08:52:20.000Z</time>
      </trkpt>
      <trkpt lat="49.13371" lon="1.83145">
        <ele>205</ele>
        <time>2015-09-06T08:52:22.000Z</time>
      </trkpt>
      <trkpt lat="49.13369" lon="1.83162">
        <ele>205</ele>
        <time>2015-09-06T08:52:24.000Z</time>
      </trkpt>
      <trkpt lat="49.13368" lon="1.8318">
        <ele>205</ele>
        <time>2015-09-06T08:52:26.000Z</time>
      </trkpt>
      <trkpt lat="49.13365" lon="1.83197">
        <ele>206</ele>
        <time>2015-09-06T08:52:28.000Z</time>
      </trkpt>
      <trkpt lat="49.1336" lon="1.83213">
        <ele>206</ele>
        <time>2015-09-06T08:52:30.000Z</time>
      </trkpt>
      <trkpt lat="49.13355" lon="1.83229">
        <ele>206</ele>
        <time>2015-09-06T08:52:32.000Z</time>
      </trkpt>
      <trkpt lat="49.13349" lon="1.83244">
        <ele>206</ele>
        <time>2015-09-06T08:52:34.000Z</time>
      </trkpt>
      <trkpt lat="49.13343" lon="1.8326">
        <ele>206</ele>
        <time>2015-09-06T08:52:36.000Z</time>
      </trkpt>
      <trkpt lat="49.13336" lon="1.83276">
        <ele>206</ele>
        <time>2015-09-06T08:52:38.000Z</time>
      </trkpt>
      <trkpt lat="49.1333" lon="1.83292">
        <ele>206</ele>
        <time>2015-09-06T08:52:40.000Z</time>
      </trkpt>
      <trkpt lat="49.13323" lon="1.83309">
        <ele>206</ele>
        <time>2015-09-06T08:52:42.000Z</time>
      </trkpt>
      <trkpt lat="49.13316" lon="1.83325">
        <ele>206</ele>
        <time>2015-09-06T08:52:44.000Z</time>
      </trkpt>
      <trkpt lat="49.1331" lon="1.83342">
        <ele>206</ele>
        <time>2015-09-06T08:52:46.000Z</time>
      </trkpt>
      <trkpt lat="49.13304" lon="1.83358">
        <ele>207</ele>
        <time>2015-09-06T08:52:48.000Z</time>
      </trkpt>
      <trkpt lat="49.13298" lon="1.83374">
        <ele>207</ele>
        <time>2015-09-06T08:52:50.000Z</time>
      </trkpt>
      <trkpt lat="49.13291" lon="1.8339">
        <ele>207</ele>
        <time>2015-09-06T08:52:52.000Z</time>
      </trkpt>
      <trkpt lat="49.13285" lon="1.83407">
        <ele>207</ele>
        <time>2015-09-06T08:52:54.000Z</time>
      </trkpt>
      <trkpt lat="49.13278" lon="1.83423">
        <ele>206</ele>
        <time>2015-09-06T08:52:56.000Z</time>
      </trkpt>
      <trkpt lat="49.13271" lon="1.83441">
        <ele>206</ele>
        <time>2015-09-06T08:52:58.000Z</time>
      </trkpt>
      <trkpt lat="49.13264" lon="1.83458">
        <ele>206</ele>
        <time>2015-09-06T08:53:00.000Z</time>
      </trkpt>
      <trkpt lat="49.13257" lon="1.83475">
        <ele>206</ele>
        <time>2015-09-06T08:53:02.000Z</time>
      </trkpt>
      <trkpt lat="49.1325" lon="1.83493">
        <ele>206</ele>
        <time>2015-09-06T08:53:04.000Z</time>
      </trkpt>
      <trkpt lat="49.13243" lon="1.83512">
        <ele>206</ele>
        <time>2015-09-06T08:53:06.000Z</time>
      </trkpt>
      <trkpt lat="49.13236" lon="1.8353">
        <ele>206</ele>
        <time>2015-09-06T08:53:08.000Z</time>
      </trkpt>
      <trkpt lat="49.13229" lon="1.83549">
        <ele>205</ele>
        <time>2015-09-06T08:53:10.000Z</time>
      </trkpt>
      <trkpt lat="49.13221" lon="1.83568">
        <ele>205</ele>
        <time>2015-09-06T08:53:12.000Z</time>
      </trkpt>
      <trkpt lat="49.13214" lon="1.83587">
        <ele>205</ele>
        <time>2015-09-06T08:53:14.000Z</time>
      </trkpt>
      <trkpt lat="49.13206" lon="1.83606">
        <ele>205</ele>
        <time>2015-09-06T08:53:16.000Z</time>
      </trkpt>
      <trkpt lat="49.13198" lon="1.83625">
        <ele>205</ele>
        <time>2015-09-06T08:53:18.000Z</time>
      </trkpt>
      <trkpt lat="49.13191" lon="1.83644">
        <ele>205</ele>
        <time>2015-09-06T08:53:20.000Z</time>
      </trkpt>
      <trkpt lat="49.13184" lon="1.83663">
        <ele>205</ele>
        <time>2015-09-06T08:53:22.000Z</time>
      </trkpt>
      <trkpt lat="49.13178" lon="1.83681">
        <ele>205</ele>
        <time>2015-09-06T08:53:24.000Z</time>
      </trkpt>
      <trkpt lat="49.13171" lon="1.83697">
        <ele>205</ele>
        <time>2015-09-06T08:53:26.000Z</time>
      </trkpt>
      <trkpt lat="49.13165" lon="1.83713">
        <ele>205</ele>
        <time>2015-09-06T08:53:28.000Z</time>
      </trkpt>
      <trkpt lat="49.13158" lon="1.83728">
        <ele>205</ele>
        <time>2015-09-06T08:53:30.000Z</time>
      </trkpt>
      <trkpt lat="49.13152" lon="1.83743">
        <ele>205</ele>
        <time>2015-09-06T08:53:32.000Z</time>
      </trkpt>
      <trkpt lat="49.13146" lon="1.83759">
        <ele>205</ele>
        <time>2015-09-06T08:53:34.000Z</time>
      </trkpt>
      <trkpt lat="49.1314" lon="1.83775">
        <ele>205</ele>
        <time>2015-09-06T08:53:36.000Z</time>
      </trkpt>
      <trkpt lat="49.13133" lon="1.83792">
        <ele>205</ele>
        <time>2015-09-06T08:53:38.000Z</time>
      </trkpt>
      <trkpt lat="49.13126" lon="1.83807">
        <ele>204</ele>
        <time>2015-09-06T08:53:40.000Z</time>
      </trkpt>
      <trkpt lat="49.13119" lon="1.83823">
        <ele>204</ele>
        <time>2015-09-06T08:53:42.000Z</time>
      </trkpt>
      <trkpt lat="49.13112" lon="1.8384">
        <ele>204</ele>
        <time>2015-09-06T08:53:44.000Z</time>
      </trkpt>
      <trkpt lat="49.13105" lon="1.83857">
        <ele>204</ele>
        <time>2015-09-06T08:53:46.000Z</time>
      </trkpt>
      <trkpt lat="49.13099" lon="1.83874">
        <ele>204</ele>
        <time>2015-09-06T08:53:48.000Z</time>
      </trkpt>
      <trkpt lat="49.13092" lon="1.83891">
        <ele>204</ele>
        <time>2015-09-06T08:53:50.000Z</time>
      </trkpt>
      <trkpt lat="49.13085" lon="1.83908">
        <ele>204</ele>
        <time>2015-09-06T08:53:52.000Z</time>
      </trkpt>
      <trkpt lat="49.13079" lon="1.83925">
        <ele>204</ele>
        <time>2015-09-06T08:53:54.000Z</time>
      </trkpt>
      <trkpt lat="49.13073" lon="1.83942">
        <ele>204</ele>
        <time>2015-09-06T08:53:56.000Z</time>
      </trkpt>
      <trkpt lat="49.13067" lon="1.83957">
        <ele>204</ele>
        <time>2015-09-06T08:53:58.000Z</time>
      </trkpt>
      <trkpt lat="49.13061" lon="1.83971">
        <ele>204</ele>
        <time>2015-09-06T08:54:00.000Z</time>
      </trkpt>
      <trkpt lat="49.13054" lon="1.83984">
        <ele>204</ele>
        <time>2015-09-06T08:54:02.000Z</time>
      </trkpt>
      <trkpt lat="49.13048" lon="1.83996">
        <ele>204</ele>
        <time>2015-09-06T08:54:04.000Z</time>
      </trkpt>
      <trkpt lat="49.13046" lon="1.84009">
        <ele>204</ele>
        <time>2015-09-06T08:54:06.000Z</time>
      </trkpt>
      <trkpt lat="49.13051" lon="1.84019">
        <ele>204</ele>
        <time>2015-09-06T08:54:08.000Z</time>
      </trkpt>
      <trkpt lat="49.1306" lon="1.84022">
        <ele>204</ele>
        <time>2015-09-06T08:54:10.000Z</time>
      </trkpt>
      <trkpt lat="49.13071" lon="1.84024">
        <ele>204</ele>
        <time>2015-09-06T08:54:12.000Z</time>
      </trkpt>
      <trkpt lat="49.13081" lon="1.84028">
        <ele>203</ele>
        <time>2015-09-06T08:54:14.000Z</time>
      </trkpt>
      <trkpt lat="49.13091" lon="1.84033">
        <ele>203</ele>
        <time>2015-09-06T08:54:16.000Z</time>
      </trkpt>
      <trkpt lat="49.13101" lon="1.84039">
        <ele>203</ele>
        <time>2015-09-06T08:54:18.000Z</time>
      </trkpt>
      <trkpt lat="49.13111" lon="1.84044">
        <ele>203</ele>
        <time>2015-09-06T08:54:20.000Z</time>
      </trkpt>
      <trkpt lat="49.1312" lon="1.8405">
        <ele>202</ele>
        <time>2015-09-06T08:54:22.000Z</time>
      </trkpt>
      <trkpt lat="49.1313" lon="1.84056">
        <ele>202</ele>
        <time>2015-09-06T08:54:24.000Z</time>
      </trkpt>
      <trkpt lat="49.13139" lon="1.84062">
        <ele>202</ele>
        <time>2015-09-06T08:54:26.000Z</time>
      </trkpt>
      <trkpt lat="49.13148" lon="1.84068">
        <ele>202</ele>
        <time>2015-09-06T08:54:28.000Z</time>
      </trkpt>
      <trkpt lat="49.13157" lon="1.84073">
        <ele>201</ele>
        <time>2015-09-06T08:54:30.000Z</time>
      </trkpt>
      <trkpt lat="49.13166" lon="1.84079">
        <ele>201</ele>
        <time>2015-09-06T08:54:32.000Z</time>
      </trkpt>
      <trkpt lat="49.13174" lon="1.84085">
        <ele>201</ele>
        <time>2015-09-06T08:54:34.000Z</time>
      </trkpt>
      <trkpt lat="49.13183" lon="1.8409">
        <ele>200</ele>
        <time>2015-09-06T08:54:36.000Z</time>
      </trkpt>
      <trkpt lat="49.13192" lon="1.84094">
        <ele>200</ele>
        <time>2015-09-06T08:54:38.000Z</time>
      </trkpt>
      <trkpt lat="49.132" lon="1.841">
        <ele>200</ele>
        <time>2015-09-06T08:54:40.000Z</time>
      </trkpt>
      <trkpt lat="49.13209" lon="1.84105">
        <ele>200</ele>
        <time>2015-09-06T08:54:42.000Z</time>
      </trkpt>
      <trkpt lat="49.13217" lon="1.8411">
        <ele>200</ele>
        <time>2015-09-06T08:54:44.000Z</time>
      </trkpt>
      <trkpt lat="49.13225" lon="1.84115">
        <ele>199</ele>
        <time>2015-09-06T08:54:46.000Z</time>
      </trkpt>
      <trkpt lat="49.13234" lon="1.84121">
        <ele>199</ele>
        <time>2015-09-06T08:54:48.000Z</time>
      </trkpt>
      <trkpt lat="49.13242" lon="1.84126">
        <ele>199</ele>
        <time>2015-09-06T08:54:50.000Z</time>
      </trkpt>
      <trkpt lat="49.1325" lon="1.84131">
        <ele>199</ele>
        <time>2015-09-06T08:54:52.000Z</time>
      </trkpt>
      <trkpt lat="49.13259" lon="1.84136">
        <ele>198</ele>
        <time>2015-09-06T08:54:54.000Z</time>
      </trkpt>
      <trkpt lat="49.13267" lon="1.84141">
        <ele>199</ele>
        <time>2015-09-06T08:54:56.000Z</time>
      </trkpt>
      <trkpt lat="49.13276" lon="1.84144">
        <ele>198</ele>
        <time>2015-09-06T08:54:58.000Z</time>
      </trkpt>
      <trkpt lat="49.13284" lon="1.84144">
        <ele>198</ele>
        <time>2015-09-06T08:55:00.000Z</time>
      </trkpt>
      <trkpt lat="49.13292" lon="1.84141">
        <ele>198</ele>
        <time>2015-09-06T08:55:02.000Z</time>
      </trkpt>
      <trkpt lat="49.13299" lon="1.84134">
        <ele>198</ele>
        <time>2015-09-06T08:55:04.000Z</time>
      </trkpt>
      <trkpt lat="49.13305" lon="1.84124">
        <ele>198</ele>
        <time>2015-09-06T08:55:06.000Z</time>
      </trkpt>
      <trkpt lat="49.13306" lon="1.84111">
        <ele>197</ele>
        <time>2015-09-06T08:55:08.000Z</time>
      </trkpt>
      <trkpt lat="49.13306" lon="1.841">
        <ele>198</ele>
        <time>2015-09-06T08:55:10.000Z</time>
      </trkpt>
      <trkpt lat="49.13306" lon="1.8409">
        <ele>197</ele>
        <time>2015-09-06T08:55:12.000Z</time>
      </trkpt>
      <trkpt lat="49.13306" lon="1.8408">
        <ele>197</ele>
        <time>2015-09-06T08:55:14.000Z</time>
      </trkpt>
      <trkpt lat="49.13306" lon="1.8407">
        <ele>197</ele>
        <time>2015-09-06T08:55:16.000Z</time>
      </trkpt>
      <trkpt lat="49.13305" lon="1.8406">
        <ele>197</ele>
        <time>2015-09-06T08:55:18.000Z</time>
      </trkpt>
      <trkpt lat="49.13305" lon="1.8405">
        <ele>197</ele>
        <time>2015-09-06T08:55:20.000Z</time>
      </trkpt>
      <trkpt lat="49.13305" lon="1.84039">
        <ele>197</ele>
        <time>2015-09-06T08:55:22.000Z</time>
      </trkpt>
      <trkpt lat="49.13305" lon="1.84029">
        <ele>197</ele>
        <time>2015-09-06T08:55:24.000Z</time>
      </trkpt>
      <trkpt lat="49.13306" lon="1.84018">
        <ele>197</ele>
        <time>2015-09-06T08:55:26.000Z</time>
      </trkpt>
      <trkpt lat="49.13306" lon="1.84007">
        <ele>197</ele>
        <time>2015-09-06T08:55:28.000Z</time>
      </trkpt>
      <trkpt lat="49.13306" lon="1.83997">
        <ele>197</ele>
        <time>2015-09-06T08:55:30.000Z</time>
      </trkpt>
      <trkpt lat="49.13307" lon="1.83986">
        <ele>197</ele>
        <time>2015-09-06T08:55:32.000Z</time>
      </trkpt>
      <trkpt lat="49.13307" lon="1.83975">
        <ele>196</ele>
        <time>2015-09-06T08:55:34.000Z</time>
      </trkpt>
      <trkpt lat="49.13307" lon="1.83963">
        <ele>196</ele>
        <time>2015-09-06T08:55:36.000Z</time>
      </trkpt>
      <trkpt lat="49.13307" lon="1.83951">
        <ele>196</ele>
        <time>2015-09-06T08:55:38.000Z</time>
      </trkpt>
      <trkpt lat="49.13308" lon="1.83939">
        <ele>196</ele>
        <time>2015-09-06T08:55:40.000Z</time>
      </trkpt>
      <trkpt lat="49.13309" lon="1.83927">
        <ele>196</ele>
        <time>2015-09-06T08:55:42.000Z</time>
      </trkpt>
      <trkpt lat="49.1331" lon="1.83915">
        <ele>196</ele>
        <time>2015-09-06T08:55:44.000Z</time>
      </trkpt>
      <trkpt lat="49.13311" lon="1.83903">
        <ele>196</ele>
        <time>2015-09-06T08:55:46.000Z</time>
      </trkpt>
      <trkpt lat="49.13312" lon="1.83891">
        <ele>196</ele>
        <time>2015-09-06T08:55:48.000Z</time>
      </trkpt>
      <trkpt lat="49.13314" lon="1.83879">
        <ele>196</ele>
        <time>2015-09-06T08:55:50.000Z</time>
      </trkpt>
      <trkpt lat="49.13315" lon="1.83867">
        <ele>196</ele>
        <time>2015-09-06T08:55:52.000Z</time>
      </trkpt>
      <trkpt lat="49.13317" lon="1.83855">
        <ele>196</ele>
        <time>2015-09-06T08:55:54.000Z</time>
      </trkpt>
      <trkpt lat="49.13318" lon="1.83843">
        <ele>196</ele>
        <time>2015-09-06T08:55:56.000Z</time>
      </trkpt>
      <trkpt lat="49.13319" lon="1.83832">
        <ele>196</ele>
        <time>2015-09-06T08:55:58.000Z</time>
      </trkpt>
      <trkpt lat="49.13321" lon="1.8382">
        <ele>196</ele>
        <time>2015-09-06T08:56:00.000Z</time>
      </trkpt>
      <trkpt lat="49.13322" lon="1.83809">
        <ele>196</ele>
        <time>2015-09-06T08:56:02.000Z</time>
      </trkpt>
      <trkpt lat="49.13324" lon="1.83797">
        <ele>196</ele>
        <time>2015-09-06T08:56:04.000Z</time>
      </trkpt>
      <trkpt lat="49.13325" lon="1.83786">
        <ele>197</ele>
        <time>2015-09-06T08:56:06.000Z</time>
      </trkpt>
      <trkpt lat="49.13327" lon="1.83774">
        <ele>197</ele>
        <time>2015-09-06T08:56:08.000Z</time>
      </trkpt>
      <trkpt lat="49.13328" lon="1.83763">
        <ele>197</ele>
        <time>2015-09-06T08:56:10.000Z</time>
      </trkpt>
      <trkpt lat="49.13329" lon="1.83752">
        <ele>197</ele>
        <time>2015-09-06T08:56:12.000Z</time>
      </trkpt>
      <trkpt lat="49.1333" lon="1.83741">
        <ele>197</ele>
        <time>2015-09-06T08:56:14.000Z</time>
      </trkpt>
      <trkpt lat="49.13332" lon="1.8373">
        <ele>197</ele>
        <time>2015-09-06T08:56:16.000Z</time>
      </trkpt>
      <trkpt lat="49.13334" lon="1.83719">
        <ele>198</ele>
        <time>2015-09-06T08:56:18.000Z</time>
      </trkpt>
      <trkpt lat="49.13335" lon="1.83708">
        <ele>198</ele>
        <time>2015-09-06T08:56:20.000Z</time>
      </trkpt>
      <trkpt lat="49.13335" lon="1.83698">
        <ele>198</ele>
        <time>2015-09-06T08:56:22.000Z</time>
      </trkpt>
      <trkpt lat="49.13336" lon="1.83688">
        <ele>198</ele>
        <time>2015-09-06T08:56:24.000Z</time>
      </trkpt>
      <trkpt lat="49.13337" lon="1.83678">
        <ele>198</ele>
        <time>2015-09-06T08:56:26.000Z</time>
      </trkpt>
      <trkpt lat="49.13338" lon="1.83668">
        <ele>199</ele>
        <time>2015-09-06T08:56:28.000Z</time>
      </trkpt>
      <trkpt lat="49.1334" lon="1.83658">
        <ele>199</ele>
        <time>2015-09-06T08:56:30.000Z</time>
      </trkpt>
      <trkpt lat="49.13342" lon="1.83648">
        <ele>199</ele>
        <time>2015-09-06T08:56:32.000Z</time>
      </trkpt>
      <trkpt lat="49.13344" lon="1.83639">
        <ele>200</ele>
        <time>2015-09-06T08:56:34.000Z</time>
      </trkpt>
      <trkpt lat="49.13345" lon="1.83629">
        <ele>200</ele>
        <time>2015-09-06T08:56:36.000Z</time>
      </trkpt>
      <trkpt lat="49.13346" lon="1.83619">
        <ele>200</ele>
        <time>2015-09-06T08:56:38.000Z</time>
      </trkpt>
      <trkpt lat="49.13348" lon="1.8361">
        <ele>200</ele>
        <time>2015-09-06T08:56:40.000Z</time>
      </trkpt>
      <trkpt lat="49.13349" lon="1.836">
        <ele>200</ele>
        <time>2015-09-06T08:56:42.000Z</time>
      </trkpt>
      <trkpt lat="49.1335" lon="1.8359">
        <ele>200</ele>
        <time>2015-09-06T08:56:44.000Z</time>
      </trkpt>
      <trkpt lat="49.13351" lon="1.83581">
        <ele>200</ele>
        <time>2015-09-06T08:56:46.000Z</time>
      </trkpt>
      <trkpt lat="49.13352" lon="1.83571">
        <ele>201</ele>
        <time>2015-09-06T08:56:48.000Z</time>
      </trkpt>
      <trkpt lat="49.13354" lon="1.83561">
        <ele>200</ele>
        <time>2015-09-06T08:56:50.000Z</time>
      </trkpt>
      <trkpt lat="49.13355" lon="1.83551">
        <ele>201</ele>
        <time>2015-09-06T08:56:52.000Z</time>
      </trkpt>
      <trkpt lat="49.13356" lon="1.83541">
        <ele>201</ele>
        <time>2015-09-06T08:56:54.000Z</time>
      </trkpt>
      <trkpt lat="49.13358" lon="1.83531">
        <ele>201</ele>
        <time>2015-09-06T08:56:56.000Z</time>
      </trkpt>
      <trkpt lat="49.13359" lon="1.83521">
        <ele>201</ele>
        <time>2015-09-06T08:56:58.000Z</time>
      </trkpt>
      <trkpt lat="49.13361" lon="1.83511">
        <ele>201</ele>
        <time>2015-09-06T08:57:00.000Z</time>
      </trkpt>
      <trkpt lat="49.13362" lon="1.83501">
        <ele>201</ele>
        <time>2015-09-06T08:57:02.000Z</time>
      </trkpt>
      <trkpt lat="49.13363" lon="1.83491">
        <ele>201</ele>
        <time>2015-09-06T08:57:04.000Z</time>
      </trkpt>
      <trkpt lat="49.13364" lon="1.83481">
        <ele>201</ele>
        <time>2015-09-06T08:57:06.000Z</time>
      </trkpt>
      <trkpt lat="49.13366" lon="1.83471">
        <ele>201</ele>
        <time>2015-09-06T08:57:08.000Z</time>
      </trkpt>
      <trkpt lat="49.13367" lon="1.83461">
        <ele>201</ele>
        <time>2015-09-06T08:57:10.000Z</time>
      </trkpt>
      <trkpt lat="49.13368" lon="1.83451">
        <ele>201</ele>
        <time>2015-09-06T08:57:12.000Z</time>
      </trkpt>
      <trkpt lat="49.13369" lon="1.83441">
        <ele>202</ele>
        <time>2015-09-06T08:57:14.000Z</time>
      </trkpt>
      <trkpt lat="49.13371" lon="1.8343">
        <ele>202</ele>
        <time>2015-09-06T08:57:16.000Z</time>
      </trkpt>
      <trkpt lat="49.13372" lon="1.8342">
        <ele>202</ele>
        <time>2015-09-06T08:57:18.000Z</time>
      </trkpt>
      <trkpt lat="49.13374" lon="1.8341">
        <ele>202</ele>
        <time>2015-09-06T08:57:20.000Z</time>
      </trkpt>
      <trkpt lat="49.13375" lon="1.834">
        <ele>202</ele>
        <time>2015-09-06T08:57:22.000Z</time>
      </trkpt>
      <trkpt lat="49.13377" lon="1.83389">
        <ele>202</ele>
        <time>2015-09-06T08:57:24.000Z</time>
      </trkpt>
      <trkpt lat="49.13379" lon="1.83379">
        <ele>202</ele>
        <time>2015-09-06T08:57:26.000Z</time>
      </trkpt>
      <trkpt lat="49.13381" lon="1.83368">
        <ele>202</ele>
        <time>2015-09-06T08:57:28.000Z</time>
      </trkpt>
      <trkpt lat="49.13383" lon="1.83358">
        <ele>202</ele>
        <time>2015-09-06T08:57:30.000Z</time>
      </trkpt>
      <trkpt lat="49.13385" lon="1.83348">
        <ele>203</ele>
        <time>2015-09-06T08:57:32.000Z</time>
      </trkpt>
      <trkpt lat="49.13387" lon="1.83338">
        <ele>203</ele>
        <time>2015-09-06T08:57:34.000Z</time>
      </trkpt>
      <trkpt lat="49.13389" lon="1.83328">
        <ele>203</ele>
        <time>2015-09-06T08:57:36.000Z</time>
      </trkpt>
      <trkpt lat="49.13391" lon="1.83318">
        <ele>203</ele>
        <time>2015-09-06T08:57:38.000Z</time>
      </trkpt>
      <trkpt lat="49.13392" lon="1.83308">
        <ele>203</ele>
        <time>2015-09-06T08:57:40.000Z</time>
      </trkpt>
      <trkpt lat="49.13394" lon="1.83298">
        <ele>203</ele>
        <time>2015-09-06T08:57:42.000Z</time>
      </trkpt>
      <trkpt lat="49.13396" lon="1.83288">
        <ele>203</ele>
        <time>2015-09-06T08:57:44.000Z</time>
      </trkpt>
      <trkpt lat="49.13398" lon="1.83278">
        <ele>204</ele>
        <time>2015-09-06T08:57:46.000Z</time>
      </trkpt>
      <trkpt lat="49.134" lon="1.83268">
        <ele>204</ele>
        <time>2015-09-06T08:57:48.000Z</time>
      </trkpt>
      <trkpt lat="49.13403" lon="1.83258">
        <ele>204</ele>
        <time>2015-09-06T08:57:50.000Z</time>
      </trkpt>
      <trkpt lat="49.13405" lon="1.83247">
        <ele>204</ele>
        <time>2015-09-06T08:57:52.000Z</time>
      </trkpt>
      <trkpt lat="49.13407" lon="1.83237">
        <ele>204</ele>
        <time>2015-09-06T08:57:54.000Z</time>
      </trkpt>
      <trkpt lat="49.13409" lon="1.83227">
        <ele>204</ele>
        <time>2015-09-06T08:57:56.000Z</time>
      </trkpt>
      <trkpt lat="49.13412" lon="1.83216">
        <ele>204</ele>
        <time>2015-09-06T08:57:58.000Z</time>
      </trkpt>
      <trkpt lat="49.13414" lon="1.83206">
        <ele>204</ele>
        <time>2015-09-06T08:58:00.000Z</time>
      </trkpt>
      <trkpt lat="49.13417" lon="1.83195">
        <ele>205</ele>
        <time>2015-09-06T08:58:02.000Z</time>
      </trkpt>
      <trkpt lat="49.13419" lon="1.83184">
        <ele>205</ele>
        <time>2015-09-06T08:58:04.000Z</time>
      </trkpt>
      <trkpt lat="49.13422" lon="1.83174">
        <ele>205</ele>
        <time>2015-09-06T08:58:06.000Z</time>
      </trkpt>
      <trkpt lat="49.13425" lon="1.83163">
        <ele>205</ele>
        <time>2015-09-06T08:58:08.000Z</time>
      </trkpt>
      <trkpt lat="49.13428" lon="1.83152">
        <ele>205</ele>
        <time>2015-09-06T08:58:10.000Z</time>
      </trkpt>
      <trkpt lat="49.13431" lon="1.83142">
        <ele>205</ele>
        <time>2015-09-06T08:58:12.000Z</time>
      </trkpt>
      <trkpt lat="49.13435" lon="1.83131">
        <ele>205</ele>
        <time>2015-09-06T08:58:14.000Z</time>
      </trkpt>
      <trkpt lat="49.13438" lon="1.83121">
        <ele>205</ele>
        <time>2015-09-06T08:58:16.000Z</time>
      </trkpt>
      <trkpt lat="49.13441" lon="1.83111">
        <ele>205</ele>
        <time>2015-09-06T08:58:18.000Z</time>
      </trkpt>
      <trkpt lat="49.13443" lon="1.831">
        <ele>205</ele>
        <time>2015-09-06T08:58:20.000Z</time>
      </trkpt>
      <trkpt lat="49.13447" lon="1.8309">
        <ele>205</ele>
        <time>2015-09-06T08:58:22.000Z</time>
      </trkpt>
      <trkpt lat="49.13449" lon="1.83079">
        <ele>205</ele>
        <time>2015-09-06T08:58:24.000Z</time>
      </trkpt>
      <trkpt lat="49.13452" lon="1.83069">
        <ele>205</ele>
        <time>2015-09-06T08:58:26.000Z</time>
      </trkpt>
      <trkpt lat="49.13455" lon="1.83058">
        <ele>205</ele>
        <time>2015-09-06T08:58:28.000Z</time>
      </trkpt>
      <trkpt lat="49.13458" lon="1.83048">
        <ele>205</ele>
        <time>2015-09-06T08:58:30.000Z</time>
      </trkpt>
      <trkpt lat="49.13461" lon="1.83037">
        <ele>205</ele>
        <time>2015-09-06T08:58:32.000Z</time>
      </trkpt>
      <trkpt lat="49.13464" lon="1.83027">
        <ele>205</ele>
        <time>2015-09-06T08:58:34.000Z</time>
      </trkpt>
      <trkpt lat="49.13468" lon="1.83017">
        <ele>205</ele>
        <time>2015-09-06T08:58:36.000Z</time>
      </trkpt>
      <trkpt lat="49.13471" lon="1.83007">
        <ele>205</ele>
        <time>2015-09-06T08:58:38.000Z</time>
      </trkpt>
      <trkpt lat="49.13474" lon="1.82996">
        <ele>205</ele>
        <time>2015-09-06T08:58:40.000Z</time>
      </trkpt>
      <trkpt lat="49.13478" lon="1.82986">
        <ele>205</ele>
        <time>2015-09-06T08:58:42.000Z</time>
      </trkpt>
      <trkpt lat="49.13481" lon="1.82975">
        <ele>205</ele>
        <time>2015-09-06T08:58:44.000Z</time>
      </trkpt>
      <trkpt lat="49.13484" lon="1.82965">
        <ele>205</ele>
        <time>2015-09-06T08:58:46.000Z</time>
      </trkpt>
      <trkpt lat="49.13488" lon="1.82955">
        <ele>205</ele>
        <time>2015-09-06T08:58:48.000Z</time>
      </trkpt>
      <trkpt lat="49.13491" lon="1.82945">
        <ele>205</ele>
        <time>2015-09-06T08:58:50.000Z</time>
      </trkpt>
      <trkpt lat="49.13495" lon="1.82935">
        <ele>205</ele>
        <time>2015-09-06T08:58:52.000Z</time>
      </trkpt>
      <trkpt lat="49.13498" lon="1.82924">
        <ele>205</ele>
        <time>2015-09-06T08:58:54.000Z</time>
      </trkpt>
      <trkpt lat="49.13502" lon="1.82914">
        <ele>205</ele>
        <time>2015-09-06T08:58:56.000Z</time>
      </trkpt>
      <trkpt lat="49.13506" lon="1.82903">
        <ele>205</ele>
        <time>2015-09-06T08:58:58.000Z</time>
      </trkpt>
      <trkpt lat="49.13509" lon="1.82893">
        <ele>205</ele>
        <time>2015-09-06T08:59:00.000Z</time>
      </trkpt>
      <trkpt lat="49.13514" lon="1.82883">
        <ele>205</ele>
        <time>2015-09-06T08:59:02.000Z</time>
      </trkpt>
      <trkpt lat="49.13517" lon="1.82872">
        <ele>205</ele>
        <time>2015-09-06T08:59:04.000Z</time>
      </trkpt>
      <trkpt lat="49.13521" lon="1.82861">
        <ele>205</ele>
        <time>2015-09-06T08:59:06.000Z</time>
      </trkpt>
      <trkpt lat="49.13524" lon="1.8285">
        <ele>205</ele>
        <time>2015-09-06T08:59:08.000Z</time>
      </trkpt>
      <trkpt lat="49.13528" lon="1.8284">
        <ele>205</ele>
        <time>2015-09-06T08:59:10.000Z</time>
      </trkpt>
      <trkpt lat="49.13533" lon="1.8283">
        <ele>205</ele>
        <time>2015-09-06T08:59:12.000Z</time>
      </trkpt>
      <trkpt lat="49.13536" lon="1.8282">
        <ele>205</ele>
        <time>2015-09-06T08:59:14.000Z</time>
      </trkpt>
      <trkpt lat="49.1354" lon="1.8281">
        <ele>205</ele>
        <time>2015-09-06T08:59:16.000Z</time>
      </trkpt>
      <trkpt lat="49.13544" lon="1.828">
        <ele>205</ele>
        <time>2015-09-06T08:59:18.000Z</time>
      </trkpt>
      <trkpt lat="49.13549" lon="1.8279">
        <ele>205</ele>
        <time>2015-09-06T08:59:20.000Z</time>
      </trkpt>
      <trkpt lat="49.13552" lon="1.82781">
        <ele>205</ele>
        <time>2015-09-06T08:59:22.000Z</time>
      </trkpt>
      <trkpt lat="49.13556" lon="1.82771">
        <ele>205</ele>
        <time>2015-09-06T08:59:24.000Z</time>
      </trkpt>
      <trkpt lat="49.1356" lon="1.82761">
        <ele>205</ele>
        <time>2015-09-06T08:59:26.000Z</time>
      </trkpt>
      <trkpt lat="49.13564" lon="1.82751">
        <ele>205</ele>
        <time>2015-09-06T08:59:28.000Z</time>
      </trkpt>
      <trkpt lat="49.13568" lon="1.82741">
        <ele>205</ele>
        <time>2015-09-06T08:59:30.000Z</time>
      </trkpt>
      <trkpt lat="49.13572" lon="1.8273">
        <ele>205</ele>
        <time>2015-09-06T08:59:32.000Z</time>
      </trkpt>
      <trkpt lat="49.13576" lon="1.8272">
        <ele>205</ele>
        <time>2015-09-06T08:59:34.000Z</time>
      </trkpt>
      <trkpt lat="49.1358" lon="1.8271">
        <ele>205</ele>
        <time>2015-09-06T08:59:36.000Z</time>
      </trkpt>
      <trkpt lat="49.13584" lon="1.82699">
        <ele>205</ele>
        <time>2015-09-06T08:59:38.000Z</time>
      </trkpt>
      <trkpt lat="49.13588" lon="1.82688">
        <ele>204</ele>
        <time>2015-09-06T08:59:40.000Z</time>
      </trkpt>
      <trkpt lat="49.13593" lon="1.82678">
        <ele>204</ele>
        <time>2015-09-06T08:59:42.000Z</time>
      </trkpt>
      <trkpt lat="49.13596" lon="1.82668">
        <ele>204</ele>
        <time>2015-09-06T08:59:44.000Z</time>
      </trkpt>
      <trkpt lat="49.13601" lon="1.82658">
        <ele>204</ele>
        <time>2015-09-06T08:59:46.000Z</time>
      </trkpt>
      <trkpt lat="49.13605" lon="1.82648">
        <ele>205</ele>
        <time>2015-09-06T08:59:48.000Z</time>
      </trkpt>
      <trkpt lat="49.13609" lon="1.82639">
        <ele>205</ele>
        <time>2015-09-06T08:59:50.000Z</time>
      </trkpt>
      <trkpt lat="49.13612" lon="1.82629">
        <ele>205</ele>
        <time>2015-09-06T08:59:52.000Z</time>
      </trkpt>
      <trkpt lat="49.13616" lon="1.82619">
        <ele>205</ele>
        <time>2015-09-06T08:59:54.000Z</time>
      </trkpt>
      <trkpt lat="49.1362" lon="1.82608">
        <ele>205</ele>
        <time>2015-09-06T08:59:56.000Z</time>
      </trkpt>
      <trkpt lat="49.13624" lon="1.82598">
        <ele>205</ele>
        <time>2015-09-06T08:59:58.000Z</time>
      </trkpt>
      <trkpt lat="49.13628" lon="1.82588">
        <ele>205</ele>
        <time>2015-09-06T09:00:00.000Z</time>
      </trkpt>
      <trkpt lat="49.13632" lon="1.82578">
        <ele>205</ele>
        <time>2015-09-06T09:00:02.000Z</time>
      </trkpt>
      <trkpt lat="49.13636" lon="1.82568">
        <ele>205</ele>
        <time>2015-09-06T09:00:04.000Z</time>
      </trkpt>
      <trkpt lat="49.1364" lon="1.82557">
        <ele>205</ele>
        <time>2015-09-06T09:00:06.000Z</time>
      </trkpt>
      <trkpt lat="49.13644" lon="1.82547">
        <ele>205</ele>
        <time>2015-09-06T09:00:08.000Z</time>
      </trkpt>
      <trkpt lat="49.13648" lon="1.82536">
        <ele>204</ele>
        <time>2015-09-06T09:00:10.000Z</time>
      </trkpt>
      <trkpt lat="49.13652" lon="1.82526">
        <ele>204</ele>
        <time>2015-09-06T09:00:12.000Z</time>
      </trkpt>
      <trkpt lat="49.13656" lon="1.82517">
        <ele>204</ele>
        <time>2015-09-06T09:00:14.000Z</time>
      </trkpt>
      <trkpt lat="49.1366" lon="1.82508">
        <ele>204</ele>
        <time>2015-09-06T09:00:16.000Z</time>
      </trkpt>
      <trkpt lat="49.13664" lon="1.82499">
        <ele>204</ele>
        <time>2015-09-06T09:00:18.000Z</time>
      </trkpt>
      <trkpt lat="49.13668" lon="1.82489">
        <ele>204</ele>
        <time>2015-09-06T09:00:20.000Z</time>
      </trkpt>
      <trkpt lat="49.13672" lon="1.8248">
        <ele>204</ele>
        <time>2015-09-06T09:00:22.000Z</time>
      </trkpt>
      <trkpt lat="49.13676" lon="1.82471">
        <ele>204</ele>
        <time>2015-09-06T09:00:24.000Z</time>
      </trkpt>
      <trkpt lat="49.13679" lon="1.82461">
        <ele>204</ele>
        <time>2015-09-06T09:00:26.000Z</time>
      </trkpt>
      <trkpt lat="49.13683" lon="1.82451">
        <ele>204</ele>
        <time>2015-09-06T09:00:28.000Z</time>
      </trkpt>
      <trkpt lat="49.13687" lon="1.82442">
        <ele>204</ele>
        <time>2015-09-06T09:00:30.000Z</time>
      </trkpt>
      <trkpt lat="49.1369" lon="1.82432">
        <ele>203</ele>
        <time>2015-09-06T09:00:32.000Z</time>
      </trkpt>
      <trkpt lat="49.13694" lon="1.82422">
        <ele>203</ele>
        <time>2015-09-06T09:00:34.000Z</time>
      </trkpt>
      <trkpt lat="49.13698" lon="1.82412">
        <ele>203</ele>
        <time>2015-09-06T09:00:36.000Z</time>
      </trkpt>
      <trkpt lat="49.13702" lon="1.82402">
        <ele>203</ele>
        <time>2015-09-06T09:00:38.000Z</time>
      </trkpt>
      <trkpt lat="49.13706" lon="1.82392">
        <ele>203</ele>
        <time>2015-09-06T09:00:40.000Z</time>
      </trkpt>
      <trkpt lat="49.1371" lon="1.82383">
        <ele>203</ele>
        <time>2015-09-06T09:00:42.000Z</time>
      </trkpt>
      <trkpt lat="49.13714" lon="1.82373">
        <ele>203</ele>
        <time>2015-09-06T09:00:44.000Z</time>
      </trkpt>
      <trkpt lat="49.13718" lon="1.82363">
        <ele>203</ele>
        <time>2015-09-06T09:00:46.000Z</time>
      </trkpt>
      <trkpt lat="49.13722" lon="1.82354">
        <ele>203</ele>
        <time>2015-09-06T09:00:48.000Z</time>
      </trkpt>
      <trkpt lat="49.13726" lon="1.82344">
        <ele>203</ele>
        <time>2015-09-06T09:00:50.000Z</time>
      </trkpt>
      <trkpt lat="49.1373" lon="1.82334">
        <ele>203</ele>
        <time>2015-09-06T09:00:52.000Z</time>
      </trkpt>
      <trkpt lat="49.13734" lon="1.82324">
        <ele>203</ele>
        <time>2015-09-06T09:00:54.000Z</time>
      </trkpt>
      <trkpt lat="49.13738" lon="1.82314">
        <ele>203</ele>
        <time>2015-09-06T09:00:56.000Z</time>
      </trkpt>
      <trkpt lat="49.13742" lon="1.82304">
        <ele>203</ele>
        <time>2015-09-06T09:00:58.000Z</time>
      </trkpt>
      <trkpt lat="49.13746" lon="1.82294">
        <ele>203</ele>
        <time>2015-09-06T09:01:00.000Z</time>
      </trkpt>
      <trkpt lat="49.1375" lon="1.82283">
        <ele>203</ele>
        <time>2015-09-06T09:01:02.000Z</time>
      </trkpt>
      <trkpt lat="49.13755" lon="1.82272">
        <ele>203</ele>
        <time>2015-09-06T09:01:04.000Z</time>
      </trkpt>
      <trkpt lat="49.13759" lon="1.82261">
        <ele>203</ele>
        <time>2015-09-06T09:01:06.000Z</time>
      </trkpt>
      <trkpt lat="49.13763" lon="1.8225">
        <ele>203</ele>
        <time>2015-09-06T09:01:08.000Z</time>
      </trkpt>
      <trkpt lat="49.13768" lon="1.82238">
        <ele>202</ele>
        <time>2015-09-06T09:01:10.000Z</time>
      </trkpt>
      <trkpt lat="49.13772" lon="1.82227">
        <ele>202</ele>
        <time>2015-09-06T09:01:12.000Z</time>
      </trkpt>
      <trkpt lat="49.13777" lon="1.82216">
        <ele>202</ele>
        <time>2015-09-06T09:01:14.000Z</time>
      </trkpt>
      <trkpt lat="49.13781" lon="1.82204">
        <ele>202</ele>
        <time>2015-09-06T09:01:16.000Z</time>
      </trkpt>
      <trkpt lat="49.13786" lon="1.82192">
        <ele>202</ele>
        <time>2015-09-06T09:01:18.000Z</time>
      </trkpt>
      <trkpt lat="49.1379" lon="1.82181">
        <ele>202</ele>
        <time>2015-09-06T09:01:20.000Z</time>
      </trkpt>
      <trkpt lat="49.13795" lon="1.82169">
        <ele>202</ele>
        <time>2015-09-06T09:01:22.000Z</time>
      </trkpt>
      <trkpt lat="49.13799" lon="1.82158">
        <ele>201</ele>
        <time>2015-09-06T09:01:24.000Z</time>
      </trkpt>
      <trkpt lat="49.13804" lon="1.82146">
        <ele>201</ele>
        <time>2015-09-06T09:01:26.000Z</time>
      </trkpt>
      <trkpt lat="49.13809" lon="1.82133">
        <ele>201</ele>
        <time>2015-09-06T09:01:28.000Z</time>
      </trkpt>
      <trkpt lat="49.13813" lon="1.8212">
        <ele>201</ele>
        <time>2015-09-06T09:01:30.000Z</time>
      </trkpt>
      <trkpt lat="49.13819" lon="1.82107">
        <ele>201</ele>
        <time>2015-09-06T09:01:32.000Z</time>
      </trkpt>
      <trkpt lat="49.13824" lon="1.82094">
        <ele>201</ele>
        <time>2015-09-06T09:01:34.000Z</time>
      </trkpt>
      <trkpt lat="49.13829" lon="1.82081">
        <ele>200</ele>
        <time>2015-09-06T09:01:36.000Z</time>
      </trkpt>
      <trkpt lat="49.13834" lon="1.82068">
        <ele>200</ele>
        <time>2015-09-06T09:01:38.000Z</time>
      </trkpt>
      <trkpt lat="49.13839" lon="1.82055">
        <ele>200</ele>
        <time>2015-09-06T09:01:40.000Z</time>
      </trkpt>
      <trkpt lat="49.13844" lon="1.82041">
        <ele>200</ele>
        <time>2015-09-06T09:01:42.000Z</time>
      </trkpt>
      <trkpt lat="49.1385" lon="1.82027">
        <ele>200</ele>
        <time>2015-09-06T09:01:44.000Z</time>
      </trkpt>
      <trkpt lat="49.13855" lon="1.82013">
        <ele>199</ele>
        <time>2015-09-06T09:01:46.000Z</time>
      </trkpt>
      <trkpt lat="49.13861" lon="1.81999">
        <ele>199</ele>
        <time>2015-09-06T09:01:48.000Z</time>
      </trkpt>
      <trkpt lat="49.13867" lon="1.81984">
        <ele>199</ele>
        <time>2015-09-06T09:01:50.000Z</time>
      </trkpt>
      <trkpt lat="49.13873" lon="1.8197">
        <ele>199</ele>
        <time>2015-09-06T09:01:52.000Z</time>
      </trkpt>
      <trkpt lat="49.13878" lon="1.81955">
        <ele>199</ele>
        <time>2015-09-06T09:01:54.000Z</time>
      </trkpt>
      <trkpt lat="49.13883" lon="1.81942">
        <ele>198</ele>
        <time>2015-09-06T09:01:56.000Z</time>
      </trkpt>
      <trkpt lat="49.13888" lon="1.8193">
        <ele>198</ele>
        <time>2015-09-06T09:01:58.000Z</time>
      </trkpt>
      <trkpt lat="49.13891" lon="1.81922">
        <ele>198</ele>
        <time>2015-09-06T09:02:00.000Z</time>
      </trkpt>
      <trkpt lat="49.13891" lon="1.81922">
        <ele>198</ele>
        <time>2015-09-06T09:02:02.000Z</time>
      </trkpt>
      <trkpt lat="49.13891" lon="1.81922">
        <ele>198</ele>
        <time>2015-09-06T09:02:04.000Z</time>
      </trkpt>
      <trkpt lat="49.13895" lon="1.81911">
        <ele>198</ele>
        <time>2015-09-06T09:05:22.000Z</time>
      </trkpt>
      <trkpt lat="49.13898" lon="1.81902">
        <ele>198</ele>
        <time>2015-09-06T09:05:24.000Z</time>
      </trkpt>
      <trkpt lat="49.13902" lon="1.81891">
        <ele>198</ele>
        <time>2015-09-06T09:05:26.000Z</time>
      </trkpt>
      <trkpt lat="49.13906" lon="1.8188">
        <ele>198</ele>
        <time>2015-09-06T09:05:28.000Z</time>
      </trkpt>
      <trkpt lat="49.13911" lon="1.81869">
        <ele>197</ele>
        <time>2015-09-06T09:05:30.000Z</time>
      </trkpt>
      <trkpt lat="49.13916" lon="1.81858">
        <ele>197</ele>
        <time>2015-09-06T09:05:32.000Z</time>
      </trkpt>
      <trkpt lat="49.1392" lon="1.81846">
        <ele>197</ele>
        <time>2015-09-06T09:05:34.000Z</time>
      </trkpt>
      <trkpt lat="49.13926" lon="1.81834">
        <ele>197</ele>
        <time>2015-09-06T09:05:36.000Z</time>
      </trkpt>
      <trkpt lat="49.13931" lon="1.81821">
        <ele>197</ele>
        <time>2015-09-06T09:05:38.000Z</time>
      </trkpt>
      <trkpt lat="49.13936" lon="1.81808">
        <ele>197</ele>
        <time>2015-09-06T09:05:40.000Z</time>
      </trkpt>
      <trkpt lat="49.13941" lon="1.81794">
        <ele>197</ele>
        <time>2015-09-06T09:05:42.000Z</time>
      </trkpt>
      <trkpt lat="49.13947" lon="1.8178">
        <ele>197</ele>
        <time>2015-09-06T09:05:44.000Z</time>
      </trkpt>
      <trkpt lat="49.13953" lon="1.81765">
        <ele>196</ele>
        <time>2015-09-06T09:05:46.000Z</time>
      </trkpt>
      <trkpt lat="49.13958" lon="1.8175">
        <ele>196</ele>
        <time>2015-09-06T09:05:48.000Z</time>
      </trkpt>
      <trkpt lat="49.13964" lon="1.81735">
        <ele>196</ele>
        <time>2015-09-06T09:05:50.000Z</time>
      </trkpt>
      <trkpt lat="49.13971" lon="1.8172">
        <ele>196</ele>
        <time>2015-09-06T09:05:52.000Z</time>
      </trkpt>
      <trkpt lat="49.13976" lon="1.81705">
        <ele>195</ele>
        <time>2015-09-06T09:05:54.000Z</time>
      </trkpt>
      <trkpt lat="49.13982" lon="1.8169">
        <ele>195</ele>
        <time>2015-09-06T09:05:56.000Z</time>
      </trkpt>
      <trkpt lat="49.13988" lon="1.81675">
        <ele>195</ele>
        <time>2015-09-06T09:05:58.000Z</time>
      </trkpt>
      <trkpt lat="49.13994" lon="1.8166">
        <ele>195</ele>
        <time>2015-09-06T09:06:00.000Z</time>
      </trkpt>
      <trkpt lat="49.14" lon="1.81645">
        <ele>195</ele>
        <time>2015-09-06T09:06:02.000Z</time>
      </trkpt>
      <trkpt lat="49.14006" lon="1.8163">
        <ele>194</ele>
        <time>2015-09-06T09:06:04.000Z</time>
      </trkpt>
      <trkpt lat="49.14012" lon="1.81616">
        <ele>194</ele>
        <time>2015-09-06T09:06:06.000Z</time>
      </trkpt>
      <trkpt lat="49.14018" lon="1.81601">
        <ele>194</ele>
        <time>2015-09-06T09:06:08.000Z</time>
      </trkpt>
      <trkpt lat="49.14024" lon="1.81586">
        <ele>195</ele>
        <time>2015-09-06T09:06:10.000Z</time>
      </trkpt>
      <trkpt lat="49.1403" lon="1.81571">
        <ele>194</ele>
        <time>2015-09-06T09:06:12.000Z</time>
      </trkpt>
      <trkpt lat="49.14036" lon="1.81556">
        <ele>194</ele>
        <time>2015-09-06T09:06:14.000Z</time>
      </trkpt>
      <trkpt lat="49.14042" lon="1.81541">
        <ele>194</ele>
        <time>2015-09-06T09:06:16.000Z</time>
      </trkpt>
      <trkpt lat="49.14047" lon="1.81526">
        <ele>194</ele>
        <time>2015-09-06T09:06:18.000Z</time>
      </trkpt>
      <trkpt lat="49.14052" lon="1.81511">
        <ele>194</ele>
        <time>2015-09-06T09:06:20.000Z</time>
      </trkpt>
      <trkpt lat="49.14058" lon="1.81497">
        <ele>194</ele>
        <time>2015-09-06T09:06:22.000Z</time>
      </trkpt>
      <trkpt lat="49.14063" lon="1.81484">
        <ele>194</ele>
        <time>2015-09-06T09:06:24.000Z</time>
      </trkpt>
      <trkpt lat="49.14067" lon="1.81472">
        <ele>194</ele>
        <time>2015-09-06T09:06:26.000Z</time>
      </trkpt>
      <trkpt lat="49.1407" lon="1.81464">
        <ele>194</ele>
        <time>2015-09-06T09:06:28.000Z</time>
      </trkpt>
      <trkpt lat="49.1407" lon="1.81464">
        <ele>194</ele>
        <time>2015-09-06T09:06:30.000Z</time>
      </trkpt>
      <trkpt lat="49.14074" lon="1.81458">
        <ele>194</ele>
        <time>2015-09-06T09:06:32.000Z</time>
      </trkpt>
      <trkpt lat="49.14074" lon="1.81458">
        <ele>194</ele>
        <time>2015-09-06T09:06:34.000Z</time>
      </trkpt>
      <trkpt lat="49.1408" lon="1.81467">
        <ele>194</ele>
        <time>2015-09-06T09:06:40.000Z</time>
      </trkpt>
      <trkpt lat="49.14086" lon="1.81471">
        <ele>194</ele>
        <time>2015-09-06T09:06:42.000Z</time>
      </trkpt>
      <trkpt lat="49.14094" lon="1.81478">
        <ele>193</ele>
        <time>2015-09-06T09:06:44.000Z</time>
      </trkpt>
      <trkpt lat="49.14103" lon="1.81485">
        <ele>193</ele>
        <time>2015-09-06T09:06:46.000Z</time>
      </trkpt>
      <trkpt lat="49.14113" lon="1.81493">
        <ele>193</ele>
        <time>2015-09-06T09:06:48.000Z</time>
      </trkpt>
      <trkpt lat="49.14123" lon="1.81501">
        <ele>192</ele>
        <time>2015-09-06T09:06:50.000Z</time>
      </trkpt>
      <trkpt lat="49.14133" lon="1.81509">
        <ele>192</ele>
        <time>2015-09-06T09:06:52.000Z</time>
      </trkpt>
      <trkpt lat="49.14144" lon="1.81517">
        <ele>192</ele>
        <time>2015-09-06T09:06:54.000Z</time>
      </trkpt>
      <trkpt lat="49.14155" lon="1.81526">
        <ele>191</ele>
        <time>2015-09-06T09:06:56.000Z</time>
      </trkpt>
      <trkpt lat="49.14166" lon="1.81535">
        <ele>191</ele>
        <time>2015-09-06T09:06:58.000Z</time>
      </trkpt>
      <trkpt lat="49.14177" lon="1.81544">
        <ele>190</ele>
        <time>2015-09-06T09:07:00.000Z</time>
      </trkpt>
      <trkpt lat="49.14188" lon="1.81553">
        <ele>190</ele>
        <time>2015-09-06T09:07:02.000Z</time>
      </trkpt>
      <trkpt lat="49.14199" lon="1.81562">
        <ele>190</ele>
        <time>2015-09-06T09:07:04.000Z</time>
      </trkpt>
      <trkpt lat="49.14211" lon="1.81571">
        <ele>189</ele>
        <time>2015-09-06T09:07:06.000Z</time>
      </trkpt>
      <trkpt lat="49.14221" lon="1.81579">
        <ele>189</ele>
        <time>2015-09-06T09:07:08.000Z</time>
      </trkpt>
      <trkpt lat="49.14231" lon="1.81588">
        <ele>189</ele>
        <time>2015-09-06T09:07:10.000Z</time>
      </trkpt>
      <trkpt lat="49.14241" lon="1.81596">
        <ele>189</ele>
        <time>2015-09-06T09:07:12.000Z</time>
      </trkpt>
      <trkpt lat="49.14251" lon="1.81604">
        <ele>189</ele>
        <time>2015-09-06T09:07:14.000Z</time>
      </trkpt>
      <trkpt lat="49.14261" lon="1.81612">
        <ele>188</ele>
        <time>2015-09-06T09:07:16.000Z</time>
      </trkpt>
      <trkpt lat="49.14272" lon="1.8162">
        <ele>188</ele>
        <time>2015-09-06T09:07:18.000Z</time>
      </trkpt>
      <trkpt lat="49.14281" lon="1.81628">
        <ele>188</ele>
        <time>2015-09-06T09:07:20.000Z</time>
      </trkpt>
      <trkpt lat="49.14291" lon="1.81636">
        <ele>188</ele>
        <time>2015-09-06T09:07:22.000Z</time>
      </trkpt>
      <trkpt lat="49.14301" lon="1.81642">
        <ele>187</ele>
        <time>2015-09-06T09:07:24.000Z</time>
      </trkpt>
      <trkpt lat="49.1431" lon="1.8165">
        <ele>187</ele>
        <time>2015-09-06T09:07:26.000Z</time>
      </trkpt>
      <trkpt lat="49.1432" lon="1.81657">
        <ele>187</ele>
        <time>2015-09-06T09:07:28.000Z</time>
      </trkpt>
      <trkpt lat="49.1433" lon="1.81665">
        <ele>187</ele>
        <time>2015-09-06T09:07:30.000Z</time>
      </trkpt>
      <trkpt lat="49.14339" lon="1.81673">
        <ele>187</ele>
        <time>2015-09-06T09:07:32.000Z</time>
      </trkpt>
      <trkpt lat="49.14347" lon="1.81679">
        <ele>186</ele>
        <time>2015-09-06T09:07:34.000Z</time>
      </trkpt>
      <trkpt lat="49.14355" lon="1.81685">
        <ele>186</ele>
        <time>2015-09-06T09:07:36.000Z</time>
      </trkpt>
      <trkpt lat="49.14364" lon="1.81693">
        <ele>186</ele>
        <time>2015-09-06T09:07:38.000Z</time>
      </trkpt>
      <trkpt lat="49.14374" lon="1.817">
        <ele>185</ele>
        <time>2015-09-06T09:07:40.000Z</time>
      </trkpt>
      <trkpt lat="49.14383" lon="1.81708">
        <ele>185</ele>
        <time>2015-09-06T09:07:42.000Z</time>
      </trkpt>
      <trkpt lat="49.14392" lon="1.81716">
        <ele>185</ele>
        <time>2015-09-06T09:07:44.000Z</time>
      </trkpt>
      <trkpt lat="49.14401" lon="1.81725">
        <ele>185</ele>
        <time>2015-09-06T09:07:46.000Z</time>
      </trkpt>
      <trkpt lat="49.14409" lon="1.81731">
        <ele>185</ele>
        <time>2015-09-06T09:07:48.000Z</time>
      </trkpt>
      <trkpt lat="49.14417" lon="1.81737">
        <ele>185</ele>
        <time>2015-09-06T09:07:50.000Z</time>
      </trkpt>
      <trkpt lat="49.14423" lon="1.81742">
        <ele>185</ele>
        <time>2015-09-06T09:07:52.000Z</time>
      </trkpt>
      <trkpt lat="49.14423" lon="1.81742">
        <ele>185</ele>
        <time>2015-09-06T09:07:54.000Z</time>
      </trkpt>
      <trkpt lat="49.14433" lon="1.81747">
        <ele>185</ele>
        <time>2015-09-06T09:07:56.000Z</time>
      </trkpt>
      <trkpt lat="49.14433" lon="1.81747">
        <ele>185</ele>
        <time>2015-09-06T09:07:58.000Z</time>
      </trkpt>
      <trkpt lat="49.14433" lon="1.81747">
        <ele>185</ele>
        <time>2015-09-06T09:08:00.000Z</time>
      </trkpt>
      <trkpt lat="49.14443" lon="1.81746">
        <ele>186</ele>
        <time>2015-09-06T09:08:04.000Z</time>
      </trkpt>
      <trkpt lat="49.1445" lon="1.81746">
        <ele>187</ele>
        <time>2015-09-06T09:08:08.000Z</time>
      </trkpt>
      <trkpt lat="49.1445" lon="1.81746">
        <ele>187</ele>
        <time>2015-09-06T09:08:12.000Z</time>
      </trkpt>
      <trkpt lat="49.1445" lon="1.81746">
        <ele>187</ele>
        <time>2015-09-06T09:08:14.000Z</time>
      </trkpt>
      <trkpt lat="49.14431" lon="1.81757">
        <ele>190</ele>
        <time>2015-09-06T09:10:15.000Z</time>
      </trkpt>
      <trkpt lat="49.14437" lon="1.8177">
        <ele>189</ele>
        <time>2015-09-06T09:10:19.000Z</time>
      </trkpt>
      <trkpt lat="49.14441" lon="1.81778">
        <ele>189</ele>
        <time>2015-09-06T09:10:21.000Z</time>
      </trkpt>
      <trkpt lat="49.14445" lon="1.81787">
        <ele>189</ele>
        <time>2015-09-06T09:10:23.000Z</time>
      </trkpt>
      <trkpt lat="49.14447" lon="1.81796">
        <ele>189</ele>
        <time>2015-09-06T09:10:25.000Z</time>
      </trkpt>
      <trkpt lat="49.1445" lon="1.81804">
        <ele>189</ele>
        <time>2015-09-06T09:10:27.000Z</time>
      </trkpt>
      <trkpt lat="49.14453" lon="1.81814">
        <ele>189</ele>
        <time>2015-09-06T09:10:29.000Z</time>
      </trkpt>
      <trkpt lat="49.14456" lon="1.81825">
        <ele>189</ele>
        <time>2015-09-06T09:10:31.000Z</time>
      </trkpt>
      <trkpt lat="49.14459" lon="1.81836">
        <ele>189</ele>
        <time>2015-09-06T09:10:33.000Z</time>
      </trkpt>
      <trkpt lat="49.14462" lon="1.81846">
        <ele>189</ele>
        <time>2015-09-06T09:10:35.000Z</time>
      </trkpt>
      <trkpt lat="49.14462" lon="1.81846">
        <ele>189</ele>
        <time>2015-09-06T09:10:37.000Z</time>
      </trkpt>
      <trkpt lat="49.14466" lon="1.81863">
        <ele>189</ele>
        <time>2015-09-06T09:10:39.000Z</time>
      </trkpt>
      <trkpt lat="49.14469" lon="1.81872">
        <ele>189</ele>
        <time>2015-09-06T09:10:41.000Z</time>
      </trkpt>
      <trkpt lat="49.14471" lon="1.81882">
        <ele>189</ele>
        <time>2015-09-06T09:10:43.000Z</time>
      </trkpt>
      <trkpt lat="49.14474" lon="1.81893">
        <ele>189</ele>
        <time>2015-09-06T09:10:45.000Z</time>
      </trkpt>
      <trkpt lat="49.14478" lon="1.81904">
        <ele>189</ele>
        <time>2015-09-06T09:10:47.000Z</time>
      </trkpt>
      <trkpt lat="49.14481" lon="1.81916">
        <ele>189</ele>
        <time>2015-09-06T09:10:49.000Z</time>
      </trkpt>
      <trkpt lat="49.14484" lon="1.81928">
        <ele>189</ele>
        <time>2015-09-06T09:10:51.000Z</time>
      </trkpt>
      <trkpt lat="49.14488" lon="1.8194">
        <ele>189</ele>
        <time>2015-09-06T09:10:53.000Z</time>
      </trkpt>
      <trkpt lat="49.14494" lon="1.81949">
        <ele>188</ele>
        <time>2015-09-06T09:10:55.000Z</time>
      </trkpt>
      <trkpt lat="49.14501" lon="1.81957">
        <ele>188</ele>
        <time>2015-09-06T09:10:57.000Z</time>
      </trkpt>
      <trkpt lat="49.14508" lon="1.81963">
        <ele>188</ele>
        <time>2015-09-06T09:10:59.000Z</time>
      </trkpt>
      <trkpt lat="49.14515" lon="1.81967">
        <ele>188</ele>
        <time>2015-09-06T09:11:01.000Z</time>
      </trkpt>
      <trkpt lat="49.14522" lon="1.8197">
        <ele>188</ele>
        <time>2015-09-06T09:11:03.000Z</time>
      </trkpt>
      <trkpt lat="49.14529" lon="1.81972">
        <ele>188</ele>
        <time>2015-09-06T09:11:05.000Z</time>
      </trkpt>
      <trkpt lat="49.14537" lon="1.81975">
        <ele>188</ele>
        <time>2015-09-06T09:11:07.000Z</time>
      </trkpt>
      <trkpt lat="49.14545" lon="1.81976">
        <ele>187</ele>
        <time>2015-09-06T09:11:09.000Z</time>
      </trkpt>
      <trkpt lat="49.14554" lon="1.81977">
        <ele>187</ele>
        <time>2015-09-06T09:11:11.000Z</time>
      </trkpt>
      <trkpt lat="49.14563" lon="1.81977">
        <ele>187</ele>
        <time>2015-09-06T09:11:13.000Z</time>
      </trkpt>
      <trkpt lat="49.14572" lon="1.81976">
        <ele>187</ele>
        <time>2015-09-06T09:11:15.000Z</time>
      </trkpt>
      <trkpt lat="49.14579" lon="1.81975">
        <ele>187</ele>
        <time>2015-09-06T09:11:17.000Z</time>
      </trkpt>
      <trkpt lat="49.14579" lon="1.81975">
        <ele>187</ele>
        <time>2015-09-06T09:11:19.000Z</time>
      </trkpt>
      <trkpt lat="49.14587" lon="1.81974">
        <ele>187</ele>
        <time>2015-09-06T09:11:21.000Z</time>
      </trkpt>
      <trkpt lat="49.14587" lon="1.81974">
        <ele>187</ele>
        <time>2015-09-06T09:11:23.000Z</time>
      </trkpt>
      <trkpt lat="49.14594" lon="1.81972">
        <ele>187</ele>
        <time>2015-09-06T09:11:28.000Z</time>
      </trkpt>
      <trkpt lat="49.14601" lon="1.81969">
        <ele>187</ele>
        <time>2015-09-06T09:11:30.000Z</time>
      </trkpt>
      <trkpt lat="49.14609" lon="1.81966">
        <ele>187</ele>
        <time>2015-09-06T09:11:32.000Z</time>
      </trkpt>
      <trkpt lat="49.14618" lon="1.81962">
        <ele>187</ele>
        <time>2015-09-06T09:11:34.000Z</time>
      </trkpt>
      <trkpt lat="49.14626" lon="1.81957">
        <ele>186</ele>
        <time>2015-09-06T09:11:36.000Z</time>
      </trkpt>
      <trkpt lat="49.14635" lon="1.81952">
        <ele>186</ele>
        <time>2015-09-06T09:11:38.000Z</time>
      </trkpt>
      <trkpt lat="49.14644" lon="1.81946">
        <ele>186</ele>
        <time>2015-09-06T09:11:40.000Z</time>
      </trkpt>
      <trkpt lat="49.14653" lon="1.8194">
        <ele>186</ele>
        <time>2015-09-06T09:11:42.000Z</time>
      </trkpt>
      <trkpt lat="49.14662" lon="1.81934">
        <ele>186</ele>
        <time>2015-09-06T09:11:44.000Z</time>
      </trkpt>
      <trkpt lat="49.14671" lon="1.81927">
        <ele>186</ele>
        <time>2015-09-06T09:11:46.000Z</time>
      </trkpt>
      <trkpt lat="49.14681" lon="1.81921">
        <ele>185</ele>
        <time>2015-09-06T09:11:48.000Z</time>
      </trkpt>
      <trkpt lat="49.1469" lon="1.81914">
        <ele>185</ele>
        <time>2015-09-06T09:11:50.000Z</time>
      </trkpt>
      <trkpt lat="49.147" lon="1.81907">
        <ele>185</ele>
        <time>2015-09-06T09:11:52.000Z</time>
      </trkpt>
      <trkpt lat="49.1471" lon="1.819">
        <ele>184</ele>
        <time>2015-09-06T09:11:54.000Z</time>
      </trkpt>
      <trkpt lat="49.14719" lon="1.81891">
        <ele>184</ele>
        <time>2015-09-06T09:11:56.000Z</time>
      </trkpt>
      <trkpt lat="49.14728" lon="1.81881">
        <ele>183</ele>
        <time>2015-09-06T09:11:58.000Z</time>
      </trkpt>
      <trkpt lat="49.14737" lon="1.81872">
        <ele>182</ele>
        <time>2015-09-06T09:12:00.000Z</time>
      </trkpt>
      <trkpt lat="49.14745" lon="1.81862">
        <ele>182</ele>
        <time>2015-09-06T09:12:02.000Z</time>
      </trkpt>
      <trkpt lat="49.14753" lon="1.81853">
        <ele>182</ele>
        <time>2015-09-06T09:12:04.000Z</time>
      </trkpt>
      <trkpt lat="49.14759" lon="1.81846">
        <ele>182</ele>
        <time>2015-09-06T09:12:06.000Z</time>
      </trkpt>
      <trkpt lat="49.14759" lon="1.81846">
        <ele>182</ele>
        <time>2015-09-06T09:12:08.000Z</time>
      </trkpt>
      <trkpt lat="49.14766" lon="1.81841">
        <ele>182</ele>
        <time>2015-09-06T09:12:10.000Z</time>
      </trkpt>
      <trkpt lat="49.14766" lon="1.81841">
        <ele>182</ele>
        <time>2015-09-06T09:12:12.000Z</time>
      </trkpt>
      <trkpt lat="49.14766" lon="1.81841">
        <ele>182</ele>
        <time>2015-09-06T09:12:14.000Z</time>
      </trkpt>
      <trkpt lat="49.1477" lon="1.81853">
        <ele>186</ele>
        <time>2015-09-06T09:12:20.000Z</time>
      </trkpt>
      <trkpt lat="49.1477" lon="1.81853">
        <ele>186</ele>
        <time>2015-09-06T09:12:22.000Z</time>
      </trkpt>
      <trkpt lat="49.14772" lon="1.81863">
        <ele>187</ele>
        <time>2015-09-06T09:12:24.000Z</time>
      </trkpt>
      <trkpt lat="49.14778" lon="1.81876">
        <ele>187</ele>
        <time>2015-09-06T09:12:28.000Z</time>
      </trkpt>
      <trkpt lat="49.14786" lon="1.81885">
        <ele>185</ele>
        <time>2015-09-06T09:12:32.000Z</time>
      </trkpt>
      <trkpt lat="49.14786" lon="1.81885">
        <ele>185</ele>
        <time>2015-09-06T09:12:34.000Z</time>
      </trkpt>
      <trkpt lat="49.14791" lon="1.81879">
        <ele>183</ele>
        <time>2015-09-06T09:12:36.000Z</time>
      </trkpt>
      <trkpt lat="49.14791" lon="1.81879">
        <ele>183</ele>
        <time>2015-09-06T09:12:38.000Z</time>
      </trkpt>
      <trkpt lat="49.14791" lon="1.81879">
        <ele>183</ele>
        <time>2015-09-06T09:12:40.000Z</time>
      </trkpt>
      <trkpt lat="49.14795" lon="1.8187">
        <ele>182</ele>
        <time>2015-09-06T09:12:58.000Z</time>
      </trkpt>
      <trkpt lat="49.14799" lon="1.81861">
        <ele>182</ele>
        <time>2015-09-06T09:13:02.000Z</time>
      </trkpt>
      <trkpt lat="49.14799" lon="1.81861">
        <ele>182</ele>
        <time>2015-09-06T09:13:04.000Z</time>
      </trkpt>
      <trkpt lat="49.148" lon="1.81856">
        <ele>182</ele>
        <time>2015-09-06T09:13:06.000Z</time>
      </trkpt>
      <trkpt lat="49.14802" lon="1.81851">
        <ele>183</ele>
        <time>2015-09-06T09:13:08.000Z</time>
      </trkpt>
      <trkpt lat="49.14804" lon="1.81845">
        <ele>184</ele>
        <time>2015-09-06T09:13:10.000Z</time>
      </trkpt>
      <trkpt lat="49.14806" lon="1.8184">
        <ele>184</ele>
        <time>2015-09-06T09:13:12.000Z</time>
      </trkpt>
      <trkpt lat="49.14809" lon="1.81833">
        <ele>184</ele>
        <time>2015-09-06T09:13:14.000Z</time>
      </trkpt>
      <trkpt lat="49.14814" lon="1.81821">
        <ele>185</ele>
        <time>2015-09-06T09:13:16.000Z</time>
      </trkpt>
      <trkpt lat="49.14818" lon="1.81813">
        <ele>185</ele>
        <time>2015-09-06T09:13:18.000Z</time>
      </trkpt>
      <trkpt lat="49.14823" lon="1.81804">
        <ele>185</ele>
        <time>2015-09-06T09:13:20.000Z</time>
      </trkpt>
      <trkpt lat="49.14828" lon="1.81795">
        <ele>186</ele>
        <time>2015-09-06T09:13:22.000Z</time>
      </trkpt>
      <trkpt lat="49.14834" lon="1.81785">
        <ele>185</ele>
        <time>2015-09-06T09:13:24.000Z</time>
      </trkpt>
      <trkpt lat="49.14841" lon="1.81775">
        <ele>184</ele>
        <time>2015-09-06T09:13:26.000Z</time>
      </trkpt>
      <trkpt lat="49.14845" lon="1.81764">
        <ele>184</ele>
        <time>2015-09-06T09:13:28.000Z</time>
      </trkpt>
      <trkpt lat="49.14849" lon="1.81753">
        <ele>183</ele>
        <time>2015-09-06T09:13:30.000Z</time>
      </trkpt>
      <trkpt lat="49.14853" lon="1.81741">
        <ele>181</ele>
        <time>2015-09-06T09:13:32.000Z</time>
      </trkpt>
      <trkpt lat="49.14856" lon="1.81728">
        <ele>180</ele>
        <time>2015-09-06T09:13:34.000Z</time>
      </trkpt>
      <trkpt lat="49.14859" lon="1.81713">
        <ele>178</ele>
        <time>2015-09-06T09:13:36.000Z</time>
      </trkpt>
      <trkpt lat="49.14859" lon="1.81695">
        <ele>177</ele>
        <time>2015-09-06T09:13:38.000Z</time>
      </trkpt>
      <trkpt lat="49.14859" lon="1.81677">
        <ele>175</ele>
        <time>2015-09-06T09:13:40.000Z</time>
      </trkpt>
      <trkpt lat="49.14859" lon="1.81661">
        <ele>174</ele>
        <time>2015-09-06T09:13:42.000Z</time>
      </trkpt>
      <trkpt lat="49.1486" lon="1.81645">
        <ele>174</ele>
        <time>2015-09-06T09:13:44.000Z</time>
      </trkpt>
      <trkpt lat="49.1486" lon="1.81633">
        <ele>173</ele>
        <time>2015-09-06T09:13:46.000Z</time>
      </trkpt>
      <trkpt lat="49.1486" lon="1.81633">
        <ele>173</ele>
        <time>2015-09-06T09:13:48.000Z</time>
      </trkpt>
      <trkpt lat="49.14861" lon="1.81625">
        <ele>170</ele>
        <time>2015-09-06T09:13:50.000Z</time>
      </trkpt>
      <trkpt lat="49.14867" lon="1.81612">
        <ele>165</ele>
        <time>2015-09-06T09:14:22.000Z</time>
      </trkpt>
      <trkpt lat="49.14873" lon="1.81604">
        <ele>164</ele>
        <time>2015-09-06T09:14:24.000Z</time>
      </trkpt>
      <trkpt lat="49.14879" lon="1.81594">
        <ele>163</ele>
        <time>2015-09-06T09:14:26.000Z</time>
      </trkpt>
      <trkpt lat="49.14886" lon="1.81585">
        <ele>162</ele>
        <time>2015-09-06T09:14:28.000Z</time>
      </trkpt>
      <trkpt lat="49.14893" lon="1.81575">
        <ele>161</ele>
        <time>2015-09-06T09:14:30.000Z</time>
      </trkpt>
      <trkpt lat="49.149" lon="1.81565">
        <ele>160</ele>
        <time>2015-09-06T09:14:32.000Z</time>
      </trkpt>
      <trkpt lat="49.14907" lon="1.81555">
        <ele>159</ele>
        <time>2015-09-06T09:14:34.000Z</time>
      </trkpt>
      <trkpt lat="49.14914" lon="1.81546">
        <ele>159</ele>
        <time>2015-09-06T09:14:36.000Z</time>
      </trkpt>
      <trkpt lat="49.14919" lon="1.81539">
        <ele>159</ele>
        <time>2015-09-06T09:14:38.000Z</time>
      </trkpt>
      <trkpt lat="49.14924" lon="1.81531">
        <ele>159</ele>
        <time>2015-09-06T09:14:40.000Z</time>
      </trkpt>
      <trkpt lat="49.14929" lon="1.81521">
        <ele>158</ele>
        <time>2015-09-06T09:14:42.000Z</time>
      </trkpt>
      <trkpt lat="49.14934" lon="1.81508">
        <ele>157</ele>
        <time>2015-09-06T09:14:44.000Z</time>
      </trkpt>
      <trkpt lat="49.14939" lon="1.81495">
        <ele>157</ele>
        <time>2015-09-06T09:14:46.000Z</time>
      </trkpt>
      <trkpt lat="49.14943" lon="1.81481">
        <ele>156</ele>
        <time>2015-09-06T09:14:48.000Z</time>
      </trkpt>
      <trkpt lat="49.14948" lon="1.81469">
        <ele>156</ele>
        <time>2015-09-06T09:14:50.000Z</time>
      </trkpt>
      <trkpt lat="49.14952" lon="1.81457">
        <ele>155</ele>
        <time>2015-09-06T09:14:52.000Z</time>
      </trkpt>
      <trkpt lat="49.14956" lon="1.81446">
        <ele>155</ele>
        <time>2015-09-06T09:14:54.000Z</time>
      </trkpt>
      <trkpt lat="49.1496" lon="1.81435">
        <ele>154</ele>
        <time>2015-09-06T09:14:56.000Z</time>
      </trkpt>
      <trkpt lat="49.14965" lon="1.81424">
        <ele>154</ele>
        <time>2015-09-06T09:14:58.000Z</time>
      </trkpt>
      <trkpt lat="49.14969" lon="1.81412">
        <ele>153</ele>
        <time>2015-09-06T09:15:00.000Z</time>
      </trkpt>
      <trkpt lat="49.14974" lon="1.81402">
        <ele>153</ele>
        <time>2015-09-06T09:15:02.000Z</time>
      </trkpt>
      <trkpt lat="49.14978" lon="1.81393">
        <ele>153</ele>
        <time>2015-09-06T09:15:04.000Z</time>
      </trkpt>
      <trkpt lat="49.14981" lon="1.81384">
        <ele>153</ele>
        <time>2015-09-06T09:15:06.000Z</time>
      </trkpt>
      <trkpt lat="49.14986" lon="1.81376">
        <ele>153</ele>
        <time>2015-09-06T09:15:08.000Z</time>
      </trkpt>
      <trkpt lat="49.1499" lon="1.81369">
        <ele>153</ele>
        <time>2015-09-06T09:15:10.000Z</time>
      </trkpt>
      <trkpt lat="49.14995" lon="1.8136">
        <ele>153</ele>
        <time>2015-09-06T09:15:12.000Z</time>
      </trkpt>
      <trkpt lat="49.14999" lon="1.81351">
        <ele>153</ele>
        <time>2015-09-06T09:15:14.000Z</time>
      </trkpt>
      <trkpt lat="49.15003" lon="1.81341">
        <ele>153</ele>
        <time>2015-09-06T09:15:16.000Z</time>
      </trkpt>
      <trkpt lat="49.15008" lon="1.81331">
        <ele>153</ele>
        <time>2015-09-06T09:15:18.000Z</time>
      </trkpt>
      <trkpt lat="49.15012" lon="1.81322">
        <ele>154</ele>
        <time>2015-09-06T09:15:20.000Z</time>
      </trkpt>
      <trkpt lat="49.15016" lon="1.81313">
        <ele>154</ele>
        <time>2015-09-06T09:15:22.000Z</time>
      </trkpt>
      <trkpt lat="49.1502" lon="1.81305">
        <ele>154</ele>
        <time>2015-09-06T09:15:24.000Z</time>
      </trkpt>
      <trkpt lat="49.15024" lon="1.81295">
        <ele>155</ele>
        <time>2015-09-06T09:15:26.000Z</time>
      </trkpt>
      <trkpt lat="49.15029" lon="1.81285">
        <ele>155</ele>
        <time>2015-09-06T09:15:28.000Z</time>
      </trkpt>
      <trkpt lat="49.15034" lon="1.81275">
        <ele>155</ele>
        <time>2015-09-06T09:15:30.000Z</time>
      </trkpt>
      <trkpt lat="49.15038" lon="1.81264">
        <ele>155</ele>
        <time>2015-09-06T09:15:32.000Z</time>
      </trkpt>
      <trkpt lat="49.15043" lon="1.81254">
        <ele>155</ele>
        <time>2015-09-06T09:15:34.000Z</time>
      </trkpt>
      <trkpt lat="49.15047" lon="1.81244">
        <ele>156</ele>
        <time>2015-09-06T09:15:36.000Z</time>
      </trkpt>
      <trkpt lat="49.15051" lon="1.81235">
        <ele>156</ele>
        <time>2015-09-06T09:15:38.000Z</time>
      </trkpt>
      <trkpt lat="49.15055" lon="1.81227">
        <ele>156</ele>
        <time>2015-09-06T09:15:40.000Z</time>
      </trkpt>
      <trkpt lat="49.1506" lon="1.81218">
        <ele>156</ele>
        <time>2015-09-06T09:15:42.000Z</time>
      </trkpt>
      <trkpt lat="49.15065" lon="1.81207">
        <ele>156</ele>
        <time>2015-09-06T09:15:44.000Z</time>
      </trkpt>
      <trkpt lat="49.15069" lon="1.81197">
        <ele>156</ele>
        <time>2015-09-06T09:15:46.000Z</time>
      </trkpt>
      <trkpt lat="49.15073" lon="1.81186">
        <ele>157</ele>
        <time>2015-09-06T09:15:48.000Z</time>
      </trkpt>
      <trkpt lat="49.15076" lon="1.81175">
        <ele>157</ele>
        <time>2015-09-06T09:15:50.000Z</time>
      </trkpt>
      <trkpt lat="49.1508" lon="1.81165">
        <ele>157</ele>
        <time>2015-09-06T09:15:52.000Z</time>
      </trkpt>
      <trkpt lat="49.15083" lon="1.81154">
        <ele>157</ele>
        <time>2015-09-06T09:15:54.000Z</time>
      </trkpt>
      <trkpt lat="49.15087" lon="1.81144">
        <ele>158</ele>
        <time>2015-09-06T09:15:56.000Z</time>
      </trkpt>
      <trkpt lat="49.15091" lon="1.81133">
        <ele>158</ele>
        <time>2015-09-06T09:15:58.000Z</time>
      </trkpt>
      <trkpt lat="49.15096" lon="1.81122">
        <ele>157</ele>
        <time>2015-09-06T09:16:00.000Z</time>
      </trkpt>
      <trkpt lat="49.151" lon="1.81111">
        <ele>157</ele>
        <time>2015-09-06T09:16:02.000Z</time>
      </trkpt>
      <trkpt lat="49.15105" lon="1.81098">
        <ele>157</ele>
        <time>2015-09-06T09:16:04.000Z</time>
      </trkpt>
      <trkpt lat="49.1511" lon="1.81084">
        <ele>157</ele>
        <time>2015-09-06T09:16:06.000Z</time>
      </trkpt>
      <trkpt lat="49.15117" lon="1.81069">
        <ele>156</ele>
        <time>2015-09-06T09:16:08.000Z</time>
      </trkpt>
      <trkpt lat="49.15123" lon="1.81053">
        <ele>156</ele>
        <time>2015-09-06T09:16:10.000Z</time>
      </trkpt>
      <trkpt lat="49.1513" lon="1.81037">
        <ele>155</ele>
        <time>2015-09-06T09:16:12.000Z</time>
      </trkpt>
      <trkpt lat="49.15137" lon="1.81019">
        <ele>155</ele>
        <time>2015-09-06T09:16:14.000Z</time>
      </trkpt>
      <trkpt lat="49.15145" lon="1.81001">
        <ele>154</ele>
        <time>2015-09-06T09:16:16.000Z</time>
      </trkpt>
      <trkpt lat="49.15152" lon="1.80983">
        <ele>154</ele>
        <time>2015-09-06T09:16:18.000Z</time>
      </trkpt>
      <trkpt lat="49.15158" lon="1.80967">
        <ele>153</ele>
        <time>2015-09-06T09:16:20.000Z</time>
      </trkpt>
      <trkpt lat="49.15164" lon="1.80952">
        <ele>153</ele>
        <time>2015-09-06T09:16:22.000Z</time>
      </trkpt>
      <trkpt lat="49.15171" lon="1.80937">
        <ele>152</ele>
        <time>2015-09-06T09:16:24.000Z</time>
      </trkpt>
      <trkpt lat="49.15177" lon="1.80921">
        <ele>152</ele>
        <time>2015-09-06T09:16:26.000Z</time>
      </trkpt>
      <trkpt lat="49.15183" lon="1.80905">
        <ele>151</ele>
        <time>2015-09-06T09:16:28.000Z</time>
      </trkpt>
      <trkpt lat="49.15191" lon="1.80887">
        <ele>151</ele>
        <time>2015-09-06T09:16:30.000Z</time>
      </trkpt>
      <trkpt lat="49.152" lon="1.80869">
        <ele>150</ele>
        <time>2015-09-06T09:16:32.000Z</time>
      </trkpt>
      <trkpt lat="49.15207" lon="1.80849">
        <ele>150</ele>
        <time>2015-09-06T09:16:34.000Z</time>
      </trkpt>
      <trkpt lat="49.15215" lon="1.80831">
        <ele>150</ele>
        <time>2015-09-06T09:16:36.000Z</time>
      </trkpt>
      <trkpt lat="49.15221" lon="1.80814">
        <ele>150</ele>
        <time>2015-09-06T09:16:38.000Z</time>
      </trkpt>
      <trkpt lat="49.15227" lon="1.80801">
        <ele>150</ele>
        <time>2015-09-06T09:16:40.000Z</time>
      </trkpt>
      <trkpt lat="49.15232" lon="1.80787">
        <ele>150</ele>
        <time>2015-09-06T09:16:42.000Z</time>
      </trkpt>
      <trkpt lat="49.15237" lon="1.80774">
        <ele>150</ele>
        <time>2015-09-06T09:16:44.000Z</time>
      </trkpt>
      <trkpt lat="49.1524" lon="1.80761">
        <ele>150</ele>
        <time>2015-09-06T09:16:46.000Z</time>
      </trkpt>
      <trkpt lat="49.1524" lon="1.80748">
        <ele>150</ele>
        <time>2015-09-06T09:16:48.000Z</time>
      </trkpt>
      <trkpt lat="49.15238" lon="1.80735">
        <ele>150</ele>
        <time>2015-09-06T09:16:50.000Z</time>
      </trkpt>
      <trkpt lat="49.15237" lon="1.80722">
        <ele>151</ele>
        <time>2015-09-06T09:16:52.000Z</time>
      </trkpt>
      <trkpt lat="49.15236" lon="1.80709">
        <ele>151</ele>
        <time>2015-09-06T09:16:54.000Z</time>
      </trkpt>
      <trkpt lat="49.15236" lon="1.80697">
        <ele>151</ele>
        <time>2015-09-06T09:16:56.000Z</time>
      </trkpt>
      <trkpt lat="49.15236" lon="1.80684">
        <ele>151</ele>
        <time>2015-09-06T09:16:58.000Z</time>
      </trkpt>
      <trkpt lat="49.15236" lon="1.80672">
        <ele>151</ele>
        <time>2015-09-06T09:17:00.000Z</time>
      </trkpt>
      <trkpt lat="49.15238" lon="1.80659">
        <ele>151</ele>
        <time>2015-09-06T09:17:02.000Z</time>
      </trkpt>
      <trkpt lat="49.1524" lon="1.80646">
        <ele>151</ele>
        <time>2015-09-06T09:17:04.000Z</time>
      </trkpt>
      <trkpt lat="49.15243" lon="1.80632">
        <ele>151</ele>
        <time>2015-09-06T09:17:06.000Z</time>
      </trkpt>
      <trkpt lat="49.15245" lon="1.80618">
        <ele>151</ele>
        <time>2015-09-06T09:17:08.000Z</time>
      </trkpt>
      <trkpt lat="49.15249" lon="1.80604">
        <ele>151</ele>
        <time>2015-09-06T09:17:10.000Z</time>
      </trkpt>
      <trkpt lat="49.15252" lon="1.80589">
        <ele>151</ele>
        <time>2015-09-06T09:17:12.000Z</time>
      </trkpt>
      <trkpt lat="49.15256" lon="1.80573">
        <ele>150</ele>
        <time>2015-09-06T09:17:14.000Z</time>
      </trkpt>
      <trkpt lat="49.15258" lon="1.80557">
        <ele>150</ele>
        <time>2015-09-06T09:17:16.000Z</time>
      </trkpt>
      <trkpt lat="49.1526" lon="1.80542">
        <ele>149</ele>
        <time>2015-09-06T09:17:18.000Z</time>
      </trkpt>
      <trkpt lat="49.15262" lon="1.80527">
        <ele>149</ele>
        <time>2015-09-06T09:17:20.000Z</time>
      </trkpt>
      <trkpt lat="49.15264" lon="1.80512">
        <ele>149</ele>
        <time>2015-09-06T09:17:22.000Z</time>
      </trkpt>
      <trkpt lat="49.15266" lon="1.80498">
        <ele>149</ele>
        <time>2015-09-06T09:17:24.000Z</time>
      </trkpt>
      <trkpt lat="49.15269" lon="1.80482">
        <ele>148</ele>
        <time>2015-09-06T09:17:26.000Z</time>
      </trkpt>
      <trkpt lat="49.15271" lon="1.80464">
        <ele>148</ele>
        <time>2015-09-06T09:17:28.000Z</time>
      </trkpt>
      <trkpt lat="49.15273" lon="1.80448">
        <ele>148</ele>
        <time>2015-09-06T09:17:30.000Z</time>
      </trkpt>
      <trkpt lat="49.15274" lon="1.80435">
        <ele>147</ele>
        <time>2015-09-06T09:17:32.000Z</time>
      </trkpt>
      <trkpt lat="49.15277" lon="1.80424">
        <ele>147</ele>
        <time>2015-09-06T09:17:34.000Z</time>
      </trkpt>
      <trkpt lat="49.15279" lon="1.80412">
        <ele>146</ele>
        <time>2015-09-06T09:17:36.000Z</time>
      </trkpt>
      <trkpt lat="49.15279" lon="1.804">
        <ele>146</ele>
        <time>2015-09-06T09:17:38.000Z</time>
      </trkpt>
      <trkpt lat="49.15278" lon="1.80389">
        <ele>146</ele>
        <time>2015-09-06T09:17:40.000Z</time>
      </trkpt>
      <trkpt lat="49.15276" lon="1.80378">
        <ele>146</ele>
        <time>2015-09-06T09:17:42.000Z</time>
      </trkpt>
      <trkpt lat="49.15272" lon="1.80368">
        <ele>145</ele>
        <time>2015-09-06T09:17:44.000Z</time>
      </trkpt>
      <trkpt lat="49.15268" lon="1.80356">
        <ele>145</ele>
        <time>2015-09-06T09:17:46.000Z</time>
      </trkpt>
      <trkpt lat="49.15263" lon="1.80345">
        <ele>144</ele>
        <time>2015-09-06T09:17:48.000Z</time>
      </trkpt>
      <trkpt lat="49.15258" lon="1.80332">
        <ele>143</ele>
        <time>2015-09-06T09:17:50.000Z</time>
      </trkpt>
      <trkpt lat="49.15255" lon="1.8032">
        <ele>143</ele>
        <time>2015-09-06T09:17:52.000Z</time>
      </trkpt>
      <trkpt lat="49.15254" lon="1.80307">
        <ele>143</ele>
        <time>2015-09-06T09:17:54.000Z</time>
      </trkpt>
      <trkpt lat="49.15253" lon="1.80293">
        <ele>143</ele>
        <time>2015-09-06T09:17:56.000Z</time>
      </trkpt>
      <trkpt lat="49.15253" lon="1.80279">
        <ele>144</ele>
        <time>2015-09-06T09:17:58.000Z</time>
      </trkpt>
      <trkpt lat="49.15253" lon="1.80266">
        <ele>144</ele>
        <time>2015-09-06T09:18:00.000Z</time>
      </trkpt>
      <trkpt lat="49.15253" lon="1.80253">
        <ele>145</ele>
        <time>2015-09-06T09:18:02.000Z</time>
      </trkpt>
      <trkpt lat="49.15254" lon="1.80239">
        <ele>145</ele>
        <time>2015-09-06T09:18:04.000Z</time>
      </trkpt>
      <trkpt lat="49.15255" lon="1.80227">
        <ele>146</ele>
        <time>2015-09-06T09:18:06.000Z</time>
      </trkpt>
      <trkpt lat="49.15255" lon="1.80217">
        <ele>147</ele>
        <time>2015-09-06T09:18:08.000Z</time>
      </trkpt>
      <trkpt lat="49.15256" lon="1.80206">
        <ele>147</ele>
        <time>2015-09-06T09:18:10.000Z</time>
      </trkpt>
      <trkpt lat="49.15257" lon="1.80195">
        <ele>148</ele>
        <time>2015-09-06T09:18:12.000Z</time>
      </trkpt>
      <trkpt lat="49.15257" lon="1.80183">
        <ele>149</ele>
        <time>2015-09-06T09:18:14.000Z</time>
      </trkpt>
      <trkpt lat="49.15258" lon="1.80172">
        <ele>149</ele>
        <time>2015-09-06T09:18:16.000Z</time>
      </trkpt>
      <trkpt lat="49.15259" lon="1.8016">
        <ele>149</ele>
        <time>2015-09-06T09:18:18.000Z</time>
      </trkpt>
      <trkpt lat="49.15259" lon="1.80147">
        <ele>149</ele>
        <time>2015-09-06T09:18:20.000Z</time>
      </trkpt>
      <trkpt lat="49.15259" lon="1.80134">
        <ele>150</ele>
        <time>2015-09-06T09:18:22.000Z</time>
      </trkpt>
      <trkpt lat="49.15259" lon="1.80122">
        <ele>151</ele>
        <time>2015-09-06T09:18:24.000Z</time>
      </trkpt>
      <trkpt lat="49.15259" lon="1.80111">
        <ele>151</ele>
        <time>2015-09-06T09:18:26.000Z</time>
      </trkpt>
      <trkpt lat="49.15258" lon="1.801">
        <ele>151</ele>
        <time>2015-09-06T09:18:28.000Z</time>
      </trkpt>
      <trkpt lat="49.15258" lon="1.80091">
        <ele>151</ele>
        <time>2015-09-06T09:18:30.000Z</time>
      </trkpt>
      <trkpt lat="49.15257" lon="1.80082">
        <ele>151</ele>
        <time>2015-09-06T09:18:32.000Z</time>
      </trkpt>
      <trkpt lat="49.15256" lon="1.80073">
        <ele>152</ele>
        <time>2015-09-06T09:18:34.000Z</time>
      </trkpt>
      <trkpt lat="49.15255" lon="1.80064">
        <ele>152</ele>
        <time>2015-09-06T09:18:36.000Z</time>
      </trkpt>
      <trkpt lat="49.15255" lon="1.80054">
        <ele>152</ele>
        <time>2015-09-06T09:18:38.000Z</time>
      </trkpt>
      <trkpt lat="49.15254" lon="1.80046">
        <ele>151</ele>
        <time>2015-09-06T09:18:40.000Z</time>
      </trkpt>
      <trkpt lat="49.15254" lon="1.80046">
        <ele>151</ele>
        <time>2015-09-06T09:18:42.000Z</time>
      </trkpt>
      <trkpt lat="49.15252" lon="1.80029">
        <ele>152</ele>
        <time>2015-09-06T09:18:44.000Z</time>
      </trkpt>
      <trkpt lat="49.15252" lon="1.80029">
        <ele>152</ele>
        <time>2015-09-06T09:18:46.000Z</time>
      </trkpt>
      <trkpt lat="49.15251" lon="1.80012">
        <ele>152</ele>
        <time>2015-09-06T09:18:48.000Z</time>
      </trkpt>
      <trkpt lat="49.1525" lon="1.80002">
        <ele>151</ele>
        <time>2015-09-06T09:18:50.000Z</time>
      </trkpt>
      <trkpt lat="49.15249" lon="1.79993">
        <ele>151</ele>
        <time>2015-09-06T09:18:52.000Z</time>
      </trkpt>
      <trkpt lat="49.15247" lon="1.79983">
        <ele>151</ele>
        <time>2015-09-06T09:18:54.000Z</time>
      </trkpt>
      <trkpt lat="49.15242" lon="1.79975">
        <ele>150</ele>
        <time>2015-09-06T09:18:56.000Z</time>
      </trkpt>
      <trkpt lat="49.15238" lon="1.79967">
        <ele>150</ele>
        <time>2015-09-06T09:18:58.000Z</time>
      </trkpt>
      <trkpt lat="49.15236" lon="1.79955">
        <ele>150</ele>
        <time>2015-09-06T09:19:00.000Z</time>
      </trkpt>
      <trkpt lat="49.15238" lon="1.79943">
        <ele>150</ele>
        <time>2015-09-06T09:19:02.000Z</time>
      </trkpt>
      <trkpt lat="49.15241" lon="1.79929">
        <ele>149</ele>
        <time>2015-09-06T09:19:04.000Z</time>
      </trkpt>
      <trkpt lat="49.15244" lon="1.79915">
        <ele>149</ele>
        <time>2015-09-06T09:19:06.000Z</time>
      </trkpt>
      <trkpt lat="49.15247" lon="1.79899">
        <ele>149</ele>
        <time>2015-09-06T09:19:08.000Z</time>
      </trkpt>
      <trkpt lat="49.1525" lon="1.79883">
        <ele>148</ele>
        <time>2015-09-06T09:19:10.000Z</time>
      </trkpt>
      <trkpt lat="49.15253" lon="1.79866">
        <ele>149</ele>
        <time>2015-09-06T09:19:12.000Z</time>
      </trkpt>
      <trkpt lat="49.15257" lon="1.79848">
        <ele>148</ele>
        <time>2015-09-06T09:19:14.000Z</time>
      </trkpt>
      <trkpt lat="49.15261" lon="1.79831">
        <ele>148</ele>
        <time>2015-09-06T09:19:16.000Z</time>
      </trkpt>
      <trkpt lat="49.15268" lon="1.79815">
        <ele>148</ele>
        <time>2015-09-06T09:19:18.000Z</time>
      </trkpt>
      <trkpt lat="49.15274" lon="1.79799">
        <ele>148</ele>
        <time>2015-09-06T09:19:20.000Z</time>
      </trkpt>
      <trkpt lat="49.15282" lon="1.79784">
        <ele>147</ele>
        <time>2015-09-06T09:19:22.000Z</time>
      </trkpt>
      <trkpt lat="49.15292" lon="1.79772">
        <ele>147</ele>
        <time>2015-09-06T09:19:24.000Z</time>
      </trkpt>
      <trkpt lat="49.153" lon="1.79761">
        <ele>147</ele>
        <time>2015-09-06T09:19:26.000Z</time>
      </trkpt>
      <trkpt lat="49.15309" lon="1.79749">
        <ele>147</ele>
        <time>2015-09-06T09:19:28.000Z</time>
      </trkpt>
      <trkpt lat="49.15317" lon="1.79738">
        <ele>147</ele>
        <time>2015-09-06T09:19:30.000Z</time>
      </trkpt>
      <trkpt lat="49.15325" lon="1.79727">
        <ele>147</ele>
        <time>2015-09-06T09:19:32.000Z</time>
      </trkpt>
      <trkpt lat="49.15332" lon="1.79714">
        <ele>146</ele>
        <time>2015-09-06T09:19:34.000Z</time>
      </trkpt>
      <trkpt lat="49.15339" lon="1.79699">
        <ele>146</ele>
        <time>2015-09-06T09:19:36.000Z</time>
      </trkpt>
      <trkpt lat="49.15344" lon="1.79684">
        <ele>145</ele>
        <time>2015-09-06T09:19:38.000Z</time>
      </trkpt>
      <trkpt lat="49.1535" lon="1.79666">
        <ele>145</ele>
        <time>2015-09-06T09:19:40.000Z</time>
      </trkpt>
      <trkpt lat="49.15355" lon="1.79648">
        <ele>144</ele>
        <time>2015-09-06T09:19:42.000Z</time>
      </trkpt>
      <trkpt lat="49.15359" lon="1.79628">
        <ele>143</ele>
        <time>2015-09-06T09:19:44.000Z</time>
      </trkpt>
      <trkpt lat="49.15364" lon="1.79607">
        <ele>143</ele>
        <time>2015-09-06T09:19:46.000Z</time>
      </trkpt>
      <trkpt lat="49.15369" lon="1.79584">
        <ele>142</ele>
        <time>2015-09-06T09:19:48.000Z</time>
      </trkpt>
      <trkpt lat="49.15371" lon="1.79559">
        <ele>141</ele>
        <time>2015-09-06T09:19:50.000Z</time>
      </trkpt>
      <trkpt lat="49.15373" lon="1.79533">
        <ele>140</ele>
        <time>2015-09-06T09:19:52.000Z</time>
      </trkpt>
      <trkpt lat="49.15373" lon="1.79507">
        <ele>138</ele>
        <time>2015-09-06T09:19:54.000Z</time>
      </trkpt>
      <trkpt lat="49.15372" lon="1.7948">
        <ele>137</ele>
        <time>2015-09-06T09:19:56.000Z</time>
      </trkpt>
      <trkpt lat="49.15372" lon="1.79455">
        <ele>136</ele>
        <time>2015-09-06T09:19:58.000Z</time>
      </trkpt>
      <trkpt lat="49.15373" lon="1.79432">
        <ele>135</ele>
        <time>2015-09-06T09:20:00.000Z</time>
      </trkpt>
      <trkpt lat="49.15375" lon="1.7941">
        <ele>135</ele>
        <time>2015-09-06T09:20:02.000Z</time>
      </trkpt>
      <trkpt lat="49.15379" lon="1.79389">
        <ele>134</ele>
        <time>2015-09-06T09:20:04.000Z</time>
      </trkpt>
      <trkpt lat="49.15385" lon="1.79368">
        <ele>134</ele>
        <time>2015-09-06T09:20:06.000Z</time>
      </trkpt>
      <trkpt lat="49.15392" lon="1.79349">
        <ele>133</ele>
        <time>2015-09-06T09:20:08.000Z</time>
      </trkpt>
      <trkpt lat="49.15398" lon="1.7933">
        <ele>132</ele>
        <time>2015-09-06T09:20:10.000Z</time>
      </trkpt>
      <trkpt lat="49.15404" lon="1.79311">
        <ele>132</ele>
        <time>2015-09-06T09:20:12.000Z</time>
      </trkpt>
      <trkpt lat="49.1541" lon="1.79292">
        <ele>131</ele>
        <time>2015-09-06T09:20:14.000Z</time>
      </trkpt>
      <trkpt lat="49.15416" lon="1.79272">
        <ele>131</ele>
        <time>2015-09-06T09:20:16.000Z</time>
      </trkpt>
      <trkpt lat="49.15422" lon="1.79252">
        <ele>130</ele>
        <time>2015-09-06T09:20:18.000Z</time>
      </trkpt>
      <trkpt lat="49.15429" lon="1.79231">
        <ele>130</ele>
        <time>2015-09-06T09:20:20.000Z</time>
      </trkpt>
      <trkpt lat="49.15434" lon="1.7921">
        <ele>129</ele>
        <time>2015-09-06T09:20:22.000Z</time>
      </trkpt>
      <trkpt lat="49.1544" lon="1.79189">
        <ele>129</ele>
        <time>2015-09-06T09:20:24.000Z</time>
      </trkpt>
      <trkpt lat="49.15446" lon="1.79169">
        <ele>128</ele>
        <time>2015-09-06T09:20:26.000Z</time>
      </trkpt>
      <trkpt lat="49.15454" lon="1.79151">
        <ele>128</ele>
        <time>2015-09-06T09:20:28.000Z</time>
      </trkpt>
      <trkpt lat="49.15462" lon="1.79135">
        <ele>128</ele>
        <time>2015-09-06T09:20:30.000Z</time>
      </trkpt>
      <trkpt lat="49.15472" lon="1.79121">
        <ele>128</ele>
        <time>2015-09-06T09:20:32.000Z</time>
      </trkpt>
      <trkpt lat="49.1548" lon="1.79107">
        <ele>128</ele>
        <time>2015-09-06T09:20:34.000Z</time>
      </trkpt>
      <trkpt lat="49.15488" lon="1.79094">
        <ele>128</ele>
        <time>2015-09-06T09:20:36.000Z</time>
      </trkpt>
      <trkpt lat="49.15496" lon="1.79082">
        <ele>128</ele>
        <time>2015-09-06T09:20:38.000Z</time>
      </trkpt>
      <trkpt lat="49.15504" lon="1.79069">
        <ele>128</ele>
        <time>2015-09-06T09:20:40.000Z</time>
      </trkpt>
      <trkpt lat="49.15512" lon="1.79058">
        <ele>128</ele>
        <time>2015-09-06T09:20:42.000Z</time>
      </trkpt>
      <trkpt lat="49.1552" lon="1.79046">
        <ele>128</ele>
        <time>2015-09-06T09:20:44.000Z</time>
      </trkpt>
      <trkpt lat="49.15527" lon="1.79034">
        <ele>128</ele>
        <time>2015-09-06T09:20:46.000Z</time>
      </trkpt>
      <trkpt lat="49.15535" lon="1.79023">
        <ele>128</ele>
        <time>2015-09-06T09:20:48.000Z</time>
      </trkpt>
      <trkpt lat="49.15541" lon="1.79011">
        <ele>129</ele>
        <time>2015-09-06T09:20:50.000Z</time>
      </trkpt>
      <trkpt lat="49.15549" lon="1.78998">
        <ele>129</ele>
        <time>2015-09-06T09:20:52.000Z</time>
      </trkpt>
      <trkpt lat="49.15556" lon="1.78986">
        <ele>129</ele>
        <time>2015-09-06T09:20:54.000Z</time>
      </trkpt>
      <trkpt lat="49.15563" lon="1.78975">
        <ele>129</ele>
        <time>2015-09-06T09:20:56.000Z</time>
      </trkpt>
      <trkpt lat="49.1557" lon="1.78965">
        <ele>129</ele>
        <time>2015-09-06T09:20:58.000Z</time>
      </trkpt>
      <trkpt lat="49.15577" lon="1.78956">
        <ele>130</ele>
        <time>2015-09-06T09:21:00.000Z</time>
      </trkpt>
      <trkpt lat="49.15583" lon="1.78947">
        <ele>130</ele>
        <time>2015-09-06T09:21:02.000Z</time>
      </trkpt>
      <trkpt lat="49.15589" lon="1.78939">
        <ele>131</ele>
        <time>2015-09-06T09:21:04.000Z</time>
      </trkpt>
      <trkpt lat="49.15594" lon="1.78934">
        <ele>130</ele>
        <time>2015-09-06T09:21:06.000Z</time>
      </trkpt>
      <trkpt lat="49.15599" lon="1.7893">
        <ele>131</ele>
        <time>2015-09-06T09:21:08.000Z</time>
      </trkpt>
      <trkpt lat="49.15604" lon="1.78925">
        <ele>132</ele>
        <time>2015-09-06T09:21:10.000Z</time>
      </trkpt>
      <trkpt lat="49.15608" lon="1.78918">
        <ele>133</ele>
        <time>2015-09-06T09:21:12.000Z</time>
      </trkpt>
      <trkpt lat="49.15607" lon="1.78907">
        <ele>133</ele>
        <time>2015-09-06T09:21:14.000Z</time>
      </trkpt>
      <trkpt lat="49.15602" lon="1.78896">
        <ele>133</ele>
        <time>2015-09-06T09:21:16.000Z</time>
      </trkpt>
      <trkpt lat="49.15597" lon="1.78884">
        <ele>134</ele>
        <time>2015-09-06T09:21:18.000Z</time>
      </trkpt>
      <trkpt lat="49.15592" lon="1.78871">
        <ele>134</ele>
        <time>2015-09-06T09:21:20.000Z</time>
      </trkpt>
      <trkpt lat="49.15586" lon="1.7886">
        <ele>134</ele>
        <time>2015-09-06T09:21:22.000Z</time>
      </trkpt>
      <trkpt lat="49.15581" lon="1.7885">
        <ele>133</ele>
        <time>2015-09-06T09:21:24.000Z</time>
      </trkpt>
      <trkpt lat="49.15577" lon="1.7884">
        <ele>133</ele>
        <time>2015-09-06T09:21:26.000Z</time>
      </trkpt>
      <trkpt lat="49.15572" lon="1.7883">
        <ele>133</ele>
        <time>2015-09-06T09:21:28.000Z</time>
      </trkpt>
      <trkpt lat="49.15567" lon="1.7882">
        <ele>133</ele>
        <time>2015-09-06T09:21:30.000Z</time>
      </trkpt>
      <trkpt lat="49.15562" lon="1.78811">
        <ele>133</ele>
        <time>2015-09-06T09:21:32.000Z</time>
      </trkpt>
      <trkpt lat="49.15557" lon="1.788">
        <ele>133</ele>
        <time>2015-09-06T09:21:34.000Z</time>
      </trkpt>
      <trkpt lat="49.15555" lon="1.78786">
        <ele>132</ele>
        <time>2015-09-06T09:21:36.000Z</time>
      </trkpt>
      <trkpt lat="49.15554" lon="1.78772">
        <ele>132</ele>
        <time>2015-09-06T09:21:38.000Z</time>
      </trkpt>
      <trkpt lat="49.15552" lon="1.78759">
        <ele>131</ele>
        <time>2015-09-06T09:21:40.000Z</time>
      </trkpt>
      <trkpt lat="49.15548" lon="1.78747">
        <ele>132</ele>
        <time>2015-09-06T09:21:42.000Z</time>
      </trkpt>
      <trkpt lat="49.15543" lon="1.78736">
        <ele>132</ele>
        <time>2015-09-06T09:21:44.000Z</time>
      </trkpt>
      <trkpt lat="49.15539" lon="1.78724">
        <ele>132</ele>
        <time>2015-09-06T09:21:46.000Z</time>
      </trkpt>
      <trkpt lat="49.15534" lon="1.78715">
        <ele>132</ele>
        <time>2015-09-06T09:21:48.000Z</time>
      </trkpt>
      <trkpt lat="49.1553" lon="1.78708">
        <ele>131</ele>
        <time>2015-09-06T09:21:50.000Z</time>
      </trkpt>
      <trkpt lat="49.15526" lon="1.78701">
        <ele>130</ele>
        <time>2015-09-06T09:21:52.000Z</time>
      </trkpt>
      <trkpt lat="49.15526" lon="1.78701">
        <ele>130</ele>
        <time>2015-09-06T09:21:54.000Z</time>
      </trkpt>
      <trkpt lat="49.15523" lon="1.7869">
        <ele>131</ele>
        <time>2015-09-06T09:21:56.000Z</time>
      </trkpt>
      <trkpt lat="49.15523" lon="1.7869">
        <ele>131</ele>
        <time>2015-09-06T09:21:58.000Z</time>
      </trkpt>
      <trkpt lat="49.15523" lon="1.7869">
        <ele>131</ele>
        <time>2015-09-06T09:22:00.000Z</time>
      </trkpt>
      <trkpt lat="49.15532" lon="1.78683">
        <ele>129</ele>
        <time>2015-09-06T09:22:28.000Z</time>
      </trkpt>
      <trkpt lat="49.15538" lon="1.78682">
        <ele>130</ele>
        <time>2015-09-06T09:22:30.000Z</time>
      </trkpt>
      <trkpt lat="49.15546" lon="1.78681">
        <ele>130</ele>
        <time>2015-09-06T09:22:32.000Z</time>
      </trkpt>
      <trkpt lat="49.15554" lon="1.7868">
        <ele>131</ele>
        <time>2015-09-06T09:22:34.000Z</time>
      </trkpt>
      <trkpt lat="49.15562" lon="1.78676">
        <ele>131</ele>
        <time>2015-09-06T09:22:36.000Z</time>
      </trkpt>
      <trkpt lat="49.15568" lon="1.78667">
        <ele>132</ele>
        <time>2015-09-06T09:22:38.000Z</time>
      </trkpt>
      <trkpt lat="49.15569" lon="1.78651">
        <ele>133</ele>
        <time>2015-09-06T09:22:40.000Z</time>
      </trkpt>
      <trkpt lat="49.15568" lon="1.78634">
        <ele>133</ele>
        <time>2015-09-06T09:22:42.000Z</time>
      </trkpt>
      <trkpt lat="49.15567" lon="1.78615">
        <ele>133</ele>
        <time>2015-09-06T09:22:44.000Z</time>
      </trkpt>
      <trkpt lat="49.15566" lon="1.78594">
        <ele>132</ele>
        <time>2015-09-06T09:22:46.000Z</time>
      </trkpt>
      <trkpt lat="49.15564" lon="1.78573">
        <ele>131</ele>
        <time>2015-09-06T09:22:48.000Z</time>
      </trkpt>
      <trkpt lat="49.15562" lon="1.7855">
        <ele>130</ele>
        <time>2015-09-06T09:22:50.000Z</time>
      </trkpt>
      <trkpt lat="49.1556" lon="1.78527">
        <ele>130</ele>
        <time>2015-09-06T09:22:52.000Z</time>
      </trkpt>
      <trkpt lat="49.15559" lon="1.78507">
        <ele>130</ele>
        <time>2015-09-06T09:22:54.000Z</time>
      </trkpt>
      <trkpt lat="49.15562" lon="1.7849">
        <ele>130</ele>
        <time>2015-09-06T09:22:56.000Z</time>
      </trkpt>
      <trkpt lat="49.15571" lon="1.78476">
        <ele>130</ele>
        <time>2015-09-06T09:22:58.000Z</time>
      </trkpt>
      <trkpt lat="49.15583" lon="1.78464">
        <ele>130</ele>
        <time>2015-09-06T09:23:00.000Z</time>
      </trkpt>
      <trkpt lat="49.15594" lon="1.78453">
        <ele>131</ele>
        <time>2015-09-06T09:23:02.000Z</time>
      </trkpt>
      <trkpt lat="49.15605" lon="1.78442">
        <ele>132</ele>
        <time>2015-09-06T09:23:04.000Z</time>
      </trkpt>
      <trkpt lat="49.15615" lon="1.78429">
        <ele>132</ele>
        <time>2015-09-06T09:23:06.000Z</time>
      </trkpt>
      <trkpt lat="49.15625" lon="1.78414">
        <ele>131</ele>
        <time>2015-09-06T09:23:08.000Z</time>
      </trkpt>
      <trkpt lat="49.15636" lon="1.78397">
        <ele>130</ele>
        <time>2015-09-06T09:23:10.000Z</time>
      </trkpt>
      <trkpt lat="49.15646" lon="1.78382">
        <ele>131</ele>
        <time>2015-09-06T09:23:12.000Z</time>
      </trkpt>
      <trkpt lat="49.15657" lon="1.78371">
        <ele>131</ele>
        <time>2015-09-06T09:23:14.000Z</time>
      </trkpt>
      <trkpt lat="49.15668" lon="1.78363">
        <ele>132</ele>
        <time>2015-09-06T09:23:16.000Z</time>
      </trkpt>
      <trkpt lat="49.1568" lon="1.78357">
        <ele>133</ele>
        <time>2015-09-06T09:23:18.000Z</time>
      </trkpt>
      <trkpt lat="49.15691" lon="1.78352">
        <ele>134</ele>
        <time>2015-09-06T09:23:20.000Z</time>
      </trkpt>
      <trkpt lat="49.15702" lon="1.78348">
        <ele>135</ele>
        <time>2015-09-06T09:23:22.000Z</time>
      </trkpt>
      <trkpt lat="49.15712" lon="1.78347">
        <ele>135</ele>
        <time>2015-09-06T09:23:24.000Z</time>
      </trkpt>
      <trkpt lat="49.15721" lon="1.78349">
        <ele>132</ele>
        <time>2015-09-06T09:23:26.000Z</time>
      </trkpt>
      <trkpt lat="49.15728" lon="1.78348">
        <ele>129</ele>
        <time>2015-09-06T09:23:28.000Z</time>
      </trkpt>
      <trkpt lat="49.15736" lon="1.78348">
        <ele>128</ele>
        <time>2015-09-06T09:23:30.000Z</time>
      </trkpt>
      <trkpt lat="49.15744" lon="1.78345">
        <ele>128</ele>
        <time>2015-09-06T09:23:32.000Z</time>
      </trkpt>
      <trkpt lat="49.15752" lon="1.78342">
        <ele>128</ele>
        <time>2015-09-06T09:23:34.000Z</time>
      </trkpt>
      <trkpt lat="49.1576" lon="1.7834">
        <ele>128</ele>
        <time>2015-09-06T09:23:36.000Z</time>
      </trkpt>
      <trkpt lat="49.15768" lon="1.7834">
        <ele>129</ele>
        <time>2015-09-06T09:23:38.000Z</time>
      </trkpt>
      <trkpt lat="49.15776" lon="1.78341">
        <ele>129</ele>
        <time>2015-09-06T09:23:40.000Z</time>
      </trkpt>
      <trkpt lat="49.15782" lon="1.78347">
        <ele>131</ele>
        <time>2015-09-06T09:23:42.000Z</time>
      </trkpt>
      <trkpt lat="49.15783" lon="1.78356">
        <ele>131</ele>
        <time>2015-09-06T09:23:44.000Z</time>
      </trkpt>
      <trkpt lat="49.15783" lon="1.78365">
        <ele>130</ele>
        <time>2015-09-06T09:23:46.000Z</time>
      </trkpt>
      <trkpt lat="49.15783" lon="1.78365">
        <ele>130</ele>
        <time>2015-09-06T09:23:48.000Z</time>
      </trkpt>
      <trkpt lat="49.15784" lon="1.78382">
        <ele>130</ele>
        <time>2015-09-06T09:23:50.000Z</time>
      </trkpt>
      <trkpt lat="49.15785" lon="1.78391">
        <ele>130</ele>
        <time>2015-09-06T09:23:52.000Z</time>
      </trkpt>
      <trkpt lat="49.15786" lon="1.784">
        <ele>130</ele>
        <time>2015-09-06T09:23:54.000Z</time>
      </trkpt>
      <trkpt lat="49.15787" lon="1.78411">
        <ele>129</ele>
        <time>2015-09-06T09:23:56.000Z</time>
      </trkpt>
      <trkpt lat="49.15789" lon="1.78422">
        <ele>129</ele>
        <time>2015-09-06T09:23:58.000Z</time>
      </trkpt>
      <trkpt lat="49.15791" lon="1.78434">
        <ele>128</ele>
        <time>2015-09-06T09:24:00.000Z</time>
      </trkpt>
      <trkpt lat="49.15794" lon="1.78445">
        <ele>128</ele>
        <time>2015-09-06T09:24:02.000Z</time>
      </trkpt>
      <trkpt lat="49.15796" lon="1.78456">
        <ele>127</ele>
        <time>2015-09-06T09:24:04.000Z</time>
      </trkpt>
      <trkpt lat="49.15799" lon="1.78466">
        <ele>127</ele>
        <time>2015-09-06T09:24:06.000Z</time>
      </trkpt>
      <trkpt lat="49.15799" lon="1.78466">
        <ele>127</ele>
        <time>2015-09-06T09:24:08.000Z</time>
      </trkpt>
      <trkpt lat="49.15804" lon="1.78475">
        <ele>126</ele>
        <time>2015-09-06T09:24:10.000Z</time>
      </trkpt>
      <trkpt lat="49.15804" lon="1.78475">
        <ele>126</ele>
        <time>2015-09-06T09:24:12.000Z</time>
      </trkpt>
    </trkseg>
  </trk>
</gpx>